<?xml version="1.0" encoding="UTF-8" standalone="no" ?>
<gpx xmlns="http://www.topografix.com/GPX/1/1" xmlns:xsi="http://www.w3.org/2001/XMLSchema-instance" xsi:schemaLocation="http://www.topografix.com/GPX/1/1 http://www.topografix.com/GPX/1/1/gpx.xsd" version="1.1" creator="VisuGPX - https://www.visugpx.com">
  <metadata>
    <name>Pornichet 02092021</name>
    <desc><![CDATA[Sortie Kerhinet jeudi 02 septembre 2021]]></desc>
  </metadata>
  <trk>
    <name><![CDATA[Pornichet Cyclisme]]></name>
    <trkseg>
      <trkpt lat="47.26405" lon="-2.31558">
        <ele>9.6</ele>
        <time>2021-09-02T06:48:30.000Z</time>
      </trkpt>
      <trkpt lat="47.26407" lon="-2.31576">
        <ele>9.6</ele>
        <time>2021-09-02T06:48:34.000Z</time>
      </trkpt>
      <trkpt lat="47.26407" lon="-2.31581">
        <ele>1.6000000238419</ele>
        <time>2021-09-02T06:48:35.000Z</time>
      </trkpt>
      <trkpt lat="47.26408" lon="-2.31586">
        <ele>3.4000000953674</ele>
        <time>2021-09-02T06:48:36.000Z</time>
      </trkpt>
      <trkpt lat="47.26408" lon="-2.31591">
        <ele>5.4000000953674</ele>
        <time>2021-09-02T06:48:37.000Z</time>
      </trkpt>
      <trkpt lat="47.26409" lon="-2.31624">
        <ele>5.4000000953674</ele>
        <time>2021-09-02T06:48:43.000Z</time>
      </trkpt>
      <trkpt lat="47.2641" lon="-2.31653">
        <ele>5.4000000953674</ele>
        <time>2021-09-02T06:48:48.000Z</time>
      </trkpt>
      <trkpt lat="47.26409" lon="-2.31657">
        <ele>5.4000000953674</ele>
        <time>2021-09-02T06:48:49.000Z</time>
      </trkpt>
      <trkpt lat="47.26398" lon="-2.31667">
        <ele>5.4000000953674</ele>
        <time>2021-09-02T06:48:53.000Z</time>
      </trkpt>
      <trkpt lat="47.26372" lon="-2.31683">
        <ele>5.4000000953674</ele>
        <time>2021-09-02T06:49:00.000Z</time>
      </trkpt>
      <trkpt lat="47.26353" lon="-2.31695">
        <ele>3.7999999523163</ele>
        <time>2021-09-02T06:49:04.000Z</time>
      </trkpt>
      <trkpt lat="47.26349" lon="-2.31698">
        <ele>2.2000000476837</ele>
        <time>2021-09-02T06:49:05.000Z</time>
      </trkpt>
      <trkpt lat="47.26344" lon="-2.31701">
        <ele>0.60000002384186</ele>
        <time>2021-09-02T06:49:06.000Z</time>
      </trkpt>
      <trkpt lat="47.26339" lon="-2.31703">
        <ele>-1</ele>
        <time>2021-09-02T06:49:07.000Z</time>
      </trkpt>
      <trkpt lat="47.26334" lon="-2.31705">
        <ele>-2.5999999046326</ele>
        <time>2021-09-02T06:49:08.000Z</time>
      </trkpt>
      <trkpt lat="47.26314" lon="-2.31713">
        <ele>-2.5999999046326</ele>
        <time>2021-09-02T06:49:12.000Z</time>
      </trkpt>
      <trkpt lat="47.26309" lon="-2.31716">
        <ele>-2.5999999046326</ele>
        <time>2021-09-02T06:49:13.000Z</time>
      </trkpt>
      <trkpt lat="47.26305" lon="-2.31719">
        <ele>-3.2000000476837</ele>
        <time>2021-09-02T06:49:14.000Z</time>
      </trkpt>
      <trkpt lat="47.26303" lon="-2.31726">
        <ele>-3.5999999046326</ele>
        <time>2021-09-02T06:49:15.000Z</time>
      </trkpt>
      <trkpt lat="47.26303" lon="-2.31732">
        <ele>-4</ele>
        <time>2021-09-02T06:49:16.000Z</time>
      </trkpt>
      <trkpt lat="47.26304" lon="-2.31739">
        <ele>-4.4000000953674</ele>
        <time>2021-09-02T06:49:17.000Z</time>
      </trkpt>
      <trkpt lat="47.26304" lon="-2.31745">
        <ele>-4.8000001907349</ele>
        <time>2021-09-02T06:49:18.000Z</time>
      </trkpt>
      <trkpt lat="47.26305" lon="-2.31752">
        <ele>-4.8000001907349</ele>
        <time>2021-09-02T06:49:19.000Z</time>
      </trkpt>
      <trkpt lat="47.2631" lon="-2.31791">
        <ele>-4.8000001907349</ele>
        <time>2021-09-02T06:49:25.000Z</time>
      </trkpt>
      <trkpt lat="47.26311" lon="-2.31805">
        <ele>-4.8000001907349</ele>
        <time>2021-09-02T06:49:26.000Z</time>
      </trkpt>
      <trkpt lat="47.26309" lon="-2.31837">
        <ele>-4.8000001907349</ele>
        <time>2021-09-02T06:49:32.000Z</time>
      </trkpt>
      <trkpt lat="47.26308" lon="-2.31875">
        <ele>-4.8000001907349</ele>
        <time>2021-09-02T06:49:38.000Z</time>
      </trkpt>
      <trkpt lat="47.26306" lon="-2.3188">
        <ele>-4.8000001907349</ele>
        <time>2021-09-02T06:49:39.000Z</time>
      </trkpt>
      <trkpt lat="47.26301" lon="-2.31887">
        <ele>-5.1999998092651</ele>
        <time>2021-09-02T06:49:41.000Z</time>
      </trkpt>
      <trkpt lat="47.26298" lon="-2.3189">
        <ele>-5.5999999046326</ele>
        <time>2021-09-02T06:49:42.000Z</time>
      </trkpt>
      <trkpt lat="47.26294" lon="-2.31893">
        <ele>-6</ele>
        <time>2021-09-02T06:49:43.000Z</time>
      </trkpt>
      <trkpt lat="47.2629" lon="-2.31896">
        <ele>-6.4000000953674</ele>
        <time>2021-09-02T06:49:44.000Z</time>
      </trkpt>
      <trkpt lat="47.26287" lon="-2.319">
        <ele>-6.8000001907349</ele>
        <time>2021-09-02T06:49:45.000Z</time>
      </trkpt>
      <trkpt lat="47.2628" lon="-2.31909">
        <ele>-6.8000001907349</ele>
        <time>2021-09-02T06:49:47.000Z</time>
      </trkpt>
      <trkpt lat="47.26276" lon="-2.31914">
        <ele>-6.8000001907349</ele>
        <time>2021-09-02T06:49:48.000Z</time>
      </trkpt>
      <trkpt lat="47.26255" lon="-2.31955">
        <ele>-6.8000001907349</ele>
        <time>2021-09-02T06:49:55.000Z</time>
      </trkpt>
      <trkpt lat="47.26252" lon="-2.31961">
        <ele>-6.8000001907349</ele>
        <time>2021-09-02T06:49:56.000Z</time>
      </trkpt>
      <trkpt lat="47.26241" lon="-2.31972">
        <ele>-6.8000001907349</ele>
        <time>2021-09-02T06:49:59.000Z</time>
      </trkpt>
      <trkpt lat="47.26237" lon="-2.31974">
        <ele>-6.8000001907349</ele>
        <time>2021-09-02T06:50:00.000Z</time>
      </trkpt>
      <trkpt lat="47.26234" lon="-2.31975">
        <ele>-6.8000001907349</ele>
        <time>2021-09-02T06:50:01.000Z</time>
      </trkpt>
      <trkpt lat="47.26229" lon="-2.31981">
        <ele>-6.8000001907349</ele>
        <time>2021-09-02T06:50:03.000Z</time>
      </trkpt>
      <trkpt lat="47.26223" lon="-2.31986">
        <ele>-6.8000001907349</ele>
        <time>2021-09-02T06:50:05.000Z</time>
      </trkpt>
      <trkpt lat="47.2621" lon="-2.31997">
        <ele>-6.8000001907349</ele>
        <time>2021-09-02T06:50:09.000Z</time>
      </trkpt>
      <trkpt lat="47.26207" lon="-2.31999">
        <ele>-6.8000001907349</ele>
        <time>2021-09-02T06:50:10.000Z</time>
      </trkpt>
      <trkpt lat="47.26204" lon="-2.32005">
        <ele>-6.8000001907349</ele>
        <time>2021-09-02T06:50:12.000Z</time>
      </trkpt>
      <trkpt lat="47.26196" lon="-2.32018">
        <ele>-6.8000001907349</ele>
        <time>2021-09-02T06:50:17.000Z</time>
      </trkpt>
      <trkpt lat="47.26182" lon="-2.32018">
        <ele>-6.8000001907349</ele>
        <time>2021-09-02T06:50:22.000Z</time>
      </trkpt>
      <trkpt lat="47.26176" lon="-2.32021">
        <ele>-6.8000001907349</ele>
        <time>2021-09-02T06:50:24.000Z</time>
      </trkpt>
      <trkpt lat="47.26162" lon="-2.32034">
        <ele>-6.8000001907349</ele>
        <time>2021-09-02T06:50:28.000Z</time>
      </trkpt>
      <trkpt lat="47.26153" lon="-2.32063">
        <ele>-6.8000001907349</ele>
        <time>2021-09-02T06:50:33.000Z</time>
      </trkpt>
      <trkpt lat="47.2614" lon="-2.32109">
        <ele>-6.8000001907349</ele>
        <time>2021-09-02T06:50:41.000Z</time>
      </trkpt>
      <trkpt lat="47.26126" lon="-2.32155">
        <ele>-6.8000001907349</ele>
        <time>2021-09-02T06:50:49.000Z</time>
      </trkpt>
      <trkpt lat="47.26111" lon="-2.32188">
        <ele>-6.8000001907349</ele>
        <time>2021-09-02T06:50:55.000Z</time>
      </trkpt>
      <trkpt lat="47.26086" lon="-2.32231">
        <ele>-6.8000001907349</ele>
        <time>2021-09-02T06:51:04.000Z</time>
      </trkpt>
      <trkpt lat="47.26061" lon="-2.32264">
        <ele>-6.8000001907349</ele>
        <time>2021-09-02T06:51:11.000Z</time>
      </trkpt>
      <trkpt lat="47.26035" lon="-2.32289">
        <ele>-6.8000001907349</ele>
        <time>2021-09-02T06:51:17.000Z</time>
      </trkpt>
      <trkpt lat="47.26032" lon="-2.32293">
        <ele>-6.8000001907349</ele>
        <time>2021-09-02T06:51:18.000Z</time>
      </trkpt>
      <trkpt lat="47.26004" lon="-2.32328">
        <ele>-6.8000001907349</ele>
        <time>2021-09-02T06:51:26.000Z</time>
      </trkpt>
      <trkpt lat="47.25977" lon="-2.32363">
        <ele>-6.8000001907349</ele>
        <time>2021-09-02T06:51:34.000Z</time>
      </trkpt>
      <trkpt lat="47.25946" lon="-2.32404">
        <ele>-6.8000001907349</ele>
        <time>2021-09-02T06:51:43.000Z</time>
      </trkpt>
      <trkpt lat="47.25915" lon="-2.32441">
        <ele>-6.8000001907349</ele>
        <time>2021-09-02T06:51:51.000Z</time>
      </trkpt>
      <trkpt lat="47.25904" lon="-2.32453">
        <ele>-6.8000001907349</ele>
        <time>2021-09-02T06:51:54.000Z</time>
      </trkpt>
      <trkpt lat="47.25901" lon="-2.32463">
        <ele>-6.8000001907349</ele>
        <time>2021-09-02T06:51:56.000Z</time>
      </trkpt>
      <trkpt lat="47.25906" lon="-2.32474">
        <ele>-6.8000001907349</ele>
        <time>2021-09-02T06:51:59.000Z</time>
      </trkpt>
      <trkpt lat="47.25913" lon="-2.32481">
        <ele>-6.8000001907349</ele>
        <time>2021-09-02T06:52:01.000Z</time>
      </trkpt>
      <trkpt lat="47.25917" lon="-2.32486">
        <ele>-6.8000001907349</ele>
        <time>2021-09-02T06:52:02.000Z</time>
      </trkpt>
      <trkpt lat="47.25923" lon="-2.32497">
        <ele>-6.8000001907349</ele>
        <time>2021-09-02T06:52:04.000Z</time>
      </trkpt>
      <trkpt lat="47.2594" lon="-2.32539">
        <ele>-6.8000001907349</ele>
        <time>2021-09-02T06:52:11.000Z</time>
      </trkpt>
      <trkpt lat="47.25954" lon="-2.32586">
        <ele>-6.8000001907349</ele>
        <time>2021-09-02T06:52:18.000Z</time>
      </trkpt>
      <trkpt lat="47.25961" lon="-2.32627">
        <ele>-6.8000001907349</ele>
        <time>2021-09-02T06:52:24.000Z</time>
      </trkpt>
      <trkpt lat="47.25961" lon="-2.32634">
        <ele>-6.8000001907349</ele>
        <time>2021-09-02T06:52:25.000Z</time>
      </trkpt>
      <trkpt lat="47.25966" lon="-2.32657">
        <ele>-6.8000001907349</ele>
        <time>2021-09-02T06:52:30.000Z</time>
      </trkpt>
      <trkpt lat="47.2598" lon="-2.32656">
        <ele>-6.8000001907349</ele>
        <time>2021-09-02T06:52:34.000Z</time>
      </trkpt>
      <trkpt lat="47.25988" lon="-2.32656">
        <ele>-6.8000001907349</ele>
        <time>2021-09-02T06:52:36.000Z</time>
      </trkpt>
      <trkpt lat="47.26004" lon="-2.32655">
        <ele>-6.8000001907349</ele>
        <time>2021-09-02T06:52:40.000Z</time>
      </trkpt>
      <trkpt lat="47.26032" lon="-2.3265">
        <ele>-6.8000001907349</ele>
        <time>2021-09-02T06:52:47.000Z</time>
      </trkpt>
      <trkpt lat="47.26055" lon="-2.32646">
        <ele>-6.8000001907349</ele>
        <time>2021-09-02T06:52:53.000Z</time>
      </trkpt>
      <trkpt lat="47.26083" lon="-2.32641">
        <ele>-6.8000001907349</ele>
        <time>2021-09-02T06:53:00.000Z</time>
      </trkpt>
      <trkpt lat="47.26111" lon="-2.32638">
        <ele>-6.8000001907349</ele>
        <time>2021-09-02T06:53:07.000Z</time>
      </trkpt>
      <trkpt lat="47.26139" lon="-2.3264">
        <ele>-6.8000001907349</ele>
        <time>2021-09-02T06:53:14.000Z</time>
      </trkpt>
      <trkpt lat="47.26168" lon="-2.32652">
        <ele>-6.8000001907349</ele>
        <time>2021-09-02T06:53:21.000Z</time>
      </trkpt>
      <trkpt lat="47.26196" lon="-2.32674">
        <ele>-6.8000001907349</ele>
        <time>2021-09-02T06:53:28.000Z</time>
      </trkpt>
      <trkpt lat="47.26227" lon="-2.32711">
        <ele>-6.8000001907349</ele>
        <time>2021-09-02T06:53:37.000Z</time>
      </trkpt>
      <trkpt lat="47.26266" lon="-2.32772">
        <ele>-6.8000001907349</ele>
        <time>2021-09-02T06:53:48.000Z</time>
      </trkpt>
      <trkpt lat="47.26275" lon="-2.3279">
        <ele>-6.8000001907349</ele>
        <time>2021-09-02T06:53:51.000Z</time>
      </trkpt>
      <trkpt lat="47.26284" lon="-2.32816">
        <ele>-6.8000001907349</ele>
        <time>2021-09-02T06:53:55.000Z</time>
      </trkpt>
      <trkpt lat="47.26287" lon="-2.32831">
        <ele>-6.8000001907349</ele>
        <time>2021-09-02T06:53:57.000Z</time>
      </trkpt>
      <trkpt lat="47.26287" lon="-2.32838">
        <ele>-7.4000000953674</ele>
        <time>2021-09-02T06:53:58.000Z</time>
      </trkpt>
      <trkpt lat="47.26289" lon="-2.32846">
        <ele>-7.8000001907349</ele>
        <time>2021-09-02T06:53:59.000Z</time>
      </trkpt>
      <trkpt lat="47.26291" lon="-2.32852">
        <ele>-8.1999998092651</ele>
        <time>2021-09-02T06:54:00.000Z</time>
      </trkpt>
      <trkpt lat="47.26295" lon="-2.32858">
        <ele>-8.6000003814697</ele>
        <time>2021-09-02T06:54:01.000Z</time>
      </trkpt>
      <trkpt lat="47.26299" lon="-2.32862">
        <ele>-9</ele>
        <time>2021-09-02T06:54:02.000Z</time>
      </trkpt>
      <trkpt lat="47.26303" lon="-2.32865">
        <ele>-9</ele>
        <time>2021-09-02T06:54:03.000Z</time>
      </trkpt>
      <trkpt lat="47.26308" lon="-2.32867">
        <ele>-9</ele>
        <time>2021-09-02T06:54:04.000Z</time>
      </trkpt>
      <trkpt lat="47.26313" lon="-2.3287">
        <ele>-9</ele>
        <time>2021-09-02T06:54:05.000Z</time>
      </trkpt>
      <trkpt lat="47.2632" lon="-2.3288">
        <ele>-9</ele>
        <time>2021-09-02T06:54:07.000Z</time>
      </trkpt>
      <trkpt lat="47.26338" lon="-2.32934">
        <ele>-9</ele>
        <time>2021-09-02T06:54:15.000Z</time>
      </trkpt>
      <trkpt lat="47.26355" lon="-2.32978">
        <ele>-9</ele>
        <time>2021-09-02T06:54:22.000Z</time>
      </trkpt>
      <trkpt lat="47.26366" lon="-2.33">
        <ele>-9</ele>
        <time>2021-09-02T06:54:26.000Z</time>
      </trkpt>
      <trkpt lat="47.26367" lon="-2.33021">
        <ele>-9</ele>
        <time>2021-09-02T06:54:29.000Z</time>
      </trkpt>
      <trkpt lat="47.26368" lon="-2.33043">
        <ele>-9</ele>
        <time>2021-09-02T06:54:32.000Z</time>
      </trkpt>
      <trkpt lat="47.26372" lon="-2.33108">
        <ele>-9</ele>
        <time>2021-09-02T06:54:41.000Z</time>
      </trkpt>
      <trkpt lat="47.26377" lon="-2.3317">
        <ele>-9</ele>
        <time>2021-09-02T06:54:50.000Z</time>
      </trkpt>
      <trkpt lat="47.2638" lon="-2.33233">
        <ele>-9</ele>
        <time>2021-09-02T06:54:59.000Z</time>
      </trkpt>
      <trkpt lat="47.26382" lon="-2.33239">
        <ele>-9</ele>
        <time>2021-09-02T06:55:00.000Z</time>
      </trkpt>
      <trkpt lat="47.26385" lon="-2.33253">
        <ele>-9</ele>
        <time>2021-09-02T06:55:02.000Z</time>
      </trkpt>
      <trkpt lat="47.2639" lon="-2.33264">
        <ele>-9</ele>
        <time>2021-09-02T06:55:04.000Z</time>
      </trkpt>
      <trkpt lat="47.26402" lon="-2.3327">
        <ele>-9</ele>
        <time>2021-09-02T06:55:07.000Z</time>
      </trkpt>
      <trkpt lat="47.26407" lon="-2.33271">
        <ele>-9</ele>
        <time>2021-09-02T06:55:08.000Z</time>
      </trkpt>
      <trkpt lat="47.26439" lon="-2.33272">
        <ele>-9</ele>
        <time>2021-09-02T06:55:15.000Z</time>
      </trkpt>
      <trkpt lat="47.26479" lon="-2.33279">
        <ele>-9</ele>
        <time>2021-09-02T06:55:24.000Z</time>
      </trkpt>
      <trkpt lat="47.26505" lon="-2.33282">
        <ele>-9</ele>
        <time>2021-09-02T06:55:31.000Z</time>
      </trkpt>
      <trkpt lat="47.26512" lon="-2.33286">
        <ele>-9</ele>
        <time>2021-09-02T06:55:36.000Z</time>
      </trkpt>
      <trkpt lat="47.26526" lon="-2.3329">
        <ele>-9</ele>
        <time>2021-09-02T06:55:41.000Z</time>
      </trkpt>
      <trkpt lat="47.26532" lon="-2.3329">
        <ele>-9</ele>
        <time>2021-09-02T06:55:43.000Z</time>
      </trkpt>
      <trkpt lat="47.26537" lon="-2.33296">
        <ele>-9</ele>
        <time>2021-09-02T06:55:45.000Z</time>
      </trkpt>
      <trkpt lat="47.26542" lon="-2.33299">
        <ele>-9</ele>
        <time>2021-09-02T06:55:47.000Z</time>
      </trkpt>
      <trkpt lat="47.26545" lon="-2.33297">
        <ele>-9</ele>
        <time>2021-09-02T06:55:48.000Z</time>
      </trkpt>
      <trkpt lat="47.26562" lon="-2.33276">
        <ele>-9</ele>
        <time>2021-09-02T06:55:54.000Z</time>
      </trkpt>
      <trkpt lat="47.26588" lon="-2.3325">
        <ele>-9</ele>
        <time>2021-09-02T06:56:01.000Z</time>
      </trkpt>
      <trkpt lat="47.2662" lon="-2.33217">
        <ele>-9</ele>
        <time>2021-09-02T06:56:10.000Z</time>
      </trkpt>
      <trkpt lat="47.26646" lon="-2.33191">
        <ele>-9</ele>
        <time>2021-09-02T06:56:17.000Z</time>
      </trkpt>
      <trkpt lat="47.26671" lon="-2.33166">
        <ele>-9</ele>
        <time>2021-09-02T06:56:24.000Z</time>
      </trkpt>
      <trkpt lat="47.26674" lon="-2.33162">
        <ele>-9</ele>
        <time>2021-09-02T06:56:25.000Z</time>
      </trkpt>
      <trkpt lat="47.267" lon="-2.33134">
        <ele>-9</ele>
        <time>2021-09-02T06:56:32.000Z</time>
      </trkpt>
      <trkpt lat="47.26727" lon="-2.33108">
        <ele>-9</ele>
        <time>2021-09-02T06:56:39.000Z</time>
      </trkpt>
      <trkpt lat="47.2675" lon="-2.33085">
        <ele>-9</ele>
        <time>2021-09-02T06:56:46.000Z</time>
      </trkpt>
      <trkpt lat="47.26754" lon="-2.33086">
        <ele>-9</ele>
        <time>2021-09-02T06:56:47.000Z</time>
      </trkpt>
      <trkpt lat="47.26761" lon="-2.33092">
        <ele>-9</ele>
        <time>2021-09-02T06:56:49.000Z</time>
      </trkpt>
      <trkpt lat="47.26767" lon="-2.33117">
        <ele>-9</ele>
        <time>2021-09-02T06:56:53.000Z</time>
      </trkpt>
      <trkpt lat="47.26762" lon="-2.33147">
        <ele>-9</ele>
        <time>2021-09-02T06:56:57.000Z</time>
      </trkpt>
      <trkpt lat="47.26759" lon="-2.3316">
        <ele>-9</ele>
        <time>2021-09-02T06:56:59.000Z</time>
      </trkpt>
      <trkpt lat="47.26751" lon="-2.33192">
        <ele>-9</ele>
        <time>2021-09-02T06:57:04.000Z</time>
      </trkpt>
      <trkpt lat="47.2674" lon="-2.3323">
        <ele>-9</ele>
        <time>2021-09-02T06:57:10.000Z</time>
      </trkpt>
      <trkpt lat="47.26733" lon="-2.33262">
        <ele>-9</ele>
        <time>2021-09-02T06:57:14.000Z</time>
      </trkpt>
      <trkpt lat="47.26733" lon="-2.33277">
        <ele>-9</ele>
        <time>2021-09-02T06:57:16.000Z</time>
      </trkpt>
      <trkpt lat="47.26735" lon="-2.33289">
        <ele>-9</ele>
        <time>2021-09-02T06:57:18.000Z</time>
      </trkpt>
      <trkpt lat="47.26737" lon="-2.33295">
        <ele>-9</ele>
        <time>2021-09-02T06:57:19.000Z</time>
      </trkpt>
      <trkpt lat="47.26747" lon="-2.33336">
        <ele>-9</ele>
        <time>2021-09-02T06:57:25.000Z</time>
      </trkpt>
      <trkpt lat="47.26754" lon="-2.33372">
        <ele>-9</ele>
        <time>2021-09-02T06:57:30.000Z</time>
      </trkpt>
      <trkpt lat="47.26759" lon="-2.3343">
        <ele>-9</ele>
        <time>2021-09-02T06:57:38.000Z</time>
      </trkpt>
      <trkpt lat="47.26764" lon="-2.33479">
        <ele>-9</ele>
        <time>2021-09-02T06:57:45.000Z</time>
      </trkpt>
      <trkpt lat="47.26773" lon="-2.33531">
        <ele>-9</ele>
        <time>2021-09-02T06:57:52.000Z</time>
      </trkpt>
      <trkpt lat="47.26775" lon="-2.33538">
        <ele>-9</ele>
        <time>2021-09-02T06:57:53.000Z</time>
      </trkpt>
      <trkpt lat="47.26778" lon="-2.33558">
        <ele>-9</ele>
        <time>2021-09-02T06:57:56.000Z</time>
      </trkpt>
      <trkpt lat="47.2678" lon="-2.33581">
        <ele>-9</ele>
        <time>2021-09-02T06:57:59.000Z</time>
      </trkpt>
      <trkpt lat="47.2678" lon="-2.33635">
        <ele>-9</ele>
        <time>2021-09-02T06:58:07.000Z</time>
      </trkpt>
      <trkpt lat="47.2678" lon="-2.33685">
        <ele>-9</ele>
        <time>2021-09-02T06:58:15.000Z</time>
      </trkpt>
      <trkpt lat="47.26783" lon="-2.33701">
        <ele>-9</ele>
        <time>2021-09-02T06:58:18.000Z</time>
      </trkpt>
      <trkpt lat="47.26786" lon="-2.33706">
        <ele>-9</ele>
        <time>2021-09-02T06:58:19.000Z</time>
      </trkpt>
      <trkpt lat="47.26792" lon="-2.33715">
        <ele>-8.6000003814697</ele>
        <time>2021-09-02T06:58:21.000Z</time>
      </trkpt>
      <trkpt lat="47.26795" lon="-2.33719">
        <ele>-8.1999998092651</ele>
        <time>2021-09-02T06:58:22.000Z</time>
      </trkpt>
      <trkpt lat="47.26799" lon="-2.33723">
        <ele>-7.5999999046326</ele>
        <time>2021-09-02T06:58:23.000Z</time>
      </trkpt>
      <trkpt lat="47.26802" lon="-2.33727">
        <ele>-7.1999998092651</ele>
        <time>2021-09-02T06:58:24.000Z</time>
      </trkpt>
      <trkpt lat="47.26806" lon="-2.33731">
        <ele>-6.8000001907349</ele>
        <time>2021-09-02T06:58:25.000Z</time>
      </trkpt>
      <trkpt lat="47.26816" lon="-2.33743">
        <ele>-6.8000001907349</ele>
        <time>2021-09-02T06:58:28.000Z</time>
      </trkpt>
      <trkpt lat="47.26827" lon="-2.33753">
        <ele>-6.8000001907349</ele>
        <time>2021-09-02T06:58:31.000Z</time>
      </trkpt>
      <trkpt lat="47.26841" lon="-2.33771">
        <ele>-6.8000001907349</ele>
        <time>2021-09-02T06:58:35.000Z</time>
      </trkpt>
      <trkpt lat="47.26849" lon="-2.33777">
        <ele>-6.8000001907349</ele>
        <time>2021-09-02T06:58:37.000Z</time>
      </trkpt>
      <trkpt lat="47.26857" lon="-2.3378">
        <ele>-6.8000001907349</ele>
        <time>2021-09-02T06:58:39.000Z</time>
      </trkpt>
      <trkpt lat="47.26878" lon="-2.3379">
        <ele>-6.8000001907349</ele>
        <time>2021-09-02T06:58:44.000Z</time>
      </trkpt>
      <trkpt lat="47.26893" lon="-2.33799">
        <ele>-6.8000001907349</ele>
        <time>2021-09-02T06:58:48.000Z</time>
      </trkpt>
      <trkpt lat="47.26898" lon="-2.33807">
        <ele>-6.8000001907349</ele>
        <time>2021-09-02T06:58:50.000Z</time>
      </trkpt>
      <trkpt lat="47.26903" lon="-2.33825">
        <ele>-6.8000001907349</ele>
        <time>2021-09-02T06:58:53.000Z</time>
      </trkpt>
      <trkpt lat="47.26906" lon="-2.33838">
        <ele>-6.8000001907349</ele>
        <time>2021-09-02T06:58:55.000Z</time>
      </trkpt>
      <trkpt lat="47.26915" lon="-2.33876">
        <ele>-6.8000001907349</ele>
        <time>2021-09-02T06:59:01.000Z</time>
      </trkpt>
      <trkpt lat="47.26926" lon="-2.33932">
        <ele>-6.8000001907349</ele>
        <time>2021-09-02T06:59:10.000Z</time>
      </trkpt>
      <trkpt lat="47.2694" lon="-2.33992">
        <ele>-6.8000001907349</ele>
        <time>2021-09-02T06:59:20.000Z</time>
      </trkpt>
      <trkpt lat="47.26949" lon="-2.34028">
        <ele>-6.4000000953674</ele>
        <time>2021-09-02T06:59:26.000Z</time>
      </trkpt>
      <trkpt lat="47.2695" lon="-2.34034">
        <ele>-6</ele>
        <time>2021-09-02T06:59:27.000Z</time>
      </trkpt>
      <trkpt lat="47.26951" lon="-2.3404">
        <ele>-5.5999999046326</ele>
        <time>2021-09-02T06:59:28.000Z</time>
      </trkpt>
      <trkpt lat="47.26952" lon="-2.34047">
        <ele>-5.1999998092651</ele>
        <time>2021-09-02T06:59:29.000Z</time>
      </trkpt>
      <trkpt lat="47.26954" lon="-2.34053">
        <ele>-4.8000001907349</ele>
        <time>2021-09-02T06:59:30.000Z</time>
      </trkpt>
      <trkpt lat="47.26962" lon="-2.34084">
        <ele>-4.8000001907349</ele>
        <time>2021-09-02T06:59:35.000Z</time>
      </trkpt>
      <trkpt lat="47.26976" lon="-2.34148">
        <ele>-4.8000001907349</ele>
        <time>2021-09-02T06:59:45.000Z</time>
      </trkpt>
      <trkpt lat="47.26988" lon="-2.34197">
        <ele>-4.8000001907349</ele>
        <time>2021-09-02T06:59:53.000Z</time>
      </trkpt>
      <trkpt lat="47.26999" lon="-2.34246">
        <ele>-4.8000001907349</ele>
        <time>2021-09-02T07:00:01.000Z</time>
      </trkpt>
      <trkpt lat="47.27007" lon="-2.34288">
        <ele>-4.8000001907349</ele>
        <time>2021-09-02T07:00:08.000Z</time>
      </trkpt>
      <trkpt lat="47.27009" lon="-2.34314">
        <ele>-4.8000001907349</ele>
        <time>2021-09-02T07:00:13.000Z</time>
      </trkpt>
      <trkpt lat="47.27017" lon="-2.3432">
        <ele>-4.8000001907349</ele>
        <time>2021-09-02T07:00:16.000Z</time>
      </trkpt>
      <trkpt lat="47.27024" lon="-2.34321">
        <ele>-4.8000001907349</ele>
        <time>2021-09-02T07:00:18.000Z</time>
      </trkpt>
      <trkpt lat="47.27038" lon="-2.3432">
        <ele>-4.8000001907349</ele>
        <time>2021-09-02T07:00:22.000Z</time>
      </trkpt>
      <trkpt lat="47.27043" lon="-2.34323">
        <ele>-4.8000001907349</ele>
        <time>2021-09-02T07:00:24.000Z</time>
      </trkpt>
      <trkpt lat="47.27043" lon="-2.34327">
        <ele>-4.8000001907349</ele>
        <time>2021-09-02T07:00:25.000Z</time>
      </trkpt>
      <trkpt lat="47.27044" lon="-2.34339">
        <ele>-4.8000001907349</ele>
        <time>2021-09-02T07:00:27.000Z</time>
      </trkpt>
      <trkpt lat="47.27046" lon="-2.34352">
        <ele>-4.8000001907349</ele>
        <time>2021-09-02T07:00:29.000Z</time>
      </trkpt>
      <trkpt lat="47.27056" lon="-2.34396">
        <ele>-4.8000001907349</ele>
        <time>2021-09-02T07:00:36.000Z</time>
      </trkpt>
      <trkpt lat="47.27069" lon="-2.34458">
        <ele>-4.8000001907349</ele>
        <time>2021-09-02T07:00:45.000Z</time>
      </trkpt>
      <trkpt lat="47.27082" lon="-2.34512">
        <ele>-4.8000001907349</ele>
        <time>2021-09-02T07:00:53.000Z</time>
      </trkpt>
      <trkpt lat="47.27097" lon="-2.34582">
        <ele>-4.8000001907349</ele>
        <time>2021-09-02T07:01:03.000Z</time>
      </trkpt>
      <trkpt lat="47.2711" lon="-2.3464">
        <ele>-4.8000001907349</ele>
        <time>2021-09-02T07:01:10.000Z</time>
      </trkpt>
      <trkpt lat="47.27127" lon="-2.34717">
        <ele>-4.8000001907349</ele>
        <time>2021-09-02T07:01:19.000Z</time>
      </trkpt>
      <trkpt lat="47.27129" lon="-2.34726">
        <ele>-4.8000001907349</ele>
        <time>2021-09-02T07:01:20.000Z</time>
      </trkpt>
      <trkpt lat="47.27142" lon="-2.34789">
        <ele>-4.8000001907349</ele>
        <time>2021-09-02T07:01:28.000Z</time>
      </trkpt>
      <trkpt lat="47.27153" lon="-2.34845">
        <ele>-4.8000001907349</ele>
        <time>2021-09-02T07:01:35.000Z</time>
      </trkpt>
      <trkpt lat="47.27166" lon="-2.34891">
        <ele>-4.8000001907349</ele>
        <time>2021-09-02T07:01:41.000Z</time>
      </trkpt>
      <trkpt lat="47.27177" lon="-2.34928">
        <ele>-4.4000000953674</ele>
        <time>2021-09-02T07:01:46.000Z</time>
      </trkpt>
      <trkpt lat="47.2718" lon="-2.34935">
        <ele>-3.5999999046326</ele>
        <time>2021-09-02T07:01:47.000Z</time>
      </trkpt>
      <trkpt lat="47.27182" lon="-2.34942">
        <ele>-3.2000000476837</ele>
        <time>2021-09-02T07:01:48.000Z</time>
      </trkpt>
      <trkpt lat="47.27185" lon="-2.3495">
        <ele>-2.7999999523163</ele>
        <time>2021-09-02T07:01:49.000Z</time>
      </trkpt>
      <trkpt lat="47.27207" lon="-2.35015">
        <ele>-2.7999999523163</ele>
        <time>2021-09-02T07:01:58.000Z</time>
      </trkpt>
      <trkpt lat="47.27228" lon="-2.35073">
        <ele>-2.7999999523163</ele>
        <time>2021-09-02T07:02:06.000Z</time>
      </trkpt>
      <trkpt lat="47.27238" lon="-2.35094">
        <ele>-2.7999999523163</ele>
        <time>2021-09-02T07:02:09.000Z</time>
      </trkpt>
      <trkpt lat="47.27247" lon="-2.35112">
        <ele>-2.7999999523163</ele>
        <time>2021-09-02T07:02:12.000Z</time>
      </trkpt>
      <trkpt lat="47.27253" lon="-2.35123">
        <ele>-2.7999999523163</ele>
        <time>2021-09-02T07:02:14.000Z</time>
      </trkpt>
      <trkpt lat="47.27259" lon="-2.35127">
        <ele>-2.7999999523163</ele>
        <time>2021-09-02T07:02:16.000Z</time>
      </trkpt>
      <trkpt lat="47.27271" lon="-2.35121">
        <ele>-2.7999999523163</ele>
        <time>2021-09-02T07:02:19.000Z</time>
      </trkpt>
      <trkpt lat="47.27276" lon="-2.35118">
        <ele>-2.7999999523163</ele>
        <time>2021-09-02T07:02:20.000Z</time>
      </trkpt>
      <trkpt lat="47.2728" lon="-2.35116">
        <ele>-2.7999999523163</ele>
        <time>2021-09-02T07:02:21.000Z</time>
      </trkpt>
      <trkpt lat="47.273" lon="-2.35108">
        <ele>-2.7999999523163</ele>
        <time>2021-09-02T07:02:26.000Z</time>
      </trkpt>
      <trkpt lat="47.27305" lon="-2.35111">
        <ele>-2.7999999523163</ele>
        <time>2021-09-02T07:02:27.000Z</time>
      </trkpt>
      <trkpt lat="47.27311" lon="-2.3512">
        <ele>-2.7999999523163</ele>
        <time>2021-09-02T07:02:29.000Z</time>
      </trkpt>
      <trkpt lat="47.27316" lon="-2.3514">
        <ele>-2.7999999523163</ele>
        <time>2021-09-02T07:02:32.000Z</time>
      </trkpt>
      <trkpt lat="47.27319" lon="-2.35155">
        <ele>-2.4000000953674</ele>
        <time>2021-09-02T07:02:34.000Z</time>
      </trkpt>
      <trkpt lat="47.27321" lon="-2.35162">
        <ele>-1.7999999523163</ele>
        <time>2021-09-02T07:02:35.000Z</time>
      </trkpt>
      <trkpt lat="47.27322" lon="-2.35169">
        <ele>-1</ele>
        <time>2021-09-02T07:02:36.000Z</time>
      </trkpt>
      <trkpt lat="47.27324" lon="-2.35177">
        <ele>-0.60000002384186</ele>
        <time>2021-09-02T07:02:37.000Z</time>
      </trkpt>
      <trkpt lat="47.2733" lon="-2.35208">
        <ele>-0.60000002384186</ele>
        <time>2021-09-02T07:02:41.000Z</time>
      </trkpt>
      <trkpt lat="47.27342" lon="-2.35263">
        <ele>-0.60000002384186</ele>
        <time>2021-09-02T07:02:48.000Z</time>
      </trkpt>
      <trkpt lat="47.27348" lon="-2.35289">
        <ele>-0.60000002384186</ele>
        <time>2021-09-02T07:02:52.000Z</time>
      </trkpt>
      <trkpt lat="47.2735" lon="-2.35296">
        <ele>-0.60000002384186</ele>
        <time>2021-09-02T07:02:53.000Z</time>
      </trkpt>
      <trkpt lat="47.27357" lon="-2.35328">
        <ele>-1</ele>
        <time>2021-09-02T07:02:57.000Z</time>
      </trkpt>
      <trkpt lat="47.27359" lon="-2.35336">
        <ele>-1.3999999761581</ele>
        <time>2021-09-02T07:02:58.000Z</time>
      </trkpt>
      <trkpt lat="47.27361" lon="-2.35344">
        <ele>-1.7999999523163</ele>
        <time>2021-09-02T07:02:59.000Z</time>
      </trkpt>
      <trkpt lat="47.27363" lon="-2.35353">
        <ele>-2.2000000476837</ele>
        <time>2021-09-02T07:03:00.000Z</time>
      </trkpt>
      <trkpt lat="47.27365" lon="-2.35361">
        <ele>-2.5999999046326</ele>
        <time>2021-09-02T07:03:01.000Z</time>
      </trkpt>
      <trkpt lat="47.27374" lon="-2.35404">
        <ele>-2.5999999046326</ele>
        <time>2021-09-02T07:03:06.000Z</time>
      </trkpt>
      <trkpt lat="47.27379" lon="-2.35431">
        <ele>-3.2000000476837</ele>
        <time>2021-09-02T07:03:09.000Z</time>
      </trkpt>
      <trkpt lat="47.27381" lon="-2.35439">
        <ele>-3.5999999046326</ele>
        <time>2021-09-02T07:03:10.000Z</time>
      </trkpt>
      <trkpt lat="47.27383" lon="-2.35449">
        <ele>-4</ele>
        <time>2021-09-02T07:03:11.000Z</time>
      </trkpt>
      <trkpt lat="47.27385" lon="-2.35458">
        <ele>-4.4000000953674</ele>
        <time>2021-09-02T07:03:12.000Z</time>
      </trkpt>
      <trkpt lat="47.27387" lon="-2.35467">
        <ele>-4.8000001907349</ele>
        <time>2021-09-02T07:03:13.000Z</time>
      </trkpt>
      <trkpt lat="47.274" lon="-2.35527">
        <ele>-5.1999998092651</ele>
        <time>2021-09-02T07:03:20.000Z</time>
      </trkpt>
      <trkpt lat="47.27401" lon="-2.35536">
        <ele>-5.5999999046326</ele>
        <time>2021-09-02T07:03:21.000Z</time>
      </trkpt>
      <trkpt lat="47.27403" lon="-2.35545">
        <ele>-6</ele>
        <time>2021-09-02T07:03:22.000Z</time>
      </trkpt>
      <trkpt lat="47.27404" lon="-2.35554">
        <ele>-6.4000000953674</ele>
        <time>2021-09-02T07:03:23.000Z</time>
      </trkpt>
      <trkpt lat="47.27405" lon="-2.35563">
        <ele>-6.8000001907349</ele>
        <time>2021-09-02T07:03:24.000Z</time>
      </trkpt>
      <trkpt lat="47.2741" lon="-2.35607">
        <ele>-6.8000001907349</ele>
        <time>2021-09-02T07:03:29.000Z</time>
      </trkpt>
      <trkpt lat="47.27412" lon="-2.35622">
        <ele>-7.1999998092651</ele>
        <time>2021-09-02T07:03:31.000Z</time>
      </trkpt>
      <trkpt lat="47.27413" lon="-2.35627">
        <ele>-7.5999999046326</ele>
        <time>2021-09-02T07:03:32.000Z</time>
      </trkpt>
      <trkpt lat="47.27413" lon="-2.35633">
        <ele>-8</ele>
        <time>2021-09-02T07:03:33.000Z</time>
      </trkpt>
      <trkpt lat="47.27414" lon="-2.35638">
        <ele>-8.6000003814697</ele>
        <time>2021-09-02T07:03:34.000Z</time>
      </trkpt>
      <trkpt lat="47.27415" lon="-2.35645">
        <ele>-9</ele>
        <time>2021-09-02T07:03:35.000Z</time>
      </trkpt>
      <trkpt lat="47.27423" lon="-2.35665">
        <ele>-9</ele>
        <time>2021-09-02T07:03:38.000Z</time>
      </trkpt>
      <trkpt lat="47.27437" lon="-2.35677">
        <ele>-9</ele>
        <time>2021-09-02T07:03:41.000Z</time>
      </trkpt>
      <trkpt lat="47.27452" lon="-2.3568">
        <ele>-9</ele>
        <time>2021-09-02T07:03:44.000Z</time>
      </trkpt>
      <trkpt lat="47.27458" lon="-2.35681">
        <ele>-9</ele>
        <time>2021-09-02T07:03:45.000Z</time>
      </trkpt>
      <trkpt lat="47.27474" lon="-2.35682">
        <ele>-9</ele>
        <time>2021-09-02T07:03:48.000Z</time>
      </trkpt>
      <trkpt lat="47.27489" lon="-2.35684">
        <ele>-9</ele>
        <time>2021-09-02T07:03:51.000Z</time>
      </trkpt>
      <trkpt lat="47.27527" lon="-2.35689">
        <ele>-9</ele>
        <time>2021-09-02T07:03:58.000Z</time>
      </trkpt>
      <trkpt lat="47.27557" lon="-2.35695">
        <ele>-9</ele>
        <time>2021-09-02T07:04:04.000Z</time>
      </trkpt>
      <trkpt lat="47.27595" lon="-2.35705">
        <ele>-9</ele>
        <time>2021-09-02T07:04:12.000Z</time>
      </trkpt>
      <trkpt lat="47.2761" lon="-2.35708">
        <ele>-8.6000003814697</ele>
        <time>2021-09-02T07:04:15.000Z</time>
      </trkpt>
      <trkpt lat="47.27615" lon="-2.35709">
        <ele>-8.1999998092651</ele>
        <time>2021-09-02T07:04:16.000Z</time>
      </trkpt>
      <trkpt lat="47.2762" lon="-2.3571">
        <ele>-7.8000001907349</ele>
        <time>2021-09-02T07:04:17.000Z</time>
      </trkpt>
      <trkpt lat="47.27625" lon="-2.35711">
        <ele>-7.4000000953674</ele>
        <time>2021-09-02T07:04:18.000Z</time>
      </trkpt>
      <trkpt lat="47.2763" lon="-2.35712">
        <ele>-7</ele>
        <time>2021-09-02T07:04:19.000Z</time>
      </trkpt>
      <trkpt lat="47.27662" lon="-2.35721">
        <ele>-7</ele>
        <time>2021-09-02T07:04:26.000Z</time>
      </trkpt>
      <trkpt lat="47.2767" lon="-2.35723">
        <ele>-7</ele>
        <time>2021-09-02T07:04:28.000Z</time>
      </trkpt>
      <trkpt lat="47.27678" lon="-2.35724">
        <ele>-7</ele>
        <time>2021-09-02T07:04:30.000Z</time>
      </trkpt>
      <trkpt lat="47.27692" lon="-2.35724">
        <ele>-7</ele>
        <time>2021-09-02T07:04:33.000Z</time>
      </trkpt>
      <trkpt lat="47.27701" lon="-2.35719">
        <ele>-7</ele>
        <time>2021-09-02T07:04:35.000Z</time>
      </trkpt>
      <trkpt lat="47.27705" lon="-2.35716">
        <ele>-6.5999999046326</ele>
        <time>2021-09-02T07:04:36.000Z</time>
      </trkpt>
      <trkpt lat="47.27709" lon="-2.35712">
        <ele>-6.1999998092651</ele>
        <time>2021-09-02T07:04:37.000Z</time>
      </trkpt>
      <trkpt lat="47.27713" lon="-2.35708">
        <ele>-5.5999999046326</ele>
        <time>2021-09-02T07:04:38.000Z</time>
      </trkpt>
      <trkpt lat="47.27716" lon="-2.35704">
        <ele>-5.1999998092651</ele>
        <time>2021-09-02T07:04:39.000Z</time>
      </trkpt>
      <trkpt lat="47.27719" lon="-2.35699">
        <ele>-4.8000001907349</ele>
        <time>2021-09-02T07:04:40.000Z</time>
      </trkpt>
      <trkpt lat="47.27722" lon="-2.35695">
        <ele>-4.8000001907349</ele>
        <time>2021-09-02T07:04:41.000Z</time>
      </trkpt>
      <trkpt lat="47.27744" lon="-2.35663">
        <ele>-4.4000000953674</ele>
        <time>2021-09-02T07:04:48.000Z</time>
      </trkpt>
      <trkpt lat="47.27747" lon="-2.35658">
        <ele>-4</ele>
        <time>2021-09-02T07:04:49.000Z</time>
      </trkpt>
      <trkpt lat="47.2775" lon="-2.35653">
        <ele>-3.5999999046326</ele>
        <time>2021-09-02T07:04:50.000Z</time>
      </trkpt>
      <trkpt lat="47.27753" lon="-2.35649">
        <ele>-3.2000000476837</ele>
        <time>2021-09-02T07:04:51.000Z</time>
      </trkpt>
      <trkpt lat="47.27756" lon="-2.35645">
        <ele>-2.7999999523163</ele>
        <time>2021-09-02T07:04:52.000Z</time>
      </trkpt>
      <trkpt lat="47.27768" lon="-2.35634">
        <ele>-2.7999999523163</ele>
        <time>2021-09-02T07:04:55.000Z</time>
      </trkpt>
      <trkpt lat="47.27784" lon="-2.35621">
        <ele>-2.7999999523163</ele>
        <time>2021-09-02T07:04:59.000Z</time>
      </trkpt>
      <trkpt lat="47.27792" lon="-2.35617">
        <ele>-2.7999999523163</ele>
        <time>2021-09-02T07:05:01.000Z</time>
      </trkpt>
      <trkpt lat="47.27796" lon="-2.35614">
        <ele>-2.4000000953674</ele>
        <time>2021-09-02T07:05:02.000Z</time>
      </trkpt>
      <trkpt lat="47.278" lon="-2.35612">
        <ele>-2</ele>
        <time>2021-09-02T07:05:03.000Z</time>
      </trkpt>
      <trkpt lat="47.27804" lon="-2.35611">
        <ele>-1.2000000476837</ele>
        <time>2021-09-02T07:05:04.000Z</time>
      </trkpt>
      <trkpt lat="47.27809" lon="-2.35609">
        <ele>-0.80000001192093</ele>
        <time>2021-09-02T07:05:05.000Z</time>
      </trkpt>
      <trkpt lat="47.27816" lon="-2.35607">
        <ele>-0.80000001192093</ele>
        <time>2021-09-02T07:05:07.000Z</time>
      </trkpt>
      <trkpt lat="47.27845" lon="-2.35601">
        <ele>-0.80000001192093</ele>
        <time>2021-09-02T07:05:14.000Z</time>
      </trkpt>
      <trkpt lat="47.27862" lon="-2.35595">
        <ele>-0.80000001192093</ele>
        <time>2021-09-02T07:05:18.000Z</time>
      </trkpt>
      <trkpt lat="47.27881" lon="-2.35589">
        <ele>-0.40000000596046</ele>
        <time>2021-09-02T07:05:23.000Z</time>
      </trkpt>
      <trkpt lat="47.27884" lon="-2.35588">
        <ele>17</ele>
        <time>2021-09-02T07:05:24.000Z</time>
      </trkpt>
      <trkpt lat="47.27888" lon="-2.35588">
        <ele>0.40000000596046</ele>
        <time>2021-09-02T07:05:25.000Z</time>
      </trkpt>
      <trkpt lat="47.27891" lon="-2.35587">
        <ele>0.80000001192093</ele>
        <time>2021-09-02T07:05:26.000Z</time>
      </trkpt>
      <trkpt lat="47.27895" lon="-2.35586">
        <ele>1.2000000476837</ele>
        <time>2021-09-02T07:05:27.000Z</time>
      </trkpt>
      <trkpt lat="47.27915" lon="-2.35584">
        <ele>1.2000000476837</ele>
        <time>2021-09-02T07:05:32.000Z</time>
      </trkpt>
      <trkpt lat="47.27934" lon="-2.3559">
        <ele>1.2000000476837</ele>
        <time>2021-09-02T07:05:37.000Z</time>
      </trkpt>
      <trkpt lat="47.27956" lon="-2.35582">
        <ele>1.2000000476837</ele>
        <time>2021-09-02T07:05:43.000Z</time>
      </trkpt>
      <trkpt lat="47.27974" lon="-2.35581">
        <ele>1.2000000476837</ele>
        <time>2021-09-02T07:05:48.000Z</time>
      </trkpt>
      <trkpt lat="47.27985" lon="-2.35584">
        <ele>1.6000000238419</ele>
        <time>2021-09-02T07:05:51.000Z</time>
      </trkpt>
      <trkpt lat="47.27987" lon="-2.35584">
        <ele>2.2000000476837</ele>
        <time>2021-09-02T07:05:52.000Z</time>
      </trkpt>
      <trkpt lat="47.27991" lon="-2.35583">
        <ele>3</ele>
        <time>2021-09-02T07:05:53.000Z</time>
      </trkpt>
      <trkpt lat="47.27994" lon="-2.35582">
        <ele>3.4000000953674</ele>
        <time>2021-09-02T07:05:54.000Z</time>
      </trkpt>
      <trkpt lat="47.28019" lon="-2.35575">
        <ele>3.4000000953674</ele>
        <time>2021-09-02T07:06:01.000Z</time>
      </trkpt>
      <trkpt lat="47.28039" lon="-2.35576">
        <ele>3.4000000953674</ele>
        <time>2021-09-02T07:06:07.000Z</time>
      </trkpt>
      <trkpt lat="47.28053" lon="-2.35581">
        <ele>3.4000000953674</ele>
        <time>2021-09-02T07:06:13.000Z</time>
      </trkpt>
      <trkpt lat="47.28065" lon="-2.35584">
        <ele>3.4000000953674</ele>
        <time>2021-09-02T07:06:20.000Z</time>
      </trkpt>
      <trkpt lat="47.28068" lon="-2.3559">
        <ele>3.4000000953674</ele>
        <time>2021-09-02T07:06:23.000Z</time>
      </trkpt>
      <trkpt lat="47.2807" lon="-2.35596">
        <ele>3.4000000953674</ele>
        <time>2021-09-02T07:06:25.000Z</time>
      </trkpt>
      <trkpt lat="47.28072" lon="-2.35601">
        <ele>3.4000000953674</ele>
        <time>2021-09-02T07:06:27.000Z</time>
      </trkpt>
      <trkpt lat="47.28077" lon="-2.35607">
        <ele>3.4000000953674</ele>
        <time>2021-09-02T07:06:31.000Z</time>
      </trkpt>
      <trkpt lat="47.28079" lon="-2.3561">
        <ele>3.4000000953674</ele>
        <time>2021-09-02T07:06:35.000Z</time>
      </trkpt>
      <trkpt lat="47.2808" lon="-2.35608">
        <ele>5.4000000953674</ele>
        <time>2021-09-02T07:09:58.000Z</time>
      </trkpt>
      <trkpt lat="47.28078" lon="-2.35606">
        <ele>5.4000000953674</ele>
        <time>2021-09-02T07:10:00.000Z</time>
      </trkpt>
      <trkpt lat="47.28073" lon="-2.35606">
        <ele>5.4000000953674</ele>
        <time>2021-09-02T07:10:03.000Z</time>
      </trkpt>
      <trkpt lat="47.28073" lon="-2.35615">
        <ele>5.4000000953674</ele>
        <time>2021-09-02T07:10:06.000Z</time>
      </trkpt>
      <trkpt lat="47.28076" lon="-2.35625">
        <ele>5.4000000953674</ele>
        <time>2021-09-02T07:10:10.000Z</time>
      </trkpt>
      <trkpt lat="47.28077" lon="-2.35633">
        <ele>5.4000000953674</ele>
        <time>2021-09-02T07:10:13.000Z</time>
      </trkpt>
      <trkpt lat="47.28082" lon="-2.35649">
        <ele>6</ele>
        <time>2021-09-02T07:10:18.000Z</time>
      </trkpt>
      <trkpt lat="47.28083" lon="-2.35652">
        <ele>6.4000000953674</ele>
        <time>2021-09-02T07:10:19.000Z</time>
      </trkpt>
      <trkpt lat="47.28084" lon="-2.35656">
        <ele>6.8000001907349</ele>
        <time>2021-09-02T07:10:20.000Z</time>
      </trkpt>
      <trkpt lat="47.28086" lon="-2.35661">
        <ele>7.1999998092651</ele>
        <time>2021-09-02T07:10:21.000Z</time>
      </trkpt>
      <trkpt lat="47.28087" lon="-2.35665">
        <ele>7.8000001907349</ele>
        <time>2021-09-02T07:10:22.000Z</time>
      </trkpt>
      <trkpt lat="47.28089" lon="-2.35674">
        <ele>8.1999998092651</ele>
        <time>2021-09-02T07:10:24.000Z</time>
      </trkpt>
      <trkpt lat="47.2809" lon="-2.35677">
        <ele>9</ele>
        <time>2021-09-02T07:10:25.000Z</time>
      </trkpt>
      <trkpt lat="47.2809" lon="-2.35681">
        <ele>9.3999996185303</ele>
        <time>2021-09-02T07:10:26.000Z</time>
      </trkpt>
      <trkpt lat="47.28091" lon="-2.35685">
        <ele>9.8000001907349</ele>
        <time>2021-09-02T07:10:27.000Z</time>
      </trkpt>
      <trkpt lat="47.28093" lon="-2.35703">
        <ele>9.8000001907349</ele>
        <time>2021-09-02T07:10:32.000Z</time>
      </trkpt>
      <trkpt lat="47.28089" lon="-2.35723">
        <ele>9.8000001907349</ele>
        <time>2021-09-02T07:10:38.000Z</time>
      </trkpt>
      <trkpt lat="47.28082" lon="-2.35751">
        <ele>9.8000001907349</ele>
        <time>2021-09-02T07:10:44.000Z</time>
      </trkpt>
      <trkpt lat="47.28076" lon="-2.3578">
        <ele>9.8000001907349</ele>
        <time>2021-09-02T07:10:50.000Z</time>
      </trkpt>
      <trkpt lat="47.28073" lon="-2.35795">
        <ele>9.3999996185303</ele>
        <time>2021-09-02T07:10:53.000Z</time>
      </trkpt>
      <trkpt lat="47.28074" lon="-2.358">
        <ele>9</ele>
        <time>2021-09-02T07:10:54.000Z</time>
      </trkpt>
      <trkpt lat="47.28077" lon="-2.35807">
        <ele>8.6000003814697</ele>
        <time>2021-09-02T07:10:55.000Z</time>
      </trkpt>
      <trkpt lat="47.2808" lon="-2.35813">
        <ele>8.1999998092651</ele>
        <time>2021-09-02T07:10:56.000Z</time>
      </trkpt>
      <trkpt lat="47.28083" lon="-2.35819">
        <ele>7.8000001907349</ele>
        <time>2021-09-02T07:10:57.000Z</time>
      </trkpt>
      <trkpt lat="47.28097" lon="-2.35847">
        <ele>7.8000001907349</ele>
        <time>2021-09-02T07:11:02.000Z</time>
      </trkpt>
      <trkpt lat="47.2812" lon="-2.35878">
        <ele>7.8000001907349</ele>
        <time>2021-09-02T07:11:09.000Z</time>
      </trkpt>
      <trkpt lat="47.28135" lon="-2.35895">
        <ele>7.8000001907349</ele>
        <time>2021-09-02T07:11:15.000Z</time>
      </trkpt>
      <trkpt lat="47.2815" lon="-2.3592">
        <ele>7.8000001907349</ele>
        <time>2021-09-02T07:11:20.000Z</time>
      </trkpt>
      <trkpt lat="47.28166" lon="-2.35954">
        <ele>7.4000000953674</ele>
        <time>2021-09-02T07:11:25.000Z</time>
      </trkpt>
      <trkpt lat="47.2817" lon="-2.3596">
        <ele>7</ele>
        <time>2021-09-02T07:11:26.000Z</time>
      </trkpt>
      <trkpt lat="47.28173" lon="-2.35967">
        <ele>6.5999999046326</ele>
        <time>2021-09-02T07:11:27.000Z</time>
      </trkpt>
      <trkpt lat="47.28176" lon="-2.35974">
        <ele>6</ele>
        <time>2021-09-02T07:11:28.000Z</time>
      </trkpt>
      <trkpt lat="47.28179" lon="-2.35982">
        <ele>5.5999999046326</ele>
        <time>2021-09-02T07:11:29.000Z</time>
      </trkpt>
      <trkpt lat="47.28189" lon="-2.36004">
        <ele>5.5999999046326</ele>
        <time>2021-09-02T07:11:32.000Z</time>
      </trkpt>
      <trkpt lat="47.28195" lon="-2.36016">
        <ele>5.1999998092651</ele>
        <time>2021-09-02T07:11:34.000Z</time>
      </trkpt>
      <trkpt lat="47.28198" lon="-2.36021">
        <ele>4.8000001907349</ele>
        <time>2021-09-02T07:11:35.000Z</time>
      </trkpt>
      <trkpt lat="47.282" lon="-2.36026">
        <ele>4.4000000953674</ele>
        <time>2021-09-02T07:11:36.000Z</time>
      </trkpt>
      <trkpt lat="47.28202" lon="-2.36032">
        <ele>4</ele>
        <time>2021-09-02T07:11:37.000Z</time>
      </trkpt>
      <trkpt lat="47.28205" lon="-2.36037">
        <ele>3.5999999046326</ele>
        <time>2021-09-02T07:11:38.000Z</time>
      </trkpt>
      <trkpt lat="47.28217" lon="-2.36064">
        <ele>3.5999999046326</ele>
        <time>2021-09-02T07:11:43.000Z</time>
      </trkpt>
      <trkpt lat="47.28229" lon="-2.36093">
        <ele>3.5999999046326</ele>
        <time>2021-09-02T07:11:48.000Z</time>
      </trkpt>
      <trkpt lat="47.2823" lon="-2.36097">
        <ele>4</ele>
        <time>2021-09-02T07:11:49.000Z</time>
      </trkpt>
      <trkpt lat="47.28232" lon="-2.36102">
        <ele>4.4000000953674</ele>
        <time>2021-09-02T07:11:50.000Z</time>
      </trkpt>
      <trkpt lat="47.28233" lon="-2.36106">
        <ele>4.8000001907349</ele>
        <time>2021-09-02T07:11:51.000Z</time>
      </trkpt>
      <trkpt lat="47.28235" lon="-2.36111">
        <ele>5.1999998092651</ele>
        <time>2021-09-02T07:11:52.000Z</time>
      </trkpt>
      <trkpt lat="47.28236" lon="-2.36116">
        <ele>5.5999999046326</ele>
        <time>2021-09-02T07:11:53.000Z</time>
      </trkpt>
      <trkpt lat="47.28239" lon="-2.36122">
        <ele>5.5999999046326</ele>
        <time>2021-09-02T07:11:54.000Z</time>
      </trkpt>
      <trkpt lat="47.28246" lon="-2.36147">
        <ele>5.5999999046326</ele>
        <time>2021-09-02T07:11:57.000Z</time>
      </trkpt>
      <trkpt lat="47.28254" lon="-2.36173">
        <ele>5.1999998092651</ele>
        <time>2021-09-02T07:12:00.000Z</time>
      </trkpt>
      <trkpt lat="47.28257" lon="-2.3618">
        <ele>4.8000001907349</ele>
        <time>2021-09-02T07:12:01.000Z</time>
      </trkpt>
      <trkpt lat="47.28259" lon="-2.36187">
        <ele>4.4000000953674</ele>
        <time>2021-09-02T07:12:02.000Z</time>
      </trkpt>
      <trkpt lat="47.28261" lon="-2.36193">
        <ele>3.7999999523163</ele>
        <time>2021-09-02T07:12:03.000Z</time>
      </trkpt>
      <trkpt lat="47.28264" lon="-2.36199">
        <ele>3.4000000953674</ele>
        <time>2021-09-02T07:12:04.000Z</time>
      </trkpt>
      <trkpt lat="47.28275" lon="-2.36223">
        <ele>3.4000000953674</ele>
        <time>2021-09-02T07:12:09.000Z</time>
      </trkpt>
      <trkpt lat="47.28289" lon="-2.36235">
        <ele>3.4000000953674</ele>
        <time>2021-09-02T07:12:13.000Z</time>
      </trkpt>
      <trkpt lat="47.28306" lon="-2.3624">
        <ele>3.4000000953674</ele>
        <time>2021-09-02T07:12:17.000Z</time>
      </trkpt>
      <trkpt lat="47.2831" lon="-2.36241">
        <ele>3.4000000953674</ele>
        <time>2021-09-02T07:12:18.000Z</time>
      </trkpt>
      <trkpt lat="47.28325" lon="-2.36245">
        <ele>4</ele>
        <time>2021-09-02T07:12:22.000Z</time>
      </trkpt>
      <trkpt lat="47.28329" lon="-2.36246">
        <ele>4.4000000953674</ele>
        <time>2021-09-02T07:12:23.000Z</time>
      </trkpt>
      <trkpt lat="47.28333" lon="-2.36248">
        <ele>4.8000001907349</ele>
        <time>2021-09-02T07:12:24.000Z</time>
      </trkpt>
      <trkpt lat="47.28337" lon="-2.36249">
        <ele>5.4000000953674</ele>
        <time>2021-09-02T07:12:25.000Z</time>
      </trkpt>
      <trkpt lat="47.2834" lon="-2.36251">
        <ele>5.8000001907349</ele>
        <time>2021-09-02T07:12:26.000Z</time>
      </trkpt>
      <trkpt lat="47.28352" lon="-2.36257">
        <ele>5.8000001907349</ele>
        <time>2021-09-02T07:12:30.000Z</time>
      </trkpt>
      <trkpt lat="47.28357" lon="-2.36268">
        <ele>5.8000001907349</ele>
        <time>2021-09-02T07:12:34.000Z</time>
      </trkpt>
      <trkpt lat="47.28356" lon="-2.36271">
        <ele>5.8000001907349</ele>
        <time>2021-09-02T07:12:35.000Z</time>
      </trkpt>
      <trkpt lat="47.28358" lon="-2.36289">
        <ele>5.8000001907349</ele>
        <time>2021-09-02T07:12:40.000Z</time>
      </trkpt>
      <trkpt lat="47.28359" lon="-2.36292">
        <ele>5.8000001907349</ele>
        <time>2021-09-02T07:12:41.000Z</time>
      </trkpt>
      <trkpt lat="47.28362" lon="-2.36297">
        <ele>6.1999998092651</ele>
        <time>2021-09-02T07:12:43.000Z</time>
      </trkpt>
      <trkpt lat="47.28364" lon="-2.36299">
        <ele>6.5999999046326</ele>
        <time>2021-09-02T07:12:44.000Z</time>
      </trkpt>
      <trkpt lat="47.28366" lon="-2.363">
        <ele>7</ele>
        <time>2021-09-02T07:12:45.000Z</time>
      </trkpt>
      <trkpt lat="47.28368" lon="-2.36302">
        <ele>7.4000000953674</ele>
        <time>2021-09-02T07:12:46.000Z</time>
      </trkpt>
      <trkpt lat="47.28371" lon="-2.36304">
        <ele>8</ele>
        <time>2021-09-02T07:12:47.000Z</time>
      </trkpt>
      <trkpt lat="47.28379" lon="-2.36315">
        <ele>8</ele>
        <time>2021-09-02T07:12:51.000Z</time>
      </trkpt>
      <trkpt lat="47.28387" lon="-2.36327">
        <ele>8.3999996185303</ele>
        <time>2021-09-02T07:12:55.000Z</time>
      </trkpt>
      <trkpt lat="47.28389" lon="-2.36329">
        <ele>8.8000001907349</ele>
        <time>2021-09-02T07:12:56.000Z</time>
      </trkpt>
      <trkpt lat="47.28391" lon="-2.36332">
        <ele>9.1999998092651</ele>
        <time>2021-09-02T07:12:57.000Z</time>
      </trkpt>
      <trkpt lat="47.28393" lon="-2.36335">
        <ele>9.6000003814697</ele>
        <time>2021-09-02T07:12:58.000Z</time>
      </trkpt>
      <trkpt lat="47.28395" lon="-2.36338">
        <ele>10</ele>
        <time>2021-09-02T07:12:59.000Z</time>
      </trkpt>
      <trkpt lat="47.28407" lon="-2.36354">
        <ele>10</ele>
        <time>2021-09-02T07:13:04.000Z</time>
      </trkpt>
      <trkpt lat="47.28426" lon="-2.36368">
        <ele>10</ele>
        <time>2021-09-02T07:13:10.000Z</time>
      </trkpt>
      <trkpt lat="47.28445" lon="-2.36387">
        <ele>10</ele>
        <time>2021-09-02T07:13:16.000Z</time>
      </trkpt>
      <trkpt lat="47.28448" lon="-2.36391">
        <ele>10.39999961853</ele>
        <time>2021-09-02T07:13:17.000Z</time>
      </trkpt>
      <trkpt lat="47.28451" lon="-2.36396">
        <ele>11.199999809265</ele>
        <time>2021-09-02T07:13:18.000Z</time>
      </trkpt>
      <trkpt lat="47.28454" lon="-2.36399">
        <ele>11.800000190735</ele>
        <time>2021-09-02T07:13:19.000Z</time>
      </trkpt>
      <trkpt lat="47.28457" lon="-2.36402">
        <ele>12.199999809265</ele>
        <time>2021-09-02T07:13:20.000Z</time>
      </trkpt>
      <trkpt lat="47.28466" lon="-2.36407">
        <ele>12.199999809265</ele>
        <time>2021-09-02T07:13:21.000Z</time>
      </trkpt>
      <trkpt lat="47.28482" lon="-2.36432">
        <ele>12.199999809265</ele>
        <time>2021-09-02T07:13:25.000Z</time>
      </trkpt>
      <trkpt lat="47.28507" lon="-2.36454">
        <ele>12.199999809265</ele>
        <time>2021-09-02T07:13:30.000Z</time>
      </trkpt>
      <trkpt lat="47.28518" lon="-2.36477">
        <ele>12.199999809265</ele>
        <time>2021-09-02T07:13:35.000Z</time>
      </trkpt>
      <trkpt lat="47.2852" lon="-2.36501">
        <ele>12.199999809265</ele>
        <time>2021-09-02T07:13:39.000Z</time>
      </trkpt>
      <trkpt lat="47.28518" lon="-2.36506">
        <ele>12.199999809265</ele>
        <time>2021-09-02T07:13:40.000Z</time>
      </trkpt>
      <trkpt lat="47.28513" lon="-2.36513">
        <ele>12.199999809265</ele>
        <time>2021-09-02T07:13:42.000Z</time>
      </trkpt>
      <trkpt lat="47.28494" lon="-2.36536">
        <ele>12.199999809265</ele>
        <time>2021-09-02T07:13:47.000Z</time>
      </trkpt>
      <trkpt lat="47.2849" lon="-2.36541">
        <ele>11.800000190735</ele>
        <time>2021-09-02T07:13:48.000Z</time>
      </trkpt>
      <trkpt lat="47.28486" lon="-2.36546">
        <ele>11.39999961853</ele>
        <time>2021-09-02T07:13:49.000Z</time>
      </trkpt>
      <trkpt lat="47.28482" lon="-2.36552">
        <ele>11</ele>
        <time>2021-09-02T07:13:50.000Z</time>
      </trkpt>
      <trkpt lat="47.28477" lon="-2.36556">
        <ele>10.60000038147</ele>
        <time>2021-09-02T07:13:51.000Z</time>
      </trkpt>
      <trkpt lat="47.28474" lon="-2.36562">
        <ele>10.199999809265</ele>
        <time>2021-09-02T07:13:52.000Z</time>
      </trkpt>
      <trkpt lat="47.28471" lon="-2.36569">
        <ele>10.199999809265</ele>
        <time>2021-09-02T07:13:53.000Z</time>
      </trkpt>
      <trkpt lat="47.28473" lon="-2.36591">
        <ele>10.199999809265</ele>
        <time>2021-09-02T07:13:56.000Z</time>
      </trkpt>
      <trkpt lat="47.28477" lon="-2.36605">
        <ele>10.199999809265</ele>
        <time>2021-09-02T07:13:58.000Z</time>
      </trkpt>
      <trkpt lat="47.28478" lon="-2.36612">
        <ele>10.199999809265</ele>
        <time>2021-09-02T07:13:59.000Z</time>
      </trkpt>
      <trkpt lat="47.2848" lon="-2.36618">
        <ele>9.8000001907349</ele>
        <time>2021-09-02T07:14:00.000Z</time>
      </trkpt>
      <trkpt lat="47.28482" lon="-2.36625">
        <ele>9.3999996185303</ele>
        <time>2021-09-02T07:14:01.000Z</time>
      </trkpt>
      <trkpt lat="47.28485" lon="-2.36631">
        <ele>9</ele>
        <time>2021-09-02T07:14:02.000Z</time>
      </trkpt>
      <trkpt lat="47.28487" lon="-2.36638">
        <ele>8.3999996185303</ele>
        <time>2021-09-02T07:14:03.000Z</time>
      </trkpt>
      <trkpt lat="47.28489" lon="-2.36644">
        <ele>8</ele>
        <time>2021-09-02T07:14:04.000Z</time>
      </trkpt>
      <trkpt lat="47.28494" lon="-2.36661">
        <ele>8</ele>
        <time>2021-09-02T07:14:07.000Z</time>
      </trkpt>
      <trkpt lat="47.28507" lon="-2.36683">
        <ele>8</ele>
        <time>2021-09-02T07:14:12.000Z</time>
      </trkpt>
      <trkpt lat="47.28521" lon="-2.36709">
        <ele>8</ele>
        <time>2021-09-02T07:14:17.000Z</time>
      </trkpt>
      <trkpt lat="47.28528" lon="-2.36722">
        <ele>7.5999999046326</ele>
        <time>2021-09-02T07:14:19.000Z</time>
      </trkpt>
      <trkpt lat="47.28532" lon="-2.36729">
        <ele>7.1999998092651</ele>
        <time>2021-09-02T07:14:20.000Z</time>
      </trkpt>
      <trkpt lat="47.28537" lon="-2.36736">
        <ele>6.8000001907349</ele>
        <time>2021-09-02T07:14:21.000Z</time>
      </trkpt>
      <trkpt lat="47.28541" lon="-2.36745">
        <ele>6.1999998092651</ele>
        <time>2021-09-02T07:14:22.000Z</time>
      </trkpt>
      <trkpt lat="47.28545" lon="-2.36752">
        <ele>5.8000001907349</ele>
        <time>2021-09-02T07:14:23.000Z</time>
      </trkpt>
      <trkpt lat="47.28549" lon="-2.3676">
        <ele>5.4000000953674</ele>
        <time>2021-09-02T07:14:24.000Z</time>
      </trkpt>
      <trkpt lat="47.28553" lon="-2.36767">
        <ele>5</ele>
        <time>2021-09-02T07:14:25.000Z</time>
      </trkpt>
      <trkpt lat="47.28557" lon="-2.36775">
        <ele>4.4000000953674</ele>
        <time>2021-09-02T07:14:26.000Z</time>
      </trkpt>
      <trkpt lat="47.28561" lon="-2.36782">
        <ele>4</ele>
        <time>2021-09-02T07:14:27.000Z</time>
      </trkpt>
      <trkpt lat="47.28565" lon="-2.3679">
        <ele>3.5999999046326</ele>
        <time>2021-09-02T07:14:28.000Z</time>
      </trkpt>
      <trkpt lat="47.28569" lon="-2.36798">
        <ele>3.5999999046326</ele>
        <time>2021-09-02T07:14:29.000Z</time>
      </trkpt>
      <trkpt lat="47.28588" lon="-2.36832">
        <ele>3.2000000476837</ele>
        <time>2021-09-02T07:14:34.000Z</time>
      </trkpt>
      <trkpt lat="47.28591" lon="-2.36838">
        <ele>2.7999999523163</ele>
        <time>2021-09-02T07:14:35.000Z</time>
      </trkpt>
      <trkpt lat="47.28595" lon="-2.36843">
        <ele>2.4000000953674</ele>
        <time>2021-09-02T07:14:36.000Z</time>
      </trkpt>
      <trkpt lat="47.28601" lon="-2.36846">
        <ele>2</ele>
        <time>2021-09-02T07:14:37.000Z</time>
      </trkpt>
      <trkpt lat="47.28605" lon="-2.36846">
        <ele>1.3999999761581</ele>
        <time>2021-09-02T07:14:38.000Z</time>
      </trkpt>
      <trkpt lat="47.28619" lon="-2.36835">
        <ele>1.3999999761581</ele>
        <time>2021-09-02T07:14:41.000Z</time>
      </trkpt>
      <trkpt lat="47.28622" lon="-2.36831">
        <ele>1.3999999761581</ele>
        <time>2021-09-02T07:14:42.000Z</time>
      </trkpt>
      <trkpt lat="47.28642" lon="-2.36809">
        <ele>1.3999999761581</ele>
        <time>2021-09-02T07:14:48.000Z</time>
      </trkpt>
      <trkpt lat="47.2866" lon="-2.36792">
        <ele>1.3999999761581</ele>
        <time>2021-09-02T07:14:54.000Z</time>
      </trkpt>
      <trkpt lat="47.2867" lon="-2.36794">
        <ele>2</ele>
        <time>2021-09-02T07:14:58.000Z</time>
      </trkpt>
      <trkpt lat="47.28673" lon="-2.36797">
        <ele>2.4000000953674</ele>
        <time>2021-09-02T07:14:59.000Z</time>
      </trkpt>
      <trkpt lat="47.28676" lon="-2.368">
        <ele>2.7999999523163</ele>
        <time>2021-09-02T07:15:00.000Z</time>
      </trkpt>
      <trkpt lat="47.28678" lon="-2.36804">
        <ele>3.2000000476837</ele>
        <time>2021-09-02T07:15:01.000Z</time>
      </trkpt>
      <trkpt lat="47.28681" lon="-2.36809">
        <ele>3.5999999046326</ele>
        <time>2021-09-02T07:15:02.000Z</time>
      </trkpt>
      <trkpt lat="47.28683" lon="-2.36815">
        <ele>3.5999999046326</ele>
        <time>2021-09-02T07:15:03.000Z</time>
      </trkpt>
      <trkpt lat="47.28685" lon="-2.36821">
        <ele>3.5999999046326</ele>
        <time>2021-09-02T07:15:04.000Z</time>
      </trkpt>
      <trkpt lat="47.28701" lon="-2.36861">
        <ele>3.5999999046326</ele>
        <time>2021-09-02T07:15:10.000Z</time>
      </trkpt>
      <trkpt lat="47.28703" lon="-2.36868">
        <ele>3.2000000476837</ele>
        <time>2021-09-02T07:15:11.000Z</time>
      </trkpt>
      <trkpt lat="47.28706" lon="-2.36874">
        <ele>2.7999999523163</ele>
        <time>2021-09-02T07:15:12.000Z</time>
      </trkpt>
      <trkpt lat="47.28708" lon="-2.3688">
        <ele>2.2000000476837</ele>
        <time>2021-09-02T07:15:13.000Z</time>
      </trkpt>
      <trkpt lat="47.2871" lon="-2.36884">
        <ele>1.7999999523163</ele>
        <time>2021-09-02T07:15:14.000Z</time>
      </trkpt>
      <trkpt lat="47.28711" lon="-2.36889">
        <ele>1.3999999761581</ele>
        <time>2021-09-02T07:15:15.000Z</time>
      </trkpt>
      <trkpt lat="47.2872" lon="-2.36907">
        <ele>1</ele>
        <time>2021-09-02T07:15:19.000Z</time>
      </trkpt>
      <trkpt lat="47.28726" lon="-2.36911">
        <ele>0.20000000298023</ele>
        <time>2021-09-02T07:15:20.000Z</time>
      </trkpt>
      <trkpt lat="47.28731" lon="-2.36915">
        <ele>-0.20000000298023</ele>
        <time>2021-09-02T07:15:21.000Z</time>
      </trkpt>
      <trkpt lat="47.28735" lon="-2.36918">
        <ele>-0.60000002384186</ele>
        <time>2021-09-02T07:15:22.000Z</time>
      </trkpt>
      <trkpt lat="47.28739" lon="-2.36923">
        <ele>-0.60000002384186</ele>
        <time>2021-09-02T07:15:24.000Z</time>
      </trkpt>
      <trkpt lat="47.28743" lon="-2.36935">
        <ele>-0.60000002384186</ele>
        <time>2021-09-02T07:15:29.000Z</time>
      </trkpt>
      <trkpt lat="47.28748" lon="-2.36946">
        <ele>-0.60000002384186</ele>
        <time>2021-09-02T07:15:35.000Z</time>
      </trkpt>
      <trkpt lat="47.28749" lon="-2.36952">
        <ele>-0.60000002384186</ele>
        <time>2021-09-02T07:15:37.000Z</time>
      </trkpt>
      <trkpt lat="47.2875" lon="-2.36958">
        <ele>-0.20000000298023</ele>
        <time>2021-09-02T07:15:39.000Z</time>
      </trkpt>
      <trkpt lat="47.28751" lon="-2.36961">
        <ele>0.40000000596046</ele>
        <time>2021-09-02T07:15:40.000Z</time>
      </trkpt>
      <trkpt lat="47.28752" lon="-2.36964">
        <ele>0.80000001192093</ele>
        <time>2021-09-02T07:15:41.000Z</time>
      </trkpt>
      <trkpt lat="47.28754" lon="-2.36968">
        <ele>1.3999999761581</ele>
        <time>2021-09-02T07:15:42.000Z</time>
      </trkpt>
      <trkpt lat="47.28755" lon="-2.36972">
        <ele>1.7999999523163</ele>
        <time>2021-09-02T07:15:43.000Z</time>
      </trkpt>
      <trkpt lat="47.28757" lon="-2.36976">
        <ele>1.7999999523163</ele>
        <time>2021-09-02T07:15:44.000Z</time>
      </trkpt>
      <trkpt lat="47.28769" lon="-2.36995">
        <ele>1.7999999523163</ele>
        <time>2021-09-02T07:15:50.000Z</time>
      </trkpt>
      <trkpt lat="47.28777" lon="-2.37019">
        <ele>1.7999999523163</ele>
        <time>2021-09-02T07:15:54.000Z</time>
      </trkpt>
      <trkpt lat="47.28779" lon="-2.37027">
        <ele>1.7999999523163</ele>
        <time>2021-09-02T07:15:55.000Z</time>
      </trkpt>
      <trkpt lat="47.28785" lon="-2.3706">
        <ele>1.7999999523163</ele>
        <time>2021-09-02T07:15:59.000Z</time>
      </trkpt>
      <trkpt lat="47.28786" lon="-2.37067">
        <ele>1.7999999523163</ele>
        <time>2021-09-02T07:16:00.000Z</time>
      </trkpt>
      <trkpt lat="47.28788" lon="-2.37085">
        <ele>1.3999999761581</ele>
        <time>2021-09-02T07:16:02.000Z</time>
      </trkpt>
      <trkpt lat="47.28789" lon="-2.37094">
        <ele>1</ele>
        <time>2021-09-02T07:16:03.000Z</time>
      </trkpt>
      <trkpt lat="47.28791" lon="-2.37102">
        <ele>0.40000000596046</ele>
        <time>2021-09-02T07:16:04.000Z</time>
      </trkpt>
      <trkpt lat="47.28793" lon="-2.37108">
        <ele>13.8</ele>
        <time>2021-09-02T07:16:05.000Z</time>
      </trkpt>
      <trkpt lat="47.28796" lon="-2.37112">
        <ele>-0.40000000596046</ele>
        <time>2021-09-02T07:16:06.000Z</time>
      </trkpt>
      <trkpt lat="47.288" lon="-2.37114">
        <ele>-0.80000001192093</ele>
        <time>2021-09-02T07:16:07.000Z</time>
      </trkpt>
      <trkpt lat="47.28804" lon="-2.37117">
        <ele>-1.6000000238419</ele>
        <time>2021-09-02T07:16:08.000Z</time>
      </trkpt>
      <trkpt lat="47.28807" lon="-2.37118">
        <ele>-2.2000000476837</ele>
        <time>2021-09-02T07:16:09.000Z</time>
      </trkpt>
      <trkpt lat="47.28811" lon="-2.37118">
        <ele>-2.5999999046326</ele>
        <time>2021-09-02T07:16:10.000Z</time>
      </trkpt>
      <trkpt lat="47.28813" lon="-2.37115">
        <ele>-3.2000000476837</ele>
        <time>2021-09-02T07:16:11.000Z</time>
      </trkpt>
      <trkpt lat="47.28815" lon="-2.37112">
        <ele>-3.5999999046326</ele>
        <time>2021-09-02T07:16:12.000Z</time>
      </trkpt>
      <trkpt lat="47.28817" lon="-2.3711">
        <ele>-4.1999998092651</ele>
        <time>2021-09-02T07:16:13.000Z</time>
      </trkpt>
      <trkpt lat="47.2882" lon="-2.3711">
        <ele>-4.8000001907349</ele>
        <time>2021-09-02T07:16:14.000Z</time>
      </trkpt>
      <trkpt lat="47.28822" lon="-2.37112">
        <ele>-5.4000000953674</ele>
        <time>2021-09-02T07:16:15.000Z</time>
      </trkpt>
      <trkpt lat="47.28823" lon="-2.37114">
        <ele>-6.1999998092651</ele>
        <time>2021-09-02T07:16:16.000Z</time>
      </trkpt>
      <trkpt lat="47.28825" lon="-2.37117">
        <ele>-6.8000001907349</ele>
        <time>2021-09-02T07:16:17.000Z</time>
      </trkpt>
      <trkpt lat="47.28825" lon="-2.37122">
        <ele>-7.4000000953674</ele>
        <time>2021-09-02T07:16:18.000Z</time>
      </trkpt>
      <trkpt lat="47.28824" lon="-2.37134">
        <ele>-7.4000000953674</ele>
        <time>2021-09-02T07:16:20.000Z</time>
      </trkpt>
      <trkpt lat="47.28825" lon="-2.3714">
        <ele>-7.4000000953674</ele>
        <time>2021-09-02T07:16:21.000Z</time>
      </trkpt>
      <trkpt lat="47.28831" lon="-2.37179">
        <ele>-7.4000000953674</ele>
        <time>2021-09-02T07:16:27.000Z</time>
      </trkpt>
      <trkpt lat="47.28838" lon="-2.37212">
        <ele>-7.8000001907349</ele>
        <time>2021-09-02T07:16:33.000Z</time>
      </trkpt>
      <trkpt lat="47.28839" lon="-2.37217">
        <ele>-8.1999998092651</ele>
        <time>2021-09-02T07:16:34.000Z</time>
      </trkpt>
      <trkpt lat="47.28841" lon="-2.37223">
        <ele>-8.6000003814697</ele>
        <time>2021-09-02T07:16:35.000Z</time>
      </trkpt>
      <trkpt lat="47.28842" lon="-2.37228">
        <ele>-9</ele>
        <time>2021-09-02T07:16:36.000Z</time>
      </trkpt>
      <trkpt lat="47.28844" lon="-2.37233">
        <ele>-9.3999996185303</ele>
        <time>2021-09-02T07:16:37.000Z</time>
      </trkpt>
      <trkpt lat="47.28848" lon="-2.37237">
        <ele>-9.3999996185303</ele>
        <time>2021-09-02T07:16:38.000Z</time>
      </trkpt>
      <trkpt lat="47.28851" lon="-2.37239">
        <ele>-9.3999996185303</ele>
        <time>2021-09-02T07:16:39.000Z</time>
      </trkpt>
      <trkpt lat="47.28865" lon="-2.37237">
        <ele>-9.3999996185303</ele>
        <time>2021-09-02T07:16:43.000Z</time>
      </trkpt>
      <trkpt lat="47.28873" lon="-2.37232">
        <ele>-9.3999996185303</ele>
        <time>2021-09-02T07:16:45.000Z</time>
      </trkpt>
      <trkpt lat="47.28881" lon="-2.37227">
        <ele>-9.3999996185303</ele>
        <time>2021-09-02T07:16:47.000Z</time>
      </trkpt>
      <trkpt lat="47.2889" lon="-2.37224">
        <ele>-9.3999996185303</ele>
        <time>2021-09-02T07:16:49.000Z</time>
      </trkpt>
      <trkpt lat="47.28906" lon="-2.37216">
        <ele>-9.3999996185303</ele>
        <time>2021-09-02T07:16:53.000Z</time>
      </trkpt>
      <trkpt lat="47.28913" lon="-2.37212">
        <ele>-9.3999996185303</ele>
        <time>2021-09-02T07:16:55.000Z</time>
      </trkpt>
      <trkpt lat="47.28926" lon="-2.37206">
        <ele>-9.3999996185303</ele>
        <time>2021-09-02T07:17:00.000Z</time>
      </trkpt>
      <trkpt lat="47.28937" lon="-2.37204">
        <ele>-9.3999996185303</ele>
        <time>2021-09-02T07:17:06.000Z</time>
      </trkpt>
      <trkpt lat="47.28945" lon="-2.37201">
        <ele>-9</ele>
        <time>2021-09-02T07:17:12.000Z</time>
      </trkpt>
      <trkpt lat="47.28946" lon="-2.37201">
        <ele>-8.6000003814697</ele>
        <time>2021-09-02T07:17:13.000Z</time>
      </trkpt>
      <trkpt lat="47.28946" lon="-2.37201">
        <ele>-8.1999998092651</ele>
        <time>2021-09-02T07:17:14.000Z</time>
      </trkpt>
      <trkpt lat="47.28946" lon="-2.37202">
        <ele>-7.8000001907349</ele>
        <time>2021-09-02T07:17:15.000Z</time>
      </trkpt>
      <trkpt lat="47.28948" lon="-2.37202">
        <ele>-7.4000000953674</ele>
        <time>2021-09-02T07:17:57.000Z</time>
      </trkpt>
      <trkpt lat="47.28949" lon="-2.37201">
        <ele>-7.4000000953674</ele>
        <time>2021-09-02T07:17:58.000Z</time>
      </trkpt>
      <trkpt lat="47.28963" lon="-2.3719">
        <ele>-7.4000000953674</ele>
        <time>2021-09-02T07:18:02.000Z</time>
      </trkpt>
      <trkpt lat="47.28968" lon="-2.37186">
        <ele>-7</ele>
        <time>2021-09-02T07:18:04.000Z</time>
      </trkpt>
      <trkpt lat="47.28971" lon="-2.37185">
        <ele>-6.5999999046326</ele>
        <time>2021-09-02T07:18:05.000Z</time>
      </trkpt>
      <trkpt lat="47.28974" lon="-2.37183">
        <ele>-6</ele>
        <time>2021-09-02T07:18:06.000Z</time>
      </trkpt>
      <trkpt lat="47.28977" lon="-2.37181">
        <ele>-5.5999999046326</ele>
        <time>2021-09-02T07:18:07.000Z</time>
      </trkpt>
      <trkpt lat="47.28981" lon="-2.37179">
        <ele>-5.1999998092651</ele>
        <time>2021-09-02T07:18:08.000Z</time>
      </trkpt>
      <trkpt lat="47.28997" lon="-2.37168">
        <ele>-5.1999998092651</ele>
        <time>2021-09-02T07:18:13.000Z</time>
      </trkpt>
      <trkpt lat="47.29004" lon="-2.37169">
        <ele>-4.5999999046326</ele>
        <time>2021-09-02T07:18:15.000Z</time>
      </trkpt>
      <trkpt lat="47.29008" lon="-2.37171">
        <ele>-4.1999998092651</ele>
        <time>2021-09-02T07:18:16.000Z</time>
      </trkpt>
      <trkpt lat="47.29011" lon="-2.37173">
        <ele>-3.7999999523163</ele>
        <time>2021-09-02T07:18:17.000Z</time>
      </trkpt>
      <trkpt lat="47.29014" lon="-2.37176">
        <ele>-3.2000000476837</ele>
        <time>2021-09-02T07:18:18.000Z</time>
      </trkpt>
      <trkpt lat="47.29017" lon="-2.37179">
        <ele>-2.7999999523163</ele>
        <time>2021-09-02T07:18:19.000Z</time>
      </trkpt>
      <trkpt lat="47.29028" lon="-2.37191">
        <ele>-2.7999999523163</ele>
        <time>2021-09-02T07:18:23.000Z</time>
      </trkpt>
      <trkpt lat="47.29031" lon="-2.37195">
        <ele>-2.4000000953674</ele>
        <time>2021-09-02T07:18:24.000Z</time>
      </trkpt>
      <trkpt lat="47.29033" lon="-2.37198">
        <ele>-2</ele>
        <time>2021-09-02T07:18:25.000Z</time>
      </trkpt>
      <trkpt lat="47.29036" lon="-2.372">
        <ele>-1.6000000238419</ele>
        <time>2021-09-02T07:18:26.000Z</time>
      </trkpt>
      <trkpt lat="47.29039" lon="-2.37203">
        <ele>-1.2000000476837</ele>
        <time>2021-09-02T07:18:27.000Z</time>
      </trkpt>
      <trkpt lat="47.29041" lon="-2.37206">
        <ele>-0.80000001192093</ele>
        <time>2021-09-02T07:18:28.000Z</time>
      </trkpt>
      <trkpt lat="47.2905" lon="-2.37214">
        <ele>-0.80000001192093</ele>
        <time>2021-09-02T07:18:31.000Z</time>
      </trkpt>
      <trkpt lat="47.29067" lon="-2.37232">
        <ele>0.20000000298023</ele>
        <time>2021-09-02T07:18:37.000Z</time>
      </trkpt>
      <trkpt lat="47.2907" lon="-2.37235">
        <ele>0.60000002384186</ele>
        <time>2021-09-02T07:18:38.000Z</time>
      </trkpt>
      <trkpt lat="47.29073" lon="-2.37238">
        <ele>1</ele>
        <time>2021-09-02T07:18:39.000Z</time>
      </trkpt>
      <trkpt lat="47.29076" lon="-2.37242">
        <ele>1.3999999761581</ele>
        <time>2021-09-02T07:18:40.000Z</time>
      </trkpt>
      <trkpt lat="47.2909" lon="-2.37257">
        <ele>1.3999999761581</ele>
        <time>2021-09-02T07:18:44.000Z</time>
      </trkpt>
      <trkpt lat="47.29116" lon="-2.37282">
        <ele>1.3999999761581</ele>
        <time>2021-09-02T07:18:51.000Z</time>
      </trkpt>
      <trkpt lat="47.29145" lon="-2.37316">
        <ele>2.2000000476837</ele>
        <time>2021-09-02T07:19:00.000Z</time>
      </trkpt>
      <trkpt lat="47.29148" lon="-2.37321">
        <ele>2.5999999046326</ele>
        <time>2021-09-02T07:19:01.000Z</time>
      </trkpt>
      <trkpt lat="47.29151" lon="-2.37326">
        <ele>3</ele>
        <time>2021-09-02T07:19:02.000Z</time>
      </trkpt>
      <trkpt lat="47.29153" lon="-2.37331">
        <ele>3.4000000953674</ele>
        <time>2021-09-02T07:19:03.000Z</time>
      </trkpt>
      <trkpt lat="47.29159" lon="-2.37348">
        <ele>3.4000000953674</ele>
        <time>2021-09-02T07:19:06.000Z</time>
      </trkpt>
      <trkpt lat="47.2918" lon="-2.37392">
        <ele>3.4000000953674</ele>
        <time>2021-09-02T07:19:14.000Z</time>
      </trkpt>
      <trkpt lat="47.29208" lon="-2.37437">
        <ele>3.4000000953674</ele>
        <time>2021-09-02T07:19:22.000Z</time>
      </trkpt>
      <trkpt lat="47.29232" lon="-2.37475">
        <ele>3</ele>
        <time>2021-09-02T07:19:28.000Z</time>
      </trkpt>
      <trkpt lat="47.29236" lon="-2.37481">
        <ele>2.5999999046326</ele>
        <time>2021-09-02T07:19:29.000Z</time>
      </trkpt>
      <trkpt lat="47.29241" lon="-2.37487">
        <ele>2</ele>
        <time>2021-09-02T07:19:30.000Z</time>
      </trkpt>
      <trkpt lat="47.29245" lon="-2.37494">
        <ele>1.6000000238419</ele>
        <time>2021-09-02T07:19:31.000Z</time>
      </trkpt>
      <trkpt lat="47.29249" lon="-2.375">
        <ele>1.2000000476837</ele>
        <time>2021-09-02T07:19:32.000Z</time>
      </trkpt>
      <trkpt lat="47.29253" lon="-2.37506">
        <ele>0.80000001192093</ele>
        <time>2021-09-02T07:19:33.000Z</time>
      </trkpt>
      <trkpt lat="47.29258" lon="-2.37512">
        <ele>0.40000000596046</ele>
        <time>2021-09-02T07:19:34.000Z</time>
      </trkpt>
      <trkpt lat="47.29264" lon="-2.37517">
        <ele>16.1</ele>
        <time>2021-09-02T07:19:35.000Z</time>
      </trkpt>
      <trkpt lat="47.29269" lon="-2.37521">
        <ele>-0.40000000596046</ele>
        <time>2021-09-02T07:19:36.000Z</time>
      </trkpt>
      <trkpt lat="47.29272" lon="-2.37527">
        <ele>-0.80000001192093</ele>
        <time>2021-09-02T07:19:37.000Z</time>
      </trkpt>
      <trkpt lat="47.29279" lon="-2.37544">
        <ele>-0.80000001192093</ele>
        <time>2021-09-02T07:19:39.000Z</time>
      </trkpt>
      <trkpt lat="47.29286" lon="-2.37559">
        <ele>-0.80000001192093</ele>
        <time>2021-09-02T07:19:41.000Z</time>
      </trkpt>
      <trkpt lat="47.29294" lon="-2.37571">
        <ele>-0.80000001192093</ele>
        <time>2021-09-02T07:19:43.000Z</time>
      </trkpt>
      <trkpt lat="47.29317" lon="-2.37607">
        <ele>-0.80000001192093</ele>
        <time>2021-09-02T07:19:50.000Z</time>
      </trkpt>
      <trkpt lat="47.29332" lon="-2.37649">
        <ele>-0.80000001192093</ele>
        <time>2021-09-02T07:19:57.000Z</time>
      </trkpt>
      <trkpt lat="47.29336" lon="-2.37669">
        <ele>-0.80000001192093</ele>
        <time>2021-09-02T07:20:00.000Z</time>
      </trkpt>
      <trkpt lat="47.29335" lon="-2.37685">
        <ele>-0.80000001192093</ele>
        <time>2021-09-02T07:20:02.000Z</time>
      </trkpt>
      <trkpt lat="47.29334" lon="-2.37702">
        <ele>-1.2000000476837</ele>
        <time>2021-09-02T07:20:04.000Z</time>
      </trkpt>
      <trkpt lat="47.29334" lon="-2.37712">
        <ele>-1.6000000238419</ele>
        <time>2021-09-02T07:20:05.000Z</time>
      </trkpt>
      <trkpt lat="47.29334" lon="-2.37723">
        <ele>-2</ele>
        <time>2021-09-02T07:20:06.000Z</time>
      </trkpt>
      <trkpt lat="47.29334" lon="-2.37734">
        <ele>-2.4000000953674</ele>
        <time>2021-09-02T07:20:07.000Z</time>
      </trkpt>
      <trkpt lat="47.29333" lon="-2.37746">
        <ele>-2.7999999523163</ele>
        <time>2021-09-02T07:20:08.000Z</time>
      </trkpt>
      <trkpt lat="47.29333" lon="-2.37769">
        <ele>-3.2000000476837</ele>
        <time>2021-09-02T07:20:10.000Z</time>
      </trkpt>
      <trkpt lat="47.29334" lon="-2.37781">
        <ele>-3.7999999523163</ele>
        <time>2021-09-02T07:20:11.000Z</time>
      </trkpt>
      <trkpt lat="47.29335" lon="-2.37794">
        <ele>-4.1999998092651</ele>
        <time>2021-09-02T07:20:12.000Z</time>
      </trkpt>
      <trkpt lat="47.29336" lon="-2.37807">
        <ele>-5</ele>
        <time>2021-09-02T07:20:13.000Z</time>
      </trkpt>
      <trkpt lat="47.29344" lon="-2.37857">
        <ele>-5.4000000953674</ele>
        <time>2021-09-02T07:20:17.000Z</time>
      </trkpt>
      <trkpt lat="47.29347" lon="-2.37869">
        <ele>-5.8000001907349</ele>
        <time>2021-09-02T07:20:18.000Z</time>
      </trkpt>
      <trkpt lat="47.29351" lon="-2.3788">
        <ele>-6.4000000953674</ele>
        <time>2021-09-02T07:20:19.000Z</time>
      </trkpt>
      <trkpt lat="47.29355" lon="-2.37891">
        <ele>-6.8000001907349</ele>
        <time>2021-09-02T07:20:20.000Z</time>
      </trkpt>
      <trkpt lat="47.29359" lon="-2.37903">
        <ele>-7.1999998092651</ele>
        <time>2021-09-02T07:20:21.000Z</time>
      </trkpt>
      <trkpt lat="47.29363" lon="-2.37913">
        <ele>-7.1999998092651</ele>
        <time>2021-09-02T07:20:22.000Z</time>
      </trkpt>
      <trkpt lat="47.29367" lon="-2.37924">
        <ele>-7.5999999046326</ele>
        <time>2021-09-02T07:20:23.000Z</time>
      </trkpt>
      <trkpt lat="47.2937" lon="-2.37935">
        <ele>-8</ele>
        <time>2021-09-02T07:20:24.000Z</time>
      </trkpt>
      <trkpt lat="47.29374" lon="-2.37946">
        <ele>-8.6000003814697</ele>
        <time>2021-09-02T07:20:25.000Z</time>
      </trkpt>
      <trkpt lat="47.29378" lon="-2.37957">
        <ele>-9</ele>
        <time>2021-09-02T07:20:26.000Z</time>
      </trkpt>
      <trkpt lat="47.29381" lon="-2.37967">
        <ele>-9.3999996185303</ele>
        <time>2021-09-02T07:20:27.000Z</time>
      </trkpt>
      <trkpt lat="47.29385" lon="-2.37977">
        <ele>-9.3999996185303</ele>
        <time>2021-09-02T07:20:28.000Z</time>
      </trkpt>
      <trkpt lat="47.294" lon="-2.38017">
        <ele>-9.8000001907349</ele>
        <time>2021-09-02T07:20:32.000Z</time>
      </trkpt>
      <trkpt lat="47.29404" lon="-2.38027">
        <ele>-10.199999809265</ele>
        <time>2021-09-02T07:20:33.000Z</time>
      </trkpt>
      <trkpt lat="47.29408" lon="-2.38037">
        <ele>-10.60000038147</ele>
        <time>2021-09-02T07:20:34.000Z</time>
      </trkpt>
      <trkpt lat="47.29411" lon="-2.38047">
        <ele>-11</ele>
        <time>2021-09-02T07:20:35.000Z</time>
      </trkpt>
      <trkpt lat="47.29415" lon="-2.38057">
        <ele>-11.60000038147</ele>
        <time>2021-09-02T07:20:36.000Z</time>
      </trkpt>
      <trkpt lat="47.29437" lon="-2.38118">
        <ele>-12</ele>
        <time>2021-09-02T07:20:43.000Z</time>
      </trkpt>
      <trkpt lat="47.29439" lon="-2.38125">
        <ele>-12.39999961853</ele>
        <time>2021-09-02T07:20:44.000Z</time>
      </trkpt>
      <trkpt lat="47.29442" lon="-2.38133">
        <ele>-12.800000190735</ele>
        <time>2021-09-02T07:20:45.000Z</time>
      </trkpt>
      <trkpt lat="47.29443" lon="-2.3814">
        <ele>-13.199999809265</ele>
        <time>2021-09-02T07:20:46.000Z</time>
      </trkpt>
      <trkpt lat="47.29445" lon="-2.38147">
        <ele>-13.60000038147</ele>
        <time>2021-09-02T07:20:47.000Z</time>
      </trkpt>
      <trkpt lat="47.29448" lon="-2.38153">
        <ele>-13.60000038147</ele>
        <time>2021-09-02T07:20:48.000Z</time>
      </trkpt>
      <trkpt lat="47.29452" lon="-2.38154">
        <ele>-13.60000038147</ele>
        <time>2021-09-02T07:20:49.000Z</time>
      </trkpt>
      <trkpt lat="47.29465" lon="-2.38149">
        <ele>-13.60000038147</ele>
        <time>2021-09-02T07:20:53.000Z</time>
      </trkpt>
      <trkpt lat="47.29471" lon="-2.38143">
        <ele>-13.60000038147</ele>
        <time>2021-09-02T07:20:55.000Z</time>
      </trkpt>
      <trkpt lat="47.29486" lon="-2.3813">
        <ele>-13.60000038147</ele>
        <time>2021-09-02T07:20:59.000Z</time>
      </trkpt>
      <trkpt lat="47.29509" lon="-2.38126">
        <ele>-13.60000038147</ele>
        <time>2021-09-02T07:21:04.000Z</time>
      </trkpt>
      <trkpt lat="47.29514" lon="-2.38127">
        <ele>-13.60000038147</ele>
        <time>2021-09-02T07:21:05.000Z</time>
      </trkpt>
      <trkpt lat="47.29532" lon="-2.38127">
        <ele>-13.199999809265</ele>
        <time>2021-09-02T07:21:09.000Z</time>
      </trkpt>
      <trkpt lat="47.29536" lon="-2.38127">
        <ele>-12.800000190735</ele>
        <time>2021-09-02T07:21:10.000Z</time>
      </trkpt>
      <trkpt lat="47.2954" lon="-2.38127">
        <ele>-12.199999809265</ele>
        <time>2021-09-02T07:21:11.000Z</time>
      </trkpt>
      <trkpt lat="47.29545" lon="-2.38127">
        <ele>-11.800000190735</ele>
        <time>2021-09-02T07:21:12.000Z</time>
      </trkpt>
      <trkpt lat="47.29549" lon="-2.38126">
        <ele>-11.39999961853</ele>
        <time>2021-09-02T07:21:13.000Z</time>
      </trkpt>
      <trkpt lat="47.29565" lon="-2.38124">
        <ele>-11</ele>
        <time>2021-09-02T07:21:17.000Z</time>
      </trkpt>
      <trkpt lat="47.29569" lon="-2.38123">
        <ele>-10.60000038147</ele>
        <time>2021-09-02T07:21:18.000Z</time>
      </trkpt>
      <trkpt lat="47.29574" lon="-2.38122">
        <ele>-10.199999809265</ele>
        <time>2021-09-02T07:21:19.000Z</time>
      </trkpt>
      <trkpt lat="47.29577" lon="-2.38121">
        <ele>-9.8000001907349</ele>
        <time>2021-09-02T07:21:20.000Z</time>
      </trkpt>
      <trkpt lat="47.29581" lon="-2.38119">
        <ele>-9.3999996185303</ele>
        <time>2021-09-02T07:21:21.000Z</time>
      </trkpt>
      <trkpt lat="47.29593" lon="-2.38117">
        <ele>-9.3999996185303</ele>
        <time>2021-09-02T07:21:24.000Z</time>
      </trkpt>
      <trkpt lat="47.29622" lon="-2.38109">
        <ele>-9</ele>
        <time>2021-09-02T07:21:32.000Z</time>
      </trkpt>
      <trkpt lat="47.29626" lon="-2.38107">
        <ele>-8.6000003814697</ele>
        <time>2021-09-02T07:21:33.000Z</time>
      </trkpt>
      <trkpt lat="47.29629" lon="-2.38106">
        <ele>-8</ele>
        <time>2021-09-02T07:21:34.000Z</time>
      </trkpt>
      <trkpt lat="47.29633" lon="-2.38104">
        <ele>-7.5999999046326</ele>
        <time>2021-09-02T07:21:35.000Z</time>
      </trkpt>
      <trkpt lat="47.29637" lon="-2.38103">
        <ele>-7.1999998092651</ele>
        <time>2021-09-02T07:21:36.000Z</time>
      </trkpt>
      <trkpt lat="47.29653" lon="-2.38092">
        <ele>-7.1999998092651</ele>
        <time>2021-09-02T07:21:41.000Z</time>
      </trkpt>
      <trkpt lat="47.29676" lon="-2.38081">
        <ele>-6.8000001907349</ele>
        <time>2021-09-02T07:21:48.000Z</time>
      </trkpt>
      <trkpt lat="47.29678" lon="-2.3808">
        <ele>-6.4000000953674</ele>
        <time>2021-09-02T07:21:49.000Z</time>
      </trkpt>
      <trkpt lat="47.29681" lon="-2.38078">
        <ele>-6</ele>
        <time>2021-09-02T07:21:50.000Z</time>
      </trkpt>
      <trkpt lat="47.29683" lon="-2.38076">
        <ele>-5.1999998092651</ele>
        <time>2021-09-02T07:21:51.000Z</time>
      </trkpt>
      <trkpt lat="47.29693" lon="-2.38068">
        <ele>-4.8000001907349</ele>
        <time>2021-09-02T07:21:56.000Z</time>
      </trkpt>
      <trkpt lat="47.29694" lon="-2.38067">
        <ele>-4.4000000953674</ele>
        <time>2021-09-02T07:21:57.000Z</time>
      </trkpt>
      <trkpt lat="47.29696" lon="-2.38065">
        <ele>-4</ele>
        <time>2021-09-02T07:21:58.000Z</time>
      </trkpt>
      <trkpt lat="47.29698" lon="-2.38063">
        <ele>-3.5999999046326</ele>
        <time>2021-09-02T07:21:59.000Z</time>
      </trkpt>
      <trkpt lat="47.29699" lon="-2.38062">
        <ele>-3.2000000476837</ele>
        <time>2021-09-02T07:22:00.000Z</time>
      </trkpt>
      <trkpt lat="47.29705" lon="-2.38057">
        <ele>-2.5999999046326</ele>
        <time>2021-09-02T07:22:03.000Z</time>
      </trkpt>
      <trkpt lat="47.29707" lon="-2.38056">
        <ele>-2.2000000476837</ele>
        <time>2021-09-02T07:22:04.000Z</time>
      </trkpt>
      <trkpt lat="47.29708" lon="-2.38055">
        <ele>-1.7999999523163</ele>
        <time>2021-09-02T07:22:05.000Z</time>
      </trkpt>
      <trkpt lat="47.2971" lon="-2.38054">
        <ele>-1.3999999761581</ele>
        <time>2021-09-02T07:22:06.000Z</time>
      </trkpt>
      <trkpt lat="47.29711" lon="-2.38053">
        <ele>-1</ele>
        <time>2021-09-02T07:22:07.000Z</time>
      </trkpt>
      <trkpt lat="47.29714" lon="-2.3805">
        <ele>-1</ele>
        <time>2021-09-02T07:22:09.000Z</time>
      </trkpt>
      <trkpt lat="47.29721" lon="-2.38045">
        <ele>-0.60000002384186</ele>
        <time>2021-09-02T07:22:13.000Z</time>
      </trkpt>
      <trkpt lat="47.29722" lon="-2.38044">
        <ele>23.2</ele>
        <time>2021-09-02T07:22:14.000Z</time>
      </trkpt>
      <trkpt lat="47.29723" lon="-2.38043">
        <ele>0.40000000596046</ele>
        <time>2021-09-02T07:22:15.000Z</time>
      </trkpt>
      <trkpt lat="47.29725" lon="-2.38042">
        <ele>1.2000000476837</ele>
        <time>2021-09-02T07:22:16.000Z</time>
      </trkpt>
      <trkpt lat="47.29729" lon="-2.38039">
        <ele>1.6000000238419</ele>
        <time>2021-09-02T07:22:19.000Z</time>
      </trkpt>
      <trkpt lat="47.2973" lon="-2.38038">
        <ele>2</ele>
        <time>2021-09-02T07:22:20.000Z</time>
      </trkpt>
      <trkpt lat="47.29731" lon="-2.38037">
        <ele>2.4000000953674</ele>
        <time>2021-09-02T07:22:21.000Z</time>
      </trkpt>
      <trkpt lat="47.29732" lon="-2.38036">
        <ele>2.7999999523163</ele>
        <time>2021-09-02T07:22:22.000Z</time>
      </trkpt>
      <trkpt lat="47.29732" lon="-2.38034">
        <ele>3.2000000476837</ele>
        <time>2021-09-02T07:22:23.000Z</time>
      </trkpt>
      <trkpt lat="47.29734" lon="-2.38018">
        <ele>3.5999999046326</ele>
        <time>2021-09-02T07:22:30.000Z</time>
      </trkpt>
      <trkpt lat="47.29733" lon="-2.38016">
        <ele>4</ele>
        <time>2021-09-02T07:22:31.000Z</time>
      </trkpt>
      <trkpt lat="47.29732" lon="-2.38014">
        <ele>4.5999999046326</ele>
        <time>2021-09-02T07:22:32.000Z</time>
      </trkpt>
      <trkpt lat="47.29732" lon="-2.38012">
        <ele>5</ele>
        <time>2021-09-02T07:22:33.000Z</time>
      </trkpt>
      <trkpt lat="47.29731" lon="-2.38011">
        <ele>5.4000000953674</ele>
        <time>2021-09-02T07:22:34.000Z</time>
      </trkpt>
      <trkpt lat="47.29731" lon="-2.38005">
        <ele>5.8000001907349</ele>
        <time>2021-09-02T07:22:37.000Z</time>
      </trkpt>
      <trkpt lat="47.2973" lon="-2.38004">
        <ele>6.4000000953674</ele>
        <time>2021-09-02T07:22:38.000Z</time>
      </trkpt>
      <trkpt lat="47.2973" lon="-2.38002">
        <ele>6.8000001907349</ele>
        <time>2021-09-02T07:22:39.000Z</time>
      </trkpt>
      <trkpt lat="47.2973" lon="-2.38">
        <ele>7.1999998092651</ele>
        <time>2021-09-02T07:22:40.000Z</time>
      </trkpt>
      <trkpt lat="47.2973" lon="-2.37998">
        <ele>7.8000001907349</ele>
        <time>2021-09-02T07:22:41.000Z</time>
      </trkpt>
      <trkpt lat="47.2973" lon="-2.3799">
        <ele>8.1999998092651</ele>
        <time>2021-09-02T07:22:45.000Z</time>
      </trkpt>
      <trkpt lat="47.29731" lon="-2.37988">
        <ele>8.6000003814697</ele>
        <time>2021-09-02T07:22:46.000Z</time>
      </trkpt>
      <trkpt lat="47.29731" lon="-2.37986">
        <ele>9</ele>
        <time>2021-09-02T07:22:47.000Z</time>
      </trkpt>
      <trkpt lat="47.29732" lon="-2.37983">
        <ele>9.3999996185303</ele>
        <time>2021-09-02T07:22:48.000Z</time>
      </trkpt>
      <trkpt lat="47.29733" lon="-2.37981">
        <ele>9.8000001907349</ele>
        <time>2021-09-02T07:22:49.000Z</time>
      </trkpt>
      <trkpt lat="47.29736" lon="-2.37973">
        <ele>9.8000001907349</ele>
        <time>2021-09-02T07:22:52.000Z</time>
      </trkpt>
      <trkpt lat="47.29739" lon="-2.37963">
        <ele>10.39999961853</ele>
        <time>2021-09-02T07:22:56.000Z</time>
      </trkpt>
      <trkpt lat="47.2974" lon="-2.3796">
        <ele>10.800000190735</ele>
        <time>2021-09-02T07:22:57.000Z</time>
      </trkpt>
      <trkpt lat="47.29741" lon="-2.37958">
        <ele>11.199999809265</ele>
        <time>2021-09-02T07:22:58.000Z</time>
      </trkpt>
      <trkpt lat="47.29742" lon="-2.37955">
        <ele>11.800000190735</ele>
        <time>2021-09-02T07:22:59.000Z</time>
      </trkpt>
      <trkpt lat="47.29744" lon="-2.37952">
        <ele>12.199999809265</ele>
        <time>2021-09-02T07:23:00.000Z</time>
      </trkpt>
      <trkpt lat="47.29746" lon="-2.37949">
        <ele>12.199999809265</ele>
        <time>2021-09-02T07:23:01.000Z</time>
      </trkpt>
      <trkpt lat="47.29753" lon="-2.37938">
        <ele>12.60000038147</ele>
        <time>2021-09-02T07:23:05.000Z</time>
      </trkpt>
      <trkpt lat="47.29755" lon="-2.37936">
        <ele>13.39999961853</ele>
        <time>2021-09-02T07:23:06.000Z</time>
      </trkpt>
      <trkpt lat="47.29757" lon="-2.37933">
        <ele>13.800000190735</ele>
        <time>2021-09-02T07:23:07.000Z</time>
      </trkpt>
      <trkpt lat="47.29759" lon="-2.37931">
        <ele>14.199999809265</ele>
        <time>2021-09-02T07:23:08.000Z</time>
      </trkpt>
      <trkpt lat="47.29761" lon="-2.37929">
        <ele>14.199999809265</ele>
        <time>2021-09-02T07:23:09.000Z</time>
      </trkpt>
      <trkpt lat="47.2978" lon="-2.37914">
        <ele>14.199999809265</ele>
        <time>2021-09-02T07:23:16.000Z</time>
      </trkpt>
      <trkpt lat="47.298" lon="-2.37901">
        <ele>14.199999809265</ele>
        <time>2021-09-02T07:23:23.000Z</time>
      </trkpt>
      <trkpt lat="47.29824" lon="-2.37887">
        <ele>14.199999809265</ele>
        <time>2021-09-02T07:23:30.000Z</time>
      </trkpt>
      <trkpt lat="47.29849" lon="-2.37863">
        <ele>14.199999809265</ele>
        <time>2021-09-02T07:23:38.000Z</time>
      </trkpt>
      <trkpt lat="47.29854" lon="-2.37853">
        <ele>14.199999809265</ele>
        <time>2021-09-02T07:23:40.000Z</time>
      </trkpt>
      <trkpt lat="47.29862" lon="-2.37833">
        <ele>14.199999809265</ele>
        <time>2021-09-02T07:23:44.000Z</time>
      </trkpt>
      <trkpt lat="47.2987" lon="-2.37814">
        <ele>14.199999809265</ele>
        <time>2021-09-02T07:23:49.000Z</time>
      </trkpt>
      <trkpt lat="47.29872" lon="-2.37812">
        <ele>14.199999809265</ele>
        <time>2021-09-02T07:23:50.000Z</time>
      </trkpt>
      <trkpt lat="47.29877" lon="-2.37812">
        <ele>14.199999809265</ele>
        <time>2021-09-02T07:23:52.000Z</time>
      </trkpt>
      <trkpt lat="47.2989" lon="-2.37826">
        <ele>14.199999809265</ele>
        <time>2021-09-02T07:23:56.000Z</time>
      </trkpt>
      <trkpt lat="47.29894" lon="-2.37831">
        <ele>13.800000190735</ele>
        <time>2021-09-02T07:23:57.000Z</time>
      </trkpt>
      <trkpt lat="47.299" lon="-2.37838">
        <ele>13.39999961853</ele>
        <time>2021-09-02T07:23:58.000Z</time>
      </trkpt>
      <trkpt lat="47.29905" lon="-2.37845">
        <ele>13</ele>
        <time>2021-09-02T07:23:59.000Z</time>
      </trkpt>
      <trkpt lat="47.29912" lon="-2.37853">
        <ele>12.60000038147</ele>
        <time>2021-09-02T07:24:00.000Z</time>
      </trkpt>
      <trkpt lat="47.29918" lon="-2.37861">
        <ele>12.199999809265</ele>
        <time>2021-09-02T07:24:01.000Z</time>
      </trkpt>
      <trkpt lat="47.29937" lon="-2.37885">
        <ele>11.800000190735</ele>
        <time>2021-09-02T07:24:04.000Z</time>
      </trkpt>
      <trkpt lat="47.29944" lon="-2.37892">
        <ele>11.199999809265</ele>
        <time>2021-09-02T07:24:05.000Z</time>
      </trkpt>
      <trkpt lat="47.2995" lon="-2.379">
        <ele>10.800000190735</ele>
        <time>2021-09-02T07:24:06.000Z</time>
      </trkpt>
      <trkpt lat="47.29957" lon="-2.37907">
        <ele>10.39999961853</ele>
        <time>2021-09-02T07:24:07.000Z</time>
      </trkpt>
      <trkpt lat="47.29963" lon="-2.37915">
        <ele>9.8000001907349</ele>
        <time>2021-09-02T07:24:08.000Z</time>
      </trkpt>
      <trkpt lat="47.29969" lon="-2.37921">
        <ele>9.1999998092651</ele>
        <time>2021-09-02T07:24:09.000Z</time>
      </trkpt>
      <trkpt lat="47.29974" lon="-2.37927">
        <ele>8.8000001907349</ele>
        <time>2021-09-02T07:24:10.000Z</time>
      </trkpt>
      <trkpt lat="47.29979" lon="-2.37934">
        <ele>8.1999998092651</ele>
        <time>2021-09-02T07:24:11.000Z</time>
      </trkpt>
      <trkpt lat="47.29984" lon="-2.3794">
        <ele>7.5999999046326</ele>
        <time>2021-09-02T07:24:12.000Z</time>
      </trkpt>
      <trkpt lat="47.29989" lon="-2.37944">
        <ele>7.5999999046326</ele>
        <time>2021-09-02T07:24:13.000Z</time>
      </trkpt>
      <trkpt lat="47.29999" lon="-2.37951">
        <ele>7.5999999046326</ele>
        <time>2021-09-02T07:24:15.000Z</time>
      </trkpt>
      <trkpt lat="47.30003" lon="-2.37962">
        <ele>7.5999999046326</ele>
        <time>2021-09-02T07:24:17.000Z</time>
      </trkpt>
      <trkpt lat="47.29995" lon="-2.3798">
        <ele>7.5999999046326</ele>
        <time>2021-09-02T07:24:20.000Z</time>
      </trkpt>
      <trkpt lat="47.2999" lon="-2.38007">
        <ele>7.5999999046326</ele>
        <time>2021-09-02T07:24:23.000Z</time>
      </trkpt>
      <trkpt lat="47.29989" lon="-2.38016">
        <ele>7.5999999046326</ele>
        <time>2021-09-02T07:24:24.000Z</time>
      </trkpt>
      <trkpt lat="47.29989" lon="-2.38054">
        <ele>7.1999998092651</ele>
        <time>2021-09-02T07:24:28.000Z</time>
      </trkpt>
      <trkpt lat="47.29988" lon="-2.38064">
        <ele>6.8000001907349</ele>
        <time>2021-09-02T07:24:29.000Z</time>
      </trkpt>
      <trkpt lat="47.29988" lon="-2.38073">
        <ele>6.4000000953674</ele>
        <time>2021-09-02T07:24:30.000Z</time>
      </trkpt>
      <trkpt lat="47.29988" lon="-2.38082">
        <ele>6</ele>
        <time>2021-09-02T07:24:31.000Z</time>
      </trkpt>
      <trkpt lat="47.29988" lon="-2.3809">
        <ele>5.5999999046326</ele>
        <time>2021-09-02T07:24:32.000Z</time>
      </trkpt>
      <trkpt lat="47.29989" lon="-2.38115">
        <ele>5.5999999046326</ele>
        <time>2021-09-02T07:24:35.000Z</time>
      </trkpt>
      <trkpt lat="47.2999" lon="-2.38145">
        <ele>6</ele>
        <time>2021-09-02T07:24:39.000Z</time>
      </trkpt>
      <trkpt lat="47.2999" lon="-2.38153">
        <ele>6.4000000953674</ele>
        <time>2021-09-02T07:24:40.000Z</time>
      </trkpt>
      <trkpt lat="47.29991" lon="-2.3816">
        <ele>6.8000001907349</ele>
        <time>2021-09-02T07:24:41.000Z</time>
      </trkpt>
      <trkpt lat="47.29992" lon="-2.38168">
        <ele>7.1999998092651</ele>
        <time>2021-09-02T07:24:42.000Z</time>
      </trkpt>
      <trkpt lat="47.29993" lon="-2.38175">
        <ele>7.8000001907349</ele>
        <time>2021-09-02T07:24:43.000Z</time>
      </trkpt>
      <trkpt lat="47.29993" lon="-2.38183">
        <ele>7.8000001907349</ele>
        <time>2021-09-02T07:24:44.000Z</time>
      </trkpt>
      <trkpt lat="47.29995" lon="-2.38213">
        <ele>8.1999998092651</ele>
        <time>2021-09-02T07:24:48.000Z</time>
      </trkpt>
      <trkpt lat="47.29995" lon="-2.38221">
        <ele>8.6000003814697</ele>
        <time>2021-09-02T07:24:49.000Z</time>
      </trkpt>
      <trkpt lat="47.29996" lon="-2.38228">
        <ele>9</ele>
        <time>2021-09-02T07:24:50.000Z</time>
      </trkpt>
      <trkpt lat="47.29996" lon="-2.38236">
        <ele>9.3999996185303</ele>
        <time>2021-09-02T07:24:51.000Z</time>
      </trkpt>
      <trkpt lat="47.29997" lon="-2.38243">
        <ele>9.8000001907349</ele>
        <time>2021-09-02T07:24:52.000Z</time>
      </trkpt>
      <trkpt lat="47.29998" lon="-2.38273">
        <ele>9.8000001907349</ele>
        <time>2021-09-02T07:24:56.000Z</time>
      </trkpt>
      <trkpt lat="47.29999" lon="-2.38336">
        <ele>9.8000001907349</ele>
        <time>2021-09-02T07:25:04.000Z</time>
      </trkpt>
      <trkpt lat="47.30002" lon="-2.38402">
        <ele>10.199999809265</ele>
        <time>2021-09-02T07:25:12.000Z</time>
      </trkpt>
      <trkpt lat="47.30003" lon="-2.3841">
        <ele>10.60000038147</ele>
        <time>2021-09-02T07:25:13.000Z</time>
      </trkpt>
      <trkpt lat="47.30003" lon="-2.38418">
        <ele>11</ele>
        <time>2021-09-02T07:25:14.000Z</time>
      </trkpt>
      <trkpt lat="47.30005" lon="-2.38426">
        <ele>11.39999961853</ele>
        <time>2021-09-02T07:25:15.000Z</time>
      </trkpt>
      <trkpt lat="47.30006" lon="-2.38434">
        <ele>11.800000190735</ele>
        <time>2021-09-02T07:25:16.000Z</time>
      </trkpt>
      <trkpt lat="47.30009" lon="-2.38464">
        <ele>11.800000190735</ele>
        <time>2021-09-02T07:25:20.000Z</time>
      </trkpt>
      <trkpt lat="47.30018" lon="-2.38516">
        <ele>11.800000190735</ele>
        <time>2021-09-02T07:25:27.000Z</time>
      </trkpt>
      <trkpt lat="47.30025" lon="-2.38576">
        <ele>11.39999961853</ele>
        <time>2021-09-02T07:25:34.000Z</time>
      </trkpt>
      <trkpt lat="47.30026" lon="-2.38584">
        <ele>10.199999809265</ele>
        <time>2021-09-02T07:25:35.000Z</time>
      </trkpt>
      <trkpt lat="47.30027" lon="-2.38591">
        <ele>9.6000003814697</ele>
        <time>2021-09-02T07:25:36.000Z</time>
      </trkpt>
      <trkpt lat="47.30027" lon="-2.38597">
        <ele>9.1999998092651</ele>
        <time>2021-09-02T07:25:37.000Z</time>
      </trkpt>
      <trkpt lat="47.30028" lon="-2.38602">
        <ele>8.6000003814697</ele>
        <time>2021-09-02T07:25:38.000Z</time>
      </trkpt>
      <trkpt lat="47.30028" lon="-2.38607">
        <ele>8</ele>
        <time>2021-09-02T07:25:39.000Z</time>
      </trkpt>
      <trkpt lat="47.30027" lon="-2.38613">
        <ele>7.4000000953674</ele>
        <time>2021-09-02T07:25:40.000Z</time>
      </trkpt>
      <trkpt lat="47.30026" lon="-2.38619">
        <ele>6.8000001907349</ele>
        <time>2021-09-02T07:25:41.000Z</time>
      </trkpt>
      <trkpt lat="47.30026" lon="-2.38626">
        <ele>6.8000001907349</ele>
        <time>2021-09-02T07:25:42.000Z</time>
      </trkpt>
      <trkpt lat="47.30028" lon="-2.38642">
        <ele>6.8000001907349</ele>
        <time>2021-09-02T07:25:44.000Z</time>
      </trkpt>
      <trkpt lat="47.3003" lon="-2.38687">
        <ele>6.4000000953674</ele>
        <time>2021-09-02T07:25:49.000Z</time>
      </trkpt>
      <trkpt lat="47.3003" lon="-2.38698">
        <ele>6</ele>
        <time>2021-09-02T07:25:50.000Z</time>
      </trkpt>
      <trkpt lat="47.30029" lon="-2.38708">
        <ele>5.5999999046326</ele>
        <time>2021-09-02T07:25:51.000Z</time>
      </trkpt>
      <trkpt lat="47.30027" lon="-2.38719">
        <ele>5.1999998092651</ele>
        <time>2021-09-02T07:25:52.000Z</time>
      </trkpt>
      <trkpt lat="47.30025" lon="-2.3873">
        <ele>4.8000001907349</ele>
        <time>2021-09-02T07:25:53.000Z</time>
      </trkpt>
      <trkpt lat="47.30023" lon="-2.38742">
        <ele>4.8000001907349</ele>
        <time>2021-09-02T07:25:54.000Z</time>
      </trkpt>
      <trkpt lat="47.30018" lon="-2.38778">
        <ele>4.4000000953674</ele>
        <time>2021-09-02T07:25:57.000Z</time>
      </trkpt>
      <trkpt lat="47.30016" lon="-2.3879">
        <ele>4</ele>
        <time>2021-09-02T07:25:58.000Z</time>
      </trkpt>
      <trkpt lat="47.30014" lon="-2.38804">
        <ele>3.5999999046326</ele>
        <time>2021-09-02T07:25:59.000Z</time>
      </trkpt>
      <trkpt lat="47.30012" lon="-2.38817">
        <ele>2.5999999046326</ele>
        <time>2021-09-02T07:26:00.000Z</time>
      </trkpt>
      <trkpt lat="47.30011" lon="-2.38831">
        <ele>2</ele>
        <time>2021-09-02T07:26:01.000Z</time>
      </trkpt>
      <trkpt lat="47.3001" lon="-2.38844">
        <ele>1.6000000238419</ele>
        <time>2021-09-02T07:26:02.000Z</time>
      </trkpt>
      <trkpt lat="47.30009" lon="-2.38856">
        <ele>1</ele>
        <time>2021-09-02T07:26:03.000Z</time>
      </trkpt>
      <trkpt lat="47.30008" lon="-2.38869">
        <ele>0.60000002384186</ele>
        <time>2021-09-02T07:26:04.000Z</time>
      </trkpt>
      <trkpt lat="47.30008" lon="-2.38881">
        <ele>0.20000000298023</ele>
        <time>2021-09-02T07:26:05.000Z</time>
      </trkpt>
      <trkpt lat="47.30008" lon="-2.38893">
        <ele>-0.20000000298023</ele>
        <time>2021-09-02T07:26:06.000Z</time>
      </trkpt>
      <trkpt lat="47.30008" lon="-2.38904">
        <ele>-0.80000001192093</ele>
        <time>2021-09-02T07:26:07.000Z</time>
      </trkpt>
      <trkpt lat="47.30008" lon="-2.38914">
        <ele>-1.3999999761581</ele>
        <time>2021-09-02T07:26:08.000Z</time>
      </trkpt>
      <trkpt lat="47.30008" lon="-2.38924">
        <ele>-2</ele>
        <time>2021-09-02T07:26:09.000Z</time>
      </trkpt>
      <trkpt lat="47.30008" lon="-2.38935">
        <ele>-2.5999999046326</ele>
        <time>2021-09-02T07:26:10.000Z</time>
      </trkpt>
      <trkpt lat="47.30008" lon="-2.38944">
        <ele>-3.2000000476837</ele>
        <time>2021-09-02T07:26:11.000Z</time>
      </trkpt>
      <trkpt lat="47.30008" lon="-2.38954">
        <ele>-3.5999999046326</ele>
        <time>2021-09-02T07:26:12.000Z</time>
      </trkpt>
      <trkpt lat="47.30008" lon="-2.38962">
        <ele>-4.1999998092651</ele>
        <time>2021-09-02T07:26:13.000Z</time>
      </trkpt>
      <trkpt lat="47.30011" lon="-2.38969">
        <ele>-4.5999999046326</ele>
        <time>2021-09-02T07:26:14.000Z</time>
      </trkpt>
      <trkpt lat="47.30014" lon="-2.38974">
        <ele>-5</ele>
        <time>2021-09-02T07:26:15.000Z</time>
      </trkpt>
      <trkpt lat="47.30018" lon="-2.38978">
        <ele>-5.4000000953674</ele>
        <time>2021-09-02T07:26:16.000Z</time>
      </trkpt>
      <trkpt lat="47.30023" lon="-2.38982">
        <ele>-5.8000001907349</ele>
        <time>2021-09-02T07:26:17.000Z</time>
      </trkpt>
      <trkpt lat="47.30027" lon="-2.38987">
        <ele>-5.8000001907349</ele>
        <time>2021-09-02T07:26:18.000Z</time>
      </trkpt>
      <trkpt lat="47.30031" lon="-2.39">
        <ele>-5.8000001907349</ele>
        <time>2021-09-02T07:26:20.000Z</time>
      </trkpt>
      <trkpt lat="47.30024" lon="-2.39018">
        <ele>-5.8000001907349</ele>
        <time>2021-09-02T07:26:23.000Z</time>
      </trkpt>
      <trkpt lat="47.30009" lon="-2.39019">
        <ele>-5.8000001907349</ele>
        <time>2021-09-02T07:26:26.000Z</time>
      </trkpt>
      <trkpt lat="47.29995" lon="-2.39005">
        <ele>-5.8000001907349</ele>
        <time>2021-09-02T07:26:29.000Z</time>
      </trkpt>
      <trkpt lat="47.29977" lon="-2.39003">
        <ele>-5.8000001907349</ele>
        <time>2021-09-02T07:26:32.000Z</time>
      </trkpt>
      <trkpt lat="47.29965" lon="-2.39011">
        <ele>-5.8000001907349</ele>
        <time>2021-09-02T07:26:34.000Z</time>
      </trkpt>
      <trkpt lat="47.29958" lon="-2.39015">
        <ele>-6.4000000953674</ele>
        <time>2021-09-02T07:26:35.000Z</time>
      </trkpt>
      <trkpt lat="47.29952" lon="-2.39019">
        <ele>-6.8000001907349</ele>
        <time>2021-09-02T07:26:36.000Z</time>
      </trkpt>
      <trkpt lat="47.29945" lon="-2.39024">
        <ele>-7.1999998092651</ele>
        <time>2021-09-02T07:26:37.000Z</time>
      </trkpt>
      <trkpt lat="47.29939" lon="-2.39029">
        <ele>-7.5999999046326</ele>
        <time>2021-09-02T07:26:38.000Z</time>
      </trkpt>
      <trkpt lat="47.29932" lon="-2.39034">
        <ele>-8</ele>
        <time>2021-09-02T07:26:39.000Z</time>
      </trkpt>
      <trkpt lat="47.29893" lon="-2.39064">
        <ele>-8</ele>
        <time>2021-09-02T07:26:45.000Z</time>
      </trkpt>
      <trkpt lat="47.29866" lon="-2.39085">
        <ele>-9.1999998092651</ele>
        <time>2021-09-02T07:26:49.000Z</time>
      </trkpt>
      <trkpt lat="47.2986" lon="-2.3909">
        <ele>-9.6000003814697</ele>
        <time>2021-09-02T07:26:50.000Z</time>
      </trkpt>
      <trkpt lat="47.29853" lon="-2.39095">
        <ele>-10.199999809265</ele>
        <time>2021-09-02T07:26:51.000Z</time>
      </trkpt>
      <trkpt lat="47.29846" lon="-2.39099">
        <ele>-10.60000038147</ele>
        <time>2021-09-02T07:26:52.000Z</time>
      </trkpt>
      <trkpt lat="47.29839" lon="-2.39103">
        <ele>-10.60000038147</ele>
        <time>2021-09-02T07:26:53.000Z</time>
      </trkpt>
      <trkpt lat="47.2979" lon="-2.3913">
        <ele>-10.60000038147</ele>
        <time>2021-09-02T07:27:00.000Z</time>
      </trkpt>
      <trkpt lat="47.29762" lon="-2.39143">
        <ele>-11</ele>
        <time>2021-09-02T07:27:04.000Z</time>
      </trkpt>
      <trkpt lat="47.29755" lon="-2.39147">
        <ele>-11.39999961853</ele>
        <time>2021-09-02T07:27:05.000Z</time>
      </trkpt>
      <trkpt lat="47.29749" lon="-2.39151">
        <ele>-11.800000190735</ele>
        <time>2021-09-02T07:27:06.000Z</time>
      </trkpt>
      <trkpt lat="47.29742" lon="-2.39154">
        <ele>-12.199999809265</ele>
        <time>2021-09-02T07:27:07.000Z</time>
      </trkpt>
      <trkpt lat="47.29735" lon="-2.39158">
        <ele>-12.60000038147</ele>
        <time>2021-09-02T07:27:08.000Z</time>
      </trkpt>
      <trkpt lat="47.29722" lon="-2.39166">
        <ele>-12.60000038147</ele>
        <time>2021-09-02T07:27:10.000Z</time>
      </trkpt>
      <trkpt lat="47.29677" lon="-2.39185">
        <ele>-12.60000038147</ele>
        <time>2021-09-02T07:27:17.000Z</time>
      </trkpt>
      <trkpt lat="47.29671" lon="-2.39188">
        <ele>-12.60000038147</ele>
        <time>2021-09-02T07:27:18.000Z</time>
      </trkpt>
      <trkpt lat="47.29667" lon="-2.39193">
        <ele>-13</ele>
        <time>2021-09-02T07:27:19.000Z</time>
      </trkpt>
      <trkpt lat="47.29663" lon="-2.392">
        <ele>-13.39999961853</ele>
        <time>2021-09-02T07:27:20.000Z</time>
      </trkpt>
      <trkpt lat="47.2966" lon="-2.39208">
        <ele>-13.800000190735</ele>
        <time>2021-09-02T07:27:21.000Z</time>
      </trkpt>
      <trkpt lat="47.29658" lon="-2.39217">
        <ele>-14.199999809265</ele>
        <time>2021-09-02T07:27:22.000Z</time>
      </trkpt>
      <trkpt lat="47.29656" lon="-2.39226">
        <ele>-14.60000038147</ele>
        <time>2021-09-02T07:27:23.000Z</time>
      </trkpt>
      <trkpt lat="47.29654" lon="-2.39235">
        <ele>-14.60000038147</ele>
        <time>2021-09-02T07:27:24.000Z</time>
      </trkpt>
      <trkpt lat="47.29653" lon="-2.39245">
        <ele>-14.60000038147</ele>
        <time>2021-09-02T07:27:25.000Z</time>
      </trkpt>
      <trkpt lat="47.29646" lon="-2.3931">
        <ele>-14.60000038147</ele>
        <time>2021-09-02T07:27:32.000Z</time>
      </trkpt>
      <trkpt lat="47.29641" lon="-2.3938">
        <ele>-14.60000038147</ele>
        <time>2021-09-02T07:27:40.000Z</time>
      </trkpt>
      <trkpt lat="47.29633" lon="-2.39413">
        <ele>-14.60000038147</ele>
        <time>2021-09-02T07:27:44.000Z</time>
      </trkpt>
      <trkpt lat="47.29632" lon="-2.39422">
        <ele>-14.60000038147</ele>
        <time>2021-09-02T07:27:45.000Z</time>
      </trkpt>
      <trkpt lat="47.2963" lon="-2.39431">
        <ele>-14.60000038147</ele>
        <time>2021-09-02T07:27:46.000Z</time>
      </trkpt>
      <trkpt lat="47.29624" lon="-2.39447">
        <ele>-14.60000038147</ele>
        <time>2021-09-02T07:27:48.000Z</time>
      </trkpt>
      <trkpt lat="47.29601" lon="-2.39486">
        <ele>-14.60000038147</ele>
        <time>2021-09-02T07:27:54.000Z</time>
      </trkpt>
      <trkpt lat="47.29597" lon="-2.39492">
        <ele>-14.60000038147</ele>
        <time>2021-09-02T07:27:55.000Z</time>
      </trkpt>
      <trkpt lat="47.29582" lon="-2.39499">
        <ele>-14.60000038147</ele>
        <time>2021-09-02T07:27:58.000Z</time>
      </trkpt>
      <trkpt lat="47.29564" lon="-2.39494">
        <ele>-14.60000038147</ele>
        <time>2021-09-02T07:28:02.000Z</time>
      </trkpt>
      <trkpt lat="47.29557" lon="-2.39499">
        <ele>-15</ele>
        <time>2021-09-02T07:28:04.000Z</time>
      </trkpt>
      <trkpt lat="47.29555" lon="-2.39503">
        <ele>-15.60000038147</ele>
        <time>2021-09-02T07:28:05.000Z</time>
      </trkpt>
      <trkpt lat="47.29554" lon="-2.39507">
        <ele>-16</ele>
        <time>2021-09-02T07:28:06.000Z</time>
      </trkpt>
      <trkpt lat="47.29554" lon="-2.39511">
        <ele>-16.39999961853</ele>
        <time>2021-09-02T07:28:07.000Z</time>
      </trkpt>
      <trkpt lat="47.29554" lon="-2.39516">
        <ele>-16.799999237061</ele>
        <time>2021-09-02T07:28:08.000Z</time>
      </trkpt>
      <trkpt lat="47.29554" lon="-2.3952">
        <ele>-16.799999237061</ele>
        <time>2021-09-02T07:28:09.000Z</time>
      </trkpt>
      <trkpt lat="47.29556" lon="-2.39526">
        <ele>-16.39999961853</ele>
        <time>2021-09-02T07:28:11.000Z</time>
      </trkpt>
      <trkpt lat="47.29556" lon="-2.39529">
        <ele>-15.800000190735</ele>
        <time>2021-09-02T07:28:12.000Z</time>
      </trkpt>
      <trkpt lat="47.29556" lon="-2.39533">
        <ele>-15.39999961853</ele>
        <time>2021-09-02T07:28:13.000Z</time>
      </trkpt>
      <trkpt lat="47.29556" lon="-2.39536">
        <ele>-15</ele>
        <time>2021-09-02T07:28:14.000Z</time>
      </trkpt>
      <trkpt lat="47.29556" lon="-2.3954">
        <ele>-14.60000038147</ele>
        <time>2021-09-02T07:28:15.000Z</time>
      </trkpt>
      <trkpt lat="47.29557" lon="-2.39543">
        <ele>-14</ele>
        <time>2021-09-02T07:28:16.000Z</time>
      </trkpt>
      <trkpt lat="47.29559" lon="-2.39545">
        <ele>-13.39999961853</ele>
        <time>2021-09-02T07:28:17.000Z</time>
      </trkpt>
      <trkpt lat="47.29562" lon="-2.39545">
        <ele>-12.800000190735</ele>
        <time>2021-09-02T07:28:18.000Z</time>
      </trkpt>
      <trkpt lat="47.29566" lon="-2.39545">
        <ele>-12.39999961853</ele>
        <time>2021-09-02T07:28:19.000Z</time>
      </trkpt>
      <trkpt lat="47.29572" lon="-2.39546">
        <ele>-12.39999961853</ele>
        <time>2021-09-02T07:28:21.000Z</time>
      </trkpt>
      <trkpt lat="47.29577" lon="-2.39546">
        <ele>-12.39999961853</ele>
        <time>2021-09-02T07:28:23.000Z</time>
      </trkpt>
      <trkpt lat="47.29588" lon="-2.39548">
        <ele>-11.800000190735</ele>
        <time>2021-09-02T07:28:27.000Z</time>
      </trkpt>
      <trkpt lat="47.2959" lon="-2.39549">
        <ele>-11</ele>
        <time>2021-09-02T07:28:28.000Z</time>
      </trkpt>
      <trkpt lat="47.29593" lon="-2.3955">
        <ele>-10.39999961853</ele>
        <time>2021-09-02T07:28:29.000Z</time>
      </trkpt>
      <trkpt lat="47.29596" lon="-2.3955">
        <ele>-10</ele>
        <time>2021-09-02T07:28:30.000Z</time>
      </trkpt>
      <trkpt lat="47.29618" lon="-2.39553">
        <ele>-10</ele>
        <time>2021-09-02T07:28:35.000Z</time>
      </trkpt>
      <trkpt lat="47.29625" lon="-2.39556">
        <ele>-10</ele>
        <time>2021-09-02T07:28:38.000Z</time>
      </trkpt>
      <trkpt lat="47.29622" lon="-2.39562">
        <ele>-10</ele>
        <time>2021-09-02T07:28:41.000Z</time>
      </trkpt>
      <trkpt lat="47.29618" lon="-2.39564">
        <ele>-10.39999961853</ele>
        <time>2021-09-02T07:28:42.000Z</time>
      </trkpt>
      <trkpt lat="47.29615" lon="-2.39565">
        <ele>-11</ele>
        <time>2021-09-02T07:28:43.000Z</time>
      </trkpt>
      <trkpt lat="47.29612" lon="-2.39567">
        <ele>-11.39999961853</ele>
        <time>2021-09-02T07:28:44.000Z</time>
      </trkpt>
      <trkpt lat="47.29611" lon="-2.3957">
        <ele>-11.800000190735</ele>
        <time>2021-09-02T07:28:45.000Z</time>
      </trkpt>
      <trkpt lat="47.29611" lon="-2.39573">
        <ele>-12.39999961853</ele>
        <time>2021-09-02T07:28:46.000Z</time>
      </trkpt>
      <trkpt lat="47.29618" lon="-2.39575">
        <ele>-12.39999961853</ele>
        <time>2021-09-02T07:28:48.000Z</time>
      </trkpt>
      <trkpt lat="47.29622" lon="-2.39575">
        <ele>-12.800000190735</ele>
        <time>2021-09-02T07:28:49.000Z</time>
      </trkpt>
      <trkpt lat="47.29626" lon="-2.39576">
        <ele>-13.199999809265</ele>
        <time>2021-09-02T07:28:50.000Z</time>
      </trkpt>
      <trkpt lat="47.29629" lon="-2.39578">
        <ele>-13.60000038147</ele>
        <time>2021-09-02T07:28:51.000Z</time>
      </trkpt>
      <trkpt lat="47.29631" lon="-2.39582">
        <ele>-14</ele>
        <time>2021-09-02T07:28:52.000Z</time>
      </trkpt>
      <trkpt lat="47.29633" lon="-2.39587">
        <ele>-14.39999961853</ele>
        <time>2021-09-02T07:28:53.000Z</time>
      </trkpt>
      <trkpt lat="47.29634" lon="-2.39604">
        <ele>-14.39999961853</ele>
        <time>2021-09-02T07:28:56.000Z</time>
      </trkpt>
      <trkpt lat="47.29634" lon="-2.3961">
        <ele>-14.39999961853</ele>
        <time>2021-09-02T07:28:57.000Z</time>
      </trkpt>
      <trkpt lat="47.29632" lon="-2.39635">
        <ele>-14.39999961853</ele>
        <time>2021-09-02T07:29:00.000Z</time>
      </trkpt>
      <trkpt lat="47.2963" lon="-2.39643">
        <ele>-14.39999961853</ele>
        <time>2021-09-02T07:29:01.000Z</time>
      </trkpt>
      <trkpt lat="47.29615" lon="-2.39674">
        <ele>-14.39999961853</ele>
        <time>2021-09-02T07:29:05.000Z</time>
      </trkpt>
      <trkpt lat="47.29611" lon="-2.39681">
        <ele>-14.39999961853</ele>
        <time>2021-09-02T07:29:06.000Z</time>
      </trkpt>
      <trkpt lat="47.29586" lon="-2.39724">
        <ele>-14.39999961853</ele>
        <time>2021-09-02T07:29:12.000Z</time>
      </trkpt>
      <trkpt lat="47.29575" lon="-2.39747">
        <ele>-14.800000190735</ele>
        <time>2021-09-02T07:29:15.000Z</time>
      </trkpt>
      <trkpt lat="47.29571" lon="-2.39754">
        <ele>-15.199999809265</ele>
        <time>2021-09-02T07:29:16.000Z</time>
      </trkpt>
      <trkpt lat="47.29567" lon="-2.39762">
        <ele>-16.200000762939</ele>
        <time>2021-09-02T07:29:17.000Z</time>
      </trkpt>
      <trkpt lat="47.29564" lon="-2.3977">
        <ele>-16.60000038147</ele>
        <time>2021-09-02T07:29:18.000Z</time>
      </trkpt>
      <trkpt lat="47.29557" lon="-2.39787">
        <ele>-16.60000038147</ele>
        <time>2021-09-02T07:29:20.000Z</time>
      </trkpt>
      <trkpt lat="47.29534" lon="-2.39831">
        <ele>-16.60000038147</ele>
        <time>2021-09-02T07:29:26.000Z</time>
      </trkpt>
      <trkpt lat="47.29516" lon="-2.39871">
        <ele>-16.60000038147</ele>
        <time>2021-09-02T07:29:32.000Z</time>
      </trkpt>
      <trkpt lat="47.29498" lon="-2.39898">
        <ele>-16.60000038147</ele>
        <time>2021-09-02T07:29:38.000Z</time>
      </trkpt>
      <trkpt lat="47.29489" lon="-2.39908">
        <ele>-16.60000038147</ele>
        <time>2021-09-02T07:29:42.000Z</time>
      </trkpt>
      <trkpt lat="47.29483" lon="-2.39928">
        <ele>-16.60000038147</ele>
        <time>2021-09-02T07:29:46.000Z</time>
      </trkpt>
      <trkpt lat="47.29481" lon="-2.39934">
        <ele>-16.60000038147</ele>
        <time>2021-09-02T07:29:47.000Z</time>
      </trkpt>
      <trkpt lat="47.2947" lon="-2.39959">
        <ele>-16.60000038147</ele>
        <time>2021-09-02T07:29:51.000Z</time>
      </trkpt>
      <trkpt lat="47.29464" lon="-2.3998">
        <ele>-16.60000038147</ele>
        <time>2021-09-02T07:29:54.000Z</time>
      </trkpt>
      <trkpt lat="47.2946" lon="-2.40006">
        <ele>-16.60000038147</ele>
        <time>2021-09-02T07:29:57.000Z</time>
      </trkpt>
      <trkpt lat="47.29461" lon="-2.40032">
        <ele>-16.60000038147</ele>
        <time>2021-09-02T07:30:00.000Z</time>
      </trkpt>
      <trkpt lat="47.29462" lon="-2.40049">
        <ele>-16.60000038147</ele>
        <time>2021-09-02T07:30:02.000Z</time>
      </trkpt>
      <trkpt lat="47.2946" lon="-2.40103">
        <ele>-16.60000038147</ele>
        <time>2021-09-02T07:30:08.000Z</time>
      </trkpt>
      <trkpt lat="47.29456" lon="-2.40151">
        <ele>-16.60000038147</ele>
        <time>2021-09-02T07:30:14.000Z</time>
      </trkpt>
      <trkpt lat="47.29448" lon="-2.40198">
        <ele>-16.60000038147</ele>
        <time>2021-09-02T07:30:20.000Z</time>
      </trkpt>
      <trkpt lat="47.29445" lon="-2.40212">
        <ele>-16.60000038147</ele>
        <time>2021-09-02T07:30:22.000Z</time>
      </trkpt>
      <trkpt lat="47.29438" lon="-2.40219">
        <ele>-16.60000038147</ele>
        <time>2021-09-02T07:30:24.000Z</time>
      </trkpt>
      <trkpt lat="47.29418" lon="-2.4022">
        <ele>-16.60000038147</ele>
        <time>2021-09-02T07:30:28.000Z</time>
      </trkpt>
      <trkpt lat="47.29413" lon="-2.40224">
        <ele>-16.60000038147</ele>
        <time>2021-09-02T07:30:29.000Z</time>
      </trkpt>
      <trkpt lat="47.29382" lon="-2.40242">
        <ele>-16.60000038147</ele>
        <time>2021-09-02T07:30:35.000Z</time>
      </trkpt>
      <trkpt lat="47.29371" lon="-2.4025">
        <ele>-16.60000038147</ele>
        <time>2021-09-02T07:30:37.000Z</time>
      </trkpt>
      <trkpt lat="47.29354" lon="-2.40267">
        <ele>-16.60000038147</ele>
        <time>2021-09-02T07:30:40.000Z</time>
      </trkpt>
      <trkpt lat="47.29327" lon="-2.40293">
        <ele>-16.60000038147</ele>
        <time>2021-09-02T07:30:45.000Z</time>
      </trkpt>
      <trkpt lat="47.29323" lon="-2.40299">
        <ele>-16.60000038147</ele>
        <time>2021-09-02T07:30:46.000Z</time>
      </trkpt>
      <trkpt lat="47.29308" lon="-2.40317">
        <ele>-16.60000038147</ele>
        <time>2021-09-02T07:30:49.000Z</time>
      </trkpt>
      <trkpt lat="47.29293" lon="-2.40331">
        <ele>-16.60000038147</ele>
        <time>2021-09-02T07:30:52.000Z</time>
      </trkpt>
      <trkpt lat="47.29289" lon="-2.40337">
        <ele>-16.60000038147</ele>
        <time>2021-09-02T07:30:53.000Z</time>
      </trkpt>
      <trkpt lat="47.29285" lon="-2.40353">
        <ele>-16.60000038147</ele>
        <time>2021-09-02T07:30:55.000Z</time>
      </trkpt>
      <trkpt lat="47.29292" lon="-2.40378">
        <ele>-16.60000038147</ele>
        <time>2021-09-02T07:30:58.000Z</time>
      </trkpt>
      <trkpt lat="47.293" lon="-2.40391">
        <ele>-16.60000038147</ele>
        <time>2021-09-02T07:31:00.000Z</time>
      </trkpt>
      <trkpt lat="47.29306" lon="-2.40405">
        <ele>-16.60000038147</ele>
        <time>2021-09-02T07:31:02.000Z</time>
      </trkpt>
      <trkpt lat="47.29302" lon="-2.40427">
        <ele>-16.60000038147</ele>
        <time>2021-09-02T07:31:05.000Z</time>
      </trkpt>
      <trkpt lat="47.293" lon="-2.40434">
        <ele>-16.60000038147</ele>
        <time>2021-09-02T07:31:06.000Z</time>
      </trkpt>
      <trkpt lat="47.29291" lon="-2.40455">
        <ele>-17</ele>
        <time>2021-09-02T07:31:09.000Z</time>
      </trkpt>
      <trkpt lat="47.29287" lon="-2.40462">
        <ele>-17.39999961853</ele>
        <time>2021-09-02T07:31:10.000Z</time>
      </trkpt>
      <trkpt lat="47.29282" lon="-2.40467">
        <ele>-17.799999237061</ele>
        <time>2021-09-02T07:31:11.000Z</time>
      </trkpt>
      <trkpt lat="47.29276" lon="-2.4047">
        <ele>-18.200000762939</ele>
        <time>2021-09-02T07:31:12.000Z</time>
      </trkpt>
      <trkpt lat="47.2927" lon="-2.40472">
        <ele>-18.60000038147</ele>
        <time>2021-09-02T07:31:13.000Z</time>
      </trkpt>
      <trkpt lat="47.29263" lon="-2.40474">
        <ele>-18.60000038147</ele>
        <time>2021-09-02T07:31:14.000Z</time>
      </trkpt>
      <trkpt lat="47.29258" lon="-2.40477">
        <ele>-18.60000038147</ele>
        <time>2021-09-02T07:31:15.000Z</time>
      </trkpt>
      <trkpt lat="47.29246" lon="-2.40483">
        <ele>-18.60000038147</ele>
        <time>2021-09-02T07:31:17.000Z</time>
      </trkpt>
      <trkpt lat="47.29222" lon="-2.40497">
        <ele>-18.60000038147</ele>
        <time>2021-09-02T07:31:21.000Z</time>
      </trkpt>
      <trkpt lat="47.29193" lon="-2.40514">
        <ele>-18.60000038147</ele>
        <time>2021-09-02T07:31:26.000Z</time>
      </trkpt>
      <trkpt lat="47.29187" lon="-2.40516">
        <ele>-18.60000038147</ele>
        <time>2021-09-02T07:31:27.000Z</time>
      </trkpt>
      <trkpt lat="47.29177" lon="-2.40519">
        <ele>-18.60000038147</ele>
        <time>2021-09-02T07:31:29.000Z</time>
      </trkpt>
      <trkpt lat="47.29172" lon="-2.40516">
        <ele>-18.60000038147</ele>
        <time>2021-09-02T07:31:30.000Z</time>
      </trkpt>
      <trkpt lat="47.29164" lon="-2.40499">
        <ele>-18.60000038147</ele>
        <time>2021-09-02T07:31:33.000Z</time>
      </trkpt>
      <trkpt lat="47.29161" lon="-2.40493">
        <ele>-18.60000038147</ele>
        <time>2021-09-02T07:31:34.000Z</time>
      </trkpt>
      <trkpt lat="47.29153" lon="-2.40485">
        <ele>-18.60000038147</ele>
        <time>2021-09-02T07:31:36.000Z</time>
      </trkpt>
      <trkpt lat="47.29135" lon="-2.40489">
        <ele>-18.60000038147</ele>
        <time>2021-09-02T07:31:39.000Z</time>
      </trkpt>
      <trkpt lat="47.29118" lon="-2.40499">
        <ele>-18.60000038147</ele>
        <time>2021-09-02T07:31:42.000Z</time>
      </trkpt>
      <trkpt lat="47.29108" lon="-2.40508">
        <ele>-18.60000038147</ele>
        <time>2021-09-02T07:31:44.000Z</time>
      </trkpt>
      <trkpt lat="47.291" lon="-2.4053">
        <ele>-18.60000038147</ele>
        <time>2021-09-02T07:31:47.000Z</time>
      </trkpt>
      <trkpt lat="47.29106" lon="-2.40552">
        <ele>-18.60000038147</ele>
        <time>2021-09-02T07:31:50.000Z</time>
      </trkpt>
      <trkpt lat="47.29116" lon="-2.40561">
        <ele>-18.60000038147</ele>
        <time>2021-09-02T07:31:52.000Z</time>
      </trkpt>
      <trkpt lat="47.29125" lon="-2.40573">
        <ele>-18.60000038147</ele>
        <time>2021-09-02T07:31:54.000Z</time>
      </trkpt>
      <trkpt lat="47.29133" lon="-2.40586">
        <ele>-18.60000038147</ele>
        <time>2021-09-02T07:31:56.000Z</time>
      </trkpt>
      <trkpt lat="47.2914" lon="-2.40602">
        <ele>-18.60000038147</ele>
        <time>2021-09-02T07:31:58.000Z</time>
      </trkpt>
      <trkpt lat="47.29142" lon="-2.4061">
        <ele>-18.60000038147</ele>
        <time>2021-09-02T07:31:59.000Z</time>
      </trkpt>
      <trkpt lat="47.29145" lon="-2.40635">
        <ele>-18.60000038147</ele>
        <time>2021-09-02T07:32:02.000Z</time>
      </trkpt>
      <trkpt lat="47.29147" lon="-2.40641">
        <ele>-18.60000038147</ele>
        <time>2021-09-02T07:32:03.000Z</time>
      </trkpt>
      <trkpt lat="47.29156" lon="-2.40644">
        <ele>-18.60000038147</ele>
        <time>2021-09-02T07:32:05.000Z</time>
      </trkpt>
      <trkpt lat="47.29169" lon="-2.40634">
        <ele>-18.60000038147</ele>
        <time>2021-09-02T07:32:08.000Z</time>
      </trkpt>
      <trkpt lat="47.29182" lon="-2.40625">
        <ele>-18.60000038147</ele>
        <time>2021-09-02T07:32:11.000Z</time>
      </trkpt>
      <trkpt lat="47.29191" lon="-2.40618">
        <ele>-18.60000038147</ele>
        <time>2021-09-02T07:32:13.000Z</time>
      </trkpt>
      <trkpt lat="47.29209" lon="-2.40616">
        <ele>-18.60000038147</ele>
        <time>2021-09-02T07:32:17.000Z</time>
      </trkpt>
      <trkpt lat="47.29224" lon="-2.40638">
        <ele>-18.60000038147</ele>
        <time>2021-09-02T07:32:21.000Z</time>
      </trkpt>
      <trkpt lat="47.29227" lon="-2.40644">
        <ele>-18.60000038147</ele>
        <time>2021-09-02T07:32:22.000Z</time>
      </trkpt>
      <trkpt lat="47.2923" lon="-2.4065">
        <ele>-18.60000038147</ele>
        <time>2021-09-02T07:32:23.000Z</time>
      </trkpt>
      <trkpt lat="47.29234" lon="-2.40663">
        <ele>-18.60000038147</ele>
        <time>2021-09-02T07:32:25.000Z</time>
      </trkpt>
      <trkpt lat="47.29234" lon="-2.40671">
        <ele>-18.60000038147</ele>
        <time>2021-09-02T07:32:26.000Z</time>
      </trkpt>
      <trkpt lat="47.2923" lon="-2.40692">
        <ele>-18.60000038147</ele>
        <time>2021-09-02T07:32:29.000Z</time>
      </trkpt>
      <trkpt lat="47.29224" lon="-2.40705">
        <ele>-18.60000038147</ele>
        <time>2021-09-02T07:32:31.000Z</time>
      </trkpt>
      <trkpt lat="47.29221" lon="-2.40712">
        <ele>-18.60000038147</ele>
        <time>2021-09-02T07:32:32.000Z</time>
      </trkpt>
      <trkpt lat="47.29209" lon="-2.4073">
        <ele>-18.60000038147</ele>
        <time>2021-09-02T07:32:35.000Z</time>
      </trkpt>
      <trkpt lat="47.29191" lon="-2.40757">
        <ele>-18.60000038147</ele>
        <time>2021-09-02T07:32:39.000Z</time>
      </trkpt>
      <trkpt lat="47.29188" lon="-2.40766">
        <ele>-18.60000038147</ele>
        <time>2021-09-02T07:32:40.000Z</time>
      </trkpt>
      <trkpt lat="47.29173" lon="-2.4081">
        <ele>-18.60000038147</ele>
        <time>2021-09-02T07:32:45.000Z</time>
      </trkpt>
      <trkpt lat="47.29172" lon="-2.40819">
        <ele>-18.60000038147</ele>
        <time>2021-09-02T07:32:46.000Z</time>
      </trkpt>
      <trkpt lat="47.29172" lon="-2.4085">
        <ele>-18.60000038147</ele>
        <time>2021-09-02T07:32:49.000Z</time>
      </trkpt>
      <trkpt lat="47.29172" lon="-2.4087">
        <ele>-18.60000038147</ele>
        <time>2021-09-02T07:32:51.000Z</time>
      </trkpt>
      <trkpt lat="47.29167" lon="-2.40889">
        <ele>-18.60000038147</ele>
        <time>2021-09-02T07:32:53.000Z</time>
      </trkpt>
      <trkpt lat="47.29163" lon="-2.40907">
        <ele>-18.60000038147</ele>
        <time>2021-09-02T07:32:55.000Z</time>
      </trkpt>
      <trkpt lat="47.29161" lon="-2.40926">
        <ele>-18.60000038147</ele>
        <time>2021-09-02T07:32:57.000Z</time>
      </trkpt>
      <trkpt lat="47.29173" lon="-2.40946">
        <ele>-18.60000038147</ele>
        <time>2021-09-02T07:33:00.000Z</time>
      </trkpt>
      <trkpt lat="47.29192" lon="-2.40951">
        <ele>-18.60000038147</ele>
        <time>2021-09-02T07:33:03.000Z</time>
      </trkpt>
      <trkpt lat="47.29204" lon="-2.40955">
        <ele>-18.60000038147</ele>
        <time>2021-09-02T07:33:05.000Z</time>
      </trkpt>
      <trkpt lat="47.2921" lon="-2.40961">
        <ele>-18.200000762939</ele>
        <time>2021-09-02T07:33:06.000Z</time>
      </trkpt>
      <trkpt lat="47.29214" lon="-2.40967">
        <ele>-17.799999237061</ele>
        <time>2021-09-02T07:33:07.000Z</time>
      </trkpt>
      <trkpt lat="47.29218" lon="-2.40975">
        <ele>-17.39999961853</ele>
        <time>2021-09-02T07:33:08.000Z</time>
      </trkpt>
      <trkpt lat="47.29221" lon="-2.40983">
        <ele>-17</ele>
        <time>2021-09-02T07:33:09.000Z</time>
      </trkpt>
      <trkpt lat="47.29224" lon="-2.40991">
        <ele>-16.60000038147</ele>
        <time>2021-09-02T07:33:10.000Z</time>
      </trkpt>
      <trkpt lat="47.29227" lon="-2.40998">
        <ele>-16.60000038147</ele>
        <time>2021-09-02T07:33:11.000Z</time>
      </trkpt>
      <trkpt lat="47.29248" lon="-2.4103">
        <ele>-16.60000038147</ele>
        <time>2021-09-02T07:33:16.000Z</time>
      </trkpt>
      <trkpt lat="47.29256" lon="-2.41042">
        <ele>-16.60000038147</ele>
        <time>2021-09-02T07:33:18.000Z</time>
      </trkpt>
      <trkpt lat="47.29257" lon="-2.41058">
        <ele>-16.60000038147</ele>
        <time>2021-09-02T07:33:20.000Z</time>
      </trkpt>
      <trkpt lat="47.29248" lon="-2.41079">
        <ele>-16.60000038147</ele>
        <time>2021-09-02T07:33:23.000Z</time>
      </trkpt>
      <trkpt lat="47.29251" lon="-2.41093">
        <ele>-16.60000038147</ele>
        <time>2021-09-02T07:33:25.000Z</time>
      </trkpt>
      <trkpt lat="47.29254" lon="-2.411">
        <ele>-16.60000038147</ele>
        <time>2021-09-02T07:33:26.000Z</time>
      </trkpt>
      <trkpt lat="47.29258" lon="-2.41106">
        <ele>-16.60000038147</ele>
        <time>2021-09-02T07:33:27.000Z</time>
      </trkpt>
      <trkpt lat="47.29267" lon="-2.41117">
        <ele>-16.60000038147</ele>
        <time>2021-09-02T07:33:29.000Z</time>
      </trkpt>
      <trkpt lat="47.29275" lon="-2.41128">
        <ele>-16.60000038147</ele>
        <time>2021-09-02T07:33:31.000Z</time>
      </trkpt>
      <trkpt lat="47.29284" lon="-2.41142">
        <ele>-16.60000038147</ele>
        <time>2021-09-02T07:33:33.000Z</time>
      </trkpt>
      <trkpt lat="47.29288" lon="-2.41149">
        <ele>-16.60000038147</ele>
        <time>2021-09-02T07:33:34.000Z</time>
      </trkpt>
      <trkpt lat="47.29292" lon="-2.41157">
        <ele>-16.60000038147</ele>
        <time>2021-09-02T07:33:35.000Z</time>
      </trkpt>
      <trkpt lat="47.29301" lon="-2.41183">
        <ele>-16.60000038147</ele>
        <time>2021-09-02T07:33:38.000Z</time>
      </trkpt>
      <trkpt lat="47.29317" lon="-2.41204">
        <ele>-16.60000038147</ele>
        <time>2021-09-02T07:33:41.000Z</time>
      </trkpt>
      <trkpt lat="47.29323" lon="-2.41211">
        <ele>-16.60000038147</ele>
        <time>2021-09-02T07:33:42.000Z</time>
      </trkpt>
      <trkpt lat="47.29348" lon="-2.41242">
        <ele>-16.60000038147</ele>
        <time>2021-09-02T07:33:47.000Z</time>
      </trkpt>
      <trkpt lat="47.29357" lon="-2.41265">
        <ele>-17</ele>
        <time>2021-09-02T07:33:50.000Z</time>
      </trkpt>
      <trkpt lat="47.29358" lon="-2.41274">
        <ele>-17.39999961853</ele>
        <time>2021-09-02T07:33:51.000Z</time>
      </trkpt>
      <trkpt lat="47.29358" lon="-2.41282">
        <ele>-17.799999237061</ele>
        <time>2021-09-02T07:33:52.000Z</time>
      </trkpt>
      <trkpt lat="47.2936" lon="-2.4129">
        <ele>-18.200000762939</ele>
        <time>2021-09-02T07:33:53.000Z</time>
      </trkpt>
      <trkpt lat="47.2936" lon="-2.41297">
        <ele>-18.60000038147</ele>
        <time>2021-09-02T07:33:54.000Z</time>
      </trkpt>
      <trkpt lat="47.29355" lon="-2.4132">
        <ele>-18.60000038147</ele>
        <time>2021-09-02T07:33:57.000Z</time>
      </trkpt>
      <trkpt lat="47.29352" lon="-2.41327">
        <ele>-18.60000038147</ele>
        <time>2021-09-02T07:33:58.000Z</time>
      </trkpt>
      <trkpt lat="47.2935" lon="-2.41336">
        <ele>-18.60000038147</ele>
        <time>2021-09-02T07:33:59.000Z</time>
      </trkpt>
      <trkpt lat="47.2935" lon="-2.41352">
        <ele>-18.60000038147</ele>
        <time>2021-09-02T07:34:01.000Z</time>
      </trkpt>
      <trkpt lat="47.29361" lon="-2.41371">
        <ele>-18.60000038147</ele>
        <time>2021-09-02T07:34:04.000Z</time>
      </trkpt>
      <trkpt lat="47.29366" lon="-2.41377">
        <ele>-18.60000038147</ele>
        <time>2021-09-02T07:34:05.000Z</time>
      </trkpt>
      <trkpt lat="47.29382" lon="-2.414">
        <ele>-18.60000038147</ele>
        <time>2021-09-02T07:34:09.000Z</time>
      </trkpt>
      <trkpt lat="47.29385" lon="-2.41408">
        <ele>-18.60000038147</ele>
        <time>2021-09-02T07:34:10.000Z</time>
      </trkpt>
      <trkpt lat="47.29403" lon="-2.4145">
        <ele>-18.60000038147</ele>
        <time>2021-09-02T07:34:16.000Z</time>
      </trkpt>
      <trkpt lat="47.29429" lon="-2.41483">
        <ele>-18.60000038147</ele>
        <time>2021-09-02T07:34:22.000Z</time>
      </trkpt>
      <trkpt lat="47.29439" lon="-2.41489">
        <ele>-18.60000038147</ele>
        <time>2021-09-02T07:34:24.000Z</time>
      </trkpt>
      <trkpt lat="47.2945" lon="-2.41489">
        <ele>-18.60000038147</ele>
        <time>2021-09-02T07:34:26.000Z</time>
      </trkpt>
      <trkpt lat="47.2946" lon="-2.41485">
        <ele>-18.60000038147</ele>
        <time>2021-09-02T07:34:28.000Z</time>
      </trkpt>
      <trkpt lat="47.29466" lon="-2.41484">
        <ele>-18.60000038147</ele>
        <time>2021-09-02T07:34:29.000Z</time>
      </trkpt>
      <trkpt lat="47.29477" lon="-2.41486">
        <ele>-18.60000038147</ele>
        <time>2021-09-02T07:34:31.000Z</time>
      </trkpt>
      <trkpt lat="47.29498" lon="-2.41482">
        <ele>-18.60000038147</ele>
        <time>2021-09-02T07:34:35.000Z</time>
      </trkpt>
      <trkpt lat="47.29503" lon="-2.41479">
        <ele>-18.60000038147</ele>
        <time>2021-09-02T07:34:36.000Z</time>
      </trkpt>
      <trkpt lat="47.29509" lon="-2.41476">
        <ele>-18.60000038147</ele>
        <time>2021-09-02T07:34:37.000Z</time>
      </trkpt>
      <trkpt lat="47.2952" lon="-2.4148">
        <ele>-18.60000038147</ele>
        <time>2021-09-02T07:34:39.000Z</time>
      </trkpt>
      <trkpt lat="47.29536" lon="-2.41502">
        <ele>-18.60000038147</ele>
        <time>2021-09-02T07:34:43.000Z</time>
      </trkpt>
      <trkpt lat="47.29541" lon="-2.41516">
        <ele>-18.60000038147</ele>
        <time>2021-09-02T07:34:45.000Z</time>
      </trkpt>
      <trkpt lat="47.29544" lon="-2.41531">
        <ele>-18.60000038147</ele>
        <time>2021-09-02T07:34:47.000Z</time>
      </trkpt>
      <trkpt lat="47.29545" lon="-2.4154">
        <ele>-18.60000038147</ele>
        <time>2021-09-02T07:34:48.000Z</time>
      </trkpt>
      <trkpt lat="47.29538" lon="-2.41564">
        <ele>-18.60000038147</ele>
        <time>2021-09-02T07:34:51.000Z</time>
      </trkpt>
      <trkpt lat="47.29531" lon="-2.41586">
        <ele>-18.60000038147</ele>
        <time>2021-09-02T07:34:54.000Z</time>
      </trkpt>
      <trkpt lat="47.29529" lon="-2.41601">
        <ele>-18.60000038147</ele>
        <time>2021-09-02T07:34:56.000Z</time>
      </trkpt>
      <trkpt lat="47.29529" lon="-2.41617">
        <ele>-18.60000038147</ele>
        <time>2021-09-02T07:34:58.000Z</time>
      </trkpt>
      <trkpt lat="47.2953" lon="-2.41632">
        <ele>-18.60000038147</ele>
        <time>2021-09-02T07:35:00.000Z</time>
      </trkpt>
      <trkpt lat="47.29531" lon="-2.41639">
        <ele>-18.60000038147</ele>
        <time>2021-09-02T07:35:01.000Z</time>
      </trkpt>
      <trkpt lat="47.29539" lon="-2.41666">
        <ele>-18.200000762939</ele>
        <time>2021-09-02T07:35:05.000Z</time>
      </trkpt>
      <trkpt lat="47.29542" lon="-2.41673">
        <ele>-17.799999237061</ele>
        <time>2021-09-02T07:35:06.000Z</time>
      </trkpt>
      <trkpt lat="47.29544" lon="-2.4168">
        <ele>-17.39999961853</ele>
        <time>2021-09-02T07:35:07.000Z</time>
      </trkpt>
      <trkpt lat="47.29547" lon="-2.41686">
        <ele>-17</ele>
        <time>2021-09-02T07:35:08.000Z</time>
      </trkpt>
      <trkpt lat="47.2955" lon="-2.41692">
        <ele>-16.60000038147</ele>
        <time>2021-09-02T07:35:09.000Z</time>
      </trkpt>
      <trkpt lat="47.29553" lon="-2.41698">
        <ele>-16.60000038147</ele>
        <time>2021-09-02T07:35:10.000Z</time>
      </trkpt>
      <trkpt lat="47.29567" lon="-2.41711">
        <ele>-16.60000038147</ele>
        <time>2021-09-02T07:35:13.000Z</time>
      </trkpt>
      <trkpt lat="47.29579" lon="-2.41717">
        <ele>-16.60000038147</ele>
        <time>2021-09-02T07:35:15.000Z</time>
      </trkpt>
      <trkpt lat="47.29585" lon="-2.4172">
        <ele>-16.60000038147</ele>
        <time>2021-09-02T07:35:16.000Z</time>
      </trkpt>
      <trkpt lat="47.29596" lon="-2.41729">
        <ele>-16.60000038147</ele>
        <time>2021-09-02T07:35:18.000Z</time>
      </trkpt>
      <trkpt lat="47.2963" lon="-2.41769">
        <ele>-16.60000038147</ele>
        <time>2021-09-02T07:35:25.000Z</time>
      </trkpt>
      <trkpt lat="47.29639" lon="-2.418">
        <ele>-16.60000038147</ele>
        <time>2021-09-02T07:35:29.000Z</time>
      </trkpt>
      <trkpt lat="47.29643" lon="-2.41815">
        <ele>-16.60000038147</ele>
        <time>2021-09-02T07:35:31.000Z</time>
      </trkpt>
      <trkpt lat="47.2965" lon="-2.41825">
        <ele>-16.60000038147</ele>
        <time>2021-09-02T07:35:33.000Z</time>
      </trkpt>
      <trkpt lat="47.29665" lon="-2.41827">
        <ele>-16.60000038147</ele>
        <time>2021-09-02T07:35:36.000Z</time>
      </trkpt>
      <trkpt lat="47.29686" lon="-2.41822">
        <ele>-16.60000038147</ele>
        <time>2021-09-02T07:35:40.000Z</time>
      </trkpt>
      <trkpt lat="47.29692" lon="-2.4182">
        <ele>-16.60000038147</ele>
        <time>2021-09-02T07:35:41.000Z</time>
      </trkpt>
      <trkpt lat="47.29705" lon="-2.4181">
        <ele>-16.60000038147</ele>
        <time>2021-09-02T07:35:44.000Z</time>
      </trkpt>
      <trkpt lat="47.29711" lon="-2.418">
        <ele>-16.60000038147</ele>
        <time>2021-09-02T07:35:46.000Z</time>
      </trkpt>
      <trkpt lat="47.29721" lon="-2.41782">
        <ele>-16.60000038147</ele>
        <time>2021-09-02T07:35:50.000Z</time>
      </trkpt>
      <trkpt lat="47.29738" lon="-2.41763">
        <ele>-16.60000038147</ele>
        <time>2021-09-02T07:35:56.000Z</time>
      </trkpt>
      <trkpt lat="47.29753" lon="-2.41754">
        <ele>-16.60000038147</ele>
        <time>2021-09-02T07:36:02.000Z</time>
      </trkpt>
      <trkpt lat="47.29768" lon="-2.41755">
        <ele>-16.60000038147</ele>
        <time>2021-09-02T07:36:08.000Z</time>
      </trkpt>
      <trkpt lat="47.29773" lon="-2.41775">
        <ele>-16.60000038147</ele>
        <time>2021-09-02T07:36:12.000Z</time>
      </trkpt>
      <trkpt lat="47.29775" lon="-2.41807">
        <ele>-16.60000038147</ele>
        <time>2021-09-02T07:36:17.000Z</time>
      </trkpt>
      <trkpt lat="47.29775" lon="-2.41813">
        <ele>-16.60000038147</ele>
        <time>2021-09-02T07:36:18.000Z</time>
      </trkpt>
      <trkpt lat="47.29771" lon="-2.41876">
        <ele>-16.60000038147</ele>
        <time>2021-09-02T07:36:27.000Z</time>
      </trkpt>
      <trkpt lat="47.29771" lon="-2.41884">
        <ele>-16.60000038147</ele>
        <time>2021-09-02T07:36:28.000Z</time>
      </trkpt>
      <trkpt lat="47.29776" lon="-2.41916">
        <ele>-16.60000038147</ele>
        <time>2021-09-02T07:36:32.000Z</time>
      </trkpt>
      <trkpt lat="47.29788" lon="-2.41978">
        <ele>-16.60000038147</ele>
        <time>2021-09-02T07:36:39.000Z</time>
      </trkpt>
      <trkpt lat="47.29791" lon="-2.42006">
        <ele>-16.60000038147</ele>
        <time>2021-09-02T07:36:42.000Z</time>
      </trkpt>
      <trkpt lat="47.29788" lon="-2.42024">
        <ele>-17</ele>
        <time>2021-09-02T07:36:44.000Z</time>
      </trkpt>
      <trkpt lat="47.29785" lon="-2.42032">
        <ele>-17.39999961853</ele>
        <time>2021-09-02T07:36:45.000Z</time>
      </trkpt>
      <trkpt lat="47.29781" lon="-2.4204">
        <ele>-17.799999237061</ele>
        <time>2021-09-02T07:36:46.000Z</time>
      </trkpt>
      <trkpt lat="47.29777" lon="-2.42048">
        <ele>-18.200000762939</ele>
        <time>2021-09-02T07:36:47.000Z</time>
      </trkpt>
      <trkpt lat="47.29772" lon="-2.42055">
        <ele>-18.60000038147</ele>
        <time>2021-09-02T07:36:48.000Z</time>
      </trkpt>
      <trkpt lat="47.29737" lon="-2.42119">
        <ele>-18.60000038147</ele>
        <time>2021-09-02T07:36:56.000Z</time>
      </trkpt>
      <trkpt lat="47.29733" lon="-2.42127">
        <ele>-18.60000038147</ele>
        <time>2021-09-02T07:36:57.000Z</time>
      </trkpt>
      <trkpt lat="47.29695" lon="-2.42192">
        <ele>-18.60000038147</ele>
        <time>2021-09-02T07:37:05.000Z</time>
      </trkpt>
      <trkpt lat="47.29667" lon="-2.42255">
        <ele>-18.60000038147</ele>
        <time>2021-09-02T07:37:12.000Z</time>
      </trkpt>
      <trkpt lat="47.29653" lon="-2.42316">
        <ele>-18.60000038147</ele>
        <time>2021-09-02T07:37:18.000Z</time>
      </trkpt>
      <trkpt lat="47.29638" lon="-2.4238">
        <ele>-18.60000038147</ele>
        <time>2021-09-02T07:37:25.000Z</time>
      </trkpt>
      <trkpt lat="47.29628" lon="-2.42424">
        <ele>-18.60000038147</ele>
        <time>2021-09-02T07:37:31.000Z</time>
      </trkpt>
      <trkpt lat="47.29627" lon="-2.4243">
        <ele>-18.60000038147</ele>
        <time>2021-09-02T07:37:32.000Z</time>
      </trkpt>
      <trkpt lat="47.29616" lon="-2.42439">
        <ele>-18.60000038147</ele>
        <time>2021-09-02T07:37:35.000Z</time>
      </trkpt>
      <trkpt lat="47.29597" lon="-2.42432">
        <ele>-18.60000038147</ele>
        <time>2021-09-02T07:37:39.000Z</time>
      </trkpt>
      <trkpt lat="47.29581" lon="-2.42427">
        <ele>-18.60000038147</ele>
        <time>2021-09-02T07:37:42.000Z</time>
      </trkpt>
      <trkpt lat="47.29569" lon="-2.42427">
        <ele>-18.60000038147</ele>
        <time>2021-09-02T07:37:44.000Z</time>
      </trkpt>
      <trkpt lat="47.29553" lon="-2.42438">
        <ele>-18.60000038147</ele>
        <time>2021-09-02T07:37:47.000Z</time>
      </trkpt>
      <trkpt lat="47.29545" lon="-2.42449">
        <ele>-18.60000038147</ele>
        <time>2021-09-02T07:37:49.000Z</time>
      </trkpt>
      <trkpt lat="47.29538" lon="-2.42462">
        <ele>-18.60000038147</ele>
        <time>2021-09-02T07:37:51.000Z</time>
      </trkpt>
      <trkpt lat="47.2952" lon="-2.42483">
        <ele>-18.60000038147</ele>
        <time>2021-09-02T07:37:55.000Z</time>
      </trkpt>
      <trkpt lat="47.29514" lon="-2.42487">
        <ele>-18.60000038147</ele>
        <time>2021-09-02T07:37:56.000Z</time>
      </trkpt>
      <trkpt lat="47.29505" lon="-2.42496">
        <ele>-18.60000038147</ele>
        <time>2021-09-02T07:37:58.000Z</time>
      </trkpt>
      <trkpt lat="47.29491" lon="-2.42512">
        <ele>-18.60000038147</ele>
        <time>2021-09-02T07:38:01.000Z</time>
      </trkpt>
      <trkpt lat="47.29459" lon="-2.42547">
        <ele>-18.60000038147</ele>
        <time>2021-09-02T07:38:08.000Z</time>
      </trkpt>
      <trkpt lat="47.2944" lon="-2.42567">
        <ele>-18.60000038147</ele>
        <time>2021-09-02T07:38:12.000Z</time>
      </trkpt>
      <trkpt lat="47.2943" lon="-2.42577">
        <ele>-18.60000038147</ele>
        <time>2021-09-02T07:38:14.000Z</time>
      </trkpt>
      <trkpt lat="47.29426" lon="-2.42583">
        <ele>-18.60000038147</ele>
        <time>2021-09-02T07:38:15.000Z</time>
      </trkpt>
      <trkpt lat="47.2942" lon="-2.426">
        <ele>-18.60000038147</ele>
        <time>2021-09-02T07:38:17.000Z</time>
      </trkpt>
      <trkpt lat="47.29419" lon="-2.42628">
        <ele>-18.60000038147</ele>
        <time>2021-09-02T07:38:20.000Z</time>
      </trkpt>
      <trkpt lat="47.29419" lon="-2.42637">
        <ele>-18.60000038147</ele>
        <time>2021-09-02T07:38:21.000Z</time>
      </trkpt>
      <trkpt lat="47.29415" lon="-2.42682">
        <ele>-18.60000038147</ele>
        <time>2021-09-02T07:38:26.000Z</time>
      </trkpt>
      <trkpt lat="47.29412" lon="-2.42689">
        <ele>-18.60000038147</ele>
        <time>2021-09-02T07:38:27.000Z</time>
      </trkpt>
      <trkpt lat="47.29393" lon="-2.42734">
        <ele>-18.60000038147</ele>
        <time>2021-09-02T07:38:33.000Z</time>
      </trkpt>
      <trkpt lat="47.29388" lon="-2.42749">
        <ele>-18.60000038147</ele>
        <time>2021-09-02T07:38:35.000Z</time>
      </trkpt>
      <trkpt lat="47.29382" lon="-2.42771">
        <ele>-18.60000038147</ele>
        <time>2021-09-02T07:38:38.000Z</time>
      </trkpt>
      <trkpt lat="47.29377" lon="-2.42787">
        <ele>-18.60000038147</ele>
        <time>2021-09-02T07:38:40.000Z</time>
      </trkpt>
      <trkpt lat="47.29367" lon="-2.42807">
        <ele>-18.60000038147</ele>
        <time>2021-09-02T07:38:43.000Z</time>
      </trkpt>
      <trkpt lat="47.29348" lon="-2.4283">
        <ele>-18.60000038147</ele>
        <time>2021-09-02T07:38:47.000Z</time>
      </trkpt>
      <trkpt lat="47.29329" lon="-2.42866">
        <ele>-18.60000038147</ele>
        <time>2021-09-02T07:38:52.000Z</time>
      </trkpt>
      <trkpt lat="47.29324" lon="-2.42882">
        <ele>-18.60000038147</ele>
        <time>2021-09-02T07:38:54.000Z</time>
      </trkpt>
      <trkpt lat="47.29318" lon="-2.42907">
        <ele>-18.60000038147</ele>
        <time>2021-09-02T07:38:57.000Z</time>
      </trkpt>
      <trkpt lat="47.29311" lon="-2.42942">
        <ele>-18.60000038147</ele>
        <time>2021-09-02T07:39:01.000Z</time>
      </trkpt>
      <trkpt lat="47.29312" lon="-2.4296">
        <ele>-18.60000038147</ele>
        <time>2021-09-02T07:39:03.000Z</time>
      </trkpt>
      <trkpt lat="47.29313" lon="-2.42985">
        <ele>-18.60000038147</ele>
        <time>2021-09-02T07:39:06.000Z</time>
      </trkpt>
      <trkpt lat="47.29312" lon="-2.43">
        <ele>-18.60000038147</ele>
        <time>2021-09-02T07:39:08.000Z</time>
      </trkpt>
      <trkpt lat="47.29311" lon="-2.43008">
        <ele>-18.60000038147</ele>
        <time>2021-09-02T07:39:09.000Z</time>
      </trkpt>
      <trkpt lat="47.29305" lon="-2.43041">
        <ele>-18.60000038147</ele>
        <time>2021-09-02T07:39:13.000Z</time>
      </trkpt>
      <trkpt lat="47.29305" lon="-2.43059">
        <ele>-18.60000038147</ele>
        <time>2021-09-02T07:39:15.000Z</time>
      </trkpt>
      <trkpt lat="47.2931" lon="-2.43073">
        <ele>-18.60000038147</ele>
        <time>2021-09-02T07:39:17.000Z</time>
      </trkpt>
      <trkpt lat="47.29324" lon="-2.43084">
        <ele>-18.60000038147</ele>
        <time>2021-09-02T07:39:20.000Z</time>
      </trkpt>
      <trkpt lat="47.2933" lon="-2.43086">
        <ele>-18.60000038147</ele>
        <time>2021-09-02T07:39:21.000Z</time>
      </trkpt>
      <trkpt lat="47.2934" lon="-2.43094">
        <ele>-18.60000038147</ele>
        <time>2021-09-02T07:39:23.000Z</time>
      </trkpt>
      <trkpt lat="47.29348" lon="-2.43105">
        <ele>-18.60000038147</ele>
        <time>2021-09-02T07:39:25.000Z</time>
      </trkpt>
      <trkpt lat="47.29354" lon="-2.43118">
        <ele>-18.60000038147</ele>
        <time>2021-09-02T07:39:27.000Z</time>
      </trkpt>
      <trkpt lat="47.29363" lon="-2.43137">
        <ele>-18.60000038147</ele>
        <time>2021-09-02T07:39:30.000Z</time>
      </trkpt>
      <trkpt lat="47.29365" lon="-2.43145">
        <ele>-18.60000038147</ele>
        <time>2021-09-02T07:39:31.000Z</time>
      </trkpt>
      <trkpt lat="47.2937" lon="-2.43168">
        <ele>-18.60000038147</ele>
        <time>2021-09-02T07:39:34.000Z</time>
      </trkpt>
      <trkpt lat="47.29376" lon="-2.43205">
        <ele>-18.60000038147</ele>
        <time>2021-09-02T07:39:39.000Z</time>
      </trkpt>
      <trkpt lat="47.29376" lon="-2.43213">
        <ele>-18.60000038147</ele>
        <time>2021-09-02T07:39:40.000Z</time>
      </trkpt>
      <trkpt lat="47.29371" lon="-2.43226">
        <ele>-18.60000038147</ele>
        <time>2021-09-02T07:39:42.000Z</time>
      </trkpt>
      <trkpt lat="47.29361" lon="-2.43246">
        <ele>-18.60000038147</ele>
        <time>2021-09-02T07:39:46.000Z</time>
      </trkpt>
      <trkpt lat="47.29362" lon="-2.43273">
        <ele>-18.60000038147</ele>
        <time>2021-09-02T07:39:50.000Z</time>
      </trkpt>
      <trkpt lat="47.29363" lon="-2.4328">
        <ele>-18.60000038147</ele>
        <time>2021-09-02T07:39:51.000Z</time>
      </trkpt>
      <trkpt lat="47.29366" lon="-2.43293">
        <ele>-18.60000038147</ele>
        <time>2021-09-02T07:39:53.000Z</time>
      </trkpt>
      <trkpt lat="47.29372" lon="-2.43304">
        <ele>-18.60000038147</ele>
        <time>2021-09-02T07:39:55.000Z</time>
      </trkpt>
      <trkpt lat="47.2938" lon="-2.43313">
        <ele>-18.60000038147</ele>
        <time>2021-09-02T07:39:57.000Z</time>
      </trkpt>
      <trkpt lat="47.29393" lon="-2.43332">
        <ele>-18.60000038147</ele>
        <time>2021-09-02T07:40:01.000Z</time>
      </trkpt>
      <trkpt lat="47.29408" lon="-2.43355">
        <ele>-18.60000038147</ele>
        <time>2021-09-02T07:40:06.000Z</time>
      </trkpt>
      <trkpt lat="47.2941" lon="-2.4336">
        <ele>-18.60000038147</ele>
        <time>2021-09-02T07:40:07.000Z</time>
      </trkpt>
      <trkpt lat="47.29413" lon="-2.43378">
        <ele>-18.60000038147</ele>
        <time>2021-09-02T07:40:10.000Z</time>
      </trkpt>
      <trkpt lat="47.29414" lon="-2.43383">
        <ele>-18.60000038147</ele>
        <time>2021-09-02T07:40:11.000Z</time>
      </trkpt>
      <trkpt lat="47.29417" lon="-2.43386">
        <ele>-18.60000038147</ele>
        <time>2021-09-02T07:40:12.000Z</time>
      </trkpt>
      <trkpt lat="47.29425" lon="-2.43388">
        <ele>-18.60000038147</ele>
        <time>2021-09-02T07:40:14.000Z</time>
      </trkpt>
      <trkpt lat="47.29437" lon="-2.43401">
        <ele>-18.60000038147</ele>
        <time>2021-09-02T07:40:18.000Z</time>
      </trkpt>
      <trkpt lat="47.29439" lon="-2.43421">
        <ele>-18.60000038147</ele>
        <time>2021-09-02T07:40:22.000Z</time>
      </trkpt>
      <trkpt lat="47.29439" lon="-2.43424">
        <ele>-18.60000038147</ele>
        <time>2021-09-02T07:40:23.000Z</time>
      </trkpt>
      <trkpt lat="47.29443" lon="-2.43443">
        <ele>-18.60000038147</ele>
        <time>2021-09-02T07:40:29.000Z</time>
      </trkpt>
      <trkpt lat="47.29448" lon="-2.43457">
        <ele>-18.60000038147</ele>
        <time>2021-09-02T07:40:35.000Z</time>
      </trkpt>
      <trkpt lat="47.29455" lon="-2.43465">
        <ele>-18.60000038147</ele>
        <time>2021-09-02T07:40:40.000Z</time>
      </trkpt>
      <trkpt lat="47.29456" lon="-2.43464">
        <ele>-18.60000038147</ele>
        <time>2021-09-02T07:40:41.000Z</time>
      </trkpt>
      <trkpt lat="47.29461" lon="-2.43456">
        <ele>-18.60000038147</ele>
        <time>2021-09-02T07:40:45.000Z</time>
      </trkpt>
      <trkpt lat="47.29462" lon="-2.43454">
        <ele>-18.60000038147</ele>
        <time>2021-09-02T07:40:46.000Z</time>
      </trkpt>
      <trkpt lat="47.29471" lon="-2.43439">
        <ele>-18.60000038147</ele>
        <time>2021-09-02T07:40:53.000Z</time>
      </trkpt>
      <trkpt lat="47.29479" lon="-2.43422">
        <ele>-18.60000038147</ele>
        <time>2021-09-02T07:41:00.000Z</time>
      </trkpt>
      <trkpt lat="47.29485" lon="-2.43414">
        <ele>-18.200000762939</ele>
        <time>2021-09-02T07:41:04.000Z</time>
      </trkpt>
      <trkpt lat="47.29486" lon="-2.43412">
        <ele>-17.799999237061</ele>
        <time>2021-09-02T07:41:05.000Z</time>
      </trkpt>
      <trkpt lat="47.29487" lon="-2.43409">
        <ele>-17.39999961853</ele>
        <time>2021-09-02T07:41:06.000Z</time>
      </trkpt>
      <trkpt lat="47.29489" lon="-2.43406">
        <ele>-17</ele>
        <time>2021-09-02T07:41:07.000Z</time>
      </trkpt>
      <trkpt lat="47.29491" lon="-2.43403">
        <ele>-16.60000038147</ele>
        <time>2021-09-02T07:41:08.000Z</time>
      </trkpt>
      <trkpt lat="47.29499" lon="-2.43383">
        <ele>-16.60000038147</ele>
        <time>2021-09-02T07:41:14.000Z</time>
      </trkpt>
      <trkpt lat="47.29509" lon="-2.43366">
        <ele>-16.60000038147</ele>
        <time>2021-09-02T07:41:19.000Z</time>
      </trkpt>
      <trkpt lat="47.29525" lon="-2.43339">
        <ele>-16.60000038147</ele>
        <time>2021-09-02T07:41:27.000Z</time>
      </trkpt>
      <trkpt lat="47.29542" lon="-2.43311">
        <ele>-16.60000038147</ele>
        <time>2021-09-02T07:41:35.000Z</time>
      </trkpt>
      <trkpt lat="47.29556" lon="-2.43288">
        <ele>-16.60000038147</ele>
        <time>2021-09-02T07:41:42.000Z</time>
      </trkpt>
      <trkpt lat="47.29565" lon="-2.43271">
        <ele>-16.60000038147</ele>
        <time>2021-09-02T07:41:48.000Z</time>
      </trkpt>
      <trkpt lat="47.29575" lon="-2.43261">
        <ele>-16.60000038147</ele>
        <time>2021-09-02T07:41:52.000Z</time>
      </trkpt>
      <trkpt lat="47.29598" lon="-2.43247">
        <ele>-16.60000038147</ele>
        <time>2021-09-02T07:41:58.000Z</time>
      </trkpt>
      <trkpt lat="47.29621" lon="-2.43234">
        <ele>-16.60000038147</ele>
        <time>2021-09-02T07:42:03.000Z</time>
      </trkpt>
      <trkpt lat="47.29625" lon="-2.43232">
        <ele>-16.60000038147</ele>
        <time>2021-09-02T07:42:04.000Z</time>
      </trkpt>
      <trkpt lat="47.29651" lon="-2.43224">
        <ele>-16.60000038147</ele>
        <time>2021-09-02T07:42:09.000Z</time>
      </trkpt>
      <trkpt lat="47.29656" lon="-2.43223">
        <ele>-16.60000038147</ele>
        <time>2021-09-02T07:42:10.000Z</time>
      </trkpt>
      <trkpt lat="47.29689" lon="-2.43213">
        <ele>-16.60000038147</ele>
        <time>2021-09-02T07:42:17.000Z</time>
      </trkpt>
      <trkpt lat="47.29721" lon="-2.43204">
        <ele>-16.60000038147</ele>
        <time>2021-09-02T07:42:24.000Z</time>
      </trkpt>
      <trkpt lat="47.2974" lon="-2.43199">
        <ele>-17</ele>
        <time>2021-09-02T07:42:28.000Z</time>
      </trkpt>
      <trkpt lat="47.29745" lon="-2.43198">
        <ele>-17.39999961853</ele>
        <time>2021-09-02T07:42:29.000Z</time>
      </trkpt>
      <trkpt lat="47.2975" lon="-2.43197">
        <ele>-18</ele>
        <time>2021-09-02T07:42:30.000Z</time>
      </trkpt>
      <trkpt lat="47.29754" lon="-2.43196">
        <ele>-18.39999961853</ele>
        <time>2021-09-02T07:42:31.000Z</time>
      </trkpt>
      <trkpt lat="47.29759" lon="-2.43194">
        <ele>-18.799999237061</ele>
        <time>2021-09-02T07:42:32.000Z</time>
      </trkpt>
      <trkpt lat="47.29794" lon="-2.43187">
        <ele>-18.799999237061</ele>
        <time>2021-09-02T07:42:39.000Z</time>
      </trkpt>
      <trkpt lat="47.29805" lon="-2.43188">
        <ele>-18.799999237061</ele>
        <time>2021-09-02T07:42:41.000Z</time>
      </trkpt>
      <trkpt lat="47.29819" lon="-2.43198">
        <ele>-18.799999237061</ele>
        <time>2021-09-02T07:42:44.000Z</time>
      </trkpt>
      <trkpt lat="47.29828" lon="-2.43212">
        <ele>-18.799999237061</ele>
        <time>2021-09-02T07:42:47.000Z</time>
      </trkpt>
      <trkpt lat="47.29837" lon="-2.43226">
        <ele>-18.799999237061</ele>
        <time>2021-09-02T07:42:50.000Z</time>
      </trkpt>
      <trkpt lat="47.29853" lon="-2.43259">
        <ele>-18.799999237061</ele>
        <time>2021-09-02T07:42:57.000Z</time>
      </trkpt>
      <trkpt lat="47.29866" lon="-2.43282">
        <ele>-18.799999237061</ele>
        <time>2021-09-02T07:43:03.000Z</time>
      </trkpt>
      <trkpt lat="47.29872" lon="-2.43294">
        <ele>-18.799999237061</ele>
        <time>2021-09-02T07:43:09.000Z</time>
      </trkpt>
      <trkpt lat="47.29874" lon="-2.43301">
        <ele>-18.799999237061</ele>
        <time>2021-09-02T07:43:16.000Z</time>
      </trkpt>
      <trkpt lat="47.29874" lon="-2.43304">
        <ele>-18.799999237061</ele>
        <time>2021-09-02T07:43:19.000Z</time>
      </trkpt>
      <trkpt lat="47.29877" lon="-2.43308">
        <ele>-18.799999237061</ele>
        <time>2021-09-02T07:43:21.000Z</time>
      </trkpt>
      <trkpt lat="47.29881" lon="-2.43316">
        <ele>-18.799999237061</ele>
        <time>2021-09-02T07:43:25.000Z</time>
      </trkpt>
      <trkpt lat="47.29884" lon="-2.43322">
        <ele>-18.799999237061</ele>
        <time>2021-09-02T07:43:27.000Z</time>
      </trkpt>
      <trkpt lat="47.29894" lon="-2.43323">
        <ele>-18.799999237061</ele>
        <time>2021-09-02T07:43:30.000Z</time>
      </trkpt>
      <trkpt lat="47.29923" lon="-2.43311">
        <ele>-18.799999237061</ele>
        <time>2021-09-02T07:43:36.000Z</time>
      </trkpt>
      <trkpt lat="47.29943" lon="-2.43303">
        <ele>-18.799999237061</ele>
        <time>2021-09-02T07:43:40.000Z</time>
      </trkpt>
      <trkpt lat="47.29953" lon="-2.43299">
        <ele>-18.799999237061</ele>
        <time>2021-09-02T07:43:42.000Z</time>
      </trkpt>
      <trkpt lat="47.29958" lon="-2.43297">
        <ele>-18.799999237061</ele>
        <time>2021-09-02T07:43:43.000Z</time>
      </trkpt>
      <trkpt lat="47.29974" lon="-2.43298">
        <ele>-18.799999237061</ele>
        <time>2021-09-02T07:43:46.000Z</time>
      </trkpt>
      <trkpt lat="47.29995" lon="-2.43313">
        <ele>-18.799999237061</ele>
        <time>2021-09-02T07:43:50.000Z</time>
      </trkpt>
      <trkpt lat="47.3" lon="-2.43318">
        <ele>-18.799999237061</ele>
        <time>2021-09-02T07:43:51.000Z</time>
      </trkpt>
      <trkpt lat="47.30016" lon="-2.4333">
        <ele>-18.799999237061</ele>
        <time>2021-09-02T07:43:54.000Z</time>
      </trkpt>
      <trkpt lat="47.30028" lon="-2.43334">
        <ele>-18.799999237061</ele>
        <time>2021-09-02T07:43:56.000Z</time>
      </trkpt>
      <trkpt lat="47.30047" lon="-2.43336">
        <ele>-18.799999237061</ele>
        <time>2021-09-02T07:43:59.000Z</time>
      </trkpt>
      <trkpt lat="47.30059" lon="-2.43335">
        <ele>-18.799999237061</ele>
        <time>2021-09-02T07:44:01.000Z</time>
      </trkpt>
      <trkpt lat="47.30065" lon="-2.43333">
        <ele>-18.799999237061</ele>
        <time>2021-09-02T07:44:02.000Z</time>
      </trkpt>
      <trkpt lat="47.30096" lon="-2.43326">
        <ele>-18.799999237061</ele>
        <time>2021-09-02T07:44:07.000Z</time>
      </trkpt>
      <trkpt lat="47.30113" lon="-2.43322">
        <ele>-18.799999237061</ele>
        <time>2021-09-02T07:44:10.000Z</time>
      </trkpt>
      <trkpt lat="47.30124" lon="-2.4332">
        <ele>-18.799999237061</ele>
        <time>2021-09-02T07:44:12.000Z</time>
      </trkpt>
      <trkpt lat="47.3017" lon="-2.43306">
        <ele>-18.799999237061</ele>
        <time>2021-09-02T07:44:20.000Z</time>
      </trkpt>
      <trkpt lat="47.30181" lon="-2.43301">
        <ele>-18.799999237061</ele>
        <time>2021-09-02T07:44:22.000Z</time>
      </trkpt>
      <trkpt lat="47.30202" lon="-2.43292">
        <ele>-18.799999237061</ele>
        <time>2021-09-02T07:44:26.000Z</time>
      </trkpt>
      <trkpt lat="47.30236" lon="-2.43276">
        <ele>-18.799999237061</ele>
        <time>2021-09-02T07:44:32.000Z</time>
      </trkpt>
      <trkpt lat="47.30276" lon="-2.4326">
        <ele>-18.799999237061</ele>
        <time>2021-09-02T07:44:39.000Z</time>
      </trkpt>
      <trkpt lat="47.30308" lon="-2.43252">
        <ele>-18.799999237061</ele>
        <time>2021-09-02T07:44:45.000Z</time>
      </trkpt>
      <trkpt lat="47.30328" lon="-2.43246">
        <ele>-18.799999237061</ele>
        <time>2021-09-02T07:44:49.000Z</time>
      </trkpt>
      <trkpt lat="47.30333" lon="-2.43245">
        <ele>-18.799999237061</ele>
        <time>2021-09-02T07:44:50.000Z</time>
      </trkpt>
      <trkpt lat="47.30367" lon="-2.43237">
        <ele>-18.799999237061</ele>
        <time>2021-09-02T07:44:57.000Z</time>
      </trkpt>
      <trkpt lat="47.30377" lon="-2.43235">
        <ele>-18.799999237061</ele>
        <time>2021-09-02T07:44:59.000Z</time>
      </trkpt>
      <trkpt lat="47.30392" lon="-2.43242">
        <ele>-18.799999237061</ele>
        <time>2021-09-02T07:45:02.000Z</time>
      </trkpt>
      <trkpt lat="47.30401" lon="-2.4326">
        <ele>-18.799999237061</ele>
        <time>2021-09-02T07:45:05.000Z</time>
      </trkpt>
      <trkpt lat="47.30408" lon="-2.43284">
        <ele>-18.799999237061</ele>
        <time>2021-09-02T07:45:08.000Z</time>
      </trkpt>
      <trkpt lat="47.30414" lon="-2.43307">
        <ele>-18.799999237061</ele>
        <time>2021-09-02T07:45:11.000Z</time>
      </trkpt>
      <trkpt lat="47.30424" lon="-2.43365">
        <ele>-18.799999237061</ele>
        <time>2021-09-02T07:45:18.000Z</time>
      </trkpt>
      <trkpt lat="47.30431" lon="-2.43404">
        <ele>-18.799999237061</ele>
        <time>2021-09-02T07:45:23.000Z</time>
      </trkpt>
      <trkpt lat="47.30436" lon="-2.43417">
        <ele>-18.799999237061</ele>
        <time>2021-09-02T07:45:25.000Z</time>
      </trkpt>
      <trkpt lat="47.30451" lon="-2.43418">
        <ele>-18.799999237061</ele>
        <time>2021-09-02T07:45:28.000Z</time>
      </trkpt>
      <trkpt lat="47.30461" lon="-2.43413">
        <ele>-18.799999237061</ele>
        <time>2021-09-02T07:45:30.000Z</time>
      </trkpt>
      <trkpt lat="47.30472" lon="-2.43409">
        <ele>-18.799999237061</ele>
        <time>2021-09-02T07:45:32.000Z</time>
      </trkpt>
      <trkpt lat="47.30478" lon="-2.43409">
        <ele>-18.799999237061</ele>
        <time>2021-09-02T07:45:33.000Z</time>
      </trkpt>
      <trkpt lat="47.30496" lon="-2.43411">
        <ele>-18.799999237061</ele>
        <time>2021-09-02T07:45:36.000Z</time>
      </trkpt>
      <trkpt lat="47.30508" lon="-2.43411">
        <ele>-18.799999237061</ele>
        <time>2021-09-02T07:45:38.000Z</time>
      </trkpt>
      <trkpt lat="47.30548" lon="-2.43417">
        <ele>-18.799999237061</ele>
        <time>2021-09-02T07:45:45.000Z</time>
      </trkpt>
      <trkpt lat="47.30588" lon="-2.43415">
        <ele>-18.799999237061</ele>
        <time>2021-09-02T07:45:52.000Z</time>
      </trkpt>
      <trkpt lat="47.3063" lon="-2.43404">
        <ele>-18.799999237061</ele>
        <time>2021-09-02T07:45:59.000Z</time>
      </trkpt>
      <trkpt lat="47.30664" lon="-2.43395">
        <ele>-18.799999237061</ele>
        <time>2021-09-02T07:46:05.000Z</time>
      </trkpt>
      <trkpt lat="47.30698" lon="-2.43389">
        <ele>-18.799999237061</ele>
        <time>2021-09-02T07:46:11.000Z</time>
      </trkpt>
      <trkpt lat="47.30709" lon="-2.4339">
        <ele>-18.799999237061</ele>
        <time>2021-09-02T07:46:13.000Z</time>
      </trkpt>
      <trkpt lat="47.30751" lon="-2.43389">
        <ele>-18.799999237061</ele>
        <time>2021-09-02T07:46:20.000Z</time>
      </trkpt>
      <trkpt lat="47.3079" lon="-2.43389">
        <ele>-18.799999237061</ele>
        <time>2021-09-02T07:46:27.000Z</time>
      </trkpt>
      <trkpt lat="47.30807" lon="-2.43388">
        <ele>-18.799999237061</ele>
        <time>2021-09-02T07:46:30.000Z</time>
      </trkpt>
      <trkpt lat="47.30823" lon="-2.43383">
        <ele>-18.799999237061</ele>
        <time>2021-09-02T07:46:33.000Z</time>
      </trkpt>
      <trkpt lat="47.30863" lon="-2.43367">
        <ele>-18.799999237061</ele>
        <time>2021-09-02T07:46:40.000Z</time>
      </trkpt>
      <trkpt lat="47.30868" lon="-2.43364">
        <ele>-18.799999237061</ele>
        <time>2021-09-02T07:46:41.000Z</time>
      </trkpt>
      <trkpt lat="47.3089" lon="-2.43355">
        <ele>-18.799999237061</ele>
        <time>2021-09-02T07:46:45.000Z</time>
      </trkpt>
      <trkpt lat="47.30945" lon="-2.43332">
        <ele>-18.799999237061</ele>
        <time>2021-09-02T07:46:55.000Z</time>
      </trkpt>
      <trkpt lat="47.3095" lon="-2.4333">
        <ele>-18.799999237061</ele>
        <time>2021-09-02T07:46:56.000Z</time>
      </trkpt>
      <trkpt lat="47.30982" lon="-2.43316">
        <ele>-18.799999237061</ele>
        <time>2021-09-02T07:47:02.000Z</time>
      </trkpt>
      <trkpt lat="47.31008" lon="-2.43299">
        <ele>-18.799999237061</ele>
        <time>2021-09-02T07:47:07.000Z</time>
      </trkpt>
      <trkpt lat="47.31012" lon="-2.43294">
        <ele>-18.799999237061</ele>
        <time>2021-09-02T07:47:08.000Z</time>
      </trkpt>
      <trkpt lat="47.31035" lon="-2.43262">
        <ele>-18.799999237061</ele>
        <time>2021-09-02T07:47:14.000Z</time>
      </trkpt>
      <trkpt lat="47.31058" lon="-2.43233">
        <ele>-18.799999237061</ele>
        <time>2021-09-02T07:47:20.000Z</time>
      </trkpt>
      <trkpt lat="47.31074" lon="-2.43219">
        <ele>-18.799999237061</ele>
        <time>2021-09-02T07:47:24.000Z</time>
      </trkpt>
      <trkpt lat="47.31082" lon="-2.43213">
        <ele>-18.799999237061</ele>
        <time>2021-09-02T07:47:26.000Z</time>
      </trkpt>
      <trkpt lat="47.31103" lon="-2.43196">
        <ele>-18.799999237061</ele>
        <time>2021-09-02T07:47:32.000Z</time>
      </trkpt>
      <trkpt lat="47.31114" lon="-2.43196">
        <ele>-18.799999237061</ele>
        <time>2021-09-02T07:47:35.000Z</time>
      </trkpt>
      <trkpt lat="47.31118" lon="-2.432">
        <ele>-18.799999237061</ele>
        <time>2021-09-02T07:47:36.000Z</time>
      </trkpt>
      <trkpt lat="47.31129" lon="-2.43213">
        <ele>-18.799999237061</ele>
        <time>2021-09-02T07:47:39.000Z</time>
      </trkpt>
      <trkpt lat="47.31136" lon="-2.43224">
        <ele>-18.799999237061</ele>
        <time>2021-09-02T07:47:41.000Z</time>
      </trkpt>
      <trkpt lat="47.3117" lon="-2.43276">
        <ele>-18.799999237061</ele>
        <time>2021-09-02T07:47:50.000Z</time>
      </trkpt>
      <trkpt lat="47.31192" lon="-2.43321">
        <ele>-18.799999237061</ele>
        <time>2021-09-02T07:47:57.000Z</time>
      </trkpt>
      <trkpt lat="47.31203" lon="-2.43372">
        <ele>-18.799999237061</ele>
        <time>2021-09-02T07:48:03.000Z</time>
      </trkpt>
      <trkpt lat="47.31214" lon="-2.43445">
        <ele>-18.799999237061</ele>
        <time>2021-09-02T07:48:11.000Z</time>
      </trkpt>
      <trkpt lat="47.31227" lon="-2.43532">
        <ele>-18.799999237061</ele>
        <time>2021-09-02T07:48:20.000Z</time>
      </trkpt>
      <trkpt lat="47.31228" lon="-2.43542">
        <ele>-18.799999237061</ele>
        <time>2021-09-02T07:48:21.000Z</time>
      </trkpt>
      <trkpt lat="47.31239" lon="-2.43623">
        <ele>-18.799999237061</ele>
        <time>2021-09-02T07:48:29.000Z</time>
      </trkpt>
      <trkpt lat="47.31241" lon="-2.43633">
        <ele>-18.799999237061</ele>
        <time>2021-09-02T07:48:30.000Z</time>
      </trkpt>
      <trkpt lat="47.31256" lon="-2.43694">
        <ele>-18.799999237061</ele>
        <time>2021-09-02T07:48:36.000Z</time>
      </trkpt>
      <trkpt lat="47.31281" lon="-2.43758">
        <ele>-18.799999237061</ele>
        <time>2021-09-02T07:48:43.000Z</time>
      </trkpt>
      <trkpt lat="47.31309" lon="-2.43816">
        <ele>-18.799999237061</ele>
        <time>2021-09-02T07:48:50.000Z</time>
      </trkpt>
      <trkpt lat="47.31314" lon="-2.43822">
        <ele>-18.799999237061</ele>
        <time>2021-09-02T07:48:51.000Z</time>
      </trkpt>
      <trkpt lat="47.31328" lon="-2.43843">
        <ele>-18.799999237061</ele>
        <time>2021-09-02T07:48:54.000Z</time>
      </trkpt>
      <trkpt lat="47.31339" lon="-2.43868">
        <ele>-18.799999237061</ele>
        <time>2021-09-02T07:48:57.000Z</time>
      </trkpt>
      <trkpt lat="47.31359" lon="-2.43923">
        <ele>-18.799999237061</ele>
        <time>2021-09-02T07:49:04.000Z</time>
      </trkpt>
      <trkpt lat="47.31382" lon="-2.4397">
        <ele>-18.799999237061</ele>
        <time>2021-09-02T07:49:10.000Z</time>
      </trkpt>
      <trkpt lat="47.31415" lon="-2.44012">
        <ele>-18.799999237061</ele>
        <time>2021-09-02T07:49:16.000Z</time>
      </trkpt>
      <trkpt lat="47.3145" lon="-2.44057">
        <ele>-18.799999237061</ele>
        <time>2021-09-02T07:49:23.000Z</time>
      </trkpt>
      <trkpt lat="47.31487" lon="-2.44104">
        <ele>-18.799999237061</ele>
        <time>2021-09-02T07:49:31.000Z</time>
      </trkpt>
      <trkpt lat="47.31521" lon="-2.44151">
        <ele>-18.799999237061</ele>
        <time>2021-09-02T07:49:39.000Z</time>
      </trkpt>
      <trkpt lat="47.3154" lon="-2.44194">
        <ele>-18.799999237061</ele>
        <time>2021-09-02T07:49:45.000Z</time>
      </trkpt>
      <trkpt lat="47.31552" lon="-2.44247">
        <ele>-18.799999237061</ele>
        <time>2021-09-02T07:49:51.000Z</time>
      </trkpt>
      <trkpt lat="47.31562" lon="-2.44312">
        <ele>-18.799999237061</ele>
        <time>2021-09-02T07:49:58.000Z</time>
      </trkpt>
      <trkpt lat="47.31573" lon="-2.44388">
        <ele>-18.799999237061</ele>
        <time>2021-09-02T07:50:06.000Z</time>
      </trkpt>
      <trkpt lat="47.31581" lon="-2.44439">
        <ele>-18.799999237061</ele>
        <time>2021-09-02T07:50:12.000Z</time>
      </trkpt>
      <trkpt lat="47.31593" lon="-2.44494">
        <ele>-18.799999237061</ele>
        <time>2021-09-02T07:50:19.000Z</time>
      </trkpt>
      <trkpt lat="47.31612" lon="-2.44539">
        <ele>-18.799999237061</ele>
        <time>2021-09-02T07:50:25.000Z</time>
      </trkpt>
      <trkpt lat="47.3164" lon="-2.44585">
        <ele>-18.799999237061</ele>
        <time>2021-09-02T07:50:32.000Z</time>
      </trkpt>
      <trkpt lat="47.31666" lon="-2.44639">
        <ele>-18.799999237061</ele>
        <time>2021-09-02T07:50:40.000Z</time>
      </trkpt>
      <trkpt lat="47.31688" lon="-2.4469">
        <ele>-18.799999237061</ele>
        <time>2021-09-02T07:50:47.000Z</time>
      </trkpt>
      <trkpt lat="47.31713" lon="-2.44752">
        <ele>-18.799999237061</ele>
        <time>2021-09-02T07:50:56.000Z</time>
      </trkpt>
      <trkpt lat="47.3173" lon="-2.44785">
        <ele>-18.799999237061</ele>
        <time>2021-09-02T07:51:02.000Z</time>
      </trkpt>
      <trkpt lat="47.31733" lon="-2.44786">
        <ele>-18.799999237061</ele>
        <time>2021-09-02T07:51:03.000Z</time>
      </trkpt>
      <trkpt lat="47.31744" lon="-2.44776">
        <ele>-18.799999237061</ele>
        <time>2021-09-02T07:51:06.000Z</time>
      </trkpt>
      <trkpt lat="47.31748" lon="-2.44772">
        <ele>-18.799999237061</ele>
        <time>2021-09-02T07:51:07.000Z</time>
      </trkpt>
      <trkpt lat="47.31764" lon="-2.44754">
        <ele>-18.799999237061</ele>
        <time>2021-09-02T07:51:11.000Z</time>
      </trkpt>
      <trkpt lat="47.31789" lon="-2.44738">
        <ele>-18.39999961853</ele>
        <time>2021-09-02T07:51:16.000Z</time>
      </trkpt>
      <trkpt lat="47.31794" lon="-2.44736">
        <ele>-18</ele>
        <time>2021-09-02T07:51:17.000Z</time>
      </trkpt>
      <trkpt lat="47.31799" lon="-2.44733">
        <ele>-17.60000038147</ele>
        <time>2021-09-02T07:51:18.000Z</time>
      </trkpt>
      <trkpt lat="47.31805" lon="-2.44731">
        <ele>-17.200000762939</ele>
        <time>2021-09-02T07:51:19.000Z</time>
      </trkpt>
      <trkpt lat="47.3181" lon="-2.44729">
        <ele>-16.799999237061</ele>
        <time>2021-09-02T07:51:20.000Z</time>
      </trkpt>
      <trkpt lat="47.3182" lon="-2.44723">
        <ele>-16.799999237061</ele>
        <time>2021-09-02T07:51:22.000Z</time>
      </trkpt>
      <trkpt lat="47.31824" lon="-2.44719">
        <ele>-16.799999237061</ele>
        <time>2021-09-02T07:51:23.000Z</time>
      </trkpt>
      <trkpt lat="47.31845" lon="-2.44695">
        <ele>-16.799999237061</ele>
        <time>2021-09-02T07:51:28.000Z</time>
      </trkpt>
      <trkpt lat="47.31847" lon="-2.44689">
        <ele>-16.799999237061</ele>
        <time>2021-09-02T07:51:29.000Z</time>
      </trkpt>
      <trkpt lat="47.31862" lon="-2.4466">
        <ele>-16.39999961853</ele>
        <time>2021-09-02T07:51:34.000Z</time>
      </trkpt>
      <trkpt lat="47.31864" lon="-2.44654">
        <ele>-16</ele>
        <time>2021-09-02T07:51:35.000Z</time>
      </trkpt>
      <trkpt lat="47.31866" lon="-2.44648">
        <ele>-15.60000038147</ele>
        <time>2021-09-02T07:51:36.000Z</time>
      </trkpt>
      <trkpt lat="47.31869" lon="-2.44643">
        <ele>-15.199999809265</ele>
        <time>2021-09-02T07:51:37.000Z</time>
      </trkpt>
      <trkpt lat="47.31871" lon="-2.44637">
        <ele>-14.800000190735</ele>
        <time>2021-09-02T07:51:38.000Z</time>
      </trkpt>
      <trkpt lat="47.31885" lon="-2.44602">
        <ele>-14.800000190735</ele>
        <time>2021-09-02T07:51:45.000Z</time>
      </trkpt>
      <trkpt lat="47.31901" lon="-2.44563">
        <ele>-14.800000190735</ele>
        <time>2021-09-02T07:51:53.000Z</time>
      </trkpt>
      <trkpt lat="47.31906" lon="-2.44551">
        <ele>-14.800000190735</ele>
        <time>2021-09-02T07:51:55.000Z</time>
      </trkpt>
      <trkpt lat="47.31915" lon="-2.44527">
        <ele>-14.800000190735</ele>
        <time>2021-09-02T07:51:59.000Z</time>
      </trkpt>
      <trkpt lat="47.31935" lon="-2.44481">
        <ele>-14.800000190735</ele>
        <time>2021-09-02T07:52:07.000Z</time>
      </trkpt>
      <trkpt lat="47.31954" lon="-2.44435">
        <ele>-14.800000190735</ele>
        <time>2021-09-02T07:52:14.000Z</time>
      </trkpt>
      <trkpt lat="47.31971" lon="-2.44379">
        <ele>-14.800000190735</ele>
        <time>2021-09-02T07:52:22.000Z</time>
      </trkpt>
      <trkpt lat="47.31976" lon="-2.44367">
        <ele>-14.800000190735</ele>
        <time>2021-09-02T07:52:24.000Z</time>
      </trkpt>
      <trkpt lat="47.31986" lon="-2.44352">
        <ele>-14.800000190735</ele>
        <time>2021-09-02T07:52:27.000Z</time>
      </trkpt>
      <trkpt lat="47.31999" lon="-2.44336">
        <ele>-14.800000190735</ele>
        <time>2021-09-02T07:52:31.000Z</time>
      </trkpt>
      <trkpt lat="47.32005" lon="-2.44325">
        <ele>-14.800000190735</ele>
        <time>2021-09-02T07:52:33.000Z</time>
      </trkpt>
      <trkpt lat="47.32026" lon="-2.44293">
        <ele>-14.800000190735</ele>
        <time>2021-09-02T07:52:40.000Z</time>
      </trkpt>
      <trkpt lat="47.32028" lon="-2.44289">
        <ele>-14.39999961853</ele>
        <time>2021-09-02T07:52:41.000Z</time>
      </trkpt>
      <trkpt lat="47.32031" lon="-2.44284">
        <ele>-13.800000190735</ele>
        <time>2021-09-02T07:52:42.000Z</time>
      </trkpt>
      <trkpt lat="47.32034" lon="-2.4428">
        <ele>-13.39999961853</ele>
        <time>2021-09-02T07:52:43.000Z</time>
      </trkpt>
      <trkpt lat="47.32037" lon="-2.44275">
        <ele>-12.60000038147</ele>
        <time>2021-09-02T07:52:44.000Z</time>
      </trkpt>
      <trkpt lat="47.32042" lon="-2.44266">
        <ele>-12</ele>
        <time>2021-09-02T07:52:46.000Z</time>
      </trkpt>
      <trkpt lat="47.32045" lon="-2.44262">
        <ele>-11.60000038147</ele>
        <time>2021-09-02T07:52:47.000Z</time>
      </trkpt>
      <trkpt lat="47.32047" lon="-2.44257">
        <ele>-11.199999809265</ele>
        <time>2021-09-02T07:52:48.000Z</time>
      </trkpt>
      <trkpt lat="47.3205" lon="-2.44253">
        <ele>-10.800000190735</ele>
        <time>2021-09-02T07:52:49.000Z</time>
      </trkpt>
      <trkpt lat="47.32053" lon="-2.44249">
        <ele>-10.39999961853</ele>
        <time>2021-09-02T07:52:50.000Z</time>
      </trkpt>
      <trkpt lat="47.32063" lon="-2.44235">
        <ele>-10.39999961853</ele>
        <time>2021-09-02T07:52:54.000Z</time>
      </trkpt>
      <trkpt lat="47.32071" lon="-2.44224">
        <ele>-9.8000001907349</ele>
        <time>2021-09-02T07:52:57.000Z</time>
      </trkpt>
      <trkpt lat="47.32074" lon="-2.44221">
        <ele>-9.3999996185303</ele>
        <time>2021-09-02T07:52:58.000Z</time>
      </trkpt>
      <trkpt lat="47.32077" lon="-2.44217">
        <ele>-9</ele>
        <time>2021-09-02T07:52:59.000Z</time>
      </trkpt>
      <trkpt lat="47.3208" lon="-2.44214">
        <ele>-8.3999996185303</ele>
        <time>2021-09-02T07:53:00.000Z</time>
      </trkpt>
      <trkpt lat="47.32082" lon="-2.4421">
        <ele>-8</ele>
        <time>2021-09-02T07:53:01.000Z</time>
      </trkpt>
      <trkpt lat="47.32091" lon="-2.44199">
        <ele>-7.5999999046326</ele>
        <time>2021-09-02T07:53:04.000Z</time>
      </trkpt>
      <trkpt lat="47.32093" lon="-2.44195">
        <ele>-7.1999998092651</ele>
        <time>2021-09-02T07:53:05.000Z</time>
      </trkpt>
      <trkpt lat="47.32096" lon="-2.44191">
        <ele>-6.8000001907349</ele>
        <time>2021-09-02T07:53:06.000Z</time>
      </trkpt>
      <trkpt lat="47.32099" lon="-2.44188">
        <ele>-6.4000000953674</ele>
        <time>2021-09-02T07:53:07.000Z</time>
      </trkpt>
      <trkpt lat="47.32101" lon="-2.44185">
        <ele>-6</ele>
        <time>2021-09-02T07:53:08.000Z</time>
      </trkpt>
      <trkpt lat="47.32104" lon="-2.44181">
        <ele>-6</ele>
        <time>2021-09-02T07:53:09.000Z</time>
      </trkpt>
      <trkpt lat="47.32118" lon="-2.44165">
        <ele>-5.5999999046326</ele>
        <time>2021-09-02T07:53:14.000Z</time>
      </trkpt>
      <trkpt lat="47.3212" lon="-2.44161">
        <ele>-5.1999998092651</ele>
        <time>2021-09-02T07:53:15.000Z</time>
      </trkpt>
      <trkpt lat="47.32123" lon="-2.44158">
        <ele>-4.5999999046326</ele>
        <time>2021-09-02T07:53:16.000Z</time>
      </trkpt>
      <trkpt lat="47.32125" lon="-2.44155">
        <ele>-4.1999998092651</ele>
        <time>2021-09-02T07:53:17.000Z</time>
      </trkpt>
      <trkpt lat="47.32127" lon="-2.44151">
        <ele>-3.7999999523163</ele>
        <time>2021-09-02T07:53:18.000Z</time>
      </trkpt>
      <trkpt lat="47.32134" lon="-2.44143">
        <ele>-3.4000000953674</ele>
        <time>2021-09-02T07:53:21.000Z</time>
      </trkpt>
      <trkpt lat="47.32137" lon="-2.4414">
        <ele>-3</ele>
        <time>2021-09-02T07:53:22.000Z</time>
      </trkpt>
      <trkpt lat="47.32139" lon="-2.44137">
        <ele>-2.5999999046326</ele>
        <time>2021-09-02T07:53:23.000Z</time>
      </trkpt>
      <trkpt lat="47.32142" lon="-2.44133">
        <ele>-2.2000000476837</ele>
        <time>2021-09-02T07:53:24.000Z</time>
      </trkpt>
      <trkpt lat="47.32144" lon="-2.44131">
        <ele>-1.6000000238419</ele>
        <time>2021-09-02T07:53:25.000Z</time>
      </trkpt>
      <trkpt lat="47.3216" lon="-2.44113">
        <ele>-1.6000000238419</ele>
        <time>2021-09-02T07:53:31.000Z</time>
      </trkpt>
      <trkpt lat="47.32165" lon="-2.44107">
        <ele>-0.80000001192093</ele>
        <time>2021-09-02T07:53:33.000Z</time>
      </trkpt>
      <trkpt lat="47.32167" lon="-2.44104">
        <ele>-0.40000000596046</ele>
        <time>2021-09-02T07:53:34.000Z</time>
      </trkpt>
      <trkpt lat="47.3217" lon="-2.441">
        <ele>26.6</ele>
        <time>2021-09-02T07:53:35.000Z</time>
      </trkpt>
      <trkpt lat="47.32173" lon="-2.44098">
        <ele>0.40000000596046</ele>
        <time>2021-09-02T07:53:36.000Z</time>
      </trkpt>
      <trkpt lat="47.32178" lon="-2.44093">
        <ele>0.40000000596046</ele>
        <time>2021-09-02T07:53:38.000Z</time>
      </trkpt>
      <trkpt lat="47.32186" lon="-2.44085">
        <ele>0.80000001192093</ele>
        <time>2021-09-02T07:53:41.000Z</time>
      </trkpt>
      <trkpt lat="47.32189" lon="-2.44083">
        <ele>1.2000000476837</ele>
        <time>2021-09-02T07:53:42.000Z</time>
      </trkpt>
      <trkpt lat="47.32192" lon="-2.44081">
        <ele>1.6000000238419</ele>
        <time>2021-09-02T07:53:43.000Z</time>
      </trkpt>
      <trkpt lat="47.32195" lon="-2.44078">
        <ele>2.2000000476837</ele>
        <time>2021-09-02T07:53:44.000Z</time>
      </trkpt>
      <trkpt lat="47.32197" lon="-2.44076">
        <ele>2.5999999046326</ele>
        <time>2021-09-02T07:53:45.000Z</time>
      </trkpt>
      <trkpt lat="47.322" lon="-2.44074">
        <ele>2.5999999046326</ele>
        <time>2021-09-02T07:53:46.000Z</time>
      </trkpt>
      <trkpt lat="47.32216" lon="-2.4406">
        <ele>2.5999999046326</ele>
        <time>2021-09-02T07:53:52.000Z</time>
      </trkpt>
      <trkpt lat="47.32221" lon="-2.44057">
        <ele>3</ele>
        <time>2021-09-02T07:53:54.000Z</time>
      </trkpt>
      <trkpt lat="47.32223" lon="-2.44056">
        <ele>3.4000000953674</ele>
        <time>2021-09-02T07:53:55.000Z</time>
      </trkpt>
      <trkpt lat="47.32226" lon="-2.44055">
        <ele>3.7999999523163</ele>
        <time>2021-09-02T07:53:56.000Z</time>
      </trkpt>
      <trkpt lat="47.32229" lon="-2.44053">
        <ele>4.4000000953674</ele>
        <time>2021-09-02T07:53:57.000Z</time>
      </trkpt>
      <trkpt lat="47.32232" lon="-2.44053">
        <ele>4.8000001907349</ele>
        <time>2021-09-02T07:53:58.000Z</time>
      </trkpt>
      <trkpt lat="47.32235" lon="-2.44052">
        <ele>4.8000001907349</ele>
        <time>2021-09-02T07:53:59.000Z</time>
      </trkpt>
      <trkpt lat="47.3225" lon="-2.44046">
        <ele>4.8000001907349</ele>
        <time>2021-09-02T07:54:04.000Z</time>
      </trkpt>
      <trkpt lat="47.32271" lon="-2.44047">
        <ele>4.8000001907349</ele>
        <time>2021-09-02T07:54:10.000Z</time>
      </trkpt>
      <trkpt lat="47.32278" lon="-2.44047">
        <ele>5.1999998092651</ele>
        <time>2021-09-02T07:54:12.000Z</time>
      </trkpt>
      <trkpt lat="47.32281" lon="-2.44048">
        <ele>5.5999999046326</ele>
        <time>2021-09-02T07:54:13.000Z</time>
      </trkpt>
      <trkpt lat="47.32284" lon="-2.44049">
        <ele>6</ele>
        <time>2021-09-02T07:54:14.000Z</time>
      </trkpt>
      <trkpt lat="47.32287" lon="-2.4405">
        <ele>6.4000000953674</ele>
        <time>2021-09-02T07:54:15.000Z</time>
      </trkpt>
      <trkpt lat="47.3229" lon="-2.4405">
        <ele>6.8000001907349</ele>
        <time>2021-09-02T07:54:16.000Z</time>
      </trkpt>
      <trkpt lat="47.3231" lon="-2.44059">
        <ele>6.8000001907349</ele>
        <time>2021-09-02T07:54:22.000Z</time>
      </trkpt>
      <trkpt lat="47.32334" lon="-2.44067">
        <ele>6.8000001907349</ele>
        <time>2021-09-02T07:54:29.000Z</time>
      </trkpt>
      <trkpt lat="47.32341" lon="-2.44069">
        <ele>7.1999998092651</ele>
        <time>2021-09-02T07:54:31.000Z</time>
      </trkpt>
      <trkpt lat="47.32344" lon="-2.44069">
        <ele>7.5999999046326</ele>
        <time>2021-09-02T07:54:32.000Z</time>
      </trkpt>
      <trkpt lat="47.32347" lon="-2.4407">
        <ele>8</ele>
        <time>2021-09-02T07:54:33.000Z</time>
      </trkpt>
      <trkpt lat="47.32351" lon="-2.4407">
        <ele>8.6000003814697</ele>
        <time>2021-09-02T07:54:34.000Z</time>
      </trkpt>
      <trkpt lat="47.32354" lon="-2.44069">
        <ele>9</ele>
        <time>2021-09-02T07:54:35.000Z</time>
      </trkpt>
      <trkpt lat="47.32382" lon="-2.44059">
        <ele>9</ele>
        <time>2021-09-02T07:54:43.000Z</time>
      </trkpt>
      <trkpt lat="47.32391" lon="-2.44055">
        <ele>9.8000001907349</ele>
        <time>2021-09-02T07:54:46.000Z</time>
      </trkpt>
      <trkpt lat="47.32394" lon="-2.44053">
        <ele>10.199999809265</ele>
        <time>2021-09-02T07:54:47.000Z</time>
      </trkpt>
      <trkpt lat="47.32398" lon="-2.44052">
        <ele>10.60000038147</ele>
        <time>2021-09-02T07:54:48.000Z</time>
      </trkpt>
      <trkpt lat="47.32401" lon="-2.44051">
        <ele>11</ele>
        <time>2021-09-02T07:54:49.000Z</time>
      </trkpt>
      <trkpt lat="47.32404" lon="-2.44049">
        <ele>11</ele>
        <time>2021-09-02T07:54:50.000Z</time>
      </trkpt>
      <trkpt lat="47.32426" lon="-2.44034">
        <ele>11.39999961853</ele>
        <time>2021-09-02T07:54:57.000Z</time>
      </trkpt>
      <trkpt lat="47.32429" lon="-2.44032">
        <ele>11.800000190735</ele>
        <time>2021-09-02T07:54:58.000Z</time>
      </trkpt>
      <trkpt lat="47.32432" lon="-2.4403">
        <ele>12.199999809265</ele>
        <time>2021-09-02T07:54:59.000Z</time>
      </trkpt>
      <trkpt lat="47.32435" lon="-2.44028">
        <ele>12.60000038147</ele>
        <time>2021-09-02T07:55:00.000Z</time>
      </trkpt>
      <trkpt lat="47.32438" lon="-2.44026">
        <ele>13</ele>
        <time>2021-09-02T07:55:01.000Z</time>
      </trkpt>
      <trkpt lat="47.32448" lon="-2.44019">
        <ele>13</ele>
        <time>2021-09-02T07:55:04.000Z</time>
      </trkpt>
      <trkpt lat="47.32468" lon="-2.44006">
        <ele>13</ele>
        <time>2021-09-02T07:55:10.000Z</time>
      </trkpt>
      <trkpt lat="47.3249" lon="-2.43991">
        <ele>13.39999961853</ele>
        <time>2021-09-02T07:55:17.000Z</time>
      </trkpt>
      <trkpt lat="47.32493" lon="-2.43991">
        <ele>13.800000190735</ele>
        <time>2021-09-02T07:55:18.000Z</time>
      </trkpt>
      <trkpt lat="47.32495" lon="-2.4399">
        <ele>14.199999809265</ele>
        <time>2021-09-02T07:55:19.000Z</time>
      </trkpt>
      <trkpt lat="47.32497" lon="-2.43988">
        <ele>14.60000038147</ele>
        <time>2021-09-02T07:55:20.000Z</time>
      </trkpt>
      <trkpt lat="47.32499" lon="-2.43987">
        <ele>15</ele>
        <time>2021-09-02T07:55:21.000Z</time>
      </trkpt>
      <trkpt lat="47.32502" lon="-2.43986">
        <ele>15</ele>
        <time>2021-09-02T07:55:23.000Z</time>
      </trkpt>
      <trkpt lat="47.32502" lon="-2.43986">
        <ele>15</ele>
        <time>2021-09-02T07:55:25.000Z</time>
      </trkpt>
      <trkpt lat="47.32506" lon="-2.43991">
        <ele>15</ele>
        <time>2021-09-02T07:56:44.000Z</time>
      </trkpt>
      <trkpt lat="47.32518" lon="-2.44009">
        <ele>15</ele>
        <time>2021-09-02T07:56:48.000Z</time>
      </trkpt>
      <trkpt lat="47.3254" lon="-2.44025">
        <ele>15</ele>
        <time>2021-09-02T07:56:54.000Z</time>
      </trkpt>
      <trkpt lat="47.32563" lon="-2.44032">
        <ele>15</ele>
        <time>2021-09-02T07:57:00.000Z</time>
      </trkpt>
      <trkpt lat="47.32573" lon="-2.44041">
        <ele>15</ele>
        <time>2021-09-02T07:57:05.000Z</time>
      </trkpt>
      <trkpt lat="47.32566" lon="-2.44055">
        <ele>15</ele>
        <time>2021-09-02T07:57:08.000Z</time>
      </trkpt>
      <trkpt lat="47.32562" lon="-2.44065">
        <ele>15</ele>
        <time>2021-09-02T07:57:10.000Z</time>
      </trkpt>
      <trkpt lat="47.32556" lon="-2.44082">
        <ele>15</ele>
        <time>2021-09-02T07:57:13.000Z</time>
      </trkpt>
      <trkpt lat="47.32554" lon="-2.44087">
        <ele>15</ele>
        <time>2021-09-02T07:57:14.000Z</time>
      </trkpt>
      <trkpt lat="47.32543" lon="-2.44129">
        <ele>15</ele>
        <time>2021-09-02T07:57:21.000Z</time>
      </trkpt>
      <trkpt lat="47.32535" lon="-2.44157">
        <ele>15</ele>
        <time>2021-09-02T07:57:26.000Z</time>
      </trkpt>
      <trkpt lat="47.32529" lon="-2.44174">
        <ele>15</ele>
        <time>2021-09-02T07:57:29.000Z</time>
      </trkpt>
      <trkpt lat="47.32527" lon="-2.44199">
        <ele>15</ele>
        <time>2021-09-02T07:57:33.000Z</time>
      </trkpt>
      <trkpt lat="47.32529" lon="-2.44206">
        <ele>15</ele>
        <time>2021-09-02T07:57:34.000Z</time>
      </trkpt>
      <trkpt lat="47.32547" lon="-2.44236">
        <ele>15</ele>
        <time>2021-09-02T07:57:40.000Z</time>
      </trkpt>
      <trkpt lat="47.32553" lon="-2.44248">
        <ele>15</ele>
        <time>2021-09-02T07:57:42.000Z</time>
      </trkpt>
      <trkpt lat="47.3256" lon="-2.44267">
        <ele>15</ele>
        <time>2021-09-02T07:57:45.000Z</time>
      </trkpt>
      <trkpt lat="47.32561" lon="-2.44276">
        <ele>15</ele>
        <time>2021-09-02T07:57:46.000Z</time>
      </trkpt>
      <trkpt lat="47.32566" lon="-2.44304">
        <ele>15</ele>
        <time>2021-09-02T07:57:50.000Z</time>
      </trkpt>
      <trkpt lat="47.32569" lon="-2.44311">
        <ele>15</ele>
        <time>2021-09-02T07:57:51.000Z</time>
      </trkpt>
      <trkpt lat="47.32577" lon="-2.4433">
        <ele>15</ele>
        <time>2021-09-02T07:57:54.000Z</time>
      </trkpt>
      <trkpt lat="47.32586" lon="-2.44356">
        <ele>15</ele>
        <time>2021-09-02T07:57:58.000Z</time>
      </trkpt>
      <trkpt lat="47.32601" lon="-2.44377">
        <ele>15</ele>
        <time>2021-09-02T07:58:02.000Z</time>
      </trkpt>
      <trkpt lat="47.32616" lon="-2.44392">
        <ele>15</ele>
        <time>2021-09-02T07:58:07.000Z</time>
      </trkpt>
      <trkpt lat="47.32629" lon="-2.4442">
        <ele>15</ele>
        <time>2021-09-02T07:58:13.000Z</time>
      </trkpt>
      <trkpt lat="47.32649" lon="-2.44473">
        <ele>15.39999961853</ele>
        <time>2021-09-02T07:58:21.000Z</time>
      </trkpt>
      <trkpt lat="47.32652" lon="-2.44479">
        <ele>16</ele>
        <time>2021-09-02T07:58:22.000Z</time>
      </trkpt>
      <trkpt lat="47.32655" lon="-2.44485">
        <ele>16.39999961853</ele>
        <time>2021-09-02T07:58:23.000Z</time>
      </trkpt>
      <trkpt lat="47.32658" lon="-2.4449">
        <ele>16.799999237061</ele>
        <time>2021-09-02T07:58:24.000Z</time>
      </trkpt>
      <trkpt lat="47.32661" lon="-2.44494">
        <ele>17.200000762939</ele>
        <time>2021-09-02T07:58:25.000Z</time>
      </trkpt>
      <trkpt lat="47.32665" lon="-2.44496">
        <ele>17.200000762939</ele>
        <time>2021-09-02T07:58:26.000Z</time>
      </trkpt>
      <trkpt lat="47.32669" lon="-2.44503">
        <ele>17.200000762939</ele>
        <time>2021-09-02T07:58:28.000Z</time>
      </trkpt>
      <trkpt lat="47.3267" lon="-2.44507">
        <ele>17.200000762939</ele>
        <time>2021-09-02T07:58:29.000Z</time>
      </trkpt>
      <trkpt lat="47.32664" lon="-2.44519">
        <ele>17.200000762939</ele>
        <time>2021-09-02T07:58:32.000Z</time>
      </trkpt>
      <trkpt lat="47.32661" lon="-2.44524">
        <ele>17.200000762939</ele>
        <time>2021-09-02T07:58:33.000Z</time>
      </trkpt>
      <trkpt lat="47.32642" lon="-2.44559">
        <ele>17.200000762939</ele>
        <time>2021-09-02T07:58:39.000Z</time>
      </trkpt>
      <trkpt lat="47.32617" lon="-2.446">
        <ele>17.200000762939</ele>
        <time>2021-09-02T07:58:46.000Z</time>
      </trkpt>
      <trkpt lat="47.3261" lon="-2.44611">
        <ele>16.799999237061</ele>
        <time>2021-09-02T07:58:48.000Z</time>
      </trkpt>
      <trkpt lat="47.32606" lon="-2.44617">
        <ele>16.39999961853</ele>
        <time>2021-09-02T07:58:49.000Z</time>
      </trkpt>
      <trkpt lat="47.32601" lon="-2.44623">
        <ele>16</ele>
        <time>2021-09-02T07:58:50.000Z</time>
      </trkpt>
      <trkpt lat="47.32597" lon="-2.44628">
        <ele>15.60000038147</ele>
        <time>2021-09-02T07:58:51.000Z</time>
      </trkpt>
      <trkpt lat="47.32593" lon="-2.44633">
        <ele>15.199999809265</ele>
        <time>2021-09-02T07:58:52.000Z</time>
      </trkpt>
      <trkpt lat="47.32589" lon="-2.44639">
        <ele>15.199999809265</ele>
        <time>2021-09-02T07:58:53.000Z</time>
      </trkpt>
      <trkpt lat="47.3258" lon="-2.44649">
        <ele>14.800000190735</ele>
        <time>2021-09-02T07:58:55.000Z</time>
      </trkpt>
      <trkpt lat="47.32575" lon="-2.44655">
        <ele>14.39999961853</ele>
        <time>2021-09-02T07:58:56.000Z</time>
      </trkpt>
      <trkpt lat="47.3257" lon="-2.44662">
        <ele>14</ele>
        <time>2021-09-02T07:58:57.000Z</time>
      </trkpt>
      <trkpt lat="47.32565" lon="-2.4467">
        <ele>13.60000038147</ele>
        <time>2021-09-02T07:58:58.000Z</time>
      </trkpt>
      <trkpt lat="47.3256" lon="-2.44678">
        <ele>13</ele>
        <time>2021-09-02T07:58:59.000Z</time>
      </trkpt>
      <trkpt lat="47.3255" lon="-2.44693">
        <ele>12.60000038147</ele>
        <time>2021-09-02T07:59:01.000Z</time>
      </trkpt>
      <trkpt lat="47.32545" lon="-2.44701">
        <ele>12.199999809265</ele>
        <time>2021-09-02T07:59:02.000Z</time>
      </trkpt>
      <trkpt lat="47.32539" lon="-2.44709">
        <ele>11.800000190735</ele>
        <time>2021-09-02T07:59:03.000Z</time>
      </trkpt>
      <trkpt lat="47.32534" lon="-2.44716">
        <ele>11.39999961853</ele>
        <time>2021-09-02T07:59:04.000Z</time>
      </trkpt>
      <trkpt lat="47.32529" lon="-2.44723">
        <ele>11</ele>
        <time>2021-09-02T07:59:05.000Z</time>
      </trkpt>
      <trkpt lat="47.32524" lon="-2.44737">
        <ele>10.60000038147</ele>
        <time>2021-09-02T07:59:07.000Z</time>
      </trkpt>
      <trkpt lat="47.32521" lon="-2.44743">
        <ele>10</ele>
        <time>2021-09-02T07:59:08.000Z</time>
      </trkpt>
      <trkpt lat="47.32517" lon="-2.44747">
        <ele>9.6000003814697</ele>
        <time>2021-09-02T07:59:09.000Z</time>
      </trkpt>
      <trkpt lat="47.32512" lon="-2.4475">
        <ele>9</ele>
        <time>2021-09-02T07:59:10.000Z</time>
      </trkpt>
      <trkpt lat="47.32507" lon="-2.44754">
        <ele>8.6000003814697</ele>
        <time>2021-09-02T07:59:11.000Z</time>
      </trkpt>
      <trkpt lat="47.32501" lon="-2.44758">
        <ele>8.6000003814697</ele>
        <time>2021-09-02T07:59:12.000Z</time>
      </trkpt>
      <trkpt lat="47.32495" lon="-2.44762">
        <ele>8.1999998092651</ele>
        <time>2021-09-02T07:59:13.000Z</time>
      </trkpt>
      <trkpt lat="47.32488" lon="-2.44767">
        <ele>7.5999999046326</ele>
        <time>2021-09-02T07:59:14.000Z</time>
      </trkpt>
      <trkpt lat="47.32481" lon="-2.44772">
        <ele>7.1999998092651</ele>
        <time>2021-09-02T07:59:15.000Z</time>
      </trkpt>
      <trkpt lat="47.32474" lon="-2.44777">
        <ele>6.8000001907349</ele>
        <time>2021-09-02T07:59:16.000Z</time>
      </trkpt>
      <trkpt lat="47.32466" lon="-2.44783">
        <ele>6.4000000953674</ele>
        <time>2021-09-02T07:59:17.000Z</time>
      </trkpt>
      <trkpt lat="47.32459" lon="-2.44788">
        <ele>6</ele>
        <time>2021-09-02T07:59:18.000Z</time>
      </trkpt>
      <trkpt lat="47.32451" lon="-2.44794">
        <ele>5.5999999046326</ele>
        <time>2021-09-02T07:59:19.000Z</time>
      </trkpt>
      <trkpt lat="47.32442" lon="-2.44801">
        <ele>5.1999998092651</ele>
        <time>2021-09-02T07:59:20.000Z</time>
      </trkpt>
      <trkpt lat="47.32434" lon="-2.44808">
        <ele>4.5999999046326</ele>
        <time>2021-09-02T07:59:21.000Z</time>
      </trkpt>
      <trkpt lat="47.32426" lon="-2.44814">
        <ele>4.1999998092651</ele>
        <time>2021-09-02T07:59:22.000Z</time>
      </trkpt>
      <trkpt lat="47.32418" lon="-2.4482">
        <ele>3.7999999523163</ele>
        <time>2021-09-02T07:59:23.000Z</time>
      </trkpt>
      <trkpt lat="47.3241" lon="-2.44826">
        <ele>3.4000000953674</ele>
        <time>2021-09-02T07:59:24.000Z</time>
      </trkpt>
      <trkpt lat="47.32401" lon="-2.44832">
        <ele>3</ele>
        <time>2021-09-02T07:59:25.000Z</time>
      </trkpt>
      <trkpt lat="47.32393" lon="-2.44838">
        <ele>2.5999999046326</ele>
        <time>2021-09-02T07:59:26.000Z</time>
      </trkpt>
      <trkpt lat="47.32385" lon="-2.44844">
        <ele>2.2000000476837</ele>
        <time>2021-09-02T07:59:27.000Z</time>
      </trkpt>
      <trkpt lat="47.32362" lon="-2.4486">
        <ele>2.2000000476837</ele>
        <time>2021-09-02T07:59:30.000Z</time>
      </trkpt>
      <trkpt lat="47.32356" lon="-2.44866">
        <ele>2.2000000476837</ele>
        <time>2021-09-02T07:59:31.000Z</time>
      </trkpt>
      <trkpt lat="47.32333" lon="-2.44892">
        <ele>1.7999999523163</ele>
        <time>2021-09-02T07:59:35.000Z</time>
      </trkpt>
      <trkpt lat="47.32328" lon="-2.449">
        <ele>1.3999999761581</ele>
        <time>2021-09-02T07:59:36.000Z</time>
      </trkpt>
      <trkpt lat="47.32323" lon="-2.44907">
        <ele>1</ele>
        <time>2021-09-02T07:59:37.000Z</time>
      </trkpt>
      <trkpt lat="47.32318" lon="-2.44914">
        <ele>0.60000002384186</ele>
        <time>2021-09-02T07:59:38.000Z</time>
      </trkpt>
      <trkpt lat="47.32313" lon="-2.44921">
        <ele>0.20000000298023</ele>
        <time>2021-09-02T07:59:39.000Z</time>
      </trkpt>
      <trkpt lat="47.32303" lon="-2.44933">
        <ele>0.20000000298023</ele>
        <time>2021-09-02T07:59:41.000Z</time>
      </trkpt>
      <trkpt lat="47.32262" lon="-2.44978">
        <ele>0.20000000298023</ele>
        <time>2021-09-02T07:59:48.000Z</time>
      </trkpt>
      <trkpt lat="47.32256" lon="-2.44984">
        <ele>-0.40000000596046</ele>
        <time>2021-09-02T07:59:49.000Z</time>
      </trkpt>
      <trkpt lat="47.3225" lon="-2.4499">
        <ele>-0.80000001192093</ele>
        <time>2021-09-02T07:59:50.000Z</time>
      </trkpt>
      <trkpt lat="47.32244" lon="-2.44997">
        <ele>-1.2000000476837</ele>
        <time>2021-09-02T07:59:51.000Z</time>
      </trkpt>
      <trkpt lat="47.32238" lon="-2.45003">
        <ele>-1.6000000238419</ele>
        <time>2021-09-02T07:59:52.000Z</time>
      </trkpt>
      <trkpt lat="47.32232" lon="-2.4501">
        <ele>-2.2000000476837</ele>
        <time>2021-09-02T07:59:53.000Z</time>
      </trkpt>
      <trkpt lat="47.32227" lon="-2.45016">
        <ele>-2.7999999523163</ele>
        <time>2021-09-02T07:59:54.000Z</time>
      </trkpt>
      <trkpt lat="47.32223" lon="-2.45021">
        <ele>-3.5999999046326</ele>
        <time>2021-09-02T07:59:55.000Z</time>
      </trkpt>
      <trkpt lat="47.32219" lon="-2.45025">
        <ele>-4.4000000953674</ele>
        <time>2021-09-02T07:59:56.000Z</time>
      </trkpt>
      <trkpt lat="47.32216" lon="-2.45029">
        <ele>-5.1999998092651</ele>
        <time>2021-09-02T07:59:57.000Z</time>
      </trkpt>
      <trkpt lat="47.32215" lon="-2.45034">
        <ele>-6</ele>
        <time>2021-09-02T07:59:58.000Z</time>
      </trkpt>
      <trkpt lat="47.32216" lon="-2.4504">
        <ele>-6.8000001907349</ele>
        <time>2021-09-02T07:59:59.000Z</time>
      </trkpt>
      <trkpt lat="47.32218" lon="-2.45045">
        <ele>-7.5999999046326</ele>
        <time>2021-09-02T08:00:00.000Z</time>
      </trkpt>
      <trkpt lat="47.32221" lon="-2.45051">
        <ele>-8.3999996185303</ele>
        <time>2021-09-02T08:00:01.000Z</time>
      </trkpt>
      <trkpt lat="47.32224" lon="-2.45056">
        <ele>-9.1999998092651</ele>
        <time>2021-09-02T08:00:02.000Z</time>
      </trkpt>
      <trkpt lat="47.32228" lon="-2.45062">
        <ele>-9.1999998092651</ele>
        <time>2021-09-02T08:00:03.000Z</time>
      </trkpt>
      <trkpt lat="47.32231" lon="-2.45067">
        <ele>-9.1999998092651</ele>
        <time>2021-09-02T08:00:04.000Z</time>
      </trkpt>
      <trkpt lat="47.32248" lon="-2.45109">
        <ele>-9.1999998092651</ele>
        <time>2021-09-02T08:00:10.000Z</time>
      </trkpt>
      <trkpt lat="47.32263" lon="-2.4516">
        <ele>-9.1999998092651</ele>
        <time>2021-09-02T08:00:16.000Z</time>
      </trkpt>
      <trkpt lat="47.32267" lon="-2.45178">
        <ele>-9.6000003814697</ele>
        <time>2021-09-02T08:00:18.000Z</time>
      </trkpt>
      <trkpt lat="47.32269" lon="-2.45187">
        <ele>-10</ele>
        <time>2021-09-02T08:00:19.000Z</time>
      </trkpt>
      <trkpt lat="47.32272" lon="-2.45197">
        <ele>-10.39999961853</ele>
        <time>2021-09-02T08:00:20.000Z</time>
      </trkpt>
      <trkpt lat="47.32276" lon="-2.45207">
        <ele>-11</ele>
        <time>2021-09-02T08:00:21.000Z</time>
      </trkpt>
      <trkpt lat="47.32281" lon="-2.45217">
        <ele>-11.39999961853</ele>
        <time>2021-09-02T08:00:22.000Z</time>
      </trkpt>
      <trkpt lat="47.32285" lon="-2.45225">
        <ele>-11.800000190735</ele>
        <time>2021-09-02T08:00:23.000Z</time>
      </trkpt>
      <trkpt lat="47.32289" lon="-2.45233">
        <ele>-12.39999961853</ele>
        <time>2021-09-02T08:00:24.000Z</time>
      </trkpt>
      <trkpt lat="47.32293" lon="-2.45241">
        <ele>-12.800000190735</ele>
        <time>2021-09-02T08:00:25.000Z</time>
      </trkpt>
      <trkpt lat="47.32296" lon="-2.45248">
        <ele>-13.39999961853</ele>
        <time>2021-09-02T08:00:26.000Z</time>
      </trkpt>
      <trkpt lat="47.32298" lon="-2.45256">
        <ele>-13.800000190735</ele>
        <time>2021-09-02T08:00:27.000Z</time>
      </trkpt>
      <trkpt lat="47.32311" lon="-2.45296">
        <ele>-13.39999961853</ele>
        <time>2021-09-02T08:00:33.000Z</time>
      </trkpt>
      <trkpt lat="47.32312" lon="-2.45302">
        <ele>-13</ele>
        <time>2021-09-02T08:00:34.000Z</time>
      </trkpt>
      <trkpt lat="47.32314" lon="-2.45308">
        <ele>-12.60000038147</ele>
        <time>2021-09-02T08:00:35.000Z</time>
      </trkpt>
      <trkpt lat="47.32315" lon="-2.45314">
        <ele>-12.199999809265</ele>
        <time>2021-09-02T08:00:36.000Z</time>
      </trkpt>
      <trkpt lat="47.32316" lon="-2.45319">
        <ele>-11.800000190735</ele>
        <time>2021-09-02T08:00:37.000Z</time>
      </trkpt>
      <trkpt lat="47.32317" lon="-2.45325">
        <ele>-11.800000190735</ele>
        <time>2021-09-02T08:00:38.000Z</time>
      </trkpt>
      <trkpt lat="47.32317" lon="-2.45331">
        <ele>-11.800000190735</ele>
        <time>2021-09-02T08:00:39.000Z</time>
      </trkpt>
      <trkpt lat="47.32319" lon="-2.45367">
        <ele>-11.800000190735</ele>
        <time>2021-09-02T08:00:44.000Z</time>
      </trkpt>
      <trkpt lat="47.3232" lon="-2.4539">
        <ele>-12.199999809265</ele>
        <time>2021-09-02T08:00:47.000Z</time>
      </trkpt>
      <trkpt lat="47.3232" lon="-2.45397">
        <ele>-12.60000038147</ele>
        <time>2021-09-02T08:00:48.000Z</time>
      </trkpt>
      <trkpt lat="47.32319" lon="-2.45405">
        <ele>-13</ele>
        <time>2021-09-02T08:00:49.000Z</time>
      </trkpt>
      <trkpt lat="47.32318" lon="-2.45413">
        <ele>-13.60000038147</ele>
        <time>2021-09-02T08:00:50.000Z</time>
      </trkpt>
      <trkpt lat="47.32318" lon="-2.45423">
        <ele>-14.199999809265</ele>
        <time>2021-09-02T08:00:51.000Z</time>
      </trkpt>
      <trkpt lat="47.3232" lon="-2.45431">
        <ele>-14.800000190735</ele>
        <time>2021-09-02T08:00:52.000Z</time>
      </trkpt>
      <trkpt lat="47.32324" lon="-2.45438">
        <ele>-15.39999961853</ele>
        <time>2021-09-02T08:00:53.000Z</time>
      </trkpt>
      <trkpt lat="47.32328" lon="-2.45446">
        <ele>-16</ele>
        <time>2021-09-02T08:00:54.000Z</time>
      </trkpt>
      <trkpt lat="47.32332" lon="-2.45453">
        <ele>-16</ele>
        <time>2021-09-02T08:00:55.000Z</time>
      </trkpt>
      <trkpt lat="47.32337" lon="-2.4546">
        <ele>-16</ele>
        <time>2021-09-02T08:00:56.000Z</time>
      </trkpt>
      <trkpt lat="47.32353" lon="-2.45485">
        <ele>-15.60000038147</ele>
        <time>2021-09-02T08:01:00.000Z</time>
      </trkpt>
      <trkpt lat="47.32357" lon="-2.4549">
        <ele>-15.199999809265</ele>
        <time>2021-09-02T08:01:01.000Z</time>
      </trkpt>
      <trkpt lat="47.32361" lon="-2.45496">
        <ele>-14.800000190735</ele>
        <time>2021-09-02T08:01:02.000Z</time>
      </trkpt>
      <trkpt lat="47.32365" lon="-2.45501">
        <ele>-14.39999961853</ele>
        <time>2021-09-02T08:01:03.000Z</time>
      </trkpt>
      <trkpt lat="47.32369" lon="-2.45507">
        <ele>-14</ele>
        <time>2021-09-02T08:01:04.000Z</time>
      </trkpt>
      <trkpt lat="47.32382" lon="-2.45532">
        <ele>-14</ele>
        <time>2021-09-02T08:01:08.000Z</time>
      </trkpt>
      <trkpt lat="47.32388" lon="-2.45543">
        <ele>-14</ele>
        <time>2021-09-02T08:01:10.000Z</time>
      </trkpt>
      <trkpt lat="47.32395" lon="-2.45558">
        <ele>-14</ele>
        <time>2021-09-02T08:01:13.000Z</time>
      </trkpt>
      <trkpt lat="47.32403" lon="-2.45571">
        <ele>-14</ele>
        <time>2021-09-02T08:01:16.000Z</time>
      </trkpt>
      <trkpt lat="47.3241" lon="-2.45583">
        <ele>-14</ele>
        <time>2021-09-02T08:01:19.000Z</time>
      </trkpt>
      <trkpt lat="47.32424" lon="-2.45616">
        <ele>-14</ele>
        <time>2021-09-02T08:01:26.000Z</time>
      </trkpt>
      <trkpt lat="47.32442" lon="-2.45649">
        <ele>-14</ele>
        <time>2021-09-02T08:01:32.000Z</time>
      </trkpt>
      <trkpt lat="47.3246" lon="-2.45675">
        <ele>-14.39999961853</ele>
        <time>2021-09-02T08:01:37.000Z</time>
      </trkpt>
      <trkpt lat="47.32463" lon="-2.45681">
        <ele>-14.800000190735</ele>
        <time>2021-09-02T08:01:38.000Z</time>
      </trkpt>
      <trkpt lat="47.32467" lon="-2.45687">
        <ele>-15.199999809265</ele>
        <time>2021-09-02T08:01:39.000Z</time>
      </trkpt>
      <trkpt lat="47.3247" lon="-2.45692">
        <ele>-15.60000038147</ele>
        <time>2021-09-02T08:01:40.000Z</time>
      </trkpt>
      <trkpt lat="47.32473" lon="-2.45698">
        <ele>-16</ele>
        <time>2021-09-02T08:01:41.000Z</time>
      </trkpt>
      <trkpt lat="47.32493" lon="-2.4573">
        <ele>-16</ele>
        <time>2021-09-02T08:01:47.000Z</time>
      </trkpt>
      <trkpt lat="47.32517" lon="-2.45775">
        <ele>-16</ele>
        <time>2021-09-02T08:01:55.000Z</time>
      </trkpt>
      <trkpt lat="47.3254" lon="-2.45814">
        <ele>-16</ele>
        <time>2021-09-02T08:02:02.000Z</time>
      </trkpt>
      <trkpt lat="47.32544" lon="-2.45818">
        <ele>-16</ele>
        <time>2021-09-02T08:02:03.000Z</time>
      </trkpt>
      <trkpt lat="47.32564" lon="-2.45849">
        <ele>-16</ele>
        <time>2021-09-02T08:02:09.000Z</time>
      </trkpt>
      <trkpt lat="47.32573" lon="-2.45867">
        <ele>-16</ele>
        <time>2021-09-02T08:02:12.000Z</time>
      </trkpt>
      <trkpt lat="47.32583" lon="-2.45881">
        <ele>-16</ele>
        <time>2021-09-02T08:02:15.000Z</time>
      </trkpt>
      <trkpt lat="47.32611" lon="-2.45917">
        <ele>-16</ele>
        <time>2021-09-02T08:02:22.000Z</time>
      </trkpt>
      <trkpt lat="47.32636" lon="-2.4596">
        <ele>-16</ele>
        <time>2021-09-02T08:02:30.000Z</time>
      </trkpt>
      <trkpt lat="47.32639" lon="-2.45964">
        <ele>-16</ele>
        <time>2021-09-02T08:02:31.000Z</time>
      </trkpt>
      <trkpt lat="47.32655" lon="-2.45978">
        <ele>-16</ele>
        <time>2021-09-02T08:02:35.000Z</time>
      </trkpt>
      <trkpt lat="47.32672" lon="-2.45992">
        <ele>-16</ele>
        <time>2021-09-02T08:02:40.000Z</time>
      </trkpt>
      <trkpt lat="47.32681" lon="-2.46004">
        <ele>-16</ele>
        <time>2021-09-02T08:02:43.000Z</time>
      </trkpt>
      <trkpt lat="47.32687" lon="-2.46014">
        <ele>-16</ele>
        <time>2021-09-02T08:02:45.000Z</time>
      </trkpt>
      <trkpt lat="47.32705" lon="-2.46038">
        <ele>-16</ele>
        <time>2021-09-02T08:02:51.000Z</time>
      </trkpt>
      <trkpt lat="47.32718" lon="-2.46052">
        <ele>-16</ele>
        <time>2021-09-02T08:02:56.000Z</time>
      </trkpt>
      <trkpt lat="47.32725" lon="-2.46061">
        <ele>-15.60000038147</ele>
        <time>2021-09-02T08:02:59.000Z</time>
      </trkpt>
      <trkpt lat="47.32727" lon="-2.46063">
        <ele>-14.800000190735</ele>
        <time>2021-09-02T08:03:00.000Z</time>
      </trkpt>
      <trkpt lat="47.32729" lon="-2.46065">
        <ele>-14.39999961853</ele>
        <time>2021-09-02T08:03:01.000Z</time>
      </trkpt>
      <trkpt lat="47.32731" lon="-2.46067">
        <ele>-14</ele>
        <time>2021-09-02T08:03:02.000Z</time>
      </trkpt>
      <trkpt lat="47.32742" lon="-2.46079">
        <ele>-14</ele>
        <time>2021-09-02T08:03:06.000Z</time>
      </trkpt>
      <trkpt lat="47.32756" lon="-2.461">
        <ele>-14</ele>
        <time>2021-09-02T08:03:11.000Z</time>
      </trkpt>
      <trkpt lat="47.32765" lon="-2.46117">
        <ele>-13.60000038147</ele>
        <time>2021-09-02T08:03:15.000Z</time>
      </trkpt>
      <trkpt lat="47.32766" lon="-2.46122">
        <ele>-13.199999809265</ele>
        <time>2021-09-02T08:03:16.000Z</time>
      </trkpt>
      <trkpt lat="47.32768" lon="-2.46127">
        <ele>-12.800000190735</ele>
        <time>2021-09-02T08:03:17.000Z</time>
      </trkpt>
      <trkpt lat="47.32769" lon="-2.46133">
        <ele>-12.39999961853</ele>
        <time>2021-09-02T08:03:18.000Z</time>
      </trkpt>
      <trkpt lat="47.32771" lon="-2.46139">
        <ele>-12</ele>
        <time>2021-09-02T08:03:19.000Z</time>
      </trkpt>
      <trkpt lat="47.32777" lon="-2.46151">
        <ele>-12</ele>
        <time>2021-09-02T08:03:22.000Z</time>
      </trkpt>
      <trkpt lat="47.3278" lon="-2.46155">
        <ele>-11.60000038147</ele>
        <time>2021-09-02T08:03:23.000Z</time>
      </trkpt>
      <trkpt lat="47.32783" lon="-2.46158">
        <ele>-10.800000190735</ele>
        <time>2021-09-02T08:03:24.000Z</time>
      </trkpt>
      <trkpt lat="47.32786" lon="-2.46162">
        <ele>-10.39999961853</ele>
        <time>2021-09-02T08:03:25.000Z</time>
      </trkpt>
      <trkpt lat="47.32789" lon="-2.46165">
        <ele>-9.8000001907349</ele>
        <time>2021-09-02T08:03:26.000Z</time>
      </trkpt>
      <trkpt lat="47.32799" lon="-2.46172">
        <ele>-9.8000001907349</ele>
        <time>2021-09-02T08:03:29.000Z</time>
      </trkpt>
      <trkpt lat="47.32821" lon="-2.4618">
        <ele>-9.8000001907349</ele>
        <time>2021-09-02T08:03:35.000Z</time>
      </trkpt>
      <trkpt lat="47.32832" lon="-2.46176">
        <ele>-9.3999996185303</ele>
        <time>2021-09-02T08:03:38.000Z</time>
      </trkpt>
      <trkpt lat="47.32836" lon="-2.46175">
        <ele>-9</ele>
        <time>2021-09-02T08:03:39.000Z</time>
      </trkpt>
      <trkpt lat="47.3284" lon="-2.46174">
        <ele>-8.6000003814697</ele>
        <time>2021-09-02T08:03:40.000Z</time>
      </trkpt>
      <trkpt lat="47.32844" lon="-2.46173">
        <ele>-8.1999998092651</ele>
        <time>2021-09-02T08:03:41.000Z</time>
      </trkpt>
      <trkpt lat="47.32847" lon="-2.46171">
        <ele>-7.8000001907349</ele>
        <time>2021-09-02T08:03:42.000Z</time>
      </trkpt>
      <trkpt lat="47.32864" lon="-2.46164">
        <ele>-7.4000000953674</ele>
        <time>2021-09-02T08:03:47.000Z</time>
      </trkpt>
      <trkpt lat="47.32867" lon="-2.46162">
        <ele>-7</ele>
        <time>2021-09-02T08:03:48.000Z</time>
      </trkpt>
      <trkpt lat="47.3287" lon="-2.46161">
        <ele>-6</ele>
        <time>2021-09-02T08:03:49.000Z</time>
      </trkpt>
      <trkpt lat="47.32873" lon="-2.46159">
        <ele>-5.5999999046326</ele>
        <time>2021-09-02T08:03:50.000Z</time>
      </trkpt>
      <trkpt lat="47.32878" lon="-2.46157">
        <ele>-5.1999998092651</ele>
        <time>2021-09-02T08:03:52.000Z</time>
      </trkpt>
      <trkpt lat="47.32881" lon="-2.46156">
        <ele>-4.8000001907349</ele>
        <time>2021-09-02T08:03:53.000Z</time>
      </trkpt>
      <trkpt lat="47.32883" lon="-2.46155">
        <ele>-4.4000000953674</ele>
        <time>2021-09-02T08:03:54.000Z</time>
      </trkpt>
      <trkpt lat="47.32886" lon="-2.46154">
        <ele>-4</ele>
        <time>2021-09-02T08:03:55.000Z</time>
      </trkpt>
      <trkpt lat="47.32887" lon="-2.46153">
        <ele>-3.5999999046326</ele>
        <time>2021-09-02T08:03:56.000Z</time>
      </trkpt>
      <trkpt lat="47.32896" lon="-2.4615">
        <ele>-3.5999999046326</ele>
        <time>2021-09-02T08:04:01.000Z</time>
      </trkpt>
      <trkpt lat="47.32897" lon="-2.4615">
        <ele>-3.5999999046326</ele>
        <time>2021-09-02T08:04:02.000Z</time>
      </trkpt>
      <trkpt lat="47.32897" lon="-2.4615">
        <ele>-3.5999999046326</ele>
        <time>2021-09-02T08:04:03.000Z</time>
      </trkpt>
      <trkpt lat="47.329" lon="-2.46151">
        <ele>-3.5999999046326</ele>
        <time>2021-09-02T08:06:48.000Z</time>
      </trkpt>
      <trkpt lat="47.32904" lon="-2.46157">
        <ele>-3.5999999046326</ele>
        <time>2021-09-02T08:06:50.000Z</time>
      </trkpt>
      <trkpt lat="47.32913" lon="-2.46183">
        <ele>-3.5999999046326</ele>
        <time>2021-09-02T08:06:55.000Z</time>
      </trkpt>
      <trkpt lat="47.32927" lon="-2.46229">
        <ele>-3.5999999046326</ele>
        <time>2021-09-02T08:07:03.000Z</time>
      </trkpt>
      <trkpt lat="47.32941" lon="-2.46278">
        <ele>-3.5999999046326</ele>
        <time>2021-09-02T08:07:12.000Z</time>
      </trkpt>
      <trkpt lat="47.32949" lon="-2.46307">
        <ele>-3.5999999046326</ele>
        <time>2021-09-02T08:07:17.000Z</time>
      </trkpt>
      <trkpt lat="47.3296" lon="-2.46353">
        <ele>-3.5999999046326</ele>
        <time>2021-09-02T08:07:22.000Z</time>
      </trkpt>
      <trkpt lat="47.32962" lon="-2.46364">
        <ele>-3.5999999046326</ele>
        <time>2021-09-02T08:07:23.000Z</time>
      </trkpt>
      <trkpt lat="47.32965" lon="-2.46403">
        <ele>-4</ele>
        <time>2021-09-02T08:07:26.000Z</time>
      </trkpt>
      <trkpt lat="47.32965" lon="-2.46417">
        <ele>-4.4000000953674</ele>
        <time>2021-09-02T08:07:27.000Z</time>
      </trkpt>
      <trkpt lat="47.32964" lon="-2.46431">
        <ele>-4.8000001907349</ele>
        <time>2021-09-02T08:07:28.000Z</time>
      </trkpt>
      <trkpt lat="47.32964" lon="-2.46447">
        <ele>-5.5999999046326</ele>
        <time>2021-09-02T08:07:29.000Z</time>
      </trkpt>
      <trkpt lat="47.32963" lon="-2.46462">
        <ele>-6.1999998092651</ele>
        <time>2021-09-02T08:07:30.000Z</time>
      </trkpt>
      <trkpt lat="47.32962" lon="-2.46478">
        <ele>-7.5999999046326</ele>
        <time>2021-09-02T08:07:31.000Z</time>
      </trkpt>
      <trkpt lat="47.32962" lon="-2.46494">
        <ele>-8.1999998092651</ele>
        <time>2021-09-02T08:07:32.000Z</time>
      </trkpt>
      <trkpt lat="47.32961" lon="-2.46509">
        <ele>-9</ele>
        <time>2021-09-02T08:07:33.000Z</time>
      </trkpt>
      <trkpt lat="47.3296" lon="-2.46524">
        <ele>-9.6000003814697</ele>
        <time>2021-09-02T08:07:34.000Z</time>
      </trkpt>
      <trkpt lat="47.32959" lon="-2.46536">
        <ele>-10.39999961853</ele>
        <time>2021-09-02T08:07:35.000Z</time>
      </trkpt>
      <trkpt lat="47.32959" lon="-2.46547">
        <ele>-11</ele>
        <time>2021-09-02T08:07:36.000Z</time>
      </trkpt>
      <trkpt lat="47.32959" lon="-2.46556">
        <ele>-12</ele>
        <time>2021-09-02T08:07:37.000Z</time>
      </trkpt>
      <trkpt lat="47.32962" lon="-2.46562">
        <ele>-12.800000190735</ele>
        <time>2021-09-02T08:07:38.000Z</time>
      </trkpt>
      <trkpt lat="47.32966" lon="-2.46565">
        <ele>-13.800000190735</ele>
        <time>2021-09-02T08:07:39.000Z</time>
      </trkpt>
      <trkpt lat="47.32971" lon="-2.46564">
        <ele>-14.60000038147</ele>
        <time>2021-09-02T08:07:40.000Z</time>
      </trkpt>
      <trkpt lat="47.32975" lon="-2.46563">
        <ele>-15.39999961853</ele>
        <time>2021-09-02T08:07:41.000Z</time>
      </trkpt>
      <trkpt lat="47.32983" lon="-2.46559">
        <ele>-15.39999961853</ele>
        <time>2021-09-02T08:07:43.000Z</time>
      </trkpt>
      <trkpt lat="47.32991" lon="-2.46554">
        <ele>-15.39999961853</ele>
        <time>2021-09-02T08:07:45.000Z</time>
      </trkpt>
      <trkpt lat="47.33001" lon="-2.46546">
        <ele>-15</ele>
        <time>2021-09-02T08:07:48.000Z</time>
      </trkpt>
      <trkpt lat="47.33005" lon="-2.46544">
        <ele>-14.60000038147</ele>
        <time>2021-09-02T08:07:49.000Z</time>
      </trkpt>
      <trkpt lat="47.33008" lon="-2.46542">
        <ele>-14.199999809265</ele>
        <time>2021-09-02T08:07:50.000Z</time>
      </trkpt>
      <trkpt lat="47.33012" lon="-2.4654">
        <ele>-13.800000190735</ele>
        <time>2021-09-02T08:07:51.000Z</time>
      </trkpt>
      <trkpt lat="47.33015" lon="-2.46538">
        <ele>-13.39999961853</ele>
        <time>2021-09-02T08:07:52.000Z</time>
      </trkpt>
      <trkpt lat="47.33033" lon="-2.46535">
        <ele>-13.39999961853</ele>
        <time>2021-09-02T08:07:57.000Z</time>
      </trkpt>
      <trkpt lat="47.33037" lon="-2.46535">
        <ele>-13</ele>
        <time>2021-09-02T08:07:58.000Z</time>
      </trkpt>
      <trkpt lat="47.3304" lon="-2.46534">
        <ele>-12.60000038147</ele>
        <time>2021-09-02T08:07:59.000Z</time>
      </trkpt>
      <trkpt lat="47.33044" lon="-2.46533">
        <ele>-12.199999809265</ele>
        <time>2021-09-02T08:08:00.000Z</time>
      </trkpt>
      <trkpt lat="47.33048" lon="-2.46532">
        <ele>-11.800000190735</ele>
        <time>2021-09-02T08:08:01.000Z</time>
      </trkpt>
      <trkpt lat="47.33052" lon="-2.46531">
        <ele>-11.39999961853</ele>
        <time>2021-09-02T08:08:02.000Z</time>
      </trkpt>
      <trkpt lat="47.33075" lon="-2.4652">
        <ele>-10.800000190735</ele>
        <time>2021-09-02T08:08:09.000Z</time>
      </trkpt>
      <trkpt lat="47.33078" lon="-2.46519">
        <ele>-10.39999961853</ele>
        <time>2021-09-02T08:08:10.000Z</time>
      </trkpt>
      <trkpt lat="47.33081" lon="-2.46517">
        <ele>-10</ele>
        <time>2021-09-02T08:08:11.000Z</time>
      </trkpt>
      <trkpt lat="47.33084" lon="-2.46516">
        <ele>-9.3999996185303</ele>
        <time>2021-09-02T08:08:12.000Z</time>
      </trkpt>
      <trkpt lat="47.33087" lon="-2.46515">
        <ele>-9</ele>
        <time>2021-09-02T08:08:13.000Z</time>
      </trkpt>
      <trkpt lat="47.33092" lon="-2.46513">
        <ele>-9</ele>
        <time>2021-09-02T08:08:15.000Z</time>
      </trkpt>
      <trkpt lat="47.33105" lon="-2.46507">
        <ele>-8.6000003814697</ele>
        <time>2021-09-02T08:08:20.000Z</time>
      </trkpt>
      <trkpt lat="47.33107" lon="-2.46506">
        <ele>-7.5999999046326</ele>
        <time>2021-09-02T08:08:21.000Z</time>
      </trkpt>
      <trkpt lat="47.33109" lon="-2.46505">
        <ele>-7.1999998092651</ele>
        <time>2021-09-02T08:08:22.000Z</time>
      </trkpt>
      <trkpt lat="47.3311" lon="-2.46503">
        <ele>-6.5999999046326</ele>
        <time>2021-09-02T08:08:23.000Z</time>
      </trkpt>
      <trkpt lat="47.33123" lon="-2.46498">
        <ele>-6.5999999046326</ele>
        <time>2021-09-02T08:08:29.000Z</time>
      </trkpt>
      <trkpt lat="47.33137" lon="-2.46495">
        <ele>-6.5999999046326</ele>
        <time>2021-09-02T08:08:36.000Z</time>
      </trkpt>
      <trkpt lat="47.33141" lon="-2.46495">
        <ele>-6.1999998092651</ele>
        <time>2021-09-02T08:08:38.000Z</time>
      </trkpt>
      <trkpt lat="47.33142" lon="-2.46494">
        <ele>-5.8000001907349</ele>
        <time>2021-09-02T08:08:39.000Z</time>
      </trkpt>
      <trkpt lat="47.33144" lon="-2.46494">
        <ele>-5.4000000953674</ele>
        <time>2021-09-02T08:08:40.000Z</time>
      </trkpt>
      <trkpt lat="47.33146" lon="-2.46493">
        <ele>-5</ele>
        <time>2021-09-02T08:08:41.000Z</time>
      </trkpt>
      <trkpt lat="47.33148" lon="-2.46493">
        <ele>-4.5999999046326</ele>
        <time>2021-09-02T08:08:42.000Z</time>
      </trkpt>
      <trkpt lat="47.33151" lon="-2.46492">
        <ele>-4.5999999046326</ele>
        <time>2021-09-02T08:08:43.000Z</time>
      </trkpt>
      <trkpt lat="47.33164" lon="-2.46488">
        <ele>-4.5999999046326</ele>
        <time>2021-09-02T08:08:50.000Z</time>
      </trkpt>
      <trkpt lat="47.33177" lon="-2.4648">
        <ele>-4.1999998092651</ele>
        <time>2021-09-02T08:08:57.000Z</time>
      </trkpt>
      <trkpt lat="47.33179" lon="-2.46479">
        <ele>-3.7999999523163</ele>
        <time>2021-09-02T08:08:58.000Z</time>
      </trkpt>
      <trkpt lat="47.33181" lon="-2.46478">
        <ele>-3.2000000476837</ele>
        <time>2021-09-02T08:08:59.000Z</time>
      </trkpt>
      <trkpt lat="47.33183" lon="-2.46478">
        <ele>-2.7999999523163</ele>
        <time>2021-09-02T08:09:00.000Z</time>
      </trkpt>
      <trkpt lat="47.33185" lon="-2.46477">
        <ele>-2.4000000953674</ele>
        <time>2021-09-02T08:09:01.000Z</time>
      </trkpt>
      <trkpt lat="47.3319" lon="-2.46475">
        <ele>-2.4000000953674</ele>
        <time>2021-09-02T08:09:04.000Z</time>
      </trkpt>
      <trkpt lat="47.33197" lon="-2.46473">
        <ele>-1.7999999523163</ele>
        <time>2021-09-02T08:09:09.000Z</time>
      </trkpt>
      <trkpt lat="47.33198" lon="-2.46473">
        <ele>-1</ele>
        <time>2021-09-02T08:09:10.000Z</time>
      </trkpt>
      <trkpt lat="47.33199" lon="-2.46472">
        <ele>-0.60000002384186</ele>
        <time>2021-09-02T08:09:11.000Z</time>
      </trkpt>
      <trkpt lat="47.332" lon="-2.46473">
        <ele>-0.20000000298023</ele>
        <time>2021-09-02T08:09:12.000Z</time>
      </trkpt>
      <trkpt lat="47.33213" lon="-2.46471">
        <ele>-0.20000000298023</ele>
        <time>2021-09-02T08:09:19.000Z</time>
      </trkpt>
      <trkpt lat="47.33215" lon="-2.46471">
        <ele>0.20000000298023</ele>
        <time>2021-09-02T08:09:20.000Z</time>
      </trkpt>
      <trkpt lat="47.33217" lon="-2.4647">
        <ele>0.60000002384186</ele>
        <time>2021-09-02T08:09:21.000Z</time>
      </trkpt>
      <trkpt lat="47.33219" lon="-2.4647">
        <ele>1</ele>
        <time>2021-09-02T08:09:22.000Z</time>
      </trkpt>
      <trkpt lat="47.33221" lon="-2.46469">
        <ele>1.6000000238419</ele>
        <time>2021-09-02T08:09:23.000Z</time>
      </trkpt>
      <trkpt lat="47.33223" lon="-2.46467">
        <ele>2</ele>
        <time>2021-09-02T08:09:24.000Z</time>
      </trkpt>
      <trkpt lat="47.33224" lon="-2.46465">
        <ele>2</ele>
        <time>2021-09-02T08:09:25.000Z</time>
      </trkpt>
      <trkpt lat="47.33234" lon="-2.46448">
        <ele>2.4000000953674</ele>
        <time>2021-09-02T08:09:32.000Z</time>
      </trkpt>
      <trkpt lat="47.33235" lon="-2.46446">
        <ele>2.7999999523163</ele>
        <time>2021-09-02T08:09:33.000Z</time>
      </trkpt>
      <trkpt lat="47.33236" lon="-2.46443">
        <ele>3.2000000476837</ele>
        <time>2021-09-02T08:09:34.000Z</time>
      </trkpt>
      <trkpt lat="47.33238" lon="-2.46441">
        <ele>4.1999998092651</ele>
        <time>2021-09-02T08:09:35.000Z</time>
      </trkpt>
      <trkpt lat="47.33244" lon="-2.46435">
        <ele>4.1999998092651</ele>
        <time>2021-09-02T08:09:39.000Z</time>
      </trkpt>
      <trkpt lat="47.33252" lon="-2.46432">
        <ele>4.1999998092651</ele>
        <time>2021-09-02T08:09:44.000Z</time>
      </trkpt>
      <trkpt lat="47.33267" lon="-2.46431">
        <ele>4.5999999046326</ele>
        <time>2021-09-02T08:09:51.000Z</time>
      </trkpt>
      <trkpt lat="47.33269" lon="-2.46432">
        <ele>5</ele>
        <time>2021-09-02T08:09:52.000Z</time>
      </trkpt>
      <trkpt lat="47.33271" lon="-2.46434">
        <ele>5.4000000953674</ele>
        <time>2021-09-02T08:09:53.000Z</time>
      </trkpt>
      <trkpt lat="47.33273" lon="-2.46436">
        <ele>5.8000001907349</ele>
        <time>2021-09-02T08:09:54.000Z</time>
      </trkpt>
      <trkpt lat="47.33274" lon="-2.46439">
        <ele>6.1999998092651</ele>
        <time>2021-09-02T08:09:55.000Z</time>
      </trkpt>
      <trkpt lat="47.33275" lon="-2.46441">
        <ele>6.1999998092651</ele>
        <time>2021-09-02T08:09:56.000Z</time>
      </trkpt>
      <trkpt lat="47.33281" lon="-2.46461">
        <ele>6.1999998092651</ele>
        <time>2021-09-02T08:10:05.000Z</time>
      </trkpt>
      <trkpt lat="47.33284" lon="-2.46487">
        <ele>6.1999998092651</ele>
        <time>2021-09-02T08:10:13.000Z</time>
      </trkpt>
      <trkpt lat="47.33288" lon="-2.46523">
        <ele>6.1999998092651</ele>
        <time>2021-09-02T08:10:18.000Z</time>
      </trkpt>
      <trkpt lat="47.3329" lon="-2.46541">
        <ele>5.8000001907349</ele>
        <time>2021-09-02T08:10:20.000Z</time>
      </trkpt>
      <trkpt lat="47.33291" lon="-2.46549">
        <ele>5.4000000953674</ele>
        <time>2021-09-02T08:10:21.000Z</time>
      </trkpt>
      <trkpt lat="47.33292" lon="-2.46557">
        <ele>4.8000001907349</ele>
        <time>2021-09-02T08:10:22.000Z</time>
      </trkpt>
      <trkpt lat="47.33293" lon="-2.46565">
        <ele>4.4000000953674</ele>
        <time>2021-09-02T08:10:23.000Z</time>
      </trkpt>
      <trkpt lat="47.33295" lon="-2.46573">
        <ele>4</ele>
        <time>2021-09-02T08:10:24.000Z</time>
      </trkpt>
      <trkpt lat="47.33297" lon="-2.4658">
        <ele>4</ele>
        <time>2021-09-02T08:10:25.000Z</time>
      </trkpt>
      <trkpt lat="47.333" lon="-2.46588">
        <ele>3.5999999046326</ele>
        <time>2021-09-02T08:10:26.000Z</time>
      </trkpt>
      <trkpt lat="47.33303" lon="-2.46595">
        <ele>3.2000000476837</ele>
        <time>2021-09-02T08:10:27.000Z</time>
      </trkpt>
      <trkpt lat="47.33307" lon="-2.46601">
        <ele>2.7999999523163</ele>
        <time>2021-09-02T08:10:28.000Z</time>
      </trkpt>
      <trkpt lat="47.3331" lon="-2.46606">
        <ele>2.4000000953674</ele>
        <time>2021-09-02T08:10:29.000Z</time>
      </trkpt>
      <trkpt lat="47.33314" lon="-2.46611">
        <ele>2</ele>
        <time>2021-09-02T08:10:30.000Z</time>
      </trkpt>
      <trkpt lat="47.33328" lon="-2.4663">
        <ele>2</ele>
        <time>2021-09-02T08:10:34.000Z</time>
      </trkpt>
      <trkpt lat="47.3333" lon="-2.46636">
        <ele>2</ele>
        <time>2021-09-02T08:10:35.000Z</time>
      </trkpt>
      <trkpt lat="47.33334" lon="-2.46653">
        <ele>2</ele>
        <time>2021-09-02T08:10:39.000Z</time>
      </trkpt>
      <trkpt lat="47.33332" lon="-2.46665">
        <ele>2</ele>
        <time>2021-09-02T08:10:43.000Z</time>
      </trkpt>
      <trkpt lat="47.33332" lon="-2.46667">
        <ele>2</ele>
        <time>2021-09-02T08:10:45.000Z</time>
      </trkpt>
      <trkpt lat="47.33334" lon="-2.46664">
        <ele>2</ele>
        <time>2021-09-02T08:10:47.000Z</time>
      </trkpt>
      <trkpt lat="47.33338" lon="-2.4666">
        <ele>2</ele>
        <time>2021-09-02T08:10:49.000Z</time>
      </trkpt>
      <trkpt lat="47.33351" lon="-2.46654">
        <ele>2</ele>
        <time>2021-09-02T08:10:54.000Z</time>
      </trkpt>
      <trkpt lat="47.33375" lon="-2.46641">
        <ele>2</ele>
        <time>2021-09-02T08:11:02.000Z</time>
      </trkpt>
      <trkpt lat="47.33388" lon="-2.46626">
        <ele>2</ele>
        <time>2021-09-02T08:11:08.000Z</time>
      </trkpt>
      <trkpt lat="47.33394" lon="-2.46619">
        <ele>2.4000000953674</ele>
        <time>2021-09-02T08:11:11.000Z</time>
      </trkpt>
      <trkpt lat="47.33396" lon="-2.46617">
        <ele>2.7999999523163</ele>
        <time>2021-09-02T08:11:12.000Z</time>
      </trkpt>
      <trkpt lat="47.33398" lon="-2.46615">
        <ele>3.5999999046326</ele>
        <time>2021-09-02T08:11:13.000Z</time>
      </trkpt>
      <trkpt lat="47.33399" lon="-2.46613">
        <ele>4</ele>
        <time>2021-09-02T08:11:14.000Z</time>
      </trkpt>
      <trkpt lat="47.33411" lon="-2.46603">
        <ele>4</ele>
        <time>2021-09-02T08:11:20.000Z</time>
      </trkpt>
      <trkpt lat="47.33416" lon="-2.46597">
        <ele>4.5999999046326</ele>
        <time>2021-09-02T08:11:24.000Z</time>
      </trkpt>
      <trkpt lat="47.33418" lon="-2.46595">
        <ele>5</ele>
        <time>2021-09-02T08:11:25.000Z</time>
      </trkpt>
      <trkpt lat="47.3342" lon="-2.46594">
        <ele>5.4000000953674</ele>
        <time>2021-09-02T08:11:26.000Z</time>
      </trkpt>
      <trkpt lat="47.33422" lon="-2.46593">
        <ele>5.8000001907349</ele>
        <time>2021-09-02T08:11:27.000Z</time>
      </trkpt>
      <trkpt lat="47.33424" lon="-2.46592">
        <ele>6.1999998092651</ele>
        <time>2021-09-02T08:11:28.000Z</time>
      </trkpt>
      <trkpt lat="47.33431" lon="-2.46586">
        <ele>6.1999998092651</ele>
        <time>2021-09-02T08:11:31.000Z</time>
      </trkpt>
      <trkpt lat="47.33441" lon="-2.46576">
        <ele>6.5999999046326</ele>
        <time>2021-09-02T08:11:36.000Z</time>
      </trkpt>
      <trkpt lat="47.33443" lon="-2.46574">
        <ele>7</ele>
        <time>2021-09-02T08:11:37.000Z</time>
      </trkpt>
      <trkpt lat="47.33445" lon="-2.46572">
        <ele>8</ele>
        <time>2021-09-02T08:11:38.000Z</time>
      </trkpt>
      <trkpt lat="47.33446" lon="-2.46571">
        <ele>8.3999996185303</ele>
        <time>2021-09-02T08:11:39.000Z</time>
      </trkpt>
      <trkpt lat="47.33458" lon="-2.46559">
        <ele>8.3999996185303</ele>
        <time>2021-09-02T08:11:46.000Z</time>
      </trkpt>
      <trkpt lat="47.3346" lon="-2.46556">
        <ele>8.8000001907349</ele>
        <time>2021-09-02T08:11:48.000Z</time>
      </trkpt>
      <trkpt lat="47.33462" lon="-2.46555">
        <ele>9.1999998092651</ele>
        <time>2021-09-02T08:11:49.000Z</time>
      </trkpt>
      <trkpt lat="47.33463" lon="-2.46553">
        <ele>9.6000003814697</ele>
        <time>2021-09-02T08:11:50.000Z</time>
      </trkpt>
      <trkpt lat="47.33465" lon="-2.46551">
        <ele>10</ele>
        <time>2021-09-02T08:11:51.000Z</time>
      </trkpt>
      <trkpt lat="47.33468" lon="-2.46549">
        <ele>10.39999961853</ele>
        <time>2021-09-02T08:11:52.000Z</time>
      </trkpt>
      <trkpt lat="47.33479" lon="-2.46536">
        <ele>10.39999961853</ele>
        <time>2021-09-02T08:11:58.000Z</time>
      </trkpt>
      <trkpt lat="47.33481" lon="-2.46534">
        <ele>10.800000190735</ele>
        <time>2021-09-02T08:11:59.000Z</time>
      </trkpt>
      <trkpt lat="47.33483" lon="-2.46532">
        <ele>11.199999809265</ele>
        <time>2021-09-02T08:12:00.000Z</time>
      </trkpt>
      <trkpt lat="47.33485" lon="-2.4653">
        <ele>11.60000038147</ele>
        <time>2021-09-02T08:12:01.000Z</time>
      </trkpt>
      <trkpt lat="47.33487" lon="-2.46527">
        <ele>12.60000038147</ele>
        <time>2021-09-02T08:12:02.000Z</time>
      </trkpt>
      <trkpt lat="47.33494" lon="-2.4652">
        <ele>12.60000038147</ele>
        <time>2021-09-02T08:12:06.000Z</time>
      </trkpt>
      <trkpt lat="47.33505" lon="-2.46506">
        <ele>12.60000038147</ele>
        <time>2021-09-02T08:12:13.000Z</time>
      </trkpt>
      <trkpt lat="47.33518" lon="-2.46492">
        <ele>13</ele>
        <time>2021-09-02T08:12:18.000Z</time>
      </trkpt>
      <trkpt lat="47.3352" lon="-2.4649">
        <ele>13.39999961853</ele>
        <time>2021-09-02T08:12:19.000Z</time>
      </trkpt>
      <trkpt lat="47.33522" lon="-2.46488">
        <ele>13.800000190735</ele>
        <time>2021-09-02T08:12:20.000Z</time>
      </trkpt>
      <trkpt lat="47.33524" lon="-2.46488">
        <ele>14.199999809265</ele>
        <time>2021-09-02T08:12:21.000Z</time>
      </trkpt>
      <trkpt lat="47.33527" lon="-2.46487">
        <ele>14.60000038147</ele>
        <time>2021-09-02T08:12:22.000Z</time>
      </trkpt>
      <trkpt lat="47.33531" lon="-2.46487">
        <ele>14.60000038147</ele>
        <time>2021-09-02T08:12:24.000Z</time>
      </trkpt>
      <trkpt lat="47.33536" lon="-2.46489">
        <ele>14.60000038147</ele>
        <time>2021-09-02T08:12:26.000Z</time>
      </trkpt>
      <trkpt lat="47.33538" lon="-2.46502">
        <ele>14.60000038147</ele>
        <time>2021-09-02T08:12:28.000Z</time>
      </trkpt>
      <trkpt lat="47.33544" lon="-2.46534">
        <ele>14.60000038147</ele>
        <time>2021-09-02T08:12:32.000Z</time>
      </trkpt>
      <trkpt lat="47.33545" lon="-2.4654">
        <ele>14.60000038147</ele>
        <time>2021-09-02T08:12:33.000Z</time>
      </trkpt>
      <trkpt lat="47.33546" lon="-2.46547">
        <ele>14.60000038147</ele>
        <time>2021-09-02T08:12:34.000Z</time>
      </trkpt>
      <trkpt lat="47.33553" lon="-2.46575">
        <ele>14.60000038147</ele>
        <time>2021-09-02T08:12:38.000Z</time>
      </trkpt>
      <trkpt lat="47.33555" lon="-2.46581">
        <ele>14.60000038147</ele>
        <time>2021-09-02T08:12:39.000Z</time>
      </trkpt>
      <trkpt lat="47.33565" lon="-2.4659">
        <ele>14.60000038147</ele>
        <time>2021-09-02T08:12:42.000Z</time>
      </trkpt>
      <trkpt lat="47.33569" lon="-2.46593">
        <ele>14.60000038147</ele>
        <time>2021-09-02T08:12:43.000Z</time>
      </trkpt>
      <trkpt lat="47.33572" lon="-2.46597">
        <ele>14.60000038147</ele>
        <time>2021-09-02T08:12:44.000Z</time>
      </trkpt>
      <trkpt lat="47.33575" lon="-2.46609">
        <ele>14.60000038147</ele>
        <time>2021-09-02T08:12:46.000Z</time>
      </trkpt>
      <trkpt lat="47.33589" lon="-2.46657">
        <ele>14.60000038147</ele>
        <time>2021-09-02T08:12:53.000Z</time>
      </trkpt>
      <trkpt lat="47.33608" lon="-2.46705">
        <ele>14.60000038147</ele>
        <time>2021-09-02T08:13:00.000Z</time>
      </trkpt>
      <trkpt lat="47.33619" lon="-2.46742">
        <ele>14.60000038147</ele>
        <time>2021-09-02T08:13:06.000Z</time>
      </trkpt>
      <trkpt lat="47.33619" lon="-2.46749">
        <ele>14.60000038147</ele>
        <time>2021-09-02T08:13:07.000Z</time>
      </trkpt>
      <trkpt lat="47.33615" lon="-2.4676">
        <ele>14.60000038147</ele>
        <time>2021-09-02T08:13:09.000Z</time>
      </trkpt>
      <trkpt lat="47.33602" lon="-2.46772">
        <ele>14.60000038147</ele>
        <time>2021-09-02T08:13:12.000Z</time>
      </trkpt>
      <trkpt lat="47.33597" lon="-2.46776">
        <ele>14.199999809265</ele>
        <time>2021-09-02T08:13:13.000Z</time>
      </trkpt>
      <trkpt lat="47.33592" lon="-2.46781">
        <ele>13.800000190735</ele>
        <time>2021-09-02T08:13:14.000Z</time>
      </trkpt>
      <trkpt lat="47.33586" lon="-2.46786">
        <ele>13</ele>
        <time>2021-09-02T08:13:15.000Z</time>
      </trkpt>
      <trkpt lat="47.33581" lon="-2.46792">
        <ele>12.39999961853</ele>
        <time>2021-09-02T08:13:16.000Z</time>
      </trkpt>
      <trkpt lat="47.33576" lon="-2.46798">
        <ele>11.800000190735</ele>
        <time>2021-09-02T08:13:17.000Z</time>
      </trkpt>
      <trkpt lat="47.33571" lon="-2.46804">
        <ele>11.39999961853</ele>
        <time>2021-09-02T08:13:18.000Z</time>
      </trkpt>
      <trkpt lat="47.33566" lon="-2.4681">
        <ele>10.60000038147</ele>
        <time>2021-09-02T08:13:19.000Z</time>
      </trkpt>
      <trkpt lat="47.33561" lon="-2.46815">
        <ele>10</ele>
        <time>2021-09-02T08:13:20.000Z</time>
      </trkpt>
      <trkpt lat="47.33554" lon="-2.46821">
        <ele>9.1999998092651</ele>
        <time>2021-09-02T08:13:21.000Z</time>
      </trkpt>
      <trkpt lat="47.33548" lon="-2.46828">
        <ele>8.6000003814697</ele>
        <time>2021-09-02T08:13:22.000Z</time>
      </trkpt>
      <trkpt lat="47.33543" lon="-2.46833">
        <ele>7.8000001907349</ele>
        <time>2021-09-02T08:13:23.000Z</time>
      </trkpt>
      <trkpt lat="47.33539" lon="-2.46838">
        <ele>7.8000001907349</ele>
        <time>2021-09-02T08:13:24.000Z</time>
      </trkpt>
      <trkpt lat="47.33536" lon="-2.46843">
        <ele>7.4000000953674</ele>
        <time>2021-09-02T08:13:25.000Z</time>
      </trkpt>
      <trkpt lat="47.33534" lon="-2.46849">
        <ele>7</ele>
        <time>2021-09-02T08:13:26.000Z</time>
      </trkpt>
      <trkpt lat="47.33534" lon="-2.46856">
        <ele>6.5999999046326</ele>
        <time>2021-09-02T08:13:27.000Z</time>
      </trkpt>
      <trkpt lat="47.33534" lon="-2.46864">
        <ele>6</ele>
        <time>2021-09-02T08:13:28.000Z</time>
      </trkpt>
      <trkpt lat="47.33535" lon="-2.46872">
        <ele>5.4000000953674</ele>
        <time>2021-09-02T08:13:29.000Z</time>
      </trkpt>
      <trkpt lat="47.33534" lon="-2.46878">
        <ele>4.8000001907349</ele>
        <time>2021-09-02T08:13:30.000Z</time>
      </trkpt>
      <trkpt lat="47.33532" lon="-2.46884">
        <ele>4.1999998092651</ele>
        <time>2021-09-02T08:13:31.000Z</time>
      </trkpt>
      <trkpt lat="47.33529" lon="-2.46889">
        <ele>3.5999999046326</ele>
        <time>2021-09-02T08:13:32.000Z</time>
      </trkpt>
      <trkpt lat="47.3352" lon="-2.46897">
        <ele>3.5999999046326</ele>
        <time>2021-09-02T08:13:34.000Z</time>
      </trkpt>
      <trkpt lat="47.33515" lon="-2.46902">
        <ele>3.5999999046326</ele>
        <time>2021-09-02T08:13:35.000Z</time>
      </trkpt>
      <trkpt lat="47.33506" lon="-2.4691">
        <ele>3.2000000476837</ele>
        <time>2021-09-02T08:13:37.000Z</time>
      </trkpt>
      <trkpt lat="47.33501" lon="-2.46915">
        <ele>2.5999999046326</ele>
        <time>2021-09-02T08:13:38.000Z</time>
      </trkpt>
      <trkpt lat="47.33496" lon="-2.46919">
        <ele>2.2000000476837</ele>
        <time>2021-09-02T08:13:39.000Z</time>
      </trkpt>
      <trkpt lat="47.3349" lon="-2.46923">
        <ele>1.2000000476837</ele>
        <time>2021-09-02T08:13:40.000Z</time>
      </trkpt>
      <trkpt lat="47.33485" lon="-2.46928">
        <ele>1.2000000476837</ele>
        <time>2021-09-02T08:13:41.000Z</time>
      </trkpt>
      <trkpt lat="47.3348" lon="-2.46934">
        <ele>0.80000001192093</ele>
        <time>2021-09-02T08:13:42.000Z</time>
      </trkpt>
      <trkpt lat="47.33475" lon="-2.46941">
        <ele>0.40000000596046</ele>
        <time>2021-09-02T08:13:43.000Z</time>
      </trkpt>
      <trkpt lat="47.3347" lon="-2.46948">
        <ele>23.9</ele>
        <time>2021-09-02T08:13:44.000Z</time>
      </trkpt>
      <trkpt lat="47.33466" lon="-2.46954">
        <ele>-0.40000000596046</ele>
        <time>2021-09-02T08:13:45.000Z</time>
      </trkpt>
      <trkpt lat="47.33462" lon="-2.46961">
        <ele>-0.80000001192093</ele>
        <time>2021-09-02T08:13:46.000Z</time>
      </trkpt>
      <trkpt lat="47.33449" lon="-2.46979">
        <ele>-0.80000001192093</ele>
        <time>2021-09-02T08:13:49.000Z</time>
      </trkpt>
      <trkpt lat="47.33445" lon="-2.46985">
        <ele>-0.80000001192093</ele>
        <time>2021-09-02T08:13:50.000Z</time>
      </trkpt>
      <trkpt lat="47.33429" lon="-2.47008">
        <ele>-1.2000000476837</ele>
        <time>2021-09-02T08:13:54.000Z</time>
      </trkpt>
      <trkpt lat="47.33424" lon="-2.47014">
        <ele>-1.6000000238419</ele>
        <time>2021-09-02T08:13:55.000Z</time>
      </trkpt>
      <trkpt lat="47.3342" lon="-2.4702">
        <ele>-2.2000000476837</ele>
        <time>2021-09-02T08:13:56.000Z</time>
      </trkpt>
      <trkpt lat="47.33417" lon="-2.47027">
        <ele>-2.5999999046326</ele>
        <time>2021-09-02T08:13:57.000Z</time>
      </trkpt>
      <trkpt lat="47.33413" lon="-2.47034">
        <ele>-3</ele>
        <time>2021-09-02T08:13:58.000Z</time>
      </trkpt>
      <trkpt lat="47.33398" lon="-2.47072">
        <ele>-3</ele>
        <time>2021-09-02T08:14:03.000Z</time>
      </trkpt>
      <trkpt lat="47.33391" lon="-2.47097">
        <ele>-3</ele>
        <time>2021-09-02T08:14:06.000Z</time>
      </trkpt>
      <trkpt lat="47.33388" lon="-2.47115">
        <ele>-3</ele>
        <time>2021-09-02T08:14:08.000Z</time>
      </trkpt>
      <trkpt lat="47.33383" lon="-2.47138">
        <ele>-3</ele>
        <time>2021-09-02T08:14:11.000Z</time>
      </trkpt>
      <trkpt lat="47.33377" lon="-2.4715">
        <ele>-3</ele>
        <time>2021-09-02T08:14:13.000Z</time>
      </trkpt>
      <trkpt lat="47.33374" lon="-2.47156">
        <ele>-3.4000000953674</ele>
        <time>2021-09-02T08:14:14.000Z</time>
      </trkpt>
      <trkpt lat="47.33372" lon="-2.47161">
        <ele>-3.7999999523163</ele>
        <time>2021-09-02T08:14:15.000Z</time>
      </trkpt>
      <trkpt lat="47.3337" lon="-2.47167">
        <ele>-4.1999998092651</ele>
        <time>2021-09-02T08:14:16.000Z</time>
      </trkpt>
      <trkpt lat="47.3337" lon="-2.47173">
        <ele>-4.8000001907349</ele>
        <time>2021-09-02T08:14:17.000Z</time>
      </trkpt>
      <trkpt lat="47.3337" lon="-2.47178">
        <ele>-5.1999998092651</ele>
        <time>2021-09-02T08:14:18.000Z</time>
      </trkpt>
      <trkpt lat="47.33372" lon="-2.4719">
        <ele>-5.1999998092651</ele>
        <time>2021-09-02T08:14:20.000Z</time>
      </trkpt>
      <trkpt lat="47.33373" lon="-2.47201">
        <ele>-5.1999998092651</ele>
        <time>2021-09-02T08:14:22.000Z</time>
      </trkpt>
      <trkpt lat="47.33382" lon="-2.47244">
        <ele>-5.1999998092651</ele>
        <time>2021-09-02T08:14:29.000Z</time>
      </trkpt>
      <trkpt lat="47.33386" lon="-2.47286">
        <ele>-5.1999998092651</ele>
        <time>2021-09-02T08:14:35.000Z</time>
      </trkpt>
      <trkpt lat="47.33391" lon="-2.47328">
        <ele>-5.1999998092651</ele>
        <time>2021-09-02T08:14:42.000Z</time>
      </trkpt>
      <trkpt lat="47.33402" lon="-2.47373">
        <ele>-5.1999998092651</ele>
        <time>2021-09-02T08:14:50.000Z</time>
      </trkpt>
      <trkpt lat="47.33414" lon="-2.47419">
        <ele>-5.1999998092651</ele>
        <time>2021-09-02T08:14:58.000Z</time>
      </trkpt>
      <trkpt lat="47.33422" lon="-2.47457">
        <ele>-5.1999998092651</ele>
        <time>2021-09-02T08:15:05.000Z</time>
      </trkpt>
      <trkpt lat="47.33433" lon="-2.4749">
        <ele>-5.1999998092651</ele>
        <time>2021-09-02T08:15:12.000Z</time>
      </trkpt>
      <trkpt lat="47.33454" lon="-2.47542">
        <ele>-5.1999998092651</ele>
        <time>2021-09-02T08:15:21.000Z</time>
      </trkpt>
      <trkpt lat="47.33476" lon="-2.47587">
        <ele>-5.1999998092651</ele>
        <time>2021-09-02T08:15:28.000Z</time>
      </trkpt>
      <trkpt lat="47.33485" lon="-2.47599">
        <ele>-5.1999998092651</ele>
        <time>2021-09-02T08:15:30.000Z</time>
      </trkpt>
      <trkpt lat="47.335" lon="-2.47613">
        <ele>-5.1999998092651</ele>
        <time>2021-09-02T08:15:33.000Z</time>
      </trkpt>
      <trkpt lat="47.33504" lon="-2.47618">
        <ele>-5.1999998092651</ele>
        <time>2021-09-02T08:15:34.000Z</time>
      </trkpt>
      <trkpt lat="47.33515" lon="-2.47637">
        <ele>-5.1999998092651</ele>
        <time>2021-09-02T08:15:37.000Z</time>
      </trkpt>
      <trkpt lat="47.33528" lon="-2.47668">
        <ele>-5.1999998092651</ele>
        <time>2021-09-02T08:15:42.000Z</time>
      </trkpt>
      <trkpt lat="47.33532" lon="-2.47671">
        <ele>-5.1999998092651</ele>
        <time>2021-09-02T08:15:43.000Z</time>
      </trkpt>
      <trkpt lat="47.33548" lon="-2.47683">
        <ele>-5.1999998092651</ele>
        <time>2021-09-02T08:15:47.000Z</time>
      </trkpt>
      <trkpt lat="47.33553" lon="-2.47686">
        <ele>-5.1999998092651</ele>
        <time>2021-09-02T08:15:48.000Z</time>
      </trkpt>
      <trkpt lat="47.33557" lon="-2.47689">
        <ele>-5.1999998092651</ele>
        <time>2021-09-02T08:15:49.000Z</time>
      </trkpt>
      <trkpt lat="47.33567" lon="-2.47697">
        <ele>-4.8000001907349</ele>
        <time>2021-09-02T08:15:52.000Z</time>
      </trkpt>
      <trkpt lat="47.33571" lon="-2.47699">
        <ele>-4.4000000953674</ele>
        <time>2021-09-02T08:15:53.000Z</time>
      </trkpt>
      <trkpt lat="47.33576" lon="-2.477">
        <ele>-4</ele>
        <time>2021-09-02T08:15:54.000Z</time>
      </trkpt>
      <trkpt lat="47.3358" lon="-2.47701">
        <ele>-3.5999999046326</ele>
        <time>2021-09-02T08:15:55.000Z</time>
      </trkpt>
      <trkpt lat="47.33584" lon="-2.47701">
        <ele>-3.2000000476837</ele>
        <time>2021-09-02T08:15:56.000Z</time>
      </trkpt>
      <trkpt lat="47.3359" lon="-2.47698">
        <ele>-3.2000000476837</ele>
        <time>2021-09-02T08:15:58.000Z</time>
      </trkpt>
      <trkpt lat="47.33607" lon="-2.47683">
        <ele>-3.2000000476837</ele>
        <time>2021-09-02T08:16:04.000Z</time>
      </trkpt>
      <trkpt lat="47.33627" lon="-2.47665">
        <ele>-3.2000000476837</ele>
        <time>2021-09-02T08:16:10.000Z</time>
      </trkpt>
      <trkpt lat="47.33631" lon="-2.47662">
        <ele>-3.2000000476837</ele>
        <time>2021-09-02T08:16:11.000Z</time>
      </trkpt>
      <trkpt lat="47.33643" lon="-2.47656">
        <ele>-3.2000000476837</ele>
        <time>2021-09-02T08:16:14.000Z</time>
      </trkpt>
      <trkpt lat="47.33654" lon="-2.47647">
        <ele>-3.2000000476837</ele>
        <time>2021-09-02T08:16:17.000Z</time>
      </trkpt>
      <trkpt lat="47.33686" lon="-2.47625">
        <ele>-3.2000000476837</ele>
        <time>2021-09-02T08:16:26.000Z</time>
      </trkpt>
      <trkpt lat="47.33712" lon="-2.47619">
        <ele>-3.2000000476837</ele>
        <time>2021-09-02T08:16:33.000Z</time>
      </trkpt>
      <trkpt lat="47.33734" lon="-2.47617">
        <ele>-3.2000000476837</ele>
        <time>2021-09-02T08:16:39.000Z</time>
      </trkpt>
      <trkpt lat="47.33738" lon="-2.4762">
        <ele>-3.2000000476837</ele>
        <time>2021-09-02T08:16:40.000Z</time>
      </trkpt>
      <trkpt lat="47.33745" lon="-2.47628">
        <ele>-3.2000000476837</ele>
        <time>2021-09-02T08:16:42.000Z</time>
      </trkpt>
      <trkpt lat="47.33758" lon="-2.47644">
        <ele>-3.2000000476837</ele>
        <time>2021-09-02T08:16:46.000Z</time>
      </trkpt>
      <trkpt lat="47.33763" lon="-2.47655">
        <ele>-3.2000000476837</ele>
        <time>2021-09-02T08:16:48.000Z</time>
      </trkpt>
      <trkpt lat="47.33771" lon="-2.47673">
        <ele>-3.2000000476837</ele>
        <time>2021-09-02T08:16:51.000Z</time>
      </trkpt>
      <trkpt lat="47.33783" lon="-2.4769">
        <ele>-3.2000000476837</ele>
        <time>2021-09-02T08:16:54.000Z</time>
      </trkpt>
      <trkpt lat="47.33802" lon="-2.47713">
        <ele>-3.5999999046326</ele>
        <time>2021-09-02T08:16:58.000Z</time>
      </trkpt>
      <trkpt lat="47.33806" lon="-2.47718">
        <ele>-4.4000000953674</ele>
        <time>2021-09-02T08:16:59.000Z</time>
      </trkpt>
      <trkpt lat="47.33811" lon="-2.47724">
        <ele>-4.8000001907349</ele>
        <time>2021-09-02T08:17:00.000Z</time>
      </trkpt>
      <trkpt lat="47.33815" lon="-2.47729">
        <ele>-5.1999998092651</ele>
        <time>2021-09-02T08:17:01.000Z</time>
      </trkpt>
      <trkpt lat="47.33824" lon="-2.47739">
        <ele>-5.1999998092651</ele>
        <time>2021-09-02T08:17:03.000Z</time>
      </trkpt>
      <trkpt lat="47.33853" lon="-2.47773">
        <ele>-5.1999998092651</ele>
        <time>2021-09-02T08:17:10.000Z</time>
      </trkpt>
      <trkpt lat="47.33857" lon="-2.47772">
        <ele>-5.5999999046326</ele>
        <time>2021-09-02T08:17:11.000Z</time>
      </trkpt>
      <trkpt lat="47.3386" lon="-2.4777">
        <ele>-6.1999998092651</ele>
        <time>2021-09-02T08:17:12.000Z</time>
      </trkpt>
      <trkpt lat="47.33863" lon="-2.47766">
        <ele>-6.5999999046326</ele>
        <time>2021-09-02T08:17:13.000Z</time>
      </trkpt>
      <trkpt lat="47.33866" lon="-2.47761">
        <ele>-7</ele>
        <time>2021-09-02T08:17:14.000Z</time>
      </trkpt>
      <trkpt lat="47.3387" lon="-2.47756">
        <ele>-7.4000000953674</ele>
        <time>2021-09-02T08:17:15.000Z</time>
      </trkpt>
      <trkpt lat="47.33879" lon="-2.47741">
        <ele>-7.4000000953674</ele>
        <time>2021-09-02T08:17:18.000Z</time>
      </trkpt>
      <trkpt lat="47.3389" lon="-2.4772">
        <ele>-7.4000000953674</ele>
        <time>2021-09-02T08:17:23.000Z</time>
      </trkpt>
      <trkpt lat="47.33896" lon="-2.47705">
        <ele>-7.4000000953674</ele>
        <time>2021-09-02T08:17:28.000Z</time>
      </trkpt>
      <trkpt lat="47.33907" lon="-2.47684">
        <ele>-7.4000000953674</ele>
        <time>2021-09-02T08:17:33.000Z</time>
      </trkpt>
      <trkpt lat="47.33914" lon="-2.47671">
        <ele>-6.8000001907349</ele>
        <time>2021-09-02T08:17:36.000Z</time>
      </trkpt>
      <trkpt lat="47.33916" lon="-2.47666">
        <ele>-6.4000000953674</ele>
        <time>2021-09-02T08:17:37.000Z</time>
      </trkpt>
      <trkpt lat="47.33917" lon="-2.47661">
        <ele>-6</ele>
        <time>2021-09-02T08:17:38.000Z</time>
      </trkpt>
      <trkpt lat="47.33919" lon="-2.47656">
        <ele>-5.5999999046326</ele>
        <time>2021-09-02T08:17:39.000Z</time>
      </trkpt>
      <trkpt lat="47.33921" lon="-2.47651">
        <ele>-5.1999998092651</ele>
        <time>2021-09-02T08:17:40.000Z</time>
      </trkpt>
      <trkpt lat="47.33933" lon="-2.47628">
        <ele>-5.1999998092651</ele>
        <time>2021-09-02T08:17:45.000Z</time>
      </trkpt>
      <trkpt lat="47.33937" lon="-2.47617">
        <ele>-4.8000001907349</ele>
        <time>2021-09-02T08:17:47.000Z</time>
      </trkpt>
      <trkpt lat="47.33938" lon="-2.47612">
        <ele>-4.4000000953674</ele>
        <time>2021-09-02T08:17:48.000Z</time>
      </trkpt>
      <trkpt lat="47.33938" lon="-2.47606">
        <ele>-3.5999999046326</ele>
        <time>2021-09-02T08:17:49.000Z</time>
      </trkpt>
      <trkpt lat="47.33939" lon="-2.47601">
        <ele>-3.2000000476837</ele>
        <time>2021-09-02T08:17:50.000Z</time>
      </trkpt>
      <trkpt lat="47.3394" lon="-2.47596">
        <ele>-3.2000000476837</ele>
        <time>2021-09-02T08:17:51.000Z</time>
      </trkpt>
      <trkpt lat="47.33949" lon="-2.47567">
        <ele>-3.2000000476837</ele>
        <time>2021-09-02T08:17:57.000Z</time>
      </trkpt>
      <trkpt lat="47.33953" lon="-2.47559">
        <ele>-2.7999999523163</ele>
        <time>2021-09-02T08:17:59.000Z</time>
      </trkpt>
      <trkpt lat="47.33955" lon="-2.47556">
        <ele>-2.4000000953674</ele>
        <time>2021-09-02T08:18:00.000Z</time>
      </trkpt>
      <trkpt lat="47.33957" lon="-2.47552">
        <ele>-2</ele>
        <time>2021-09-02T08:18:01.000Z</time>
      </trkpt>
      <trkpt lat="47.33959" lon="-2.47549">
        <ele>-1.6000000238419</ele>
        <time>2021-09-02T08:18:02.000Z</time>
      </trkpt>
      <trkpt lat="47.33961" lon="-2.47546">
        <ele>-1.2000000476837</ele>
        <time>2021-09-02T08:18:03.000Z</time>
      </trkpt>
      <trkpt lat="47.33964" lon="-2.47543">
        <ele>-1.2000000476837</ele>
        <time>2021-09-02T08:18:04.000Z</time>
      </trkpt>
      <trkpt lat="47.33975" lon="-2.47527">
        <ele>-1.2000000476837</ele>
        <time>2021-09-02T08:18:09.000Z</time>
      </trkpt>
      <trkpt lat="47.3398" lon="-2.47521">
        <ele>-0.60000002384186</ele>
        <time>2021-09-02T08:18:11.000Z</time>
      </trkpt>
      <trkpt lat="47.33983" lon="-2.47518">
        <ele>-0.20000000298023</ele>
        <time>2021-09-02T08:18:12.000Z</time>
      </trkpt>
      <trkpt lat="47.33986" lon="-2.47515">
        <ele>0.60000002384186</ele>
        <time>2021-09-02T08:18:13.000Z</time>
      </trkpt>
      <trkpt lat="47.33989" lon="-2.47513">
        <ele>1</ele>
        <time>2021-09-02T08:18:14.000Z</time>
      </trkpt>
      <trkpt lat="47.33996" lon="-2.47508">
        <ele>1</ele>
        <time>2021-09-02T08:18:16.000Z</time>
      </trkpt>
      <trkpt lat="47.34011" lon="-2.47493">
        <ele>1.3999999761581</ele>
        <time>2021-09-02T08:18:21.000Z</time>
      </trkpt>
      <trkpt lat="47.34013" lon="-2.47489">
        <ele>1.7999999523163</ele>
        <time>2021-09-02T08:18:22.000Z</time>
      </trkpt>
      <trkpt lat="47.34016" lon="-2.47485">
        <ele>2.4000000953674</ele>
        <time>2021-09-02T08:18:23.000Z</time>
      </trkpt>
      <trkpt lat="47.34019" lon="-2.47481">
        <ele>2.7999999523163</ele>
        <time>2021-09-02T08:18:24.000Z</time>
      </trkpt>
      <trkpt lat="47.34022" lon="-2.47478">
        <ele>3.2000000476837</ele>
        <time>2021-09-02T08:18:25.000Z</time>
      </trkpt>
      <trkpt lat="47.34034" lon="-2.47469">
        <ele>3.2000000476837</ele>
        <time>2021-09-02T08:18:28.000Z</time>
      </trkpt>
      <trkpt lat="47.34048" lon="-2.47457">
        <ele>3.2000000476837</ele>
        <time>2021-09-02T08:18:33.000Z</time>
      </trkpt>
      <trkpt lat="47.34055" lon="-2.47447">
        <ele>3.5999999046326</ele>
        <time>2021-09-02T08:18:37.000Z</time>
      </trkpt>
      <trkpt lat="47.34057" lon="-2.47445">
        <ele>4.4000000953674</ele>
        <time>2021-09-02T08:18:38.000Z</time>
      </trkpt>
      <trkpt lat="47.34059" lon="-2.47442">
        <ele>4.8000001907349</ele>
        <time>2021-09-02T08:18:39.000Z</time>
      </trkpt>
      <trkpt lat="47.34061" lon="-2.4744">
        <ele>5.1999998092651</ele>
        <time>2021-09-02T08:18:40.000Z</time>
      </trkpt>
      <trkpt lat="47.34069" lon="-2.47431">
        <ele>5.1999998092651</ele>
        <time>2021-09-02T08:18:45.000Z</time>
      </trkpt>
      <trkpt lat="47.3407" lon="-2.47431">
        <ele>5.1999998092651</ele>
        <time>2021-09-02T08:18:47.000Z</time>
      </trkpt>
      <trkpt lat="47.34079" lon="-2.47415">
        <ele>5.1999998092651</ele>
        <time>2021-09-02T08:20:54.000Z</time>
      </trkpt>
      <trkpt lat="47.3408" lon="-2.47413">
        <ele>5.1999998092651</ele>
        <time>2021-09-02T08:20:55.000Z</time>
      </trkpt>
      <trkpt lat="47.34084" lon="-2.47406">
        <ele>5.1999998092651</ele>
        <time>2021-09-02T08:21:01.000Z</time>
      </trkpt>
      <trkpt lat="47.34085" lon="-2.47403">
        <ele>5.1999998092651</ele>
        <time>2021-09-02T08:21:06.000Z</time>
      </trkpt>
      <trkpt lat="47.34093" lon="-2.47388">
        <ele>5.8000001907349</ele>
        <time>2021-09-02T08:21:11.000Z</time>
      </trkpt>
      <trkpt lat="47.34096" lon="-2.47384">
        <ele>6.1999998092651</ele>
        <time>2021-09-02T08:21:12.000Z</time>
      </trkpt>
      <trkpt lat="47.34098" lon="-2.47379">
        <ele>6.5999999046326</ele>
        <time>2021-09-02T08:21:13.000Z</time>
      </trkpt>
      <trkpt lat="47.341" lon="-2.47374">
        <ele>7</ele>
        <time>2021-09-02T08:21:14.000Z</time>
      </trkpt>
      <trkpt lat="47.34101" lon="-2.47369">
        <ele>7.4000000953674</ele>
        <time>2021-09-02T08:21:15.000Z</time>
      </trkpt>
      <trkpt lat="47.34107" lon="-2.47355">
        <ele>7.4000000953674</ele>
        <time>2021-09-02T08:21:18.000Z</time>
      </trkpt>
      <trkpt lat="47.34113" lon="-2.47338">
        <ele>7.8000001907349</ele>
        <time>2021-09-02T08:21:22.000Z</time>
      </trkpt>
      <trkpt lat="47.34115" lon="-2.47333">
        <ele>8.1999998092651</ele>
        <time>2021-09-02T08:21:23.000Z</time>
      </trkpt>
      <trkpt lat="47.34117" lon="-2.47329">
        <ele>8.6000003814697</ele>
        <time>2021-09-02T08:21:24.000Z</time>
      </trkpt>
      <trkpt lat="47.34119" lon="-2.47325">
        <ele>9.1999998092651</ele>
        <time>2021-09-02T08:21:25.000Z</time>
      </trkpt>
      <trkpt lat="47.34121" lon="-2.47321">
        <ele>9.6000003814697</ele>
        <time>2021-09-02T08:21:26.000Z</time>
      </trkpt>
      <trkpt lat="47.34137" lon="-2.47287">
        <ele>9.6000003814697</ele>
        <time>2021-09-02T08:21:33.000Z</time>
      </trkpt>
      <trkpt lat="47.34143" lon="-2.47278">
        <ele>10</ele>
        <time>2021-09-02T08:21:35.000Z</time>
      </trkpt>
      <trkpt lat="47.34148" lon="-2.47274">
        <ele>10.39999961853</ele>
        <time>2021-09-02T08:21:36.000Z</time>
      </trkpt>
      <trkpt lat="47.34152" lon="-2.47271">
        <ele>10.800000190735</ele>
        <time>2021-09-02T08:21:37.000Z</time>
      </trkpt>
      <trkpt lat="47.34155" lon="-2.47268">
        <ele>11.199999809265</ele>
        <time>2021-09-02T08:21:38.000Z</time>
      </trkpt>
      <trkpt lat="47.34159" lon="-2.47264">
        <ele>11.60000038147</ele>
        <time>2021-09-02T08:21:39.000Z</time>
      </trkpt>
      <trkpt lat="47.3418" lon="-2.47244">
        <ele>12</ele>
        <time>2021-09-02T08:21:45.000Z</time>
      </trkpt>
      <trkpt lat="47.34183" lon="-2.4724">
        <ele>12.39999961853</ele>
        <time>2021-09-02T08:21:46.000Z</time>
      </trkpt>
      <trkpt lat="47.34186" lon="-2.47236">
        <ele>13</ele>
        <time>2021-09-02T08:21:47.000Z</time>
      </trkpt>
      <trkpt lat="47.34189" lon="-2.47233">
        <ele>13.39999961853</ele>
        <time>2021-09-02T08:21:48.000Z</time>
      </trkpt>
      <trkpt lat="47.34193" lon="-2.47229">
        <ele>13.800000190735</ele>
        <time>2021-09-02T08:21:49.000Z</time>
      </trkpt>
      <trkpt lat="47.34203" lon="-2.47218">
        <ele>13.800000190735</ele>
        <time>2021-09-02T08:21:52.000Z</time>
      </trkpt>
      <trkpt lat="47.34207" lon="-2.47214">
        <ele>13.800000190735</ele>
        <time>2021-09-02T08:21:53.000Z</time>
      </trkpt>
      <trkpt lat="47.3422" lon="-2.47197">
        <ele>13.800000190735</ele>
        <time>2021-09-02T08:21:57.000Z</time>
      </trkpt>
      <trkpt lat="47.34238" lon="-2.47176">
        <ele>13.800000190735</ele>
        <time>2021-09-02T08:22:03.000Z</time>
      </trkpt>
      <trkpt lat="47.34257" lon="-2.47149">
        <ele>13.800000190735</ele>
        <time>2021-09-02T08:22:09.000Z</time>
      </trkpt>
      <trkpt lat="47.34264" lon="-2.47142">
        <ele>14.199999809265</ele>
        <time>2021-09-02T08:22:11.000Z</time>
      </trkpt>
      <trkpt lat="47.34267" lon="-2.47138">
        <ele>14.60000038147</ele>
        <time>2021-09-02T08:22:12.000Z</time>
      </trkpt>
      <trkpt lat="47.34271" lon="-2.47135">
        <ele>15</ele>
        <time>2021-09-02T08:22:13.000Z</time>
      </trkpt>
      <trkpt lat="47.34274" lon="-2.47132">
        <ele>15.39999961853</ele>
        <time>2021-09-02T08:22:14.000Z</time>
      </trkpt>
      <trkpt lat="47.34278" lon="-2.47129">
        <ele>15.800000190735</ele>
        <time>2021-09-02T08:22:15.000Z</time>
      </trkpt>
      <trkpt lat="47.343" lon="-2.47116">
        <ele>15.800000190735</ele>
        <time>2021-09-02T08:22:21.000Z</time>
      </trkpt>
      <trkpt lat="47.34324" lon="-2.47104">
        <ele>15.800000190735</ele>
        <time>2021-09-02T08:22:27.000Z</time>
      </trkpt>
      <trkpt lat="47.34328" lon="-2.47101">
        <ele>15.800000190735</ele>
        <time>2021-09-02T08:22:28.000Z</time>
      </trkpt>
      <trkpt lat="47.34348" lon="-2.47083">
        <ele>15.800000190735</ele>
        <time>2021-09-02T08:22:33.000Z</time>
      </trkpt>
      <trkpt lat="47.34356" lon="-2.47077">
        <ele>15.800000190735</ele>
        <time>2021-09-02T08:22:35.000Z</time>
      </trkpt>
      <trkpt lat="47.34373" lon="-2.47066">
        <ele>15.800000190735</ele>
        <time>2021-09-02T08:22:39.000Z</time>
      </trkpt>
      <trkpt lat="47.34377" lon="-2.47064">
        <ele>15.800000190735</ele>
        <time>2021-09-02T08:22:40.000Z</time>
      </trkpt>
      <trkpt lat="47.34395" lon="-2.47055">
        <ele>15.800000190735</ele>
        <time>2021-09-02T08:22:44.000Z</time>
      </trkpt>
      <trkpt lat="47.34403" lon="-2.4705">
        <ele>15.800000190735</ele>
        <time>2021-09-02T08:22:46.000Z</time>
      </trkpt>
      <trkpt lat="47.34407" lon="-2.47047">
        <ele>15.800000190735</ele>
        <time>2021-09-02T08:22:47.000Z</time>
      </trkpt>
      <trkpt lat="47.34431" lon="-2.47035">
        <ele>15.800000190735</ele>
        <time>2021-09-02T08:22:52.000Z</time>
      </trkpt>
      <trkpt lat="47.34463" lon="-2.47016">
        <ele>15.800000190735</ele>
        <time>2021-09-02T08:22:59.000Z</time>
      </trkpt>
      <trkpt lat="47.34495" lon="-2.47">
        <ele>15.800000190735</ele>
        <time>2021-09-02T08:23:06.000Z</time>
      </trkpt>
      <trkpt lat="47.34509" lon="-2.46991">
        <ele>15.800000190735</ele>
        <time>2021-09-02T08:23:09.000Z</time>
      </trkpt>
      <trkpt lat="47.34518" lon="-2.46986">
        <ele>15.800000190735</ele>
        <time>2021-09-02T08:23:11.000Z</time>
      </trkpt>
      <trkpt lat="47.34522" lon="-2.46983">
        <ele>15.800000190735</ele>
        <time>2021-09-02T08:23:12.000Z</time>
      </trkpt>
      <trkpt lat="47.34535" lon="-2.46976">
        <ele>15.800000190735</ele>
        <time>2021-09-02T08:23:15.000Z</time>
      </trkpt>
      <trkpt lat="47.34543" lon="-2.46971">
        <ele>15.800000190735</ele>
        <time>2021-09-02T08:23:17.000Z</time>
      </trkpt>
      <trkpt lat="47.34569" lon="-2.46956">
        <ele>15.800000190735</ele>
        <time>2021-09-02T08:23:23.000Z</time>
      </trkpt>
      <trkpt lat="47.34589" lon="-2.46936">
        <ele>15.800000190735</ele>
        <time>2021-09-02T08:23:28.000Z</time>
      </trkpt>
      <trkpt lat="47.34597" lon="-2.4693">
        <ele>15.800000190735</ele>
        <time>2021-09-02T08:23:30.000Z</time>
      </trkpt>
      <trkpt lat="47.34608" lon="-2.46919">
        <ele>15.800000190735</ele>
        <time>2021-09-02T08:23:33.000Z</time>
      </trkpt>
      <trkpt lat="47.34618" lon="-2.46906">
        <ele>15.800000190735</ele>
        <time>2021-09-02T08:23:36.000Z</time>
      </trkpt>
      <trkpt lat="47.34621" lon="-2.46902">
        <ele>15.800000190735</ele>
        <time>2021-09-02T08:23:37.000Z</time>
      </trkpt>
      <trkpt lat="47.34643" lon="-2.46868">
        <ele>15.800000190735</ele>
        <time>2021-09-02T08:23:44.000Z</time>
      </trkpt>
      <trkpt lat="47.34665" lon="-2.46836">
        <ele>15.800000190735</ele>
        <time>2021-09-02T08:23:51.000Z</time>
      </trkpt>
      <trkpt lat="47.34685" lon="-2.468">
        <ele>15.800000190735</ele>
        <time>2021-09-02T08:23:58.000Z</time>
      </trkpt>
      <trkpt lat="47.34706" lon="-2.46764">
        <ele>15.800000190735</ele>
        <time>2021-09-02T08:24:05.000Z</time>
      </trkpt>
      <trkpt lat="47.34716" lon="-2.46749">
        <ele>16.39999961853</ele>
        <time>2021-09-02T08:24:08.000Z</time>
      </trkpt>
      <trkpt lat="47.3472" lon="-2.46744">
        <ele>16.799999237061</ele>
        <time>2021-09-02T08:24:09.000Z</time>
      </trkpt>
      <trkpt lat="47.34723" lon="-2.46739">
        <ele>17.39999961853</ele>
        <time>2021-09-02T08:24:10.000Z</time>
      </trkpt>
      <trkpt lat="47.34725" lon="-2.46734">
        <ele>17.799999237061</ele>
        <time>2021-09-02T08:24:11.000Z</time>
      </trkpt>
      <trkpt lat="47.34728" lon="-2.4673">
        <ele>18.39999961853</ele>
        <time>2021-09-02T08:24:12.000Z</time>
      </trkpt>
      <trkpt lat="47.34736" lon="-2.46716">
        <ele>17.799999237061</ele>
        <time>2021-09-02T08:24:15.000Z</time>
      </trkpt>
      <trkpt lat="47.3474" lon="-2.4671">
        <ele>17.39999961853</ele>
        <time>2021-09-02T08:24:16.000Z</time>
      </trkpt>
      <trkpt lat="47.34743" lon="-2.46705">
        <ele>16.799999237061</ele>
        <time>2021-09-02T08:24:17.000Z</time>
      </trkpt>
      <trkpt lat="47.34747" lon="-2.467">
        <ele>16.39999961853</ele>
        <time>2021-09-02T08:24:18.000Z</time>
      </trkpt>
      <trkpt lat="47.3475" lon="-2.46694">
        <ele>15.800000190735</ele>
        <time>2021-09-02T08:24:19.000Z</time>
      </trkpt>
      <trkpt lat="47.34764" lon="-2.46674">
        <ele>15.800000190735</ele>
        <time>2021-09-02T08:24:23.000Z</time>
      </trkpt>
      <trkpt lat="47.34781" lon="-2.46647">
        <ele>15.800000190735</ele>
        <time>2021-09-02T08:24:28.000Z</time>
      </trkpt>
      <trkpt lat="47.34798" lon="-2.46619">
        <ele>15.39999961853</ele>
        <time>2021-09-02T08:24:33.000Z</time>
      </trkpt>
      <trkpt lat="47.34801" lon="-2.46614">
        <ele>15</ele>
        <time>2021-09-02T08:24:34.000Z</time>
      </trkpt>
      <trkpt lat="47.34804" lon="-2.46609">
        <ele>14.39999961853</ele>
        <time>2021-09-02T08:24:35.000Z</time>
      </trkpt>
      <trkpt lat="47.34808" lon="-2.46603">
        <ele>14</ele>
        <time>2021-09-02T08:24:36.000Z</time>
      </trkpt>
      <trkpt lat="47.34811" lon="-2.46597">
        <ele>13.60000038147</ele>
        <time>2021-09-02T08:24:37.000Z</time>
      </trkpt>
      <trkpt lat="47.34821" lon="-2.46581">
        <ele>13.60000038147</ele>
        <time>2021-09-02T08:24:40.000Z</time>
      </trkpt>
      <trkpt lat="47.34842" lon="-2.46531">
        <ele>13.60000038147</ele>
        <time>2021-09-02T08:24:48.000Z</time>
      </trkpt>
      <trkpt lat="47.34846" lon="-2.46518">
        <ele>13.199999809265</ele>
        <time>2021-09-02T08:24:50.000Z</time>
      </trkpt>
      <trkpt lat="47.34847" lon="-2.46511">
        <ele>12.800000190735</ele>
        <time>2021-09-02T08:24:51.000Z</time>
      </trkpt>
      <trkpt lat="47.34849" lon="-2.46505">
        <ele>12.39999961853</ele>
        <time>2021-09-02T08:24:52.000Z</time>
      </trkpt>
      <trkpt lat="47.34852" lon="-2.46499">
        <ele>12</ele>
        <time>2021-09-02T08:24:53.000Z</time>
      </trkpt>
      <trkpt lat="47.34854" lon="-2.46493">
        <ele>11.60000038147</ele>
        <time>2021-09-02T08:24:54.000Z</time>
      </trkpt>
      <trkpt lat="47.34867" lon="-2.46482">
        <ele>11.60000038147</ele>
        <time>2021-09-02T08:24:57.000Z</time>
      </trkpt>
      <trkpt lat="47.34885" lon="-2.46472">
        <ele>11.60000038147</ele>
        <time>2021-09-02T08:25:01.000Z</time>
      </trkpt>
      <trkpt lat="47.3489" lon="-2.4647">
        <ele>11.60000038147</ele>
        <time>2021-09-02T08:25:02.000Z</time>
      </trkpt>
      <trkpt lat="47.34897" lon="-2.46466">
        <ele>11.199999809265</ele>
        <time>2021-09-02T08:25:04.000Z</time>
      </trkpt>
      <trkpt lat="47.34901" lon="-2.46464">
        <ele>10.800000190735</ele>
        <time>2021-09-02T08:25:05.000Z</time>
      </trkpt>
      <trkpt lat="47.34905" lon="-2.46462">
        <ele>10.39999961853</ele>
        <time>2021-09-02T08:25:06.000Z</time>
      </trkpt>
      <trkpt lat="47.34908" lon="-2.4646">
        <ele>10</ele>
        <time>2021-09-02T08:25:07.000Z</time>
      </trkpt>
      <trkpt lat="47.34912" lon="-2.46459">
        <ele>9.6000003814697</ele>
        <time>2021-09-02T08:25:08.000Z</time>
      </trkpt>
      <trkpt lat="47.34942" lon="-2.46449">
        <ele>9.6000003814697</ele>
        <time>2021-09-02T08:25:15.000Z</time>
      </trkpt>
      <trkpt lat="47.34965" lon="-2.46438">
        <ele>9.6000003814697</ele>
        <time>2021-09-02T08:25:21.000Z</time>
      </trkpt>
      <trkpt lat="47.34999" lon="-2.46422">
        <ele>9.6000003814697</ele>
        <time>2021-09-02T08:25:28.000Z</time>
      </trkpt>
      <trkpt lat="47.35023" lon="-2.46409">
        <ele>9.6000003814697</ele>
        <time>2021-09-02T08:25:33.000Z</time>
      </trkpt>
      <trkpt lat="47.35064" lon="-2.46388">
        <ele>9.6000003814697</ele>
        <time>2021-09-02T08:25:41.000Z</time>
      </trkpt>
      <trkpt lat="47.35078" lon="-2.4638">
        <ele>9.6000003814697</ele>
        <time>2021-09-02T08:25:44.000Z</time>
      </trkpt>
      <trkpt lat="47.35093" lon="-2.46372">
        <ele>9.6000003814697</ele>
        <time>2021-09-02T08:25:47.000Z</time>
      </trkpt>
      <trkpt lat="47.35119" lon="-2.4635">
        <ele>9.6000003814697</ele>
        <time>2021-09-02T08:25:53.000Z</time>
      </trkpt>
      <trkpt lat="47.35123" lon="-2.46344">
        <ele>9.6000003814697</ele>
        <time>2021-09-02T08:25:54.000Z</time>
      </trkpt>
      <trkpt lat="47.35148" lon="-2.4631">
        <ele>9.6000003814697</ele>
        <time>2021-09-02T08:26:00.000Z</time>
      </trkpt>
      <trkpt lat="47.3518" lon="-2.46278">
        <ele>9.6000003814697</ele>
        <time>2021-09-02T08:26:06.000Z</time>
      </trkpt>
      <trkpt lat="47.35222" lon="-2.46236">
        <ele>9.6000003814697</ele>
        <time>2021-09-02T08:26:14.000Z</time>
      </trkpt>
      <trkpt lat="47.35253" lon="-2.46203">
        <ele>9.6000003814697</ele>
        <time>2021-09-02T08:26:21.000Z</time>
      </trkpt>
      <trkpt lat="47.3528" lon="-2.4618">
        <ele>10</ele>
        <time>2021-09-02T08:26:27.000Z</time>
      </trkpt>
      <trkpt lat="47.35284" lon="-2.46176">
        <ele>10.800000190735</ele>
        <time>2021-09-02T08:26:28.000Z</time>
      </trkpt>
      <trkpt lat="47.35288" lon="-2.46171">
        <ele>11.199999809265</ele>
        <time>2021-09-02T08:26:29.000Z</time>
      </trkpt>
      <trkpt lat="47.35293" lon="-2.46166">
        <ele>11.60000038147</ele>
        <time>2021-09-02T08:26:30.000Z</time>
      </trkpt>
      <trkpt lat="47.35298" lon="-2.46163">
        <ele>11.60000038147</ele>
        <time>2021-09-02T08:26:31.000Z</time>
      </trkpt>
      <trkpt lat="47.3531" lon="-2.46151">
        <ele>11.60000038147</ele>
        <time>2021-09-02T08:26:34.000Z</time>
      </trkpt>
      <trkpt lat="47.35341" lon="-2.46131">
        <ele>11.60000038147</ele>
        <time>2021-09-02T08:26:41.000Z</time>
      </trkpt>
      <trkpt lat="47.35377" lon="-2.46107">
        <ele>11.60000038147</ele>
        <time>2021-09-02T08:26:49.000Z</time>
      </trkpt>
      <trkpt lat="47.35404" lon="-2.46084">
        <ele>11.60000038147</ele>
        <time>2021-09-02T08:26:55.000Z</time>
      </trkpt>
      <trkpt lat="47.35412" lon="-2.46076">
        <ele>11.60000038147</ele>
        <time>2021-09-02T08:26:57.000Z</time>
      </trkpt>
      <trkpt lat="47.35424" lon="-2.46064">
        <ele>11.60000038147</ele>
        <time>2021-09-02T08:27:00.000Z</time>
      </trkpt>
      <trkpt lat="47.35461" lon="-2.46037">
        <ele>11.60000038147</ele>
        <time>2021-09-02T08:27:08.000Z</time>
      </trkpt>
      <trkpt lat="47.35496" lon="-2.46011">
        <ele>11.60000038147</ele>
        <time>2021-09-02T08:27:16.000Z</time>
      </trkpt>
      <trkpt lat="47.355" lon="-2.46006">
        <ele>11.60000038147</ele>
        <time>2021-09-02T08:27:17.000Z</time>
      </trkpt>
      <trkpt lat="47.35514" lon="-2.45983">
        <ele>11.60000038147</ele>
        <time>2021-09-02T08:27:21.000Z</time>
      </trkpt>
      <trkpt lat="47.35522" lon="-2.45955">
        <ele>11.60000038147</ele>
        <time>2021-09-02T08:27:25.000Z</time>
      </trkpt>
      <trkpt lat="47.35523" lon="-2.45947">
        <ele>11.60000038147</ele>
        <time>2021-09-02T08:27:26.000Z</time>
      </trkpt>
      <trkpt lat="47.35526" lon="-2.45927">
        <ele>11.60000038147</ele>
        <time>2021-09-02T08:27:29.000Z</time>
      </trkpt>
      <trkpt lat="47.35533" lon="-2.45918">
        <ele>11.60000038147</ele>
        <time>2021-09-02T08:27:31.000Z</time>
      </trkpt>
      <trkpt lat="47.35541" lon="-2.45912">
        <ele>11.60000038147</ele>
        <time>2021-09-02T08:27:33.000Z</time>
      </trkpt>
      <trkpt lat="47.35557" lon="-2.45898">
        <ele>11.60000038147</ele>
        <time>2021-09-02T08:27:37.000Z</time>
      </trkpt>
      <trkpt lat="47.35573" lon="-2.45883">
        <ele>11.199999809265</ele>
        <time>2021-09-02T08:27:41.000Z</time>
      </trkpt>
      <trkpt lat="47.35577" lon="-2.45879">
        <ele>10.39999961853</ele>
        <time>2021-09-02T08:27:42.000Z</time>
      </trkpt>
      <trkpt lat="47.35582" lon="-2.45874">
        <ele>9.8000001907349</ele>
        <time>2021-09-02T08:27:43.000Z</time>
      </trkpt>
      <trkpt lat="47.35587" lon="-2.45871">
        <ele>9.3999996185303</ele>
        <time>2021-09-02T08:27:44.000Z</time>
      </trkpt>
      <trkpt lat="47.35612" lon="-2.45855">
        <ele>9.3999996185303</ele>
        <time>2021-09-02T08:27:49.000Z</time>
      </trkpt>
      <trkpt lat="47.35623" lon="-2.45855">
        <ele>9.3999996185303</ele>
        <time>2021-09-02T08:27:51.000Z</time>
      </trkpt>
      <trkpt lat="47.35667" lon="-2.45852">
        <ele>9.3999996185303</ele>
        <time>2021-09-02T08:27:58.000Z</time>
      </trkpt>
      <trkpt lat="47.35674" lon="-2.45853">
        <ele>9.3999996185303</ele>
        <time>2021-09-02T08:27:59.000Z</time>
      </trkpt>
      <trkpt lat="47.357" lon="-2.45854">
        <ele>9.3999996185303</ele>
        <time>2021-09-02T08:28:03.000Z</time>
      </trkpt>
      <trkpt lat="47.35723" lon="-2.45856">
        <ele>9</ele>
        <time>2021-09-02T08:28:07.000Z</time>
      </trkpt>
      <trkpt lat="47.35728" lon="-2.45856">
        <ele>8.6000003814697</ele>
        <time>2021-09-02T08:28:08.000Z</time>
      </trkpt>
      <trkpt lat="47.35733" lon="-2.45856">
        <ele>8.1999998092651</ele>
        <time>2021-09-02T08:28:09.000Z</time>
      </trkpt>
      <trkpt lat="47.35739" lon="-2.45856">
        <ele>7.8000001907349</ele>
        <time>2021-09-02T08:28:10.000Z</time>
      </trkpt>
      <trkpt lat="47.35745" lon="-2.45856">
        <ele>7.4000000953674</ele>
        <time>2021-09-02T08:28:11.000Z</time>
      </trkpt>
      <trkpt lat="47.35769" lon="-2.45853">
        <ele>7.4000000953674</ele>
        <time>2021-09-02T08:28:15.000Z</time>
      </trkpt>
      <trkpt lat="47.35799" lon="-2.45846">
        <ele>7.4000000953674</ele>
        <time>2021-09-02T08:28:20.000Z</time>
      </trkpt>
      <trkpt lat="47.35812" lon="-2.45845">
        <ele>7.4000000953674</ele>
        <time>2021-09-02T08:28:22.000Z</time>
      </trkpt>
      <trkpt lat="47.35819" lon="-2.45844">
        <ele>7</ele>
        <time>2021-09-02T08:28:23.000Z</time>
      </trkpt>
      <trkpt lat="47.35826" lon="-2.45843">
        <ele>6.5999999046326</ele>
        <time>2021-09-02T08:28:24.000Z</time>
      </trkpt>
      <trkpt lat="47.35832" lon="-2.45841">
        <ele>6.1999998092651</ele>
        <time>2021-09-02T08:28:25.000Z</time>
      </trkpt>
      <trkpt lat="47.35839" lon="-2.45839">
        <ele>5.8000001907349</ele>
        <time>2021-09-02T08:28:26.000Z</time>
      </trkpt>
      <trkpt lat="47.35845" lon="-2.45838">
        <ele>5.4000000953674</ele>
        <time>2021-09-02T08:28:27.000Z</time>
      </trkpt>
      <trkpt lat="47.35852" lon="-2.45837">
        <ele>5.4000000953674</ele>
        <time>2021-09-02T08:28:28.000Z</time>
      </trkpt>
      <trkpt lat="47.35889" lon="-2.45828">
        <ele>5</ele>
        <time>2021-09-02T08:28:33.000Z</time>
      </trkpt>
      <trkpt lat="47.35896" lon="-2.45826">
        <ele>4.5999999046326</ele>
        <time>2021-09-02T08:28:34.000Z</time>
      </trkpt>
      <trkpt lat="47.35903" lon="-2.45824">
        <ele>4.1999998092651</ele>
        <time>2021-09-02T08:28:35.000Z</time>
      </trkpt>
      <trkpt lat="47.35911" lon="-2.45823">
        <ele>3.7999999523163</ele>
        <time>2021-09-02T08:28:36.000Z</time>
      </trkpt>
      <trkpt lat="47.35918" lon="-2.45821">
        <ele>3.4000000953674</ele>
        <time>2021-09-02T08:28:37.000Z</time>
      </trkpt>
      <trkpt lat="47.35952" lon="-2.45815">
        <ele>3.4000000953674</ele>
        <time>2021-09-02T08:28:42.000Z</time>
      </trkpt>
      <trkpt lat="47.35958" lon="-2.45814">
        <ele>2.7999999523163</ele>
        <time>2021-09-02T08:28:43.000Z</time>
      </trkpt>
      <trkpt lat="47.35964" lon="-2.45813">
        <ele>2.4000000953674</ele>
        <time>2021-09-02T08:28:44.000Z</time>
      </trkpt>
      <trkpt lat="47.3597" lon="-2.45813">
        <ele>2</ele>
        <time>2021-09-02T08:28:45.000Z</time>
      </trkpt>
      <trkpt lat="47.35976" lon="-2.45811">
        <ele>1.6000000238419</ele>
        <time>2021-09-02T08:28:46.000Z</time>
      </trkpt>
      <trkpt lat="47.35981" lon="-2.45809">
        <ele>1.2000000476837</ele>
        <time>2021-09-02T08:28:47.000Z</time>
      </trkpt>
      <trkpt lat="47.36009" lon="-2.45793">
        <ele>1.2000000476837</ele>
        <time>2021-09-02T08:28:53.000Z</time>
      </trkpt>
      <trkpt lat="47.36045" lon="-2.45771">
        <ele>1.2000000476837</ele>
        <time>2021-09-02T08:29:01.000Z</time>
      </trkpt>
      <trkpt lat="47.36064" lon="-2.45759">
        <ele>1.2000000476837</ele>
        <time>2021-09-02T08:29:06.000Z</time>
      </trkpt>
      <trkpt lat="47.36072" lon="-2.45755">
        <ele>1.2000000476837</ele>
        <time>2021-09-02T08:29:08.000Z</time>
      </trkpt>
      <trkpt lat="47.36085" lon="-2.45751">
        <ele>1.2000000476837</ele>
        <time>2021-09-02T08:29:11.000Z</time>
      </trkpt>
      <trkpt lat="47.36098" lon="-2.45751">
        <ele>1.2000000476837</ele>
        <time>2021-09-02T08:29:14.000Z</time>
      </trkpt>
      <trkpt lat="47.36118" lon="-2.4574">
        <ele>1.2000000476837</ele>
        <time>2021-09-02T08:29:18.000Z</time>
      </trkpt>
      <trkpt lat="47.36147" lon="-2.45728">
        <ele>1.2000000476837</ele>
        <time>2021-09-02T08:29:24.000Z</time>
      </trkpt>
      <trkpt lat="47.36157" lon="-2.45726">
        <ele>1.2000000476837</ele>
        <time>2021-09-02T08:29:26.000Z</time>
      </trkpt>
      <trkpt lat="47.36178" lon="-2.45719">
        <ele>0.80000001192093</ele>
        <time>2021-09-02T08:29:31.000Z</time>
      </trkpt>
      <trkpt lat="47.36183" lon="-2.45717">
        <ele>0.40000000596046</ele>
        <time>2021-09-02T08:29:32.000Z</time>
      </trkpt>
      <trkpt lat="47.36188" lon="-2.45715">
        <ele>26.2</ele>
        <time>2021-09-02T08:29:33.000Z</time>
      </trkpt>
      <trkpt lat="47.36192" lon="-2.45713">
        <ele>-0.40000000596046</ele>
        <time>2021-09-02T08:29:34.000Z</time>
      </trkpt>
      <trkpt lat="47.36197" lon="-2.45711">
        <ele>-0.80000001192093</ele>
        <time>2021-09-02T08:29:35.000Z</time>
      </trkpt>
      <trkpt lat="47.36219" lon="-2.45703">
        <ele>-0.80000001192093</ele>
        <time>2021-09-02T08:29:39.000Z</time>
      </trkpt>
      <trkpt lat="47.36227" lon="-2.45708">
        <ele>-1.2000000476837</ele>
        <time>2021-09-02T08:29:41.000Z</time>
      </trkpt>
      <trkpt lat="47.3623" lon="-2.4571">
        <ele>-1.7999999523163</ele>
        <time>2021-09-02T08:29:42.000Z</time>
      </trkpt>
      <trkpt lat="47.36232" lon="-2.45712">
        <ele>-2.2000000476837</ele>
        <time>2021-09-02T08:29:43.000Z</time>
      </trkpt>
      <trkpt lat="47.36234" lon="-2.45713">
        <ele>-2.5999999046326</ele>
        <time>2021-09-02T08:29:44.000Z</time>
      </trkpt>
      <trkpt lat="47.36236" lon="-2.45714">
        <ele>-3</ele>
        <time>2021-09-02T08:29:45.000Z</time>
      </trkpt>
      <trkpt lat="47.3624" lon="-2.45715">
        <ele>-3</ele>
        <time>2021-09-02T08:29:47.000Z</time>
      </trkpt>
      <trkpt lat="47.36248" lon="-2.45702">
        <ele>-3</ele>
        <time>2021-09-02T08:29:51.000Z</time>
      </trkpt>
      <trkpt lat="47.36251" lon="-2.4569">
        <ele>-3.4000000953674</ele>
        <time>2021-09-02T08:29:53.000Z</time>
      </trkpt>
      <trkpt lat="47.36252" lon="-2.45685">
        <ele>-3.7999999523163</ele>
        <time>2021-09-02T08:29:54.000Z</time>
      </trkpt>
      <trkpt lat="47.36253" lon="-2.45678">
        <ele>-4.1999998092651</ele>
        <time>2021-09-02T08:29:55.000Z</time>
      </trkpt>
      <trkpt lat="47.36254" lon="-2.45671">
        <ele>-4.5999999046326</ele>
        <time>2021-09-02T08:29:56.000Z</time>
      </trkpt>
      <trkpt lat="47.36254" lon="-2.45664">
        <ele>-5</ele>
        <time>2021-09-02T08:29:57.000Z</time>
      </trkpt>
      <trkpt lat="47.36254" lon="-2.45639">
        <ele>-5</ele>
        <time>2021-09-02T08:30:00.000Z</time>
      </trkpt>
      <trkpt lat="47.36253" lon="-2.45631">
        <ele>-5</ele>
        <time>2021-09-02T08:30:01.000Z</time>
      </trkpt>
      <trkpt lat="47.36242" lon="-2.456">
        <ele>-5</ele>
        <time>2021-09-02T08:30:05.000Z</time>
      </trkpt>
      <trkpt lat="47.3623" lon="-2.45576">
        <ele>-4.5999999046326</ele>
        <time>2021-09-02T08:30:09.000Z</time>
      </trkpt>
      <trkpt lat="47.36227" lon="-2.4557">
        <ele>-3.7999999523163</ele>
        <time>2021-09-02T08:30:10.000Z</time>
      </trkpt>
      <trkpt lat="47.36224" lon="-2.45565">
        <ele>-3.2000000476837</ele>
        <time>2021-09-02T08:30:11.000Z</time>
      </trkpt>
      <trkpt lat="47.36221" lon="-2.45559">
        <ele>-2.7999999523163</ele>
        <time>2021-09-02T08:30:12.000Z</time>
      </trkpt>
      <trkpt lat="47.36208" lon="-2.45533">
        <ele>-2.7999999523163</ele>
        <time>2021-09-02T08:30:17.000Z</time>
      </trkpt>
      <trkpt lat="47.36199" lon="-2.45517">
        <ele>-2.4000000953674</ele>
        <time>2021-09-02T08:30:20.000Z</time>
      </trkpt>
      <trkpt lat="47.36197" lon="-2.45512">
        <ele>-2</ele>
        <time>2021-09-02T08:30:21.000Z</time>
      </trkpt>
      <trkpt lat="47.36195" lon="-2.45507">
        <ele>-1.6000000238419</ele>
        <time>2021-09-02T08:30:22.000Z</time>
      </trkpt>
      <trkpt lat="47.36192" lon="-2.45502">
        <ele>-1.2000000476837</ele>
        <time>2021-09-02T08:30:23.000Z</time>
      </trkpt>
      <trkpt lat="47.36189" lon="-2.45497">
        <ele>-0.80000001192093</ele>
        <time>2021-09-02T08:30:24.000Z</time>
      </trkpt>
      <trkpt lat="47.36182" lon="-2.45482">
        <ele>-0.40000000596046</ele>
        <time>2021-09-02T08:30:27.000Z</time>
      </trkpt>
      <trkpt lat="47.36179" lon="-2.45477">
        <ele>29.9</ele>
        <time>2021-09-02T08:30:28.000Z</time>
      </trkpt>
      <trkpt lat="47.36175" lon="-2.45472">
        <ele>0.40000000596046</ele>
        <time>2021-09-02T08:30:29.000Z</time>
      </trkpt>
      <trkpt lat="47.36172" lon="-2.45467">
        <ele>1</ele>
        <time>2021-09-02T08:30:30.000Z</time>
      </trkpt>
      <trkpt lat="47.36169" lon="-2.45463">
        <ele>1.3999999761581</ele>
        <time>2021-09-02T08:30:31.000Z</time>
      </trkpt>
      <trkpt lat="47.36161" lon="-2.45449">
        <ele>1.3999999761581</ele>
        <time>2021-09-02T08:30:34.000Z</time>
      </trkpt>
      <trkpt lat="47.36152" lon="-2.45436">
        <ele>1.3999999761581</ele>
        <time>2021-09-02T08:30:37.000Z</time>
      </trkpt>
      <trkpt lat="47.36141" lon="-2.45423">
        <ele>1.3999999761581</ele>
        <time>2021-09-02T08:30:40.000Z</time>
      </trkpt>
      <trkpt lat="47.36118" lon="-2.45381">
        <ele>1.3999999761581</ele>
        <time>2021-09-02T08:30:47.000Z</time>
      </trkpt>
      <trkpt lat="47.36101" lon="-2.45336">
        <ele>1.3999999761581</ele>
        <time>2021-09-02T08:30:54.000Z</time>
      </trkpt>
      <trkpt lat="47.36092" lon="-2.45309">
        <ele>1.7999999523163</ele>
        <time>2021-09-02T08:30:58.000Z</time>
      </trkpt>
      <trkpt lat="47.36089" lon="-2.45303">
        <ele>2.2000000476837</ele>
        <time>2021-09-02T08:30:59.000Z</time>
      </trkpt>
      <trkpt lat="47.36087" lon="-2.45297">
        <ele>3</ele>
        <time>2021-09-02T08:31:00.000Z</time>
      </trkpt>
      <trkpt lat="47.36085" lon="-2.45291">
        <ele>3.4000000953674</ele>
        <time>2021-09-02T08:31:01.000Z</time>
      </trkpt>
      <trkpt lat="47.36066" lon="-2.45239">
        <ele>3.4000000953674</ele>
        <time>2021-09-02T08:31:09.000Z</time>
      </trkpt>
      <trkpt lat="47.36063" lon="-2.45234">
        <ele>3.4000000953674</ele>
        <time>2021-09-02T08:31:10.000Z</time>
      </trkpt>
      <trkpt lat="47.36047" lon="-2.45214">
        <ele>3.4000000953674</ele>
        <time>2021-09-02T08:31:14.000Z</time>
      </trkpt>
      <trkpt lat="47.36032" lon="-2.45208">
        <ele>3.4000000953674</ele>
        <time>2021-09-02T08:31:17.000Z</time>
      </trkpt>
      <trkpt lat="47.36026" lon="-2.45207">
        <ele>3.4000000953674</ele>
        <time>2021-09-02T08:31:18.000Z</time>
      </trkpt>
      <trkpt lat="47.35994" lon="-2.45199">
        <ele>3.4000000953674</ele>
        <time>2021-09-02T08:31:24.000Z</time>
      </trkpt>
      <trkpt lat="47.35957" lon="-2.45186">
        <ele>3.4000000953674</ele>
        <time>2021-09-02T08:31:31.000Z</time>
      </trkpt>
      <trkpt lat="47.35932" lon="-2.4517">
        <ele>3.4000000953674</ele>
        <time>2021-09-02T08:31:37.000Z</time>
      </trkpt>
      <trkpt lat="47.35928" lon="-2.45163">
        <ele>4</ele>
        <time>2021-09-02T08:31:39.000Z</time>
      </trkpt>
      <trkpt lat="47.35927" lon="-2.45158">
        <ele>4.4000000953674</ele>
        <time>2021-09-02T08:31:40.000Z</time>
      </trkpt>
      <trkpt lat="47.35928" lon="-2.45153">
        <ele>4.8000001907349</ele>
        <time>2021-09-02T08:31:41.000Z</time>
      </trkpt>
      <trkpt lat="47.35929" lon="-2.45149">
        <ele>5.4000000953674</ele>
        <time>2021-09-02T08:31:42.000Z</time>
      </trkpt>
      <trkpt lat="47.35931" lon="-2.45144">
        <ele>5.8000001907349</ele>
        <time>2021-09-02T08:31:43.000Z</time>
      </trkpt>
      <trkpt lat="47.35933" lon="-2.45134">
        <ele>5.8000001907349</ele>
        <time>2021-09-02T08:31:45.000Z</time>
      </trkpt>
      <trkpt lat="47.35946" lon="-2.45093">
        <ele>5.8000001907349</ele>
        <time>2021-09-02T08:31:52.000Z</time>
      </trkpt>
      <trkpt lat="47.35951" lon="-2.45062">
        <ele>5.8000001907349</ele>
        <time>2021-09-02T08:31:58.000Z</time>
      </trkpt>
      <trkpt lat="47.35936" lon="-2.45051">
        <ele>5.8000001907349</ele>
        <time>2021-09-02T08:32:02.000Z</time>
      </trkpt>
      <trkpt lat="47.35931" lon="-2.45048">
        <ele>5.8000001907349</ele>
        <time>2021-09-02T08:32:03.000Z</time>
      </trkpt>
      <trkpt lat="47.35903" lon="-2.45034">
        <ele>5.8000001907349</ele>
        <time>2021-09-02T08:32:09.000Z</time>
      </trkpt>
      <trkpt lat="47.3587" lon="-2.45011">
        <ele>5.8000001907349</ele>
        <time>2021-09-02T08:32:16.000Z</time>
      </trkpt>
      <trkpt lat="47.35832" lon="-2.44981">
        <ele>5.8000001907349</ele>
        <time>2021-09-02T08:32:24.000Z</time>
      </trkpt>
      <trkpt lat="47.35819" lon="-2.44969">
        <ele>5.4000000953674</ele>
        <time>2021-09-02T08:32:27.000Z</time>
      </trkpt>
      <trkpt lat="47.35815" lon="-2.44965">
        <ele>5</ele>
        <time>2021-09-02T08:32:28.000Z</time>
      </trkpt>
      <trkpt lat="47.35811" lon="-2.44962">
        <ele>4.5999999046326</ele>
        <time>2021-09-02T08:32:29.000Z</time>
      </trkpt>
      <trkpt lat="47.35807" lon="-2.44959">
        <ele>4.1999998092651</ele>
        <time>2021-09-02T08:32:30.000Z</time>
      </trkpt>
      <trkpt lat="47.35804" lon="-2.44955">
        <ele>3.7999999523163</ele>
        <time>2021-09-02T08:32:31.000Z</time>
      </trkpt>
      <trkpt lat="47.35802" lon="-2.44949">
        <ele>3.7999999523163</ele>
        <time>2021-09-02T08:32:32.000Z</time>
      </trkpt>
      <trkpt lat="47.35806" lon="-2.44939">
        <ele>3.7999999523163</ele>
        <time>2021-09-02T08:32:34.000Z</time>
      </trkpt>
      <trkpt lat="47.35821" lon="-2.44925">
        <ele>3.7999999523163</ele>
        <time>2021-09-02T08:32:38.000Z</time>
      </trkpt>
      <trkpt lat="47.35843" lon="-2.44922">
        <ele>3.7999999523163</ele>
        <time>2021-09-02T08:32:42.000Z</time>
      </trkpt>
      <trkpt lat="47.35893" lon="-2.44922">
        <ele>3.7999999523163</ele>
        <time>2021-09-02T08:32:50.000Z</time>
      </trkpt>
      <trkpt lat="47.35924" lon="-2.44917">
        <ele>3.7999999523163</ele>
        <time>2021-09-02T08:32:55.000Z</time>
      </trkpt>
      <trkpt lat="47.35937" lon="-2.44914">
        <ele>3.7999999523163</ele>
        <time>2021-09-02T08:32:57.000Z</time>
      </trkpt>
      <trkpt lat="47.35979" lon="-2.44901">
        <ele>3.4000000953674</ele>
        <time>2021-09-02T08:33:04.000Z</time>
      </trkpt>
      <trkpt lat="47.35986" lon="-2.449">
        <ele>2.7999999523163</ele>
        <time>2021-09-02T08:33:05.000Z</time>
      </trkpt>
      <trkpt lat="47.35992" lon="-2.44898">
        <ele>2.4000000953674</ele>
        <time>2021-09-02T08:33:06.000Z</time>
      </trkpt>
      <trkpt lat="47.35998" lon="-2.44897">
        <ele>2</ele>
        <time>2021-09-02T08:33:07.000Z</time>
      </trkpt>
      <trkpt lat="47.36004" lon="-2.44897">
        <ele>1.6000000238419</ele>
        <time>2021-09-02T08:33:08.000Z</time>
      </trkpt>
      <trkpt lat="47.36022" lon="-2.44895">
        <ele>1.6000000238419</ele>
        <time>2021-09-02T08:33:11.000Z</time>
      </trkpt>
      <trkpt lat="47.36064" lon="-2.44884">
        <ele>1.6000000238419</ele>
        <time>2021-09-02T08:33:18.000Z</time>
      </trkpt>
      <trkpt lat="47.36092" lon="-2.44873">
        <ele>1.2000000476837</ele>
        <time>2021-09-02T08:33:23.000Z</time>
      </trkpt>
      <trkpt lat="47.36098" lon="-2.44871">
        <ele>0.80000001192093</ele>
        <time>2021-09-02T08:33:24.000Z</time>
      </trkpt>
      <trkpt lat="47.36104" lon="-2.44868">
        <ele>0.40000000596046</ele>
        <time>2021-09-02T08:33:25.000Z</time>
      </trkpt>
      <trkpt lat="47.36109" lon="-2.44866">
        <ele>28.2</ele>
        <time>2021-09-02T08:33:26.000Z</time>
      </trkpt>
      <trkpt lat="47.36114" lon="-2.44864">
        <ele>-0.40000000596046</ele>
        <time>2021-09-02T08:33:27.000Z</time>
      </trkpt>
      <trkpt lat="47.36155" lon="-2.44846">
        <ele>-0.40000000596046</ele>
        <time>2021-09-02T08:33:35.000Z</time>
      </trkpt>
      <trkpt lat="47.362" lon="-2.44828">
        <ele>-0.40000000596046</ele>
        <time>2021-09-02T08:33:43.000Z</time>
      </trkpt>
      <trkpt lat="47.3624" lon="-2.44803">
        <ele>-0.40000000596046</ele>
        <time>2021-09-02T08:33:49.000Z</time>
      </trkpt>
      <trkpt lat="47.36293" lon="-2.44761">
        <ele>-0.40000000596046</ele>
        <time>2021-09-02T08:33:57.000Z</time>
      </trkpt>
      <trkpt lat="47.36343" lon="-2.44727">
        <ele>-0.40000000596046</ele>
        <time>2021-09-02T08:34:05.000Z</time>
      </trkpt>
      <trkpt lat="47.36349" lon="-2.44723">
        <ele>-0.40000000596046</ele>
        <time>2021-09-02T08:34:06.000Z</time>
      </trkpt>
      <trkpt lat="47.36368" lon="-2.44699">
        <ele>-0.40000000596046</ele>
        <time>2021-09-02T08:34:10.000Z</time>
      </trkpt>
      <trkpt lat="47.36372" lon="-2.44693">
        <ele>-0.80000001192093</ele>
        <time>2021-09-02T08:34:11.000Z</time>
      </trkpt>
      <trkpt lat="47.36376" lon="-2.44687">
        <ele>-1.2000000476837</ele>
        <time>2021-09-02T08:34:12.000Z</time>
      </trkpt>
      <trkpt lat="47.3638" lon="-2.44681">
        <ele>-1.6000000238419</ele>
        <time>2021-09-02T08:34:13.000Z</time>
      </trkpt>
      <trkpt lat="47.36384" lon="-2.44674">
        <ele>-2</ele>
        <time>2021-09-02T08:34:14.000Z</time>
      </trkpt>
      <trkpt lat="47.36388" lon="-2.44668">
        <ele>-2.5999999046326</ele>
        <time>2021-09-02T08:34:15.000Z</time>
      </trkpt>
      <trkpt lat="47.36392" lon="-2.44662">
        <ele>-2.5999999046326</ele>
        <time>2021-09-02T08:34:16.000Z</time>
      </trkpt>
      <trkpt lat="47.36411" lon="-2.44635">
        <ele>-2.5999999046326</ele>
        <time>2021-09-02T08:34:21.000Z</time>
      </trkpt>
      <trkpt lat="47.3642" lon="-2.44626">
        <ele>-2.5999999046326</ele>
        <time>2021-09-02T08:34:23.000Z</time>
      </trkpt>
      <trkpt lat="47.36467" lon="-2.44579">
        <ele>-2.5999999046326</ele>
        <time>2021-09-02T08:34:33.000Z</time>
      </trkpt>
      <trkpt lat="47.36494" lon="-2.4454">
        <ele>-2.5999999046326</ele>
        <time>2021-09-02T08:34:40.000Z</time>
      </trkpt>
      <trkpt lat="47.36521" lon="-2.44485">
        <ele>-2.5999999046326</ele>
        <time>2021-09-02T08:34:48.000Z</time>
      </trkpt>
      <trkpt lat="47.36536" lon="-2.4446">
        <ele>-2.5999999046326</ele>
        <time>2021-09-02T08:34:52.000Z</time>
      </trkpt>
      <trkpt lat="47.36546" lon="-2.4445">
        <ele>-2.5999999046326</ele>
        <time>2021-09-02T08:34:54.000Z</time>
      </trkpt>
      <trkpt lat="47.36556" lon="-2.4444">
        <ele>-3</ele>
        <time>2021-09-02T08:34:56.000Z</time>
      </trkpt>
      <trkpt lat="47.36561" lon="-2.44435">
        <ele>-3.4000000953674</ele>
        <time>2021-09-02T08:34:57.000Z</time>
      </trkpt>
      <trkpt lat="47.36565" lon="-2.4443">
        <ele>-3.7999999523163</ele>
        <time>2021-09-02T08:34:58.000Z</time>
      </trkpt>
      <trkpt lat="47.3657" lon="-2.44426">
        <ele>-4.1999998092651</ele>
        <time>2021-09-02T08:34:59.000Z</time>
      </trkpt>
      <trkpt lat="47.36575" lon="-2.44421">
        <ele>-4.5999999046326</ele>
        <time>2021-09-02T08:35:00.000Z</time>
      </trkpt>
      <trkpt lat="47.3658" lon="-2.44416">
        <ele>-4.5999999046326</ele>
        <time>2021-09-02T08:35:01.000Z</time>
      </trkpt>
      <trkpt lat="47.36613" lon="-2.44377">
        <ele>-4.5999999046326</ele>
        <time>2021-09-02T08:35:08.000Z</time>
      </trkpt>
      <trkpt lat="47.36632" lon="-2.44349">
        <ele>-5</ele>
        <time>2021-09-02T08:35:12.000Z</time>
      </trkpt>
      <trkpt lat="47.36636" lon="-2.44341">
        <ele>-5.5999999046326</ele>
        <time>2021-09-02T08:35:13.000Z</time>
      </trkpt>
      <trkpt lat="47.36641" lon="-2.44333">
        <ele>-6</ele>
        <time>2021-09-02T08:35:14.000Z</time>
      </trkpt>
      <trkpt lat="47.36645" lon="-2.44325">
        <ele>-6.4000000953674</ele>
        <time>2021-09-02T08:35:15.000Z</time>
      </trkpt>
      <trkpt lat="47.36648" lon="-2.44317">
        <ele>-6.8000001907349</ele>
        <time>2021-09-02T08:35:16.000Z</time>
      </trkpt>
      <trkpt lat="47.36673" lon="-2.44259">
        <ele>-6.8000001907349</ele>
        <time>2021-09-02T08:35:23.000Z</time>
      </trkpt>
      <trkpt lat="47.36692" lon="-2.44213">
        <ele>-6.8000001907349</ele>
        <time>2021-09-02T08:35:29.000Z</time>
      </trkpt>
      <trkpt lat="47.36707" lon="-2.44161">
        <ele>-6.8000001907349</ele>
        <time>2021-09-02T08:35:35.000Z</time>
      </trkpt>
      <trkpt lat="47.36709" lon="-2.44152">
        <ele>-7.1999998092651</ele>
        <time>2021-09-02T08:35:36.000Z</time>
      </trkpt>
      <trkpt lat="47.36711" lon="-2.44143">
        <ele>-7.5999999046326</ele>
        <time>2021-09-02T08:35:37.000Z</time>
      </trkpt>
      <trkpt lat="47.36713" lon="-2.44134">
        <ele>-8.1999998092651</ele>
        <time>2021-09-02T08:35:38.000Z</time>
      </trkpt>
      <trkpt lat="47.36715" lon="-2.44124">
        <ele>-8.6000003814697</ele>
        <time>2021-09-02T08:35:39.000Z</time>
      </trkpt>
      <trkpt lat="47.36716" lon="-2.44114">
        <ele>-9</ele>
        <time>2021-09-02T08:35:40.000Z</time>
      </trkpt>
      <trkpt lat="47.36719" lon="-2.44095">
        <ele>-9</ele>
        <time>2021-09-02T08:35:42.000Z</time>
      </trkpt>
      <trkpt lat="47.36724" lon="-2.44044">
        <ele>-9</ele>
        <time>2021-09-02T08:35:48.000Z</time>
      </trkpt>
      <trkpt lat="47.36734" lon="-2.4403">
        <ele>-9.3999996185303</ele>
        <time>2021-09-02T08:35:51.000Z</time>
      </trkpt>
      <trkpt lat="47.36739" lon="-2.44031">
        <ele>-9.8000001907349</ele>
        <time>2021-09-02T08:35:52.000Z</time>
      </trkpt>
      <trkpt lat="47.36743" lon="-2.44033">
        <ele>-10.39999961853</ele>
        <time>2021-09-02T08:35:53.000Z</time>
      </trkpt>
      <trkpt lat="47.36746" lon="-2.44034">
        <ele>-10.800000190735</ele>
        <time>2021-09-02T08:35:54.000Z</time>
      </trkpt>
      <trkpt lat="47.36749" lon="-2.44035">
        <ele>-11.199999809265</ele>
        <time>2021-09-02T08:35:55.000Z</time>
      </trkpt>
      <trkpt lat="47.36761" lon="-2.44044">
        <ele>-11.199999809265</ele>
        <time>2021-09-02T08:35:59.000Z</time>
      </trkpt>
      <trkpt lat="47.36779" lon="-2.44051">
        <ele>-11.199999809265</ele>
        <time>2021-09-02T08:36:04.000Z</time>
      </trkpt>
      <trkpt lat="47.36798" lon="-2.4405">
        <ele>-11.199999809265</ele>
        <time>2021-09-02T08:36:09.000Z</time>
      </trkpt>
      <trkpt lat="47.36823" lon="-2.44036">
        <ele>-11.199999809265</ele>
        <time>2021-09-02T08:36:15.000Z</time>
      </trkpt>
      <trkpt lat="47.3686" lon="-2.44017">
        <ele>-10.199999809265</ele>
        <time>2021-09-02T08:36:23.000Z</time>
      </trkpt>
      <trkpt lat="47.36864" lon="-2.44014">
        <ele>-9.8000001907349</ele>
        <time>2021-09-02T08:36:24.000Z</time>
      </trkpt>
      <trkpt lat="47.36868" lon="-2.44012">
        <ele>-9.3999996185303</ele>
        <time>2021-09-02T08:36:25.000Z</time>
      </trkpt>
      <trkpt lat="47.36872" lon="-2.44009">
        <ele>-9</ele>
        <time>2021-09-02T08:36:26.000Z</time>
      </trkpt>
      <trkpt lat="47.36878" lon="-2.44006">
        <ele>-9</ele>
        <time>2021-09-02T08:36:28.000Z</time>
      </trkpt>
      <trkpt lat="47.36891" lon="-2.43999">
        <ele>-9</ele>
        <time>2021-09-02T08:36:34.000Z</time>
      </trkpt>
      <trkpt lat="47.36892" lon="-2.43998">
        <ele>-9</ele>
        <time>2021-09-02T08:36:37.000Z</time>
      </trkpt>
      <trkpt lat="47.36892" lon="-2.43996">
        <ele>-9</ele>
        <time>2021-09-02T08:36:46.000Z</time>
      </trkpt>
      <trkpt lat="47.36892" lon="-2.43994">
        <ele>-9</ele>
        <time>2021-09-02T08:36:47.000Z</time>
      </trkpt>
      <trkpt lat="47.36891" lon="-2.43984">
        <ele>-9</ele>
        <time>2021-09-02T08:36:50.000Z</time>
      </trkpt>
      <trkpt lat="47.36891" lon="-2.43975">
        <ele>-9</ele>
        <time>2021-09-02T08:36:52.000Z</time>
      </trkpt>
      <trkpt lat="47.36897" lon="-2.43956">
        <ele>-9</ele>
        <time>2021-09-02T08:36:57.000Z</time>
      </trkpt>
      <trkpt lat="47.36908" lon="-2.43934">
        <ele>-9</ele>
        <time>2021-09-02T08:37:02.000Z</time>
      </trkpt>
      <trkpt lat="47.36916" lon="-2.43916">
        <ele>-9</ele>
        <time>2021-09-02T08:37:05.000Z</time>
      </trkpt>
      <trkpt lat="47.36924" lon="-2.43896">
        <ele>-9</ele>
        <time>2021-09-02T08:37:08.000Z</time>
      </trkpt>
      <trkpt lat="47.36927" lon="-2.4386">
        <ele>-9</ele>
        <time>2021-09-02T08:37:14.000Z</time>
      </trkpt>
      <trkpt lat="47.36922" lon="-2.43832">
        <ele>-9</ele>
        <time>2021-09-02T08:37:20.000Z</time>
      </trkpt>
      <trkpt lat="47.36923" lon="-2.43809">
        <ele>-9</ele>
        <time>2021-09-02T08:37:24.000Z</time>
      </trkpt>
      <trkpt lat="47.3692" lon="-2.43796">
        <ele>-9</ele>
        <time>2021-09-02T08:37:26.000Z</time>
      </trkpt>
      <trkpt lat="47.36919" lon="-2.4379">
        <ele>-9</ele>
        <time>2021-09-02T08:37:27.000Z</time>
      </trkpt>
      <trkpt lat="47.36906" lon="-2.4376">
        <ele>-9</ele>
        <time>2021-09-02T08:37:32.000Z</time>
      </trkpt>
      <trkpt lat="47.36893" lon="-2.43727">
        <ele>-9</ele>
        <time>2021-09-02T08:37:38.000Z</time>
      </trkpt>
      <trkpt lat="47.36883" lon="-2.43699">
        <ele>-9.3999996185303</ele>
        <time>2021-09-02T08:37:44.000Z</time>
      </trkpt>
      <trkpt lat="47.36881" lon="-2.43695">
        <ele>-9.8000001907349</ele>
        <time>2021-09-02T08:37:45.000Z</time>
      </trkpt>
      <trkpt lat="47.3688" lon="-2.43691">
        <ele>-10.199999809265</ele>
        <time>2021-09-02T08:37:46.000Z</time>
      </trkpt>
      <trkpt lat="47.36878" lon="-2.43688">
        <ele>-10.60000038147</ele>
        <time>2021-09-02T08:37:47.000Z</time>
      </trkpt>
      <trkpt lat="47.36877" lon="-2.43685">
        <ele>-11</ele>
        <time>2021-09-02T08:37:48.000Z</time>
      </trkpt>
      <trkpt lat="47.36877" lon="-2.43681">
        <ele>-11</ele>
        <time>2021-09-02T08:37:50.000Z</time>
      </trkpt>
      <trkpt lat="47.36877" lon="-2.4368">
        <ele>-11</ele>
        <time>2021-09-02T08:37:51.000Z</time>
      </trkpt>
      <trkpt lat="47.36877" lon="-2.43681">
        <ele>-11</ele>
        <time>2021-09-02T08:37:58.000Z</time>
      </trkpt>
      <trkpt lat="47.36879" lon="-2.43685">
        <ele>-11</ele>
        <time>2021-09-02T08:38:00.000Z</time>
      </trkpt>
      <trkpt lat="47.36883" lon="-2.43693">
        <ele>-11</ele>
        <time>2021-09-02T08:38:06.000Z</time>
      </trkpt>
      <trkpt lat="47.36885" lon="-2.437">
        <ele>-11</ele>
        <time>2021-09-02T08:38:08.000Z</time>
      </trkpt>
      <trkpt lat="47.36889" lon="-2.43709">
        <ele>-11</ele>
        <time>2021-09-02T08:38:11.000Z</time>
      </trkpt>
      <trkpt lat="47.369" lon="-2.43737">
        <ele>-11</ele>
        <time>2021-09-02T08:38:18.000Z</time>
      </trkpt>
      <trkpt lat="47.36912" lon="-2.43768">
        <ele>-11</ele>
        <time>2021-09-02T08:38:25.000Z</time>
      </trkpt>
      <trkpt lat="47.3692" lon="-2.43792">
        <ele>-11</ele>
        <time>2021-09-02T08:38:30.000Z</time>
      </trkpt>
      <trkpt lat="47.3693" lon="-2.43826">
        <ele>-11</ele>
        <time>2021-09-02T08:38:37.000Z</time>
      </trkpt>
      <trkpt lat="47.36935" lon="-2.4384">
        <ele>-10.60000038147</ele>
        <time>2021-09-02T08:38:40.000Z</time>
      </trkpt>
      <trkpt lat="47.36936" lon="-2.43844">
        <ele>-10.199999809265</ele>
        <time>2021-09-02T08:38:41.000Z</time>
      </trkpt>
      <trkpt lat="47.36937" lon="-2.43848">
        <ele>-9.8000001907349</ele>
        <time>2021-09-02T08:38:42.000Z</time>
      </trkpt>
      <trkpt lat="47.36937" lon="-2.43853">
        <ele>-9.3999996185303</ele>
        <time>2021-09-02T08:38:43.000Z</time>
      </trkpt>
      <trkpt lat="47.36937" lon="-2.43858">
        <ele>-9</ele>
        <time>2021-09-02T08:38:44.000Z</time>
      </trkpt>
      <trkpt lat="47.36938" lon="-2.43886">
        <ele>-9</ele>
        <time>2021-09-02T08:38:49.000Z</time>
      </trkpt>
      <trkpt lat="47.36931" lon="-2.43905">
        <ele>-9</ele>
        <time>2021-09-02T08:38:52.000Z</time>
      </trkpt>
      <trkpt lat="47.36929" lon="-2.43911">
        <ele>-9</ele>
        <time>2021-09-02T08:38:53.000Z</time>
      </trkpt>
      <trkpt lat="47.36915" lon="-2.43936">
        <ele>-9</ele>
        <time>2021-09-02T08:38:59.000Z</time>
      </trkpt>
      <trkpt lat="47.36899" lon="-2.43965">
        <ele>-9</ele>
        <time>2021-09-02T08:39:07.000Z</time>
      </trkpt>
      <trkpt lat="47.36887" lon="-2.43985">
        <ele>-9</ele>
        <time>2021-09-02T08:39:14.000Z</time>
      </trkpt>
      <trkpt lat="47.36877" lon="-2.44003">
        <ele>-9</ele>
        <time>2021-09-02T08:39:21.000Z</time>
      </trkpt>
      <trkpt lat="47.3688" lon="-2.44008">
        <ele>-9</ele>
        <time>2021-09-02T08:39:25.000Z</time>
      </trkpt>
      <trkpt lat="47.36882" lon="-2.44006">
        <ele>-9</ele>
        <time>2021-09-02T08:39:28.000Z</time>
      </trkpt>
      <trkpt lat="47.36887" lon="-2.44002">
        <ele>-9</ele>
        <time>2021-09-02T08:39:32.000Z</time>
      </trkpt>
      <trkpt lat="47.36894" lon="-2.43997">
        <ele>-9</ele>
        <time>2021-09-02T08:39:39.000Z</time>
      </trkpt>
      <trkpt lat="47.36895" lon="-2.43997">
        <ele>-9</ele>
        <time>2021-09-02T08:39:41.000Z</time>
      </trkpt>
      <trkpt lat="47.36898" lon="-2.43995">
        <ele>-9</ele>
        <time>2021-09-02T08:41:15.000Z</time>
      </trkpt>
      <trkpt lat="47.369" lon="-2.43994">
        <ele>-9</ele>
        <time>2021-09-02T08:41:16.000Z</time>
      </trkpt>
      <trkpt lat="47.36912" lon="-2.43986">
        <ele>-9</ele>
        <time>2021-09-02T08:41:21.000Z</time>
      </trkpt>
      <trkpt lat="47.36936" lon="-2.43974">
        <ele>-9</ele>
        <time>2021-09-02T08:41:27.000Z</time>
      </trkpt>
      <trkpt lat="47.36968" lon="-2.43957">
        <ele>-9</ele>
        <time>2021-09-02T08:41:34.000Z</time>
      </trkpt>
      <trkpt lat="47.37001" lon="-2.43939">
        <ele>-9</ele>
        <time>2021-09-02T08:41:41.000Z</time>
      </trkpt>
      <trkpt lat="47.37035" lon="-2.43915">
        <ele>-9</ele>
        <time>2021-09-02T08:41:48.000Z</time>
      </trkpt>
      <trkpt lat="47.37063" lon="-2.43895">
        <ele>-9</ele>
        <time>2021-09-02T08:41:54.000Z</time>
      </trkpt>
      <trkpt lat="47.37069" lon="-2.43893">
        <ele>-9</ele>
        <time>2021-09-02T08:41:55.000Z</time>
      </trkpt>
      <trkpt lat="47.37101" lon="-2.43886">
        <ele>-9</ele>
        <time>2021-09-02T08:42:01.000Z</time>
      </trkpt>
      <trkpt lat="47.37139" lon="-2.43897">
        <ele>-9</ele>
        <time>2021-09-02T08:42:07.000Z</time>
      </trkpt>
      <trkpt lat="47.37153" lon="-2.43904">
        <ele>-9.3999996185303</ele>
        <time>2021-09-02T08:42:09.000Z</time>
      </trkpt>
      <trkpt lat="47.3716" lon="-2.43908">
        <ele>-9.8000001907349</ele>
        <time>2021-09-02T08:42:10.000Z</time>
      </trkpt>
      <trkpt lat="47.37167" lon="-2.43912">
        <ele>-10.199999809265</ele>
        <time>2021-09-02T08:42:11.000Z</time>
      </trkpt>
      <trkpt lat="47.37174" lon="-2.43916">
        <ele>-10.800000190735</ele>
        <time>2021-09-02T08:42:12.000Z</time>
      </trkpt>
      <trkpt lat="47.3718" lon="-2.4392">
        <ele>-11.199999809265</ele>
        <time>2021-09-02T08:42:13.000Z</time>
      </trkpt>
      <trkpt lat="47.37194" lon="-2.43928">
        <ele>-11.199999809265</ele>
        <time>2021-09-02T08:42:15.000Z</time>
      </trkpt>
      <trkpt lat="47.37201" lon="-2.43932">
        <ele>-11.60000038147</ele>
        <time>2021-09-02T08:42:16.000Z</time>
      </trkpt>
      <trkpt lat="47.37208" lon="-2.43936">
        <ele>-12</ele>
        <time>2021-09-02T08:42:17.000Z</time>
      </trkpt>
      <trkpt lat="47.37215" lon="-2.4394">
        <ele>-12.39999961853</ele>
        <time>2021-09-02T08:42:18.000Z</time>
      </trkpt>
      <trkpt lat="47.37222" lon="-2.43944">
        <ele>-12.800000190735</ele>
        <time>2021-09-02T08:42:19.000Z</time>
      </trkpt>
      <trkpt lat="47.37229" lon="-2.43948">
        <ele>-13.199999809265</ele>
        <time>2021-09-02T08:42:20.000Z</time>
      </trkpt>
      <trkpt lat="47.37258" lon="-2.43964">
        <ele>-13.199999809265</ele>
        <time>2021-09-02T08:42:24.000Z</time>
      </trkpt>
      <trkpt lat="47.37273" lon="-2.43972">
        <ele>-13.60000038147</ele>
        <time>2021-09-02T08:42:26.000Z</time>
      </trkpt>
      <trkpt lat="47.37281" lon="-2.43977">
        <ele>-14.199999809265</ele>
        <time>2021-09-02T08:42:27.000Z</time>
      </trkpt>
      <trkpt lat="47.37288" lon="-2.43982">
        <ele>-14.60000038147</ele>
        <time>2021-09-02T08:42:28.000Z</time>
      </trkpt>
      <trkpt lat="47.37296" lon="-2.43986">
        <ele>-15</ele>
        <time>2021-09-02T08:42:29.000Z</time>
      </trkpt>
      <trkpt lat="47.37304" lon="-2.43991">
        <ele>-15.60000038147</ele>
        <time>2021-09-02T08:42:30.000Z</time>
      </trkpt>
      <trkpt lat="47.37318" lon="-2.44">
        <ele>-15.60000038147</ele>
        <time>2021-09-02T08:42:32.000Z</time>
      </trkpt>
      <trkpt lat="47.37338" lon="-2.44016">
        <ele>-16</ele>
        <time>2021-09-02T08:42:35.000Z</time>
      </trkpt>
      <trkpt lat="47.37344" lon="-2.4402">
        <ele>-16.39999961853</ele>
        <time>2021-09-02T08:42:36.000Z</time>
      </trkpt>
      <trkpt lat="47.3735" lon="-2.44023">
        <ele>-16.799999237061</ele>
        <time>2021-09-02T08:42:37.000Z</time>
      </trkpt>
      <trkpt lat="47.37355" lon="-2.44024">
        <ele>-17.200000762939</ele>
        <time>2021-09-02T08:42:38.000Z</time>
      </trkpt>
      <trkpt lat="47.37361" lon="-2.44022">
        <ele>-17.60000038147</ele>
        <time>2021-09-02T08:42:39.000Z</time>
      </trkpt>
      <trkpt lat="47.37365" lon="-2.4402">
        <ele>-17.60000038147</ele>
        <time>2021-09-02T08:42:40.000Z</time>
      </trkpt>
      <trkpt lat="47.3737" lon="-2.44018">
        <ele>-17.60000038147</ele>
        <time>2021-09-02T08:42:41.000Z</time>
      </trkpt>
      <trkpt lat="47.37374" lon="-2.44017">
        <ele>-17.60000038147</ele>
        <time>2021-09-02T08:42:42.000Z</time>
      </trkpt>
      <trkpt lat="47.37383" lon="-2.44013">
        <ele>-17.60000038147</ele>
        <time>2021-09-02T08:42:44.000Z</time>
      </trkpt>
      <trkpt lat="47.37392" lon="-2.44009">
        <ele>-17.60000038147</ele>
        <time>2021-09-02T08:42:46.000Z</time>
      </trkpt>
      <trkpt lat="47.37416" lon="-2.43996">
        <ele>-17.200000762939</ele>
        <time>2021-09-02T08:42:51.000Z</time>
      </trkpt>
      <trkpt lat="47.3742" lon="-2.43993">
        <ele>-16.60000038147</ele>
        <time>2021-09-02T08:42:52.000Z</time>
      </trkpt>
      <trkpt lat="47.37425" lon="-2.4399">
        <ele>-16.200000762939</ele>
        <time>2021-09-02T08:42:53.000Z</time>
      </trkpt>
      <trkpt lat="47.3743" lon="-2.43988">
        <ele>-15.800000190735</ele>
        <time>2021-09-02T08:42:54.000Z</time>
      </trkpt>
      <trkpt lat="47.37435" lon="-2.43985">
        <ele>-15.39999961853</ele>
        <time>2021-09-02T08:42:55.000Z</time>
      </trkpt>
      <trkpt lat="47.37445" lon="-2.43978">
        <ele>-15.39999961853</ele>
        <time>2021-09-02T08:42:57.000Z</time>
      </trkpt>
      <trkpt lat="47.3745" lon="-2.43975">
        <ele>-15.39999961853</ele>
        <time>2021-09-02T08:42:58.000Z</time>
      </trkpt>
      <trkpt lat="47.37465" lon="-2.43966">
        <ele>-15.39999961853</ele>
        <time>2021-09-02T08:43:01.000Z</time>
      </trkpt>
      <trkpt lat="47.37474" lon="-2.43961">
        <ele>-15.39999961853</ele>
        <time>2021-09-02T08:43:03.000Z</time>
      </trkpt>
      <trkpt lat="47.3751" lon="-2.43942">
        <ele>-15.39999961853</ele>
        <time>2021-09-02T08:43:10.000Z</time>
      </trkpt>
      <trkpt lat="47.37551" lon="-2.43919">
        <ele>-15.39999961853</ele>
        <time>2021-09-02T08:43:18.000Z</time>
      </trkpt>
      <trkpt lat="47.3758" lon="-2.43904">
        <ele>-15.39999961853</ele>
        <time>2021-09-02T08:43:24.000Z</time>
      </trkpt>
      <trkpt lat="47.37599" lon="-2.43893">
        <ele>-15.800000190735</ele>
        <time>2021-09-02T08:43:28.000Z</time>
      </trkpt>
      <trkpt lat="47.37603" lon="-2.43891">
        <ele>-16.200000762939</ele>
        <time>2021-09-02T08:43:29.000Z</time>
      </trkpt>
      <trkpt lat="47.37608" lon="-2.43888">
        <ele>-16.60000038147</ele>
        <time>2021-09-02T08:43:30.000Z</time>
      </trkpt>
      <trkpt lat="47.37614" lon="-2.43885">
        <ele>-17</ele>
        <time>2021-09-02T08:43:31.000Z</time>
      </trkpt>
      <trkpt lat="47.37619" lon="-2.43882">
        <ele>-17.60000038147</ele>
        <time>2021-09-02T08:43:32.000Z</time>
      </trkpt>
      <trkpt lat="47.37662" lon="-2.43859">
        <ele>-17.60000038147</ele>
        <time>2021-09-02T08:43:40.000Z</time>
      </trkpt>
      <trkpt lat="47.37703" lon="-2.43837">
        <ele>-17.60000038147</ele>
        <time>2021-09-02T08:43:48.000Z</time>
      </trkpt>
      <trkpt lat="47.37737" lon="-2.43821">
        <ele>-17.60000038147</ele>
        <time>2021-09-02T08:43:55.000Z</time>
      </trkpt>
      <trkpt lat="47.37741" lon="-2.43819">
        <ele>-18</ele>
        <time>2021-09-02T08:43:56.000Z</time>
      </trkpt>
      <trkpt lat="47.37746" lon="-2.43816">
        <ele>-18.39999961853</ele>
        <time>2021-09-02T08:43:57.000Z</time>
      </trkpt>
      <trkpt lat="47.3775" lon="-2.43814">
        <ele>-18.799999237061</ele>
        <time>2021-09-02T08:43:58.000Z</time>
      </trkpt>
      <trkpt lat="47.37754" lon="-2.4381">
        <ele>-19.200000762939</ele>
        <time>2021-09-02T08:43:59.000Z</time>
      </trkpt>
      <trkpt lat="47.37757" lon="-2.43807">
        <ele>-19.60000038147</ele>
        <time>2021-09-02T08:44:00.000Z</time>
      </trkpt>
      <trkpt lat="47.37759" lon="-2.43803">
        <ele>-19.60000038147</ele>
        <time>2021-09-02T08:44:01.000Z</time>
      </trkpt>
      <trkpt lat="47.37762" lon="-2.43785">
        <ele>-19.60000038147</ele>
        <time>2021-09-02T08:44:05.000Z</time>
      </trkpt>
      <trkpt lat="47.37756" lon="-2.43759">
        <ele>-20</ele>
        <time>2021-09-02T08:44:10.000Z</time>
      </trkpt>
      <trkpt lat="47.37755" lon="-2.43753">
        <ele>-20.39999961853</ele>
        <time>2021-09-02T08:44:11.000Z</time>
      </trkpt>
      <trkpt lat="47.37753" lon="-2.43747">
        <ele>-21.200000762939</ele>
        <time>2021-09-02T08:44:12.000Z</time>
      </trkpt>
      <trkpt lat="47.37752" lon="-2.43741">
        <ele>-21.60000038147</ele>
        <time>2021-09-02T08:44:13.000Z</time>
      </trkpt>
      <trkpt lat="47.37746" lon="-2.43716">
        <ele>-21.60000038147</ele>
        <time>2021-09-02T08:44:17.000Z</time>
      </trkpt>
      <trkpt lat="47.37734" lon="-2.43664">
        <ele>-21.60000038147</ele>
        <time>2021-09-02T08:44:25.000Z</time>
      </trkpt>
      <trkpt lat="47.37723" lon="-2.43611">
        <ele>-21.60000038147</ele>
        <time>2021-09-02T08:44:33.000Z</time>
      </trkpt>
      <trkpt lat="47.37722" lon="-2.43606">
        <ele>-21.200000762939</ele>
        <time>2021-09-02T08:44:34.000Z</time>
      </trkpt>
      <trkpt lat="47.37722" lon="-2.436">
        <ele>-20.799999237061</ele>
        <time>2021-09-02T08:44:35.000Z</time>
      </trkpt>
      <trkpt lat="47.37722" lon="-2.43594">
        <ele>-19.799999237061</ele>
        <time>2021-09-02T08:44:36.000Z</time>
      </trkpt>
      <trkpt lat="47.37722" lon="-2.43588">
        <ele>-19.200000762939</ele>
        <time>2021-09-02T08:44:37.000Z</time>
      </trkpt>
      <trkpt lat="47.37722" lon="-2.43582">
        <ele>-19.200000762939</ele>
        <time>2021-09-02T08:44:38.000Z</time>
      </trkpt>
      <trkpt lat="47.37723" lon="-2.43577">
        <ele>-18.799999237061</ele>
        <time>2021-09-02T08:44:39.000Z</time>
      </trkpt>
      <trkpt lat="47.37723" lon="-2.43571">
        <ele>-18.39999961853</ele>
        <time>2021-09-02T08:44:40.000Z</time>
      </trkpt>
      <trkpt lat="47.37724" lon="-2.43566">
        <ele>-18</ele>
        <time>2021-09-02T08:44:41.000Z</time>
      </trkpt>
      <trkpt lat="47.37725" lon="-2.4356">
        <ele>-17.60000038147</ele>
        <time>2021-09-02T08:44:42.000Z</time>
      </trkpt>
      <trkpt lat="47.37726" lon="-2.43554">
        <ele>-17.200000762939</ele>
        <time>2021-09-02T08:44:43.000Z</time>
      </trkpt>
      <trkpt lat="47.37727" lon="-2.43549">
        <ele>-17.200000762939</ele>
        <time>2021-09-02T08:44:44.000Z</time>
      </trkpt>
      <trkpt lat="47.37728" lon="-2.43531">
        <ele>-16.799999237061</ele>
        <time>2021-09-02T08:44:47.000Z</time>
      </trkpt>
      <trkpt lat="47.37729" lon="-2.43525">
        <ele>-16.39999961853</ele>
        <time>2021-09-02T08:44:48.000Z</time>
      </trkpt>
      <trkpt lat="47.3773" lon="-2.43518">
        <ele>-16</ele>
        <time>2021-09-02T08:44:49.000Z</time>
      </trkpt>
      <trkpt lat="47.37731" lon="-2.43513">
        <ele>-15.39999961853</ele>
        <time>2021-09-02T08:44:50.000Z</time>
      </trkpt>
      <trkpt lat="47.37732" lon="-2.43507">
        <ele>-15</ele>
        <time>2021-09-02T08:44:51.000Z</time>
      </trkpt>
      <trkpt lat="47.37733" lon="-2.435">
        <ele>-15</ele>
        <time>2021-09-02T08:44:52.000Z</time>
      </trkpt>
      <trkpt lat="47.37733" lon="-2.43494">
        <ele>-15</ele>
        <time>2021-09-02T08:44:53.000Z</time>
      </trkpt>
      <trkpt lat="47.37734" lon="-2.43488">
        <ele>-14.60000038147</ele>
        <time>2021-09-02T08:44:54.000Z</time>
      </trkpt>
      <trkpt lat="47.37735" lon="-2.43482">
        <ele>-14.199999809265</ele>
        <time>2021-09-02T08:44:55.000Z</time>
      </trkpt>
      <trkpt lat="47.37736" lon="-2.43476">
        <ele>-13.800000190735</ele>
        <time>2021-09-02T08:44:56.000Z</time>
      </trkpt>
      <trkpt lat="47.37737" lon="-2.4347">
        <ele>-13.39999961853</ele>
        <time>2021-09-02T08:44:57.000Z</time>
      </trkpt>
      <trkpt lat="47.37738" lon="-2.43463">
        <ele>-13</ele>
        <time>2021-09-02T08:44:58.000Z</time>
      </trkpt>
      <trkpt lat="47.37742" lon="-2.43438">
        <ele>-13</ele>
        <time>2021-09-02T08:45:02.000Z</time>
      </trkpt>
      <trkpt lat="47.37744" lon="-2.43425">
        <ele>-12.60000038147</ele>
        <time>2021-09-02T08:45:04.000Z</time>
      </trkpt>
      <trkpt lat="47.37745" lon="-2.43419">
        <ele>-12.199999809265</ele>
        <time>2021-09-02T08:45:05.000Z</time>
      </trkpt>
      <trkpt lat="47.37746" lon="-2.43414">
        <ele>-11.800000190735</ele>
        <time>2021-09-02T08:45:06.000Z</time>
      </trkpt>
      <trkpt lat="47.37747" lon="-2.43408">
        <ele>-11.39999961853</ele>
        <time>2021-09-02T08:45:07.000Z</time>
      </trkpt>
      <trkpt lat="47.37748" lon="-2.43401">
        <ele>-11</ele>
        <time>2021-09-02T08:45:08.000Z</time>
      </trkpt>
      <trkpt lat="47.37748" lon="-2.43395">
        <ele>-11</ele>
        <time>2021-09-02T08:45:09.000Z</time>
      </trkpt>
      <trkpt lat="47.3775" lon="-2.43381">
        <ele>-11</ele>
        <time>2021-09-02T08:45:11.000Z</time>
      </trkpt>
      <trkpt lat="47.37751" lon="-2.43368">
        <ele>-10.60000038147</ele>
        <time>2021-09-02T08:45:13.000Z</time>
      </trkpt>
      <trkpt lat="47.37753" lon="-2.43362">
        <ele>-10.199999809265</ele>
        <time>2021-09-02T08:45:14.000Z</time>
      </trkpt>
      <trkpt lat="47.37754" lon="-2.43355">
        <ele>-9.6000003814697</ele>
        <time>2021-09-02T08:45:15.000Z</time>
      </trkpt>
      <trkpt lat="47.37755" lon="-2.43348">
        <ele>-9.1999998092651</ele>
        <time>2021-09-02T08:45:16.000Z</time>
      </trkpt>
      <trkpt lat="47.37755" lon="-2.43342">
        <ele>-8.8000001907349</ele>
        <time>2021-09-02T08:45:17.000Z</time>
      </trkpt>
      <trkpt lat="47.37757" lon="-2.43329">
        <ele>-8.8000001907349</ele>
        <time>2021-09-02T08:45:19.000Z</time>
      </trkpt>
      <trkpt lat="47.37758" lon="-2.43316">
        <ele>-8.8000001907349</ele>
        <time>2021-09-02T08:45:21.000Z</time>
      </trkpt>
      <trkpt lat="47.37761" lon="-2.43291">
        <ele>-8.8000001907349</ele>
        <time>2021-09-02T08:45:25.000Z</time>
      </trkpt>
      <trkpt lat="47.37765" lon="-2.43261">
        <ele>-8.8000001907349</ele>
        <time>2021-09-02T08:45:31.000Z</time>
      </trkpt>
      <trkpt lat="47.37765" lon="-2.43237">
        <ele>-8.8000001907349</ele>
        <time>2021-09-02T08:45:39.000Z</time>
      </trkpt>
      <trkpt lat="47.37761" lon="-2.43226">
        <ele>-8.8000001907349</ele>
        <time>2021-09-02T08:45:45.000Z</time>
      </trkpt>
      <trkpt lat="47.37745" lon="-2.43231">
        <ele>-8.8000001907349</ele>
        <time>2021-09-02T08:45:50.000Z</time>
      </trkpt>
      <trkpt lat="47.37707" lon="-2.43238">
        <ele>-8.8000001907349</ele>
        <time>2021-09-02T08:45:58.000Z</time>
      </trkpt>
      <trkpt lat="47.3766" lon="-2.43245">
        <ele>-8.8000001907349</ele>
        <time>2021-09-02T08:46:07.000Z</time>
      </trkpt>
      <trkpt lat="47.37614" lon="-2.43253">
        <ele>-8.8000001907349</ele>
        <time>2021-09-02T08:46:15.000Z</time>
      </trkpt>
      <trkpt lat="47.37596" lon="-2.43256">
        <ele>-8.3999996185303</ele>
        <time>2021-09-02T08:46:18.000Z</time>
      </trkpt>
      <trkpt lat="47.3759" lon="-2.43256">
        <ele>-8</ele>
        <time>2021-09-02T08:46:19.000Z</time>
      </trkpt>
      <trkpt lat="47.37583" lon="-2.43257">
        <ele>-7.5999999046326</ele>
        <time>2021-09-02T08:46:20.000Z</time>
      </trkpt>
      <trkpt lat="47.37578" lon="-2.43258">
        <ele>-7.1999998092651</ele>
        <time>2021-09-02T08:46:21.000Z</time>
      </trkpt>
      <trkpt lat="47.37572" lon="-2.43259">
        <ele>-6.8000001907349</ele>
        <time>2021-09-02T08:46:22.000Z</time>
      </trkpt>
      <trkpt lat="47.3756" lon="-2.43261">
        <ele>-6.8000001907349</ele>
        <time>2021-09-02T08:46:24.000Z</time>
      </trkpt>
      <trkpt lat="47.37508" lon="-2.43269">
        <ele>-6.8000001907349</ele>
        <time>2021-09-02T08:46:32.000Z</time>
      </trkpt>
      <trkpt lat="47.37462" lon="-2.43277">
        <ele>-6.8000001907349</ele>
        <time>2021-09-02T08:46:39.000Z</time>
      </trkpt>
      <trkpt lat="47.37434" lon="-2.43282">
        <ele>-6.8000001907349</ele>
        <time>2021-09-02T08:46:44.000Z</time>
      </trkpt>
      <trkpt lat="47.37418" lon="-2.43284">
        <ele>-6.8000001907349</ele>
        <time>2021-09-02T08:46:48.000Z</time>
      </trkpt>
      <trkpt lat="47.37416" lon="-2.43284">
        <ele>-6.8000001907349</ele>
        <time>2021-09-02T08:46:52.000Z</time>
      </trkpt>
      <trkpt lat="47.37414" lon="-2.43284">
        <ele>-6.8000001907349</ele>
        <time>2021-09-02T08:46:54.000Z</time>
      </trkpt>
      <trkpt lat="47.37413" lon="-2.43285">
        <ele>-6.8000001907349</ele>
        <time>2021-09-02T08:46:59.000Z</time>
      </trkpt>
      <trkpt lat="47.37412" lon="-2.43285">
        <ele>-6.8000001907349</ele>
        <time>2021-09-02T08:47:00.000Z</time>
      </trkpt>
      <trkpt lat="47.37412" lon="-2.43286">
        <ele>-6.8000001907349</ele>
        <time>2021-09-02T08:47:02.000Z</time>
      </trkpt>
      <trkpt lat="47.37411" lon="-2.43285">
        <ele>-6.8000001907349</ele>
        <time>2021-09-02T08:47:35.000Z</time>
      </trkpt>
      <trkpt lat="47.37411" lon="-2.43273">
        <ele>-6.8000001907349</ele>
        <time>2021-09-02T08:47:39.000Z</time>
      </trkpt>
      <trkpt lat="47.37412" lon="-2.4325">
        <ele>-6.8000001907349</ele>
        <time>2021-09-02T08:47:43.000Z</time>
      </trkpt>
      <trkpt lat="47.37413" lon="-2.43243">
        <ele>-6.8000001907349</ele>
        <time>2021-09-02T08:47:44.000Z</time>
      </trkpt>
      <trkpt lat="47.37417" lon="-2.43211">
        <ele>-6.8000001907349</ele>
        <time>2021-09-02T08:47:49.000Z</time>
      </trkpt>
      <trkpt lat="47.37418" lon="-2.43204">
        <ele>-6.8000001907349</ele>
        <time>2021-09-02T08:47:50.000Z</time>
      </trkpt>
      <trkpt lat="47.37423" lon="-2.43167">
        <ele>-6.8000001907349</ele>
        <time>2021-09-02T08:47:55.000Z</time>
      </trkpt>
      <trkpt lat="47.37431" lon="-2.43111">
        <ele>-6.8000001907349</ele>
        <time>2021-09-02T08:48:02.000Z</time>
      </trkpt>
      <trkpt lat="47.3744" lon="-2.43063">
        <ele>-6.8000001907349</ele>
        <time>2021-09-02T08:48:08.000Z</time>
      </trkpt>
      <trkpt lat="47.37449" lon="-2.43025">
        <ele>-6.8000001907349</ele>
        <time>2021-09-02T08:48:13.000Z</time>
      </trkpt>
      <trkpt lat="47.3745" lon="-2.43017">
        <ele>-7.1999998092651</ele>
        <time>2021-09-02T08:48:14.000Z</time>
      </trkpt>
      <trkpt lat="47.37452" lon="-2.43009">
        <ele>-7.5999999046326</ele>
        <time>2021-09-02T08:48:15.000Z</time>
      </trkpt>
      <trkpt lat="47.37453" lon="-2.43">
        <ele>-8</ele>
        <time>2021-09-02T08:48:16.000Z</time>
      </trkpt>
      <trkpt lat="47.37455" lon="-2.42991">
        <ele>-8.3999996185303</ele>
        <time>2021-09-02T08:48:17.000Z</time>
      </trkpt>
      <trkpt lat="47.37457" lon="-2.42982">
        <ele>-8.8000001907349</ele>
        <time>2021-09-02T08:48:18.000Z</time>
      </trkpt>
      <trkpt lat="47.3746" lon="-2.42972">
        <ele>-8.8000001907349</ele>
        <time>2021-09-02T08:48:19.000Z</time>
      </trkpt>
      <trkpt lat="47.37472" lon="-2.42914">
        <ele>-8.8000001907349</ele>
        <time>2021-09-02T08:48:25.000Z</time>
      </trkpt>
      <trkpt lat="47.37481" lon="-2.42861">
        <ele>-8.8000001907349</ele>
        <time>2021-09-02T08:48:31.000Z</time>
      </trkpt>
      <trkpt lat="47.37486" lon="-2.42825">
        <ele>-8.8000001907349</ele>
        <time>2021-09-02T08:48:36.000Z</time>
      </trkpt>
      <trkpt lat="47.37484" lon="-2.42812">
        <ele>-8.8000001907349</ele>
        <time>2021-09-02T08:48:39.000Z</time>
      </trkpt>
      <trkpt lat="47.37476" lon="-2.42806">
        <ele>-8.8000001907349</ele>
        <time>2021-09-02T08:48:42.000Z</time>
      </trkpt>
      <trkpt lat="47.37472" lon="-2.42804">
        <ele>-9.1999998092651</ele>
        <time>2021-09-02T08:48:43.000Z</time>
      </trkpt>
      <trkpt lat="47.37468" lon="-2.42803">
        <ele>-10</ele>
        <time>2021-09-02T08:48:44.000Z</time>
      </trkpt>
      <trkpt lat="47.37463" lon="-2.42802">
        <ele>-10.39999961853</ele>
        <time>2021-09-02T08:48:45.000Z</time>
      </trkpt>
      <trkpt lat="47.37458" lon="-2.42801">
        <ele>-10.800000190735</ele>
        <time>2021-09-02T08:48:46.000Z</time>
      </trkpt>
      <trkpt lat="47.37452" lon="-2.428">
        <ele>-10.800000190735</ele>
        <time>2021-09-02T08:48:47.000Z</time>
      </trkpt>
      <trkpt lat="47.37418" lon="-2.42791">
        <ele>-10.800000190735</ele>
        <time>2021-09-02T08:48:53.000Z</time>
      </trkpt>
      <trkpt lat="47.37378" lon="-2.4278">
        <ele>-10.800000190735</ele>
        <time>2021-09-02T08:48:59.000Z</time>
      </trkpt>
      <trkpt lat="47.37358" lon="-2.42773">
        <ele>-11.199999809265</ele>
        <time>2021-09-02T08:49:02.000Z</time>
      </trkpt>
      <trkpt lat="47.37351" lon="-2.42771">
        <ele>-11.800000190735</ele>
        <time>2021-09-02T08:49:03.000Z</time>
      </trkpt>
      <trkpt lat="47.37344" lon="-2.42768">
        <ele>-12.199999809265</ele>
        <time>2021-09-02T08:49:04.000Z</time>
      </trkpt>
      <trkpt lat="47.37337" lon="-2.42766">
        <ele>-12.60000038147</ele>
        <time>2021-09-02T08:49:05.000Z</time>
      </trkpt>
      <trkpt lat="47.37328" lon="-2.42764">
        <ele>-13.199999809265</ele>
        <time>2021-09-02T08:49:06.000Z</time>
      </trkpt>
      <trkpt lat="47.3732" lon="-2.42763">
        <ele>-13.60000038147</ele>
        <time>2021-09-02T08:49:07.000Z</time>
      </trkpt>
      <trkpt lat="47.37313" lon="-2.42761">
        <ele>-14.60000038147</ele>
        <time>2021-09-02T08:49:08.000Z</time>
      </trkpt>
      <trkpt lat="47.37305" lon="-2.4276">
        <ele>-15</ele>
        <time>2021-09-02T08:49:09.000Z</time>
      </trkpt>
      <trkpt lat="47.37297" lon="-2.42759">
        <ele>-15.39999961853</ele>
        <time>2021-09-02T08:49:10.000Z</time>
      </trkpt>
      <trkpt lat="47.37283" lon="-2.42755">
        <ele>-15.39999961853</ele>
        <time>2021-09-02T08:49:12.000Z</time>
      </trkpt>
      <trkpt lat="47.37241" lon="-2.42743">
        <ele>-15.800000190735</ele>
        <time>2021-09-02T08:49:18.000Z</time>
      </trkpt>
      <trkpt lat="47.37234" lon="-2.42742">
        <ele>-16.39999961853</ele>
        <time>2021-09-02T08:49:19.000Z</time>
      </trkpt>
      <trkpt lat="47.37229" lon="-2.4274">
        <ele>-16.799999237061</ele>
        <time>2021-09-02T08:49:20.000Z</time>
      </trkpt>
      <trkpt lat="47.37225" lon="-2.42739">
        <ele>-17.200000762939</ele>
        <time>2021-09-02T08:49:21.000Z</time>
      </trkpt>
      <trkpt lat="47.37222" lon="-2.42736">
        <ele>-17.60000038147</ele>
        <time>2021-09-02T08:49:22.000Z</time>
      </trkpt>
      <trkpt lat="47.3722" lon="-2.42728">
        <ele>-17.60000038147</ele>
        <time>2021-09-02T08:49:24.000Z</time>
      </trkpt>
      <trkpt lat="47.37221" lon="-2.42724">
        <ele>-17.60000038147</ele>
        <time>2021-09-02T08:49:25.000Z</time>
      </trkpt>
      <trkpt lat="47.37231" lon="-2.42711">
        <ele>-17.60000038147</ele>
        <time>2021-09-02T08:49:28.000Z</time>
      </trkpt>
      <trkpt lat="47.37235" lon="-2.42706">
        <ele>-18</ele>
        <time>2021-09-02T08:49:29.000Z</time>
      </trkpt>
      <trkpt lat="47.37239" lon="-2.42702">
        <ele>-18.39999961853</ele>
        <time>2021-09-02T08:49:30.000Z</time>
      </trkpt>
      <trkpt lat="47.37243" lon="-2.42698">
        <ele>-19</ele>
        <time>2021-09-02T08:49:31.000Z</time>
      </trkpt>
      <trkpt lat="47.37248" lon="-2.42693">
        <ele>-19.39999961853</ele>
        <time>2021-09-02T08:49:32.000Z</time>
      </trkpt>
      <trkpt lat="47.37252" lon="-2.42689">
        <ele>-19.799999237061</ele>
        <time>2021-09-02T08:49:33.000Z</time>
      </trkpt>
      <trkpt lat="47.37262" lon="-2.42681">
        <ele>-19.799999237061</ele>
        <time>2021-09-02T08:49:35.000Z</time>
      </trkpt>
      <trkpt lat="47.37282" lon="-2.42665">
        <ele>-19.799999237061</ele>
        <time>2021-09-02T08:49:39.000Z</time>
      </trkpt>
      <trkpt lat="47.37314" lon="-2.42636">
        <ele>-19.799999237061</ele>
        <time>2021-09-02T08:49:46.000Z</time>
      </trkpt>
      <trkpt lat="47.37346" lon="-2.42607">
        <ele>-19.799999237061</ele>
        <time>2021-09-02T08:49:53.000Z</time>
      </trkpt>
      <trkpt lat="47.37384" lon="-2.42573">
        <ele>-19.799999237061</ele>
        <time>2021-09-02T08:50:01.000Z</time>
      </trkpt>
      <trkpt lat="47.37421" lon="-2.4254">
        <ele>-19.799999237061</ele>
        <time>2021-09-02T08:50:08.000Z</time>
      </trkpt>
      <trkpt lat="47.37463" lon="-2.42502">
        <ele>-19.799999237061</ele>
        <time>2021-09-02T08:50:16.000Z</time>
      </trkpt>
      <trkpt lat="47.37496" lon="-2.42472">
        <ele>-19.799999237061</ele>
        <time>2021-09-02T08:50:23.000Z</time>
      </trkpt>
      <trkpt lat="47.37519" lon="-2.42452">
        <ele>-19.799999237061</ele>
        <time>2021-09-02T08:50:28.000Z</time>
      </trkpt>
      <trkpt lat="47.37528" lon="-2.42447">
        <ele>-19.799999237061</ele>
        <time>2021-09-02T08:50:30.000Z</time>
      </trkpt>
      <trkpt lat="47.37536" lon="-2.42439">
        <ele>-19.799999237061</ele>
        <time>2021-09-02T08:50:32.000Z</time>
      </trkpt>
      <trkpt lat="47.37545" lon="-2.42431">
        <ele>-19.799999237061</ele>
        <time>2021-09-02T08:50:34.000Z</time>
      </trkpt>
      <trkpt lat="47.37565" lon="-2.42415">
        <ele>-19.799999237061</ele>
        <time>2021-09-02T08:50:38.000Z</time>
      </trkpt>
      <trkpt lat="47.37608" lon="-2.42377">
        <ele>-19.799999237061</ele>
        <time>2021-09-02T08:50:47.000Z</time>
      </trkpt>
      <trkpt lat="47.37639" lon="-2.42349">
        <ele>-19.200000762939</ele>
        <time>2021-09-02T08:50:54.000Z</time>
      </trkpt>
      <trkpt lat="47.37643" lon="-2.42345">
        <ele>-18.799999237061</ele>
        <time>2021-09-02T08:50:55.000Z</time>
      </trkpt>
      <trkpt lat="47.37647" lon="-2.42341">
        <ele>-18.200000762939</ele>
        <time>2021-09-02T08:50:56.000Z</time>
      </trkpt>
      <trkpt lat="47.37651" lon="-2.42338">
        <ele>-17.799999237061</ele>
        <time>2021-09-02T08:50:57.000Z</time>
      </trkpt>
      <trkpt lat="47.37655" lon="-2.42334">
        <ele>-17.200000762939</ele>
        <time>2021-09-02T08:50:58.000Z</time>
      </trkpt>
      <trkpt lat="47.37677" lon="-2.42314">
        <ele>-17.200000762939</ele>
        <time>2021-09-02T08:51:03.000Z</time>
      </trkpt>
      <trkpt lat="47.377" lon="-2.42293">
        <ele>-17.200000762939</ele>
        <time>2021-09-02T08:51:08.000Z</time>
      </trkpt>
      <trkpt lat="47.37709" lon="-2.42285">
        <ele>-17.200000762939</ele>
        <time>2021-09-02T08:51:10.000Z</time>
      </trkpt>
      <trkpt lat="47.37718" lon="-2.42275">
        <ele>-16.39999961853</ele>
        <time>2021-09-02T08:51:12.000Z</time>
      </trkpt>
      <trkpt lat="47.37723" lon="-2.42271">
        <ele>-16</ele>
        <time>2021-09-02T08:51:13.000Z</time>
      </trkpt>
      <trkpt lat="47.37727" lon="-2.42267">
        <ele>-15.60000038147</ele>
        <time>2021-09-02T08:51:14.000Z</time>
      </trkpt>
      <trkpt lat="47.37732" lon="-2.42263">
        <ele>-15.199999809265</ele>
        <time>2021-09-02T08:51:15.000Z</time>
      </trkpt>
      <trkpt lat="47.37753" lon="-2.42244">
        <ele>-15.199999809265</ele>
        <time>2021-09-02T08:51:20.000Z</time>
      </trkpt>
      <trkpt lat="47.37764" lon="-2.42234">
        <ele>-15.199999809265</ele>
        <time>2021-09-02T08:51:24.000Z</time>
      </trkpt>
      <trkpt lat="47.37777" lon="-2.4222">
        <ele>-15.199999809265</ele>
        <time>2021-09-02T08:51:28.000Z</time>
      </trkpt>
      <trkpt lat="47.37798" lon="-2.422">
        <ele>-15.199999809265</ele>
        <time>2021-09-02T08:51:36.000Z</time>
      </trkpt>
      <trkpt lat="47.37801" lon="-2.42185">
        <ele>-15.199999809265</ele>
        <time>2021-09-02T08:51:40.000Z</time>
      </trkpt>
      <trkpt lat="47.378" lon="-2.42182">
        <ele>-15.199999809265</ele>
        <time>2021-09-02T08:51:41.000Z</time>
      </trkpt>
      <trkpt lat="47.37789" lon="-2.42165">
        <ele>-15.199999809265</ele>
        <time>2021-09-02T08:51:46.000Z</time>
      </trkpt>
      <trkpt lat="47.37775" lon="-2.42146">
        <ele>-15.199999809265</ele>
        <time>2021-09-02T08:51:50.000Z</time>
      </trkpt>
      <trkpt lat="47.37771" lon="-2.42142">
        <ele>-15.199999809265</ele>
        <time>2021-09-02T08:51:51.000Z</time>
      </trkpt>
      <trkpt lat="47.37748" lon="-2.4211">
        <ele>-15.199999809265</ele>
        <time>2021-09-02T08:51:56.000Z</time>
      </trkpt>
      <trkpt lat="47.37716" lon="-2.42068">
        <ele>-15.199999809265</ele>
        <time>2021-09-02T08:52:02.000Z</time>
      </trkpt>
      <trkpt lat="47.3771" lon="-2.42061">
        <ele>-15.60000038147</ele>
        <time>2021-09-02T08:52:03.000Z</time>
      </trkpt>
      <trkpt lat="47.37704" lon="-2.42054">
        <ele>-16</ele>
        <time>2021-09-02T08:52:04.000Z</time>
      </trkpt>
      <trkpt lat="47.37698" lon="-2.42047">
        <ele>-16.60000038147</ele>
        <time>2021-09-02T08:52:05.000Z</time>
      </trkpt>
      <trkpt lat="47.37692" lon="-2.4204">
        <ele>-17</ele>
        <time>2021-09-02T08:52:06.000Z</time>
      </trkpt>
      <trkpt lat="47.37687" lon="-2.42033">
        <ele>-17.39999961853</ele>
        <time>2021-09-02T08:52:07.000Z</time>
      </trkpt>
      <trkpt lat="47.37669" lon="-2.42011">
        <ele>-17.799999237061</ele>
        <time>2021-09-02T08:52:10.000Z</time>
      </trkpt>
      <trkpt lat="47.37663" lon="-2.42003">
        <ele>-18.200000762939</ele>
        <time>2021-09-02T08:52:11.000Z</time>
      </trkpt>
      <trkpt lat="47.37657" lon="-2.41995">
        <ele>-18.799999237061</ele>
        <time>2021-09-02T08:52:12.000Z</time>
      </trkpt>
      <trkpt lat="47.37651" lon="-2.41986">
        <ele>-19.200000762939</ele>
        <time>2021-09-02T08:52:13.000Z</time>
      </trkpt>
      <trkpt lat="47.37645" lon="-2.41976">
        <ele>-19.799999237061</ele>
        <time>2021-09-02T08:52:14.000Z</time>
      </trkpt>
      <trkpt lat="47.37639" lon="-2.41966">
        <ele>-19.799999237061</ele>
        <time>2021-09-02T08:52:15.000Z</time>
      </trkpt>
      <trkpt lat="47.37634" lon="-2.41956">
        <ele>-19.799999237061</ele>
        <time>2021-09-02T08:52:16.000Z</time>
      </trkpt>
      <trkpt lat="47.37621" lon="-2.41921">
        <ele>-19.799999237061</ele>
        <time>2021-09-02T08:52:19.000Z</time>
      </trkpt>
      <trkpt lat="47.37614" lon="-2.41885">
        <ele>-20.200000762939</ele>
        <time>2021-09-02T08:52:22.000Z</time>
      </trkpt>
      <trkpt lat="47.37612" lon="-2.41874">
        <ele>-20.60000038147</ele>
        <time>2021-09-02T08:52:23.000Z</time>
      </trkpt>
      <trkpt lat="47.3761" lon="-2.41862">
        <ele>-21</ele>
        <time>2021-09-02T08:52:24.000Z</time>
      </trkpt>
      <trkpt lat="47.37609" lon="-2.41851">
        <ele>-21.39999961853</ele>
        <time>2021-09-02T08:52:25.000Z</time>
      </trkpt>
      <trkpt lat="47.37607" lon="-2.4184">
        <ele>-21.799999237061</ele>
        <time>2021-09-02T08:52:26.000Z</time>
      </trkpt>
      <trkpt lat="47.37603" lon="-2.41813">
        <ele>-21.799999237061</ele>
        <time>2021-09-02T08:52:29.000Z</time>
      </trkpt>
      <trkpt lat="47.37598" lon="-2.41775">
        <ele>-21.39999961853</ele>
        <time>2021-09-02T08:52:34.000Z</time>
      </trkpt>
      <trkpt lat="47.37597" lon="-2.41767">
        <ele>-21</ele>
        <time>2021-09-02T08:52:35.000Z</time>
      </trkpt>
      <trkpt lat="47.37597" lon="-2.41759">
        <ele>-20.60000038147</ele>
        <time>2021-09-02T08:52:36.000Z</time>
      </trkpt>
      <trkpt lat="47.37596" lon="-2.41751">
        <ele>-20.200000762939</ele>
        <time>2021-09-02T08:52:37.000Z</time>
      </trkpt>
      <trkpt lat="47.37595" lon="-2.41743">
        <ele>-19.799999237061</ele>
        <time>2021-09-02T08:52:38.000Z</time>
      </trkpt>
      <trkpt lat="47.37592" lon="-2.4172">
        <ele>-19.200000762939</ele>
        <time>2021-09-02T08:52:41.000Z</time>
      </trkpt>
      <trkpt lat="47.37591" lon="-2.41712">
        <ele>-18.799999237061</ele>
        <time>2021-09-02T08:52:42.000Z</time>
      </trkpt>
      <trkpt lat="47.37591" lon="-2.41703">
        <ele>-18.39999961853</ele>
        <time>2021-09-02T08:52:43.000Z</time>
      </trkpt>
      <trkpt lat="47.3759" lon="-2.41695">
        <ele>-17.799999237061</ele>
        <time>2021-09-02T08:52:44.000Z</time>
      </trkpt>
      <trkpt lat="47.37589" lon="-2.41687">
        <ele>-17.39999961853</ele>
        <time>2021-09-02T08:52:45.000Z</time>
      </trkpt>
      <trkpt lat="47.37588" lon="-2.4167">
        <ele>-17.39999961853</ele>
        <time>2021-09-02T08:52:47.000Z</time>
      </trkpt>
      <trkpt lat="47.37588" lon="-2.41661">
        <ele>-17</ele>
        <time>2021-09-02T08:52:48.000Z</time>
      </trkpt>
      <trkpt lat="47.37587" lon="-2.41652">
        <ele>-16.60000038147</ele>
        <time>2021-09-02T08:52:49.000Z</time>
      </trkpt>
      <trkpt lat="47.37587" lon="-2.41644">
        <ele>-16.200000762939</ele>
        <time>2021-09-02T08:52:50.000Z</time>
      </trkpt>
      <trkpt lat="47.37587" lon="-2.41636">
        <ele>-15.60000038147</ele>
        <time>2021-09-02T08:52:51.000Z</time>
      </trkpt>
      <trkpt lat="47.37587" lon="-2.41627">
        <ele>-15.199999809265</ele>
        <time>2021-09-02T08:52:52.000Z</time>
      </trkpt>
      <trkpt lat="47.37584" lon="-2.41601">
        <ele>-15.199999809265</ele>
        <time>2021-09-02T08:52:55.000Z</time>
      </trkpt>
      <trkpt lat="47.37577" lon="-2.41549">
        <ele>-15.199999809265</ele>
        <time>2021-09-02T08:53:01.000Z</time>
      </trkpt>
      <trkpt lat="47.37569" lon="-2.4149">
        <ele>-15.199999809265</ele>
        <time>2021-09-02T08:53:08.000Z</time>
      </trkpt>
      <trkpt lat="47.37564" lon="-2.41432">
        <ele>-15.199999809265</ele>
        <time>2021-09-02T08:53:15.000Z</time>
      </trkpt>
      <trkpt lat="47.37558" lon="-2.41369">
        <ele>-15.199999809265</ele>
        <time>2021-09-02T08:53:23.000Z</time>
      </trkpt>
      <trkpt lat="47.37551" lon="-2.41308">
        <ele>-15.199999809265</ele>
        <time>2021-09-02T08:53:31.000Z</time>
      </trkpt>
      <trkpt lat="47.37547" lon="-2.41263">
        <ele>-15.199999809265</ele>
        <time>2021-09-02T08:53:37.000Z</time>
      </trkpt>
      <trkpt lat="47.37546" lon="-2.41256">
        <ele>-15.199999809265</ele>
        <time>2021-09-02T08:53:38.000Z</time>
      </trkpt>
      <trkpt lat="47.37542" lon="-2.41217">
        <ele>-14.800000190735</ele>
        <time>2021-09-02T08:53:43.000Z</time>
      </trkpt>
      <trkpt lat="47.37541" lon="-2.4121">
        <ele>-14.39999961853</ele>
        <time>2021-09-02T08:53:44.000Z</time>
      </trkpt>
      <trkpt lat="47.3754" lon="-2.41203">
        <ele>-14</ele>
        <time>2021-09-02T08:53:45.000Z</time>
      </trkpt>
      <trkpt lat="47.3754" lon="-2.41196">
        <ele>-13.60000038147</ele>
        <time>2021-09-02T08:53:46.000Z</time>
      </trkpt>
      <trkpt lat="47.37539" lon="-2.41189">
        <ele>-13</ele>
        <time>2021-09-02T08:53:47.000Z</time>
      </trkpt>
      <trkpt lat="47.37537" lon="-2.4116">
        <ele>-13</ele>
        <time>2021-09-02T08:53:51.000Z</time>
      </trkpt>
      <trkpt lat="47.37533" lon="-2.41116">
        <ele>-13</ele>
        <time>2021-09-02T08:53:57.000Z</time>
      </trkpt>
      <trkpt lat="47.37529" lon="-2.41072">
        <ele>-13</ele>
        <time>2021-09-02T08:54:03.000Z</time>
      </trkpt>
      <trkpt lat="47.37527" lon="-2.4105">
        <ele>-12.60000038147</ele>
        <time>2021-09-02T08:54:06.000Z</time>
      </trkpt>
      <trkpt lat="47.37526" lon="-2.41044">
        <ele>-12.199999809265</ele>
        <time>2021-09-02T08:54:07.000Z</time>
      </trkpt>
      <trkpt lat="47.37525" lon="-2.41038">
        <ele>-11.800000190735</ele>
        <time>2021-09-02T08:54:08.000Z</time>
      </trkpt>
      <trkpt lat="47.37524" lon="-2.41031">
        <ele>-11.199999809265</ele>
        <time>2021-09-02T08:54:09.000Z</time>
      </trkpt>
      <trkpt lat="47.37524" lon="-2.41024">
        <ele>-10.800000190735</ele>
        <time>2021-09-02T08:54:10.000Z</time>
      </trkpt>
      <trkpt lat="47.37519" lon="-2.40983">
        <ele>-10.800000190735</ele>
        <time>2021-09-02T08:54:16.000Z</time>
      </trkpt>
      <trkpt lat="47.37514" lon="-2.40946">
        <ele>-10.800000190735</ele>
        <time>2021-09-02T08:54:22.000Z</time>
      </trkpt>
      <trkpt lat="47.3751" lon="-2.40905">
        <ele>-10.800000190735</ele>
        <time>2021-09-02T08:54:28.000Z</time>
      </trkpt>
      <trkpt lat="47.37504" lon="-2.40861">
        <ele>-10.800000190735</ele>
        <time>2021-09-02T08:54:35.000Z</time>
      </trkpt>
      <trkpt lat="47.37509" lon="-2.40847">
        <ele>-10.800000190735</ele>
        <time>2021-09-02T08:54:38.000Z</time>
      </trkpt>
      <trkpt lat="47.37524" lon="-2.4084">
        <ele>-10.800000190735</ele>
        <time>2021-09-02T08:54:42.000Z</time>
      </trkpt>
      <trkpt lat="47.37559" lon="-2.40831">
        <ele>-10.800000190735</ele>
        <time>2021-09-02T08:54:51.000Z</time>
      </trkpt>
      <trkpt lat="47.37595" lon="-2.40823">
        <ele>-10.800000190735</ele>
        <time>2021-09-02T08:54:59.000Z</time>
      </trkpt>
      <trkpt lat="47.3762" lon="-2.40818">
        <ele>-10.800000190735</ele>
        <time>2021-09-02T08:55:05.000Z</time>
      </trkpt>
      <trkpt lat="47.37625" lon="-2.40817">
        <ele>-10.800000190735</ele>
        <time>2021-09-02T08:55:06.000Z</time>
      </trkpt>
      <trkpt lat="47.37661" lon="-2.40811">
        <ele>-10.800000190735</ele>
        <time>2021-09-02T08:55:14.000Z</time>
      </trkpt>
      <trkpt lat="47.37704" lon="-2.40803">
        <ele>-10.800000190735</ele>
        <time>2021-09-02T08:55:23.000Z</time>
      </trkpt>
      <trkpt lat="47.37749" lon="-2.40794">
        <ele>-10.800000190735</ele>
        <time>2021-09-02T08:55:32.000Z</time>
      </trkpt>
      <trkpt lat="47.3777" lon="-2.4079">
        <ele>-11.199999809265</ele>
        <time>2021-09-02T08:55:36.000Z</time>
      </trkpt>
      <trkpt lat="47.37775" lon="-2.40789">
        <ele>-11.800000190735</ele>
        <time>2021-09-02T08:55:37.000Z</time>
      </trkpt>
      <trkpt lat="47.3778" lon="-2.40788">
        <ele>-12.199999809265</ele>
        <time>2021-09-02T08:55:38.000Z</time>
      </trkpt>
      <trkpt lat="47.37785" lon="-2.40787">
        <ele>-12.60000038147</ele>
        <time>2021-09-02T08:55:39.000Z</time>
      </trkpt>
      <trkpt lat="47.3779" lon="-2.40786">
        <ele>-13</ele>
        <time>2021-09-02T08:55:40.000Z</time>
      </trkpt>
      <trkpt lat="47.37833" lon="-2.40778">
        <ele>-13</ele>
        <time>2021-09-02T08:55:48.000Z</time>
      </trkpt>
      <trkpt lat="47.37838" lon="-2.40775">
        <ele>-13</ele>
        <time>2021-09-02T08:55:49.000Z</time>
      </trkpt>
      <trkpt lat="47.37846" lon="-2.40756">
        <ele>-13</ele>
        <time>2021-09-02T08:55:52.000Z</time>
      </trkpt>
      <trkpt lat="47.37848" lon="-2.40734">
        <ele>-13</ele>
        <time>2021-09-02T08:55:55.000Z</time>
      </trkpt>
      <trkpt lat="47.3785" lon="-2.4072">
        <ele>-13</ele>
        <time>2021-09-02T08:55:57.000Z</time>
      </trkpt>
      <trkpt lat="47.3786" lon="-2.40657">
        <ele>-13</ele>
        <time>2021-09-02T08:56:06.000Z</time>
      </trkpt>
      <trkpt lat="47.37867" lon="-2.40616">
        <ele>-12.60000038147</ele>
        <time>2021-09-02T08:56:12.000Z</time>
      </trkpt>
      <trkpt lat="47.37868" lon="-2.40609">
        <ele>-12.199999809265</ele>
        <time>2021-09-02T08:56:13.000Z</time>
      </trkpt>
      <trkpt lat="47.37869" lon="-2.40603">
        <ele>-11.800000190735</ele>
        <time>2021-09-02T08:56:14.000Z</time>
      </trkpt>
      <trkpt lat="47.3787" lon="-2.40595">
        <ele>-11.39999961853</ele>
        <time>2021-09-02T08:56:15.000Z</time>
      </trkpt>
      <trkpt lat="47.37872" lon="-2.40588">
        <ele>-11</ele>
        <time>2021-09-02T08:56:16.000Z</time>
      </trkpt>
      <trkpt lat="47.37879" lon="-2.40543">
        <ele>-11</ele>
        <time>2021-09-02T08:56:22.000Z</time>
      </trkpt>
      <trkpt lat="47.37891" lon="-2.40479">
        <ele>-11</ele>
        <time>2021-09-02T08:56:31.000Z</time>
      </trkpt>
      <trkpt lat="47.37902" lon="-2.40411">
        <ele>-11</ele>
        <time>2021-09-02T08:56:40.000Z</time>
      </trkpt>
      <trkpt lat="47.37914" lon="-2.40334">
        <ele>-11</ele>
        <time>2021-09-02T08:56:50.000Z</time>
      </trkpt>
      <trkpt lat="47.37928" lon="-2.40255">
        <ele>-11</ele>
        <time>2021-09-02T08:57:00.000Z</time>
      </trkpt>
      <trkpt lat="47.37938" lon="-2.40194">
        <ele>-11</ele>
        <time>2021-09-02T08:57:08.000Z</time>
      </trkpt>
      <trkpt lat="47.37951" lon="-2.4012">
        <ele>-11</ele>
        <time>2021-09-02T08:57:17.000Z</time>
      </trkpt>
      <trkpt lat="47.37959" lon="-2.4007">
        <ele>-11.39999961853</ele>
        <time>2021-09-02T08:57:23.000Z</time>
      </trkpt>
      <trkpt lat="47.3796" lon="-2.40062">
        <ele>-11.800000190735</ele>
        <time>2021-09-02T08:57:24.000Z</time>
      </trkpt>
      <trkpt lat="47.37961" lon="-2.40053">
        <ele>-12.199999809265</ele>
        <time>2021-09-02T08:57:25.000Z</time>
      </trkpt>
      <trkpt lat="47.37963" lon="-2.40044">
        <ele>-12.60000038147</ele>
        <time>2021-09-02T08:57:26.000Z</time>
      </trkpt>
      <trkpt lat="47.37964" lon="-2.40035">
        <ele>-13</ele>
        <time>2021-09-02T08:57:27.000Z</time>
      </trkpt>
      <trkpt lat="47.37969" lon="-2.4">
        <ele>-13</ele>
        <time>2021-09-02T08:57:31.000Z</time>
      </trkpt>
      <trkpt lat="47.37978" lon="-2.39954">
        <ele>-13</ele>
        <time>2021-09-02T08:57:37.000Z</time>
      </trkpt>
      <trkpt lat="47.3798" lon="-2.39948">
        <ele>-13</ele>
        <time>2021-09-02T08:57:38.000Z</time>
      </trkpt>
      <trkpt lat="47.37985" lon="-2.39935">
        <ele>-13.39999961853</ele>
        <time>2021-09-02T08:57:40.000Z</time>
      </trkpt>
      <trkpt lat="47.37988" lon="-2.39929">
        <ele>-13.800000190735</ele>
        <time>2021-09-02T08:57:41.000Z</time>
      </trkpt>
      <trkpt lat="47.37992" lon="-2.39922">
        <ele>-14.199999809265</ele>
        <time>2021-09-02T08:57:42.000Z</time>
      </trkpt>
      <trkpt lat="47.37996" lon="-2.39916">
        <ele>-14.60000038147</ele>
        <time>2021-09-02T08:57:43.000Z</time>
      </trkpt>
      <trkpt lat="47.38" lon="-2.39909">
        <ele>-15</ele>
        <time>2021-09-02T08:57:44.000Z</time>
      </trkpt>
      <trkpt lat="47.38013" lon="-2.39888">
        <ele>-15</ele>
        <time>2021-09-02T08:57:47.000Z</time>
      </trkpt>
      <trkpt lat="47.3804" lon="-2.39842">
        <ele>-15</ele>
        <time>2021-09-02T08:57:54.000Z</time>
      </trkpt>
      <trkpt lat="47.38062" lon="-2.39804">
        <ele>-15</ele>
        <time>2021-09-02T08:58:00.000Z</time>
      </trkpt>
      <trkpt lat="47.38074" lon="-2.39784">
        <ele>-15</ele>
        <time>2021-09-02T08:58:04.000Z</time>
      </trkpt>
      <trkpt lat="47.38099" lon="-2.39743">
        <ele>-15</ele>
        <time>2021-09-02T08:58:10.000Z</time>
      </trkpt>
      <trkpt lat="47.38136" lon="-2.39684">
        <ele>-15</ele>
        <time>2021-09-02T08:58:18.000Z</time>
      </trkpt>
      <trkpt lat="47.3816" lon="-2.39649">
        <ele>-15.39999961853</ele>
        <time>2021-09-02T08:58:23.000Z</time>
      </trkpt>
      <trkpt lat="47.38164" lon="-2.39642">
        <ele>-16</ele>
        <time>2021-09-02T08:58:24.000Z</time>
      </trkpt>
      <trkpt lat="47.38169" lon="-2.39634">
        <ele>-16.39999961853</ele>
        <time>2021-09-02T08:58:25.000Z</time>
      </trkpt>
      <trkpt lat="47.38175" lon="-2.39626">
        <ele>-17.200000762939</ele>
        <time>2021-09-02T08:58:26.000Z</time>
      </trkpt>
      <trkpt lat="47.38199" lon="-2.39586">
        <ele>-17.60000038147</ele>
        <time>2021-09-02T08:58:31.000Z</time>
      </trkpt>
      <trkpt lat="47.38204" lon="-2.39578">
        <ele>-18</ele>
        <time>2021-09-02T08:58:32.000Z</time>
      </trkpt>
      <trkpt lat="47.38208" lon="-2.3957">
        <ele>-18.39999961853</ele>
        <time>2021-09-02T08:58:33.000Z</time>
      </trkpt>
      <trkpt lat="47.38213" lon="-2.39562">
        <ele>-18.799999237061</ele>
        <time>2021-09-02T08:58:34.000Z</time>
      </trkpt>
      <trkpt lat="47.38218" lon="-2.39554">
        <ele>-19.200000762939</ele>
        <time>2021-09-02T08:58:35.000Z</time>
      </trkpt>
      <trkpt lat="47.38242" lon="-2.39518">
        <ele>-19.200000762939</ele>
        <time>2021-09-02T08:58:40.000Z</time>
      </trkpt>
      <trkpt lat="47.38278" lon="-2.39461">
        <ele>-19.200000762939</ele>
        <time>2021-09-02T08:58:48.000Z</time>
      </trkpt>
      <trkpt lat="47.38304" lon="-2.39418">
        <ele>-19.200000762939</ele>
        <time>2021-09-02T08:58:55.000Z</time>
      </trkpt>
      <trkpt lat="47.38311" lon="-2.39407">
        <ele>-19.200000762939</ele>
        <time>2021-09-02T08:58:57.000Z</time>
      </trkpt>
      <trkpt lat="47.38321" lon="-2.39391">
        <ele>-19.200000762939</ele>
        <time>2021-09-02T08:59:00.000Z</time>
      </trkpt>
      <trkpt lat="47.38333" lon="-2.39368">
        <ele>-18.799999237061</ele>
        <time>2021-09-02T08:59:04.000Z</time>
      </trkpt>
      <trkpt lat="47.38336" lon="-2.39362">
        <ele>-18.39999961853</ele>
        <time>2021-09-02T08:59:05.000Z</time>
      </trkpt>
      <trkpt lat="47.3834" lon="-2.39355">
        <ele>-18</ele>
        <time>2021-09-02T08:59:06.000Z</time>
      </trkpt>
      <trkpt lat="47.38343" lon="-2.3935">
        <ele>-17.60000038147</ele>
        <time>2021-09-02T08:59:07.000Z</time>
      </trkpt>
      <trkpt lat="47.38347" lon="-2.39344">
        <ele>-17.200000762939</ele>
        <time>2021-09-02T08:59:08.000Z</time>
      </trkpt>
      <trkpt lat="47.38366" lon="-2.39314">
        <ele>-16.60000038147</ele>
        <time>2021-09-02T08:59:13.000Z</time>
      </trkpt>
      <trkpt lat="47.38369" lon="-2.39308">
        <ele>-16.200000762939</ele>
        <time>2021-09-02T08:59:14.000Z</time>
      </trkpt>
      <trkpt lat="47.38372" lon="-2.39302">
        <ele>-15.800000190735</ele>
        <time>2021-09-02T08:59:15.000Z</time>
      </trkpt>
      <trkpt lat="47.38376" lon="-2.39297">
        <ele>-15</ele>
        <time>2021-09-02T08:59:16.000Z</time>
      </trkpt>
      <trkpt lat="47.3839" lon="-2.39273">
        <ele>-14.60000038147</ele>
        <time>2021-09-02T08:59:20.000Z</time>
      </trkpt>
      <trkpt lat="47.38394" lon="-2.39268">
        <ele>-14.199999809265</ele>
        <time>2021-09-02T08:59:21.000Z</time>
      </trkpt>
      <trkpt lat="47.38398" lon="-2.39262">
        <ele>-13.800000190735</ele>
        <time>2021-09-02T08:59:22.000Z</time>
      </trkpt>
      <trkpt lat="47.38401" lon="-2.39256">
        <ele>-13.39999961853</ele>
        <time>2021-09-02T08:59:23.000Z</time>
      </trkpt>
      <trkpt lat="47.38405" lon="-2.39251">
        <ele>-13</ele>
        <time>2021-09-02T08:59:24.000Z</time>
      </trkpt>
      <trkpt lat="47.38412" lon="-2.39239">
        <ele>-13</ele>
        <time>2021-09-02T08:59:26.000Z</time>
      </trkpt>
      <trkpt lat="47.38415" lon="-2.39234">
        <ele>-13</ele>
        <time>2021-09-02T08:59:27.000Z</time>
      </trkpt>
      <trkpt lat="47.38437" lon="-2.39199">
        <ele>-13</ele>
        <time>2021-09-02T08:59:32.000Z</time>
      </trkpt>
      <trkpt lat="47.38467" lon="-2.3915">
        <ele>-13</ele>
        <time>2021-09-02T08:59:39.000Z</time>
      </trkpt>
      <trkpt lat="47.38494" lon="-2.39107">
        <ele>-13</ele>
        <time>2021-09-02T08:59:46.000Z</time>
      </trkpt>
      <trkpt lat="47.38521" lon="-2.39062">
        <ele>-13</ele>
        <time>2021-09-02T08:59:53.000Z</time>
      </trkpt>
      <trkpt lat="47.38541" lon="-2.39029">
        <ele>-13</ele>
        <time>2021-09-02T08:59:58.000Z</time>
      </trkpt>
      <trkpt lat="47.38568" lon="-2.38988">
        <ele>-13</ele>
        <time>2021-09-02T09:00:04.000Z</time>
      </trkpt>
      <trkpt lat="47.38602" lon="-2.38936">
        <ele>-13</ele>
        <time>2021-09-02T09:00:12.000Z</time>
      </trkpt>
      <trkpt lat="47.38625" lon="-2.38897">
        <ele>-13</ele>
        <time>2021-09-02T09:00:18.000Z</time>
      </trkpt>
      <trkpt lat="47.38637" lon="-2.3888">
        <ele>-12.60000038147</ele>
        <time>2021-09-02T09:00:21.000Z</time>
      </trkpt>
      <trkpt lat="47.38641" lon="-2.38873">
        <ele>-12.199999809265</ele>
        <time>2021-09-02T09:00:22.000Z</time>
      </trkpt>
      <trkpt lat="47.38644" lon="-2.38866">
        <ele>-11.800000190735</ele>
        <time>2021-09-02T09:00:23.000Z</time>
      </trkpt>
      <trkpt lat="47.38649" lon="-2.38859">
        <ele>-11.39999961853</ele>
        <time>2021-09-02T09:00:24.000Z</time>
      </trkpt>
      <trkpt lat="47.38653" lon="-2.38852">
        <ele>-11</ele>
        <time>2021-09-02T09:00:25.000Z</time>
      </trkpt>
      <trkpt lat="47.38658" lon="-2.38845">
        <ele>-11</ele>
        <time>2021-09-02T09:00:26.000Z</time>
      </trkpt>
      <trkpt lat="47.38688" lon="-2.38796">
        <ele>-11</ele>
        <time>2021-09-02T09:00:33.000Z</time>
      </trkpt>
      <trkpt lat="47.3872" lon="-2.38744">
        <ele>-11</ele>
        <time>2021-09-02T09:00:41.000Z</time>
      </trkpt>
      <trkpt lat="47.38748" lon="-2.38699">
        <ele>-11</ele>
        <time>2021-09-02T09:00:48.000Z</time>
      </trkpt>
      <trkpt lat="47.38775" lon="-2.38654">
        <ele>-11</ele>
        <time>2021-09-02T09:00:55.000Z</time>
      </trkpt>
      <trkpt lat="47.38779" lon="-2.38648">
        <ele>-11</ele>
        <time>2021-09-02T09:00:56.000Z</time>
      </trkpt>
      <trkpt lat="47.38801" lon="-2.38628">
        <ele>-11</ele>
        <time>2021-09-02T09:01:00.000Z</time>
      </trkpt>
      <trkpt lat="47.38837" lon="-2.38611">
        <ele>-11</ele>
        <time>2021-09-02T09:01:06.000Z</time>
      </trkpt>
      <trkpt lat="47.38883" lon="-2.38589">
        <ele>-11</ele>
        <time>2021-09-02T09:01:13.000Z</time>
      </trkpt>
      <trkpt lat="47.38938" lon="-2.38562">
        <ele>-11.39999961853</ele>
        <time>2021-09-02T09:01:22.000Z</time>
      </trkpt>
      <trkpt lat="47.38944" lon="-2.38559">
        <ele>-11.800000190735</ele>
        <time>2021-09-02T09:01:23.000Z</time>
      </trkpt>
      <trkpt lat="47.38951" lon="-2.38556">
        <ele>-12.199999809265</ele>
        <time>2021-09-02T09:01:24.000Z</time>
      </trkpt>
      <trkpt lat="47.38957" lon="-2.38553">
        <ele>-12.60000038147</ele>
        <time>2021-09-02T09:01:25.000Z</time>
      </trkpt>
      <trkpt lat="47.38963" lon="-2.38551">
        <ele>-13.199999809265</ele>
        <time>2021-09-02T09:01:26.000Z</time>
      </trkpt>
      <trkpt lat="47.38982" lon="-2.38542">
        <ele>-13.199999809265</ele>
        <time>2021-09-02T09:01:29.000Z</time>
      </trkpt>
      <trkpt lat="47.39024" lon="-2.3852">
        <ele>-13.199999809265</ele>
        <time>2021-09-02T09:01:36.000Z</time>
      </trkpt>
      <trkpt lat="47.39042" lon="-2.38512">
        <ele>-13.60000038147</ele>
        <time>2021-09-02T09:01:39.000Z</time>
      </trkpt>
      <trkpt lat="47.39047" lon="-2.38509">
        <ele>-14</ele>
        <time>2021-09-02T09:01:40.000Z</time>
      </trkpt>
      <trkpt lat="47.39052" lon="-2.38506">
        <ele>-14.39999961853</ele>
        <time>2021-09-02T09:01:41.000Z</time>
      </trkpt>
      <trkpt lat="47.39057" lon="-2.38504">
        <ele>-14.800000190735</ele>
        <time>2021-09-02T09:01:42.000Z</time>
      </trkpt>
      <trkpt lat="47.39062" lon="-2.38502">
        <ele>-15.199999809265</ele>
        <time>2021-09-02T09:01:43.000Z</time>
      </trkpt>
      <trkpt lat="47.39084" lon="-2.38488">
        <ele>-15.199999809265</ele>
        <time>2021-09-02T09:01:48.000Z</time>
      </trkpt>
      <trkpt lat="47.39089" lon="-2.38473">
        <ele>-15.199999809265</ele>
        <time>2021-09-02T09:01:51.000Z</time>
      </trkpt>
      <trkpt lat="47.39085" lon="-2.38455">
        <ele>-15.199999809265</ele>
        <time>2021-09-02T09:01:54.000Z</time>
      </trkpt>
      <trkpt lat="47.39082" lon="-2.38443">
        <ele>-15.199999809265</ele>
        <time>2021-09-02T09:01:56.000Z</time>
      </trkpt>
      <trkpt lat="47.39078" lon="-2.38417">
        <ele>-15.199999809265</ele>
        <time>2021-09-02T09:02:00.000Z</time>
      </trkpt>
      <trkpt lat="47.39076" lon="-2.38411">
        <ele>-15.199999809265</ele>
        <time>2021-09-02T09:02:01.000Z</time>
      </trkpt>
      <trkpt lat="47.39073" lon="-2.38392">
        <ele>-15.199999809265</ele>
        <time>2021-09-02T09:02:04.000Z</time>
      </trkpt>
      <trkpt lat="47.39071" lon="-2.3838">
        <ele>-14.800000190735</ele>
        <time>2021-09-02T09:02:06.000Z</time>
      </trkpt>
      <trkpt lat="47.3907" lon="-2.38374">
        <ele>-14.39999961853</ele>
        <time>2021-09-02T09:02:07.000Z</time>
      </trkpt>
      <trkpt lat="47.39068" lon="-2.38367">
        <ele>-14</ele>
        <time>2021-09-02T09:02:08.000Z</time>
      </trkpt>
      <trkpt lat="47.39067" lon="-2.3836">
        <ele>-13.39999961853</ele>
        <time>2021-09-02T09:02:09.000Z</time>
      </trkpt>
      <trkpt lat="47.39066" lon="-2.38353">
        <ele>-13</ele>
        <time>2021-09-02T09:02:10.000Z</time>
      </trkpt>
      <trkpt lat="47.3906" lon="-2.38301">
        <ele>-13</ele>
        <time>2021-09-02T09:02:17.000Z</time>
      </trkpt>
      <trkpt lat="47.39055" lon="-2.38248">
        <ele>-13</ele>
        <time>2021-09-02T09:02:24.000Z</time>
      </trkpt>
      <trkpt lat="47.39052" lon="-2.38201">
        <ele>-13</ele>
        <time>2021-09-02T09:02:30.000Z</time>
      </trkpt>
      <trkpt lat="47.39051" lon="-2.38183">
        <ele>-12.60000038147</ele>
        <time>2021-09-02T09:02:32.000Z</time>
      </trkpt>
      <trkpt lat="47.3905" lon="-2.38175">
        <ele>-12.199999809265</ele>
        <time>2021-09-02T09:02:33.000Z</time>
      </trkpt>
      <trkpt lat="47.3905" lon="-2.38167">
        <ele>-11.800000190735</ele>
        <time>2021-09-02T09:02:34.000Z</time>
      </trkpt>
      <trkpt lat="47.39049" lon="-2.38159">
        <ele>-11.39999961853</ele>
        <time>2021-09-02T09:02:35.000Z</time>
      </trkpt>
      <trkpt lat="47.39049" lon="-2.3815">
        <ele>-11</ele>
        <time>2021-09-02T09:02:36.000Z</time>
      </trkpt>
      <trkpt lat="47.39049" lon="-2.38134">
        <ele>-11</ele>
        <time>2021-09-02T09:02:38.000Z</time>
      </trkpt>
      <trkpt lat="47.39046" lon="-2.38079">
        <ele>-11</ele>
        <time>2021-09-02T09:02:45.000Z</time>
      </trkpt>
      <trkpt lat="47.39042" lon="-2.3802">
        <ele>-11</ele>
        <time>2021-09-02T09:02:52.000Z</time>
      </trkpt>
      <trkpt lat="47.39038" lon="-2.37937">
        <ele>-11</ele>
        <time>2021-09-02T09:03:02.000Z</time>
      </trkpt>
      <trkpt lat="47.3903" lon="-2.37866">
        <ele>-11</ele>
        <time>2021-09-02T09:03:10.000Z</time>
      </trkpt>
      <trkpt lat="47.39027" lon="-2.37841">
        <ele>-10.60000038147</ele>
        <time>2021-09-02T09:03:13.000Z</time>
      </trkpt>
      <trkpt lat="47.39026" lon="-2.37832">
        <ele>-10</ele>
        <time>2021-09-02T09:03:14.000Z</time>
      </trkpt>
      <trkpt lat="47.39026" lon="-2.37824">
        <ele>-9.6000003814697</ele>
        <time>2021-09-02T09:03:15.000Z</time>
      </trkpt>
      <trkpt lat="47.39025" lon="-2.37815">
        <ele>-9.1999998092651</ele>
        <time>2021-09-02T09:03:16.000Z</time>
      </trkpt>
      <trkpt lat="47.39024" lon="-2.37807">
        <ele>-8.8000001907349</ele>
        <time>2021-09-02T09:03:17.000Z</time>
      </trkpt>
      <trkpt lat="47.39018" lon="-2.37737">
        <ele>-8.8000001907349</ele>
        <time>2021-09-02T09:03:25.000Z</time>
      </trkpt>
      <trkpt lat="47.39013" lon="-2.37668">
        <ele>-8.8000001907349</ele>
        <time>2021-09-02T09:03:33.000Z</time>
      </trkpt>
      <trkpt lat="47.39006" lon="-2.37586">
        <ele>-8.8000001907349</ele>
        <time>2021-09-02T09:03:42.000Z</time>
      </trkpt>
      <trkpt lat="47.39002" lon="-2.37524">
        <ele>-8.8000001907349</ele>
        <time>2021-09-02T09:03:49.000Z</time>
      </trkpt>
      <trkpt lat="47.38995" lon="-2.37445">
        <ele>-8.8000001907349</ele>
        <time>2021-09-02T09:03:58.000Z</time>
      </trkpt>
      <trkpt lat="47.38991" lon="-2.3737">
        <ele>-8.8000001907349</ele>
        <time>2021-09-02T09:04:07.000Z</time>
      </trkpt>
      <trkpt lat="47.38989" lon="-2.37325">
        <ele>-8.8000001907349</ele>
        <time>2021-09-02T09:04:14.000Z</time>
      </trkpt>
      <trkpt lat="47.38988" lon="-2.37313">
        <ele>-8.8000001907349</ele>
        <time>2021-09-02T09:04:18.000Z</time>
      </trkpt>
      <trkpt lat="47.38988" lon="-2.37314">
        <ele>-8.8000001907349</ele>
        <time>2021-09-02T09:04:19.000Z</time>
      </trkpt>
      <trkpt lat="47.38986" lon="-2.37312">
        <ele>-8.8000001907349</ele>
        <time>2021-09-02T09:04:38.000Z</time>
      </trkpt>
      <trkpt lat="47.38985" lon="-2.37309">
        <ele>-8.8000001907349</ele>
        <time>2021-09-02T09:04:39.000Z</time>
      </trkpt>
      <trkpt lat="47.38985" lon="-2.37308">
        <ele>-8.8000001907349</ele>
        <time>2021-09-02T09:04:41.000Z</time>
      </trkpt>
      <trkpt lat="47.38984" lon="-2.37303">
        <ele>-8.8000001907349</ele>
        <time>2021-09-02T09:04:48.000Z</time>
      </trkpt>
      <trkpt lat="47.38983" lon="-2.37299">
        <ele>-8.8000001907349</ele>
        <time>2021-09-02T09:04:49.000Z</time>
      </trkpt>
      <trkpt lat="47.38986" lon="-2.37282">
        <ele>-8.8000001907349</ele>
        <time>2021-09-02T09:04:52.000Z</time>
      </trkpt>
      <trkpt lat="47.3899" lon="-2.37244">
        <ele>-8.8000001907349</ele>
        <time>2021-09-02T09:04:57.000Z</time>
      </trkpt>
      <trkpt lat="47.38998" lon="-2.37183">
        <ele>-8.8000001907349</ele>
        <time>2021-09-02T09:05:05.000Z</time>
      </trkpt>
      <trkpt lat="47.39006" lon="-2.37122">
        <ele>-8.8000001907349</ele>
        <time>2021-09-02T09:05:13.000Z</time>
      </trkpt>
      <trkpt lat="47.39013" lon="-2.37069">
        <ele>-8.8000001907349</ele>
        <time>2021-09-02T09:05:20.000Z</time>
      </trkpt>
      <trkpt lat="47.39022" lon="-2.37003">
        <ele>-8.8000001907349</ele>
        <time>2021-09-02T09:05:29.000Z</time>
      </trkpt>
      <trkpt lat="47.39025" lon="-2.36981">
        <ele>-9.1999998092651</ele>
        <time>2021-09-02T09:05:33.000Z</time>
      </trkpt>
      <trkpt lat="47.39025" lon="-2.36978">
        <ele>-9.6000003814697</ele>
        <time>2021-09-02T09:05:34.000Z</time>
      </trkpt>
      <trkpt lat="47.39024" lon="-2.36975">
        <ele>-10.199999809265</ele>
        <time>2021-09-02T09:05:35.000Z</time>
      </trkpt>
      <trkpt lat="47.39024" lon="-2.36973">
        <ele>-11</ele>
        <time>2021-09-02T09:05:36.000Z</time>
      </trkpt>
      <trkpt lat="47.39023" lon="-2.36969">
        <ele>-11</ele>
        <time>2021-09-02T09:05:38.000Z</time>
      </trkpt>
      <trkpt lat="47.39022" lon="-2.36969">
        <ele>-11</ele>
        <time>2021-09-02T09:05:40.000Z</time>
      </trkpt>
      <trkpt lat="47.3902" lon="-2.36968">
        <ele>-11</ele>
        <time>2021-09-02T09:05:51.000Z</time>
      </trkpt>
      <trkpt lat="47.39013" lon="-2.36969">
        <ele>-11</ele>
        <time>2021-09-02T09:05:54.000Z</time>
      </trkpt>
      <trkpt lat="47.38997" lon="-2.3698">
        <ele>-11</ele>
        <time>2021-09-02T09:05:59.000Z</time>
      </trkpt>
      <trkpt lat="47.38962" lon="-2.37003">
        <ele>-11</ele>
        <time>2021-09-02T09:06:08.000Z</time>
      </trkpt>
      <trkpt lat="47.38949" lon="-2.37011">
        <ele>-11</ele>
        <time>2021-09-02T09:06:11.000Z</time>
      </trkpt>
      <trkpt lat="47.38931" lon="-2.37021">
        <ele>-11</ele>
        <time>2021-09-02T09:06:15.000Z</time>
      </trkpt>
      <trkpt lat="47.3892" lon="-2.37023">
        <ele>-11</ele>
        <time>2021-09-02T09:06:17.000Z</time>
      </trkpt>
      <trkpt lat="47.38913" lon="-2.37014">
        <ele>-11</ele>
        <time>2021-09-02T09:06:19.000Z</time>
      </trkpt>
      <trkpt lat="47.38911" lon="-2.36988">
        <ele>-11</ele>
        <time>2021-09-02T09:06:22.000Z</time>
      </trkpt>
      <trkpt lat="47.38909" lon="-2.3698">
        <ele>-11.39999961853</ele>
        <time>2021-09-02T09:06:23.000Z</time>
      </trkpt>
      <trkpt lat="47.38908" lon="-2.36972">
        <ele>-11.800000190735</ele>
        <time>2021-09-02T09:06:24.000Z</time>
      </trkpt>
      <trkpt lat="47.38908" lon="-2.36963">
        <ele>-12.199999809265</ele>
        <time>2021-09-02T09:06:25.000Z</time>
      </trkpt>
      <trkpt lat="47.38907" lon="-2.36954">
        <ele>-13.199999809265</ele>
        <time>2021-09-02T09:06:26.000Z</time>
      </trkpt>
      <trkpt lat="47.38905" lon="-2.36935">
        <ele>-13.199999809265</ele>
        <time>2021-09-02T09:06:28.000Z</time>
      </trkpt>
      <trkpt lat="47.38901" lon="-2.36887">
        <ele>-13.199999809265</ele>
        <time>2021-09-02T09:06:33.000Z</time>
      </trkpt>
      <trkpt lat="47.38899" lon="-2.36871">
        <ele>-13.199999809265</ele>
        <time>2021-09-02T09:06:35.000Z</time>
      </trkpt>
      <trkpt lat="47.38896" lon="-2.36866">
        <ele>-13.60000038147</ele>
        <time>2021-09-02T09:06:36.000Z</time>
      </trkpt>
      <trkpt lat="47.38893" lon="-2.36862">
        <ele>-14</ele>
        <time>2021-09-02T09:06:37.000Z</time>
      </trkpt>
      <trkpt lat="47.38889" lon="-2.3686">
        <ele>-14.60000038147</ele>
        <time>2021-09-02T09:06:38.000Z</time>
      </trkpt>
      <trkpt lat="47.38884" lon="-2.3686">
        <ele>-15</ele>
        <time>2021-09-02T09:06:39.000Z</time>
      </trkpt>
      <trkpt lat="47.38879" lon="-2.36862">
        <ele>-15.60000038147</ele>
        <time>2021-09-02T09:06:40.000Z</time>
      </trkpt>
      <trkpt lat="47.38874" lon="-2.36864">
        <ele>-15.60000038147</ele>
        <time>2021-09-02T09:06:41.000Z</time>
      </trkpt>
      <trkpt lat="47.38864" lon="-2.36869">
        <ele>-15.60000038147</ele>
        <time>2021-09-02T09:06:43.000Z</time>
      </trkpt>
      <trkpt lat="47.38844" lon="-2.36881">
        <ele>-15.60000038147</ele>
        <time>2021-09-02T09:06:47.000Z</time>
      </trkpt>
      <trkpt lat="47.3884" lon="-2.36885">
        <ele>-15.60000038147</ele>
        <time>2021-09-02T09:06:48.000Z</time>
      </trkpt>
      <trkpt lat="47.38831" lon="-2.36895">
        <ele>-15.60000038147</ele>
        <time>2021-09-02T09:06:50.000Z</time>
      </trkpt>
      <trkpt lat="47.38823" lon="-2.36905">
        <ele>-15.60000038147</ele>
        <time>2021-09-02T09:06:52.000Z</time>
      </trkpt>
      <trkpt lat="47.3881" lon="-2.36921">
        <ele>-16</ele>
        <time>2021-09-02T09:06:55.000Z</time>
      </trkpt>
      <trkpt lat="47.38805" lon="-2.36926">
        <ele>-16.39999961853</ele>
        <time>2021-09-02T09:06:56.000Z</time>
      </trkpt>
      <trkpt lat="47.38801" lon="-2.36932">
        <ele>-16.799999237061</ele>
        <time>2021-09-02T09:06:57.000Z</time>
      </trkpt>
      <trkpt lat="47.38796" lon="-2.36937">
        <ele>-17.200000762939</ele>
        <time>2021-09-02T09:06:58.000Z</time>
      </trkpt>
      <trkpt lat="47.38792" lon="-2.36944">
        <ele>-17.60000038147</ele>
        <time>2021-09-02T09:06:59.000Z</time>
      </trkpt>
      <trkpt lat="47.38762" lon="-2.36978">
        <ele>-17.60000038147</ele>
        <time>2021-09-02T09:07:05.000Z</time>
      </trkpt>
      <trkpt lat="47.3873" lon="-2.37016">
        <ele>-17.60000038147</ele>
        <time>2021-09-02T09:07:11.000Z</time>
      </trkpt>
      <trkpt lat="47.38724" lon="-2.37023">
        <ele>-17.60000038147</ele>
        <time>2021-09-02T09:07:12.000Z</time>
      </trkpt>
      <trkpt lat="47.38687" lon="-2.37065">
        <ele>-17.60000038147</ele>
        <time>2021-09-02T09:07:19.000Z</time>
      </trkpt>
      <trkpt lat="47.38653" lon="-2.37101">
        <ele>-17.60000038147</ele>
        <time>2021-09-02T09:07:26.000Z</time>
      </trkpt>
      <trkpt lat="47.38627" lon="-2.3713">
        <ele>-17.200000762939</ele>
        <time>2021-09-02T09:07:32.000Z</time>
      </trkpt>
      <trkpt lat="47.38623" lon="-2.37134">
        <ele>-16.799999237061</ele>
        <time>2021-09-02T09:07:33.000Z</time>
      </trkpt>
      <trkpt lat="47.38619" lon="-2.37138">
        <ele>-16.39999961853</ele>
        <time>2021-09-02T09:07:34.000Z</time>
      </trkpt>
      <trkpt lat="47.38614" lon="-2.37142">
        <ele>-15.800000190735</ele>
        <time>2021-09-02T09:07:35.000Z</time>
      </trkpt>
      <trkpt lat="47.38609" lon="-2.37145">
        <ele>-15.39999961853</ele>
        <time>2021-09-02T09:07:36.000Z</time>
      </trkpt>
      <trkpt lat="47.38595" lon="-2.37155">
        <ele>-15.39999961853</ele>
        <time>2021-09-02T09:07:39.000Z</time>
      </trkpt>
      <trkpt lat="47.38556" lon="-2.37185">
        <ele>-15.39999961853</ele>
        <time>2021-09-02T09:07:47.000Z</time>
      </trkpt>
      <trkpt lat="47.3852" lon="-2.37221">
        <ele>-15.39999961853</ele>
        <time>2021-09-02T09:07:54.000Z</time>
      </trkpt>
      <trkpt lat="47.38502" lon="-2.37239">
        <ele>-15.800000190735</ele>
        <time>2021-09-02T09:07:57.000Z</time>
      </trkpt>
      <trkpt lat="47.38496" lon="-2.37245">
        <ele>-16.200000762939</ele>
        <time>2021-09-02T09:07:58.000Z</time>
      </trkpt>
      <trkpt lat="47.3849" lon="-2.37251">
        <ele>-16.60000038147</ele>
        <time>2021-09-02T09:07:59.000Z</time>
      </trkpt>
      <trkpt lat="47.38484" lon="-2.37257">
        <ele>-17</ele>
        <time>2021-09-02T09:08:00.000Z</time>
      </trkpt>
      <trkpt lat="47.38478" lon="-2.37263">
        <ele>-17.39999961853</ele>
        <time>2021-09-02T09:08:01.000Z</time>
      </trkpt>
      <trkpt lat="47.38465" lon="-2.37274">
        <ele>-18</ele>
        <time>2021-09-02T09:08:03.000Z</time>
      </trkpt>
      <trkpt lat="47.38458" lon="-2.37279">
        <ele>-18.39999961853</ele>
        <time>2021-09-02T09:08:04.000Z</time>
      </trkpt>
      <trkpt lat="47.38452" lon="-2.37283">
        <ele>-18.799999237061</ele>
        <time>2021-09-02T09:08:05.000Z</time>
      </trkpt>
      <trkpt lat="47.38444" lon="-2.37287">
        <ele>-19.39999961853</ele>
        <time>2021-09-02T09:08:06.000Z</time>
      </trkpt>
      <trkpt lat="47.38436" lon="-2.37289">
        <ele>-19.799999237061</ele>
        <time>2021-09-02T09:08:07.000Z</time>
      </trkpt>
      <trkpt lat="47.38422" lon="-2.37292">
        <ele>-20.200000762939</ele>
        <time>2021-09-02T09:08:09.000Z</time>
      </trkpt>
      <trkpt lat="47.38416" lon="-2.37293">
        <ele>-20.799999237061</ele>
        <time>2021-09-02T09:08:10.000Z</time>
      </trkpt>
      <trkpt lat="47.38411" lon="-2.37293">
        <ele>-21.200000762939</ele>
        <time>2021-09-02T09:08:11.000Z</time>
      </trkpt>
      <trkpt lat="47.38407" lon="-2.37293">
        <ele>-21.799999237061</ele>
        <time>2021-09-02T09:08:12.000Z</time>
      </trkpt>
      <trkpt lat="47.38404" lon="-2.37294">
        <ele>-22.39999961853</ele>
        <time>2021-09-02T09:08:13.000Z</time>
      </trkpt>
      <trkpt lat="47.38401" lon="-2.37295">
        <ele>-23</ele>
        <time>2021-09-02T09:08:14.000Z</time>
      </trkpt>
      <trkpt lat="47.38398" lon="-2.37297">
        <ele>-23.60000038147</ele>
        <time>2021-09-02T09:08:15.000Z</time>
      </trkpt>
      <trkpt lat="47.38395" lon="-2.37299">
        <ele>-24.200000762939</ele>
        <time>2021-09-02T09:08:16.000Z</time>
      </trkpt>
      <trkpt lat="47.38391" lon="-2.37301">
        <ele>-24.799999237061</ele>
        <time>2021-09-02T09:08:17.000Z</time>
      </trkpt>
      <trkpt lat="47.38383" lon="-2.37301">
        <ele>-24.799999237061</ele>
        <time>2021-09-02T09:08:19.000Z</time>
      </trkpt>
      <trkpt lat="47.38365" lon="-2.37294">
        <ele>-24.799999237061</ele>
        <time>2021-09-02T09:08:25.000Z</time>
      </trkpt>
      <trkpt lat="47.38354" lon="-2.3729">
        <ele>-24.799999237061</ele>
        <time>2021-09-02T09:08:30.000Z</time>
      </trkpt>
      <trkpt lat="47.3835" lon="-2.37287">
        <ele>-24.799999237061</ele>
        <time>2021-09-02T09:08:33.000Z</time>
      </trkpt>
      <trkpt lat="47.38344" lon="-2.37287">
        <ele>-24.799999237061</ele>
        <time>2021-09-02T09:08:36.000Z</time>
      </trkpt>
      <trkpt lat="47.3833" lon="-2.3728">
        <ele>-24.799999237061</ele>
        <time>2021-09-02T09:08:42.000Z</time>
      </trkpt>
      <trkpt lat="47.38327" lon="-2.3727">
        <ele>-24.799999237061</ele>
        <time>2021-09-02T09:08:45.000Z</time>
      </trkpt>
      <trkpt lat="47.3832" lon="-2.3726">
        <ele>-24.799999237061</ele>
        <time>2021-09-02T09:08:48.000Z</time>
      </trkpt>
      <trkpt lat="47.3832" lon="-2.37258">
        <ele>-24.799999237061</ele>
        <time>2021-09-02T09:08:49.000Z</time>
      </trkpt>
      <trkpt lat="47.38305" lon="-2.3724">
        <ele>-24.799999237061</ele>
        <time>2021-09-02T09:08:55.000Z</time>
      </trkpt>
      <trkpt lat="47.38299" lon="-2.3723">
        <ele>-24.799999237061</ele>
        <time>2021-09-02T09:09:01.000Z</time>
      </trkpt>
      <trkpt lat="47.38285" lon="-2.37224">
        <ele>-24.799999237061</ele>
        <time>2021-09-02T09:09:24.000Z</time>
      </trkpt>
      <trkpt lat="47.38279" lon="-2.37225">
        <ele>-24.799999237061</ele>
        <time>2021-09-02T09:09:27.000Z</time>
      </trkpt>
      <trkpt lat="47.38261" lon="-2.37223">
        <ele>-24.799999237061</ele>
        <time>2021-09-02T09:09:31.000Z</time>
      </trkpt>
      <trkpt lat="47.38248" lon="-2.37215">
        <ele>-24.799999237061</ele>
        <time>2021-09-02T09:09:36.000Z</time>
      </trkpt>
      <trkpt lat="47.38236" lon="-2.37192">
        <ele>-24.799999237061</ele>
        <time>2021-09-02T09:09:42.000Z</time>
      </trkpt>
      <trkpt lat="47.38213" lon="-2.37147">
        <ele>-24.799999237061</ele>
        <time>2021-09-02T09:09:51.000Z</time>
      </trkpt>
      <trkpt lat="47.38206" lon="-2.37136">
        <ele>-24.39999961853</ele>
        <time>2021-09-02T09:09:53.000Z</time>
      </trkpt>
      <trkpt lat="47.38202" lon="-2.37131">
        <ele>-24</ele>
        <time>2021-09-02T09:09:54.000Z</time>
      </trkpt>
      <trkpt lat="47.382" lon="-2.37126">
        <ele>-23.60000038147</ele>
        <time>2021-09-02T09:09:55.000Z</time>
      </trkpt>
      <trkpt lat="47.38198" lon="-2.37122">
        <ele>-23.200000762939</ele>
        <time>2021-09-02T09:09:56.000Z</time>
      </trkpt>
      <trkpt lat="47.38195" lon="-2.37116">
        <ele>-22.60000038147</ele>
        <time>2021-09-02T09:09:57.000Z</time>
      </trkpt>
      <trkpt lat="47.38185" lon="-2.37096">
        <ele>-22.60000038147</ele>
        <time>2021-09-02T09:10:00.000Z</time>
      </trkpt>
      <trkpt lat="47.38179" lon="-2.37081">
        <ele>-22.200000762939</ele>
        <time>2021-09-02T09:10:03.000Z</time>
      </trkpt>
      <trkpt lat="47.38176" lon="-2.37076">
        <ele>-21.799999237061</ele>
        <time>2021-09-02T09:10:04.000Z</time>
      </trkpt>
      <trkpt lat="47.38174" lon="-2.3707">
        <ele>-21.39999961853</ele>
        <time>2021-09-02T09:10:05.000Z</time>
      </trkpt>
      <trkpt lat="47.38172" lon="-2.37066">
        <ele>-20.60000038147</ele>
        <time>2021-09-02T09:10:06.000Z</time>
      </trkpt>
      <trkpt lat="47.3817" lon="-2.37061">
        <ele>-20.60000038147</ele>
        <time>2021-09-02T09:10:07.000Z</time>
      </trkpt>
      <trkpt lat="47.38157" lon="-2.37033">
        <ele>-20.60000038147</ele>
        <time>2021-09-02T09:10:13.000Z</time>
      </trkpt>
      <trkpt lat="47.38143" lon="-2.37">
        <ele>-20.200000762939</ele>
        <time>2021-09-02T09:10:19.000Z</time>
      </trkpt>
      <trkpt lat="47.38141" lon="-2.36995">
        <ele>-19.60000038147</ele>
        <time>2021-09-02T09:10:20.000Z</time>
      </trkpt>
      <trkpt lat="47.38139" lon="-2.3699">
        <ele>-19.200000762939</ele>
        <time>2021-09-02T09:10:21.000Z</time>
      </trkpt>
      <trkpt lat="47.38138" lon="-2.36985">
        <ele>-18.799999237061</ele>
        <time>2021-09-02T09:10:22.000Z</time>
      </trkpt>
      <trkpt lat="47.38136" lon="-2.36981">
        <ele>-18.39999961853</ele>
        <time>2021-09-02T09:10:23.000Z</time>
      </trkpt>
      <trkpt lat="47.3813" lon="-2.36969">
        <ele>-18.39999961853</ele>
        <time>2021-09-02T09:10:26.000Z</time>
      </trkpt>
      <trkpt lat="47.38119" lon="-2.36937">
        <ele>-18.39999961853</ele>
        <time>2021-09-02T09:10:32.000Z</time>
      </trkpt>
      <trkpt lat="47.38111" lon="-2.36909">
        <ele>-18.39999961853</ele>
        <time>2021-09-02T09:10:37.000Z</time>
      </trkpt>
      <trkpt lat="47.38118" lon="-2.36901">
        <ele>-18.39999961853</ele>
        <time>2021-09-02T09:10:40.000Z</time>
      </trkpt>
      <trkpt lat="47.38128" lon="-2.36896">
        <ele>-18.39999961853</ele>
        <time>2021-09-02T09:10:42.000Z</time>
      </trkpt>
      <trkpt lat="47.38147" lon="-2.36884">
        <ele>-18.39999961853</ele>
        <time>2021-09-02T09:10:46.000Z</time>
      </trkpt>
      <trkpt lat="47.38151" lon="-2.36881">
        <ele>-18.799999237061</ele>
        <time>2021-09-02T09:10:47.000Z</time>
      </trkpt>
      <trkpt lat="47.38156" lon="-2.36878">
        <ele>-19.200000762939</ele>
        <time>2021-09-02T09:10:48.000Z</time>
      </trkpt>
      <trkpt lat="47.38161" lon="-2.36875">
        <ele>-19.60000038147</ele>
        <time>2021-09-02T09:10:49.000Z</time>
      </trkpt>
      <trkpt lat="47.38165" lon="-2.36872">
        <ele>-20</ele>
        <time>2021-09-02T09:10:50.000Z</time>
      </trkpt>
      <trkpt lat="47.3817" lon="-2.36869">
        <ele>-20.39999961853</ele>
        <time>2021-09-02T09:10:51.000Z</time>
      </trkpt>
      <trkpt lat="47.38184" lon="-2.3686">
        <ele>-20.39999961853</ele>
        <time>2021-09-02T09:10:54.000Z</time>
      </trkpt>
      <trkpt lat="47.3822" lon="-2.36839">
        <ele>-21</ele>
        <time>2021-09-02T09:11:00.000Z</time>
      </trkpt>
      <trkpt lat="47.38226" lon="-2.36835">
        <ele>-21.39999961853</ele>
        <time>2021-09-02T09:11:01.000Z</time>
      </trkpt>
      <trkpt lat="47.38232" lon="-2.36832">
        <ele>-21.799999237061</ele>
        <time>2021-09-02T09:11:02.000Z</time>
      </trkpt>
      <trkpt lat="47.38237" lon="-2.36828">
        <ele>-22.39999961853</ele>
        <time>2021-09-02T09:11:03.000Z</time>
      </trkpt>
      <trkpt lat="47.38243" lon="-2.36825">
        <ele>-22.799999237061</ele>
        <time>2021-09-02T09:11:04.000Z</time>
      </trkpt>
      <trkpt lat="47.38267" lon="-2.36809">
        <ele>-22.799999237061</ele>
        <time>2021-09-02T09:11:08.000Z</time>
      </trkpt>
      <trkpt lat="47.38285" lon="-2.36801">
        <ele>-22.799999237061</ele>
        <time>2021-09-02T09:11:11.000Z</time>
      </trkpt>
      <trkpt lat="47.38297" lon="-2.368">
        <ele>-22.799999237061</ele>
        <time>2021-09-02T09:11:13.000Z</time>
      </trkpt>
      <trkpt lat="47.38327" lon="-2.36793">
        <ele>-22.799999237061</ele>
        <time>2021-09-02T09:11:18.000Z</time>
      </trkpt>
      <trkpt lat="47.38344" lon="-2.36785">
        <ele>-22.799999237061</ele>
        <time>2021-09-02T09:11:21.000Z</time>
      </trkpt>
      <trkpt lat="47.38354" lon="-2.36774">
        <ele>-22.799999237061</ele>
        <time>2021-09-02T09:11:23.000Z</time>
      </trkpt>
      <trkpt lat="47.38368" lon="-2.36743">
        <ele>-22.799999237061</ele>
        <time>2021-09-02T09:11:27.000Z</time>
      </trkpt>
      <trkpt lat="47.38379" lon="-2.36705">
        <ele>-22.799999237061</ele>
        <time>2021-09-02T09:11:32.000Z</time>
      </trkpt>
      <trkpt lat="47.38385" lon="-2.36682">
        <ele>-22.799999237061</ele>
        <time>2021-09-02T09:11:35.000Z</time>
      </trkpt>
      <trkpt lat="47.38389" lon="-2.36666">
        <ele>-22.799999237061</ele>
        <time>2021-09-02T09:11:37.000Z</time>
      </trkpt>
      <trkpt lat="47.38398" lon="-2.3664">
        <ele>-22.799999237061</ele>
        <time>2021-09-02T09:11:41.000Z</time>
      </trkpt>
      <trkpt lat="47.384" lon="-2.36634">
        <ele>-23.200000762939</ele>
        <time>2021-09-02T09:11:42.000Z</time>
      </trkpt>
      <trkpt lat="47.38403" lon="-2.36628">
        <ele>-23.60000038147</ele>
        <time>2021-09-02T09:11:43.000Z</time>
      </trkpt>
      <trkpt lat="47.38405" lon="-2.36622">
        <ele>-24</ele>
        <time>2021-09-02T09:11:44.000Z</time>
      </trkpt>
      <trkpt lat="47.38407" lon="-2.36617">
        <ele>-24.39999961853</ele>
        <time>2021-09-02T09:11:45.000Z</time>
      </trkpt>
      <trkpt lat="47.3841" lon="-2.36612">
        <ele>-24.799999237061</ele>
        <time>2021-09-02T09:11:46.000Z</time>
      </trkpt>
      <trkpt lat="47.38416" lon="-2.36603">
        <ele>-24.799999237061</ele>
        <time>2021-09-02T09:11:49.000Z</time>
      </trkpt>
      <trkpt lat="47.38434" lon="-2.3659">
        <ele>-24.799999237061</ele>
        <time>2021-09-02T09:11:56.000Z</time>
      </trkpt>
      <trkpt lat="47.3845" lon="-2.36585">
        <ele>-24.799999237061</ele>
        <time>2021-09-02T09:11:59.000Z</time>
      </trkpt>
      <trkpt lat="47.38461" lon="-2.3658">
        <ele>-24.799999237061</ele>
        <time>2021-09-02T09:12:01.000Z</time>
      </trkpt>
      <trkpt lat="47.38482" lon="-2.36569">
        <ele>-24.799999237061</ele>
        <time>2021-09-02T09:12:05.000Z</time>
      </trkpt>
      <trkpt lat="47.38496" lon="-2.36556">
        <ele>-24.799999237061</ele>
        <time>2021-09-02T09:12:08.000Z</time>
      </trkpt>
      <trkpt lat="47.38522" lon="-2.36526">
        <ele>-24.799999237061</ele>
        <time>2021-09-02T09:12:14.000Z</time>
      </trkpt>
      <trkpt lat="47.38526" lon="-2.36521">
        <ele>-24.799999237061</ele>
        <time>2021-09-02T09:12:15.000Z</time>
      </trkpt>
      <trkpt lat="47.38545" lon="-2.3649">
        <ele>-24.799999237061</ele>
        <time>2021-09-02T09:12:20.000Z</time>
      </trkpt>
      <trkpt lat="47.38567" lon="-2.36445">
        <ele>-24.799999237061</ele>
        <time>2021-09-02T09:12:27.000Z</time>
      </trkpt>
      <trkpt lat="47.38582" lon="-2.3641">
        <ele>-24.799999237061</ele>
        <time>2021-09-02T09:12:32.000Z</time>
      </trkpt>
      <trkpt lat="47.38604" lon="-2.36358">
        <ele>-24.799999237061</ele>
        <time>2021-09-02T09:12:39.000Z</time>
      </trkpt>
      <trkpt lat="47.38612" lon="-2.36336">
        <ele>-24.799999237061</ele>
        <time>2021-09-02T09:12:42.000Z</time>
      </trkpt>
      <trkpt lat="47.38616" lon="-2.36312">
        <ele>-24.799999237061</ele>
        <time>2021-09-02T09:12:45.000Z</time>
      </trkpt>
      <trkpt lat="47.38616" lon="-2.36304">
        <ele>-24.799999237061</ele>
        <time>2021-09-02T09:12:46.000Z</time>
      </trkpt>
      <trkpt lat="47.38613" lon="-2.36283">
        <ele>-24.799999237061</ele>
        <time>2021-09-02T09:12:49.000Z</time>
      </trkpt>
      <trkpt lat="47.3861" lon="-2.36277">
        <ele>-24.799999237061</ele>
        <time>2021-09-02T09:12:50.000Z</time>
      </trkpt>
      <trkpt lat="47.38599" lon="-2.36266">
        <ele>-24.799999237061</ele>
        <time>2021-09-02T09:12:53.000Z</time>
      </trkpt>
      <trkpt lat="47.38594" lon="-2.36264">
        <ele>-24.799999237061</ele>
        <time>2021-09-02T09:12:54.000Z</time>
      </trkpt>
      <trkpt lat="47.38572" lon="-2.3626">
        <ele>-24.799999237061</ele>
        <time>2021-09-02T09:12:58.000Z</time>
      </trkpt>
      <trkpt lat="47.38566" lon="-2.36261">
        <ele>-24.799999237061</ele>
        <time>2021-09-02T09:12:59.000Z</time>
      </trkpt>
      <trkpt lat="47.38551" lon="-2.36264">
        <ele>-24.799999237061</ele>
        <time>2021-09-02T09:13:02.000Z</time>
      </trkpt>
      <trkpt lat="47.38541" lon="-2.36264">
        <ele>-24.799999237061</ele>
        <time>2021-09-02T09:13:04.000Z</time>
      </trkpt>
      <trkpt lat="47.38525" lon="-2.36262">
        <ele>-24.799999237061</ele>
        <time>2021-09-02T09:13:07.000Z</time>
      </trkpt>
      <trkpt lat="47.38508" lon="-2.36257">
        <ele>-24.799999237061</ele>
        <time>2021-09-02T09:13:10.000Z</time>
      </trkpt>
      <trkpt lat="47.3848" lon="-2.3625">
        <ele>-24.799999237061</ele>
        <time>2021-09-02T09:13:15.000Z</time>
      </trkpt>
      <trkpt lat="47.38475" lon="-2.36252">
        <ele>-24.799999237061</ele>
        <time>2021-09-02T09:13:16.000Z</time>
      </trkpt>
      <trkpt lat="47.38463" lon="-2.36264">
        <ele>-24.799999237061</ele>
        <time>2021-09-02T09:13:19.000Z</time>
      </trkpt>
      <trkpt lat="47.38447" lon="-2.36265">
        <ele>-24.799999237061</ele>
        <time>2021-09-02T09:13:23.000Z</time>
      </trkpt>
      <trkpt lat="47.38432" lon="-2.36262">
        <ele>-24.799999237061</ele>
        <time>2021-09-02T09:13:28.000Z</time>
      </trkpt>
      <trkpt lat="47.38426" lon="-2.36252">
        <ele>-24.799999237061</ele>
        <time>2021-09-02T09:13:32.000Z</time>
      </trkpt>
      <trkpt lat="47.38425" lon="-2.36248">
        <ele>-24.799999237061</ele>
        <time>2021-09-02T09:13:33.000Z</time>
      </trkpt>
      <trkpt lat="47.38423" lon="-2.36229">
        <ele>-24.799999237061</ele>
        <time>2021-09-02T09:13:38.000Z</time>
      </trkpt>
      <trkpt lat="47.38421" lon="-2.36223">
        <ele>-24.799999237061</ele>
        <time>2021-09-02T09:13:40.000Z</time>
      </trkpt>
      <trkpt lat="47.38418" lon="-2.36221">
        <ele>-24.799999237061</ele>
        <time>2021-09-02T09:13:42.000Z</time>
      </trkpt>
      <trkpt lat="47.38406" lon="-2.36212">
        <ele>-24.799999237061</ele>
        <time>2021-09-02T09:13:47.000Z</time>
      </trkpt>
      <trkpt lat="47.38391" lon="-2.36198">
        <ele>-24.799999237061</ele>
        <time>2021-09-02T09:13:52.000Z</time>
      </trkpt>
      <trkpt lat="47.38387" lon="-2.36196">
        <ele>-24.799999237061</ele>
        <time>2021-09-02T09:13:53.000Z</time>
      </trkpt>
      <trkpt lat="47.38375" lon="-2.36186">
        <ele>-24.799999237061</ele>
        <time>2021-09-02T09:13:56.000Z</time>
      </trkpt>
      <trkpt lat="47.38364" lon="-2.36162">
        <ele>-24.799999237061</ele>
        <time>2021-09-02T09:14:00.000Z</time>
      </trkpt>
      <trkpt lat="47.38361" lon="-2.3615">
        <ele>-24.799999237061</ele>
        <time>2021-09-02T09:14:02.000Z</time>
      </trkpt>
      <trkpt lat="47.38353" lon="-2.36132">
        <ele>-24.799999237061</ele>
        <time>2021-09-02T09:14:05.000Z</time>
      </trkpt>
      <trkpt lat="47.38338" lon="-2.36096">
        <ele>-24.799999237061</ele>
        <time>2021-09-02T09:14:11.000Z</time>
      </trkpt>
      <trkpt lat="47.38321" lon="-2.3605">
        <ele>-24.799999237061</ele>
        <time>2021-09-02T09:14:18.000Z</time>
      </trkpt>
      <trkpt lat="47.38319" lon="-2.36042">
        <ele>-24.799999237061</ele>
        <time>2021-09-02T09:14:19.000Z</time>
      </trkpt>
      <trkpt lat="47.38313" lon="-2.36009">
        <ele>-24.799999237061</ele>
        <time>2021-09-02T09:14:23.000Z</time>
      </trkpt>
      <trkpt lat="47.38301" lon="-2.35956">
        <ele>-24.799999237061</ele>
        <time>2021-09-02T09:14:30.000Z</time>
      </trkpt>
      <trkpt lat="47.38297" lon="-2.3594">
        <ele>-24.799999237061</ele>
        <time>2021-09-02T09:14:32.000Z</time>
      </trkpt>
      <trkpt lat="47.38291" lon="-2.3593">
        <ele>-24.799999237061</ele>
        <time>2021-09-02T09:14:34.000Z</time>
      </trkpt>
      <trkpt lat="47.3828" lon="-2.35932">
        <ele>-24.799999237061</ele>
        <time>2021-09-02T09:14:37.000Z</time>
      </trkpt>
      <trkpt lat="47.38276" lon="-2.35934">
        <ele>-24.799999237061</ele>
        <time>2021-09-02T09:14:38.000Z</time>
      </trkpt>
      <trkpt lat="47.38268" lon="-2.35939">
        <ele>-24.799999237061</ele>
        <time>2021-09-02T09:14:40.000Z</time>
      </trkpt>
      <trkpt lat="47.38251" lon="-2.35951">
        <ele>-24.799999237061</ele>
        <time>2021-09-02T09:14:44.000Z</time>
      </trkpt>
      <trkpt lat="47.38247" lon="-2.35954">
        <ele>-24.39999961853</ele>
        <time>2021-09-02T09:14:45.000Z</time>
      </trkpt>
      <trkpt lat="47.38242" lon="-2.35957">
        <ele>-24</ele>
        <time>2021-09-02T09:14:46.000Z</time>
      </trkpt>
      <trkpt lat="47.38237" lon="-2.35959">
        <ele>-23.60000038147</ele>
        <time>2021-09-02T09:14:47.000Z</time>
      </trkpt>
      <trkpt lat="47.38232" lon="-2.35963">
        <ele>-23.200000762939</ele>
        <time>2021-09-02T09:14:48.000Z</time>
      </trkpt>
      <trkpt lat="47.38228" lon="-2.35966">
        <ele>-22.799999237061</ele>
        <time>2021-09-02T09:14:49.000Z</time>
      </trkpt>
      <trkpt lat="47.38223" lon="-2.35969">
        <ele>-22.799999237061</ele>
        <time>2021-09-02T09:14:50.000Z</time>
      </trkpt>
      <trkpt lat="47.38184" lon="-2.35994">
        <ele>-22.799999237061</ele>
        <time>2021-09-02T09:14:58.000Z</time>
      </trkpt>
      <trkpt lat="47.38155" lon="-2.36016">
        <ele>-22.799999237061</ele>
        <time>2021-09-02T09:15:04.000Z</time>
      </trkpt>
      <trkpt lat="47.38115" lon="-2.36042">
        <ele>-22.39999961853</ele>
        <time>2021-09-02T09:15:12.000Z</time>
      </trkpt>
      <trkpt lat="47.3811" lon="-2.36045">
        <ele>-22</ele>
        <time>2021-09-02T09:15:13.000Z</time>
      </trkpt>
      <trkpt lat="47.38105" lon="-2.36047">
        <ele>-21.60000038147</ele>
        <time>2021-09-02T09:15:14.000Z</time>
      </trkpt>
      <trkpt lat="47.38099" lon="-2.36048">
        <ele>-21.200000762939</ele>
        <time>2021-09-02T09:15:15.000Z</time>
      </trkpt>
      <trkpt lat="47.38094" lon="-2.3605">
        <ele>-20.799999237061</ele>
        <time>2021-09-02T09:15:16.000Z</time>
      </trkpt>
      <trkpt lat="47.38072" lon="-2.36058">
        <ele>-20.799999237061</ele>
        <time>2021-09-02T09:15:20.000Z</time>
      </trkpt>
      <trkpt lat="47.38027" lon="-2.36072">
        <ele>-20.799999237061</ele>
        <time>2021-09-02T09:15:28.000Z</time>
      </trkpt>
      <trkpt lat="47.37995" lon="-2.36082">
        <ele>-20.799999237061</ele>
        <time>2021-09-02T09:15:34.000Z</time>
      </trkpt>
      <trkpt lat="47.3796" lon="-2.36099">
        <ele>-20.799999237061</ele>
        <time>2021-09-02T09:15:41.000Z</time>
      </trkpt>
      <trkpt lat="47.37925" lon="-2.36117">
        <ele>-20.799999237061</ele>
        <time>2021-09-02T09:15:48.000Z</time>
      </trkpt>
      <trkpt lat="47.37905" lon="-2.36126">
        <ele>-20.200000762939</ele>
        <time>2021-09-02T09:15:52.000Z</time>
      </trkpt>
      <trkpt lat="47.379" lon="-2.36128">
        <ele>-19.39999961853</ele>
        <time>2021-09-02T09:15:53.000Z</time>
      </trkpt>
      <trkpt lat="47.37895" lon="-2.36129">
        <ele>-19</ele>
        <time>2021-09-02T09:15:54.000Z</time>
      </trkpt>
      <trkpt lat="47.3789" lon="-2.36128">
        <ele>-18.60000038147</ele>
        <time>2021-09-02T09:15:55.000Z</time>
      </trkpt>
      <trkpt lat="47.3787" lon="-2.36121">
        <ele>-18.60000038147</ele>
        <time>2021-09-02T09:15:59.000Z</time>
      </trkpt>
      <trkpt lat="47.37865" lon="-2.36119">
        <ele>-18.60000038147</ele>
        <time>2021-09-02T09:16:00.000Z</time>
      </trkpt>
      <trkpt lat="47.37828" lon="-2.36098">
        <ele>-18.60000038147</ele>
        <time>2021-09-02T09:16:07.000Z</time>
      </trkpt>
      <trkpt lat="47.3778" lon="-2.36073">
        <ele>-18.60000038147</ele>
        <time>2021-09-02T09:16:16.000Z</time>
      </trkpt>
      <trkpt lat="47.37735" lon="-2.36045">
        <ele>-18.60000038147</ele>
        <time>2021-09-02T09:16:24.000Z</time>
      </trkpt>
      <trkpt lat="47.377" lon="-2.36026">
        <ele>-18.60000038147</ele>
        <time>2021-09-02T09:16:30.000Z</time>
      </trkpt>
      <trkpt lat="47.37694" lon="-2.36024">
        <ele>-18.60000038147</ele>
        <time>2021-09-02T09:16:31.000Z</time>
      </trkpt>
      <trkpt lat="47.37655" lon="-2.36009">
        <ele>-18.60000038147</ele>
        <time>2021-09-02T09:16:38.000Z</time>
      </trkpt>
      <trkpt lat="47.37644" lon="-2.36009">
        <ele>-18.60000038147</ele>
        <time>2021-09-02T09:16:41.000Z</time>
      </trkpt>
      <trkpt lat="47.37641" lon="-2.36013">
        <ele>-18.60000038147</ele>
        <time>2021-09-02T09:16:42.000Z</time>
      </trkpt>
      <trkpt lat="47.3764" lon="-2.36019">
        <ele>-19</ele>
        <time>2021-09-02T09:16:43.000Z</time>
      </trkpt>
      <trkpt lat="47.37639" lon="-2.36025">
        <ele>-19.39999961853</ele>
        <time>2021-09-02T09:16:44.000Z</time>
      </trkpt>
      <trkpt lat="47.37639" lon="-2.36032">
        <ele>-19.799999237061</ele>
        <time>2021-09-02T09:16:45.000Z</time>
      </trkpt>
      <trkpt lat="47.37638" lon="-2.36038">
        <ele>-20.200000762939</ele>
        <time>2021-09-02T09:16:46.000Z</time>
      </trkpt>
      <trkpt lat="47.37635" lon="-2.36043">
        <ele>-20.60000038147</ele>
        <time>2021-09-02T09:16:47.000Z</time>
      </trkpt>
      <trkpt lat="47.37628" lon="-2.3605">
        <ele>-20.60000038147</ele>
        <time>2021-09-02T09:16:49.000Z</time>
      </trkpt>
      <trkpt lat="47.37619" lon="-2.36051">
        <ele>-20.60000038147</ele>
        <time>2021-09-02T09:16:51.000Z</time>
      </trkpt>
      <trkpt lat="47.37615" lon="-2.36051">
        <ele>-20.60000038147</ele>
        <time>2021-09-02T09:16:52.000Z</time>
      </trkpt>
      <trkpt lat="47.37611" lon="-2.36052">
        <ele>-20.60000038147</ele>
        <time>2021-09-02T09:16:53.000Z</time>
      </trkpt>
      <trkpt lat="47.37583" lon="-2.36056">
        <ele>-20.60000038147</ele>
        <time>2021-09-02T09:16:59.000Z</time>
      </trkpt>
      <trkpt lat="47.3754" lon="-2.36071">
        <ele>-20.60000038147</ele>
        <time>2021-09-02T09:17:07.000Z</time>
      </trkpt>
      <trkpt lat="47.37535" lon="-2.36073">
        <ele>-20.200000762939</ele>
        <time>2021-09-02T09:17:08.000Z</time>
      </trkpt>
      <trkpt lat="47.37529" lon="-2.36075">
        <ele>-19.799999237061</ele>
        <time>2021-09-02T09:17:09.000Z</time>
      </trkpt>
      <trkpt lat="47.37524" lon="-2.36076">
        <ele>-19.39999961853</ele>
        <time>2021-09-02T09:17:10.000Z</time>
      </trkpt>
      <trkpt lat="47.37519" lon="-2.36078">
        <ele>-19</ele>
        <time>2021-09-02T09:17:11.000Z</time>
      </trkpt>
      <trkpt lat="47.37513" lon="-2.3608">
        <ele>-18.60000038147</ele>
        <time>2021-09-02T09:17:12.000Z</time>
      </trkpt>
      <trkpt lat="47.37508" lon="-2.36083">
        <ele>-18.60000038147</ele>
        <time>2021-09-02T09:17:13.000Z</time>
      </trkpt>
      <trkpt lat="47.37471" lon="-2.36105">
        <ele>-18.60000038147</ele>
        <time>2021-09-02T09:17:20.000Z</time>
      </trkpt>
      <trkpt lat="47.37447" lon="-2.3612">
        <ele>-19.200000762939</ele>
        <time>2021-09-02T09:17:24.000Z</time>
      </trkpt>
      <trkpt lat="47.3744" lon="-2.36124">
        <ele>-19.60000038147</ele>
        <time>2021-09-02T09:17:25.000Z</time>
      </trkpt>
      <trkpt lat="47.37433" lon="-2.36129">
        <ele>-20.200000762939</ele>
        <time>2021-09-02T09:17:26.000Z</time>
      </trkpt>
      <trkpt lat="47.37427" lon="-2.36133">
        <ele>-20.60000038147</ele>
        <time>2021-09-02T09:17:27.000Z</time>
      </trkpt>
      <trkpt lat="47.37421" lon="-2.36137">
        <ele>-21.200000762939</ele>
        <time>2021-09-02T09:17:28.000Z</time>
      </trkpt>
      <trkpt lat="47.37417" lon="-2.3614">
        <ele>-21.60000038147</ele>
        <time>2021-09-02T09:17:29.000Z</time>
      </trkpt>
      <trkpt lat="47.37413" lon="-2.36139">
        <ele>-22.200000762939</ele>
        <time>2021-09-02T09:17:30.000Z</time>
      </trkpt>
      <trkpt lat="47.3741" lon="-2.36136">
        <ele>-22.799999237061</ele>
        <time>2021-09-02T09:17:31.000Z</time>
      </trkpt>
      <trkpt lat="47.37406" lon="-2.36132">
        <ele>-23.200000762939</ele>
        <time>2021-09-02T09:17:32.000Z</time>
      </trkpt>
      <trkpt lat="47.37403" lon="-2.36128">
        <ele>-23.200000762939</ele>
        <time>2021-09-02T09:17:33.000Z</time>
      </trkpt>
      <trkpt lat="47.374" lon="-2.36123">
        <ele>-23.200000762939</ele>
        <time>2021-09-02T09:17:34.000Z</time>
      </trkpt>
      <trkpt lat="47.37397" lon="-2.36118">
        <ele>-23.200000762939</ele>
        <time>2021-09-02T09:17:35.000Z</time>
      </trkpt>
      <trkpt lat="47.37386" lon="-2.36112">
        <ele>-23.200000762939</ele>
        <time>2021-09-02T09:17:37.000Z</time>
      </trkpt>
      <trkpt lat="47.37372" lon="-2.36118">
        <ele>-23.200000762939</ele>
        <time>2021-09-02T09:17:40.000Z</time>
      </trkpt>
      <trkpt lat="47.37367" lon="-2.36122">
        <ele>-23.200000762939</ele>
        <time>2021-09-02T09:17:41.000Z</time>
      </trkpt>
      <trkpt lat="47.37358" lon="-2.36128">
        <ele>-23.200000762939</ele>
        <time>2021-09-02T09:17:43.000Z</time>
      </trkpt>
      <trkpt lat="47.37353" lon="-2.3613">
        <ele>-23.200000762939</ele>
        <time>2021-09-02T09:17:44.000Z</time>
      </trkpt>
      <trkpt lat="47.37335" lon="-2.36124">
        <ele>-23.200000762939</ele>
        <time>2021-09-02T09:17:48.000Z</time>
      </trkpt>
      <trkpt lat="47.3733" lon="-2.36122">
        <ele>-23.200000762939</ele>
        <time>2021-09-02T09:17:49.000Z</time>
      </trkpt>
      <trkpt lat="47.37311" lon="-2.3612">
        <ele>-23.200000762939</ele>
        <time>2021-09-02T09:17:53.000Z</time>
      </trkpt>
      <trkpt lat="47.37302" lon="-2.36122">
        <ele>-23.200000762939</ele>
        <time>2021-09-02T09:17:55.000Z</time>
      </trkpt>
      <trkpt lat="47.37291" lon="-2.36129">
        <ele>-23.200000762939</ele>
        <time>2021-09-02T09:17:58.000Z</time>
      </trkpt>
      <trkpt lat="47.37288" lon="-2.36131">
        <ele>-23.60000038147</ele>
        <time>2021-09-02T09:17:59.000Z</time>
      </trkpt>
      <trkpt lat="47.37287" lon="-2.36131">
        <ele>-24</ele>
        <time>2021-09-02T09:18:00.000Z</time>
      </trkpt>
      <trkpt lat="47.37285" lon="-2.36131">
        <ele>-24.39999961853</ele>
        <time>2021-09-02T09:18:01.000Z</time>
      </trkpt>
      <trkpt lat="47.37285" lon="-2.36131">
        <ele>-25</ele>
        <time>2021-09-02T09:18:02.000Z</time>
      </trkpt>
      <trkpt lat="47.37281" lon="-2.36129">
        <ele>-25.39999961853</ele>
        <time>2021-09-02T09:18:58.000Z</time>
      </trkpt>
      <trkpt lat="47.37278" lon="-2.36126">
        <ele>-25.39999961853</ele>
        <time>2021-09-02T09:19:00.000Z</time>
      </trkpt>
      <trkpt lat="47.37274" lon="-2.36123">
        <ele>-25.39999961853</ele>
        <time>2021-09-02T09:19:04.000Z</time>
      </trkpt>
      <trkpt lat="47.3727" lon="-2.36121">
        <ele>-25.39999961853</ele>
        <time>2021-09-02T09:19:07.000Z</time>
      </trkpt>
      <trkpt lat="47.37264" lon="-2.36117">
        <ele>-25.39999961853</ele>
        <time>2021-09-02T09:19:14.000Z</time>
      </trkpt>
      <trkpt lat="47.3726" lon="-2.36115">
        <ele>-25.39999961853</ele>
        <time>2021-09-02T09:19:19.000Z</time>
      </trkpt>
      <trkpt lat="47.37257" lon="-2.36113">
        <ele>-25.39999961853</ele>
        <time>2021-09-02T09:19:23.000Z</time>
      </trkpt>
      <trkpt lat="47.37254" lon="-2.36111">
        <ele>-25.39999961853</ele>
        <time>2021-09-02T09:19:27.000Z</time>
      </trkpt>
      <trkpt lat="47.37252" lon="-2.3611">
        <ele>-25.39999961853</ele>
        <time>2021-09-02T09:19:28.000Z</time>
      </trkpt>
      <trkpt lat="47.37243" lon="-2.36104">
        <ele>-25.39999961853</ele>
        <time>2021-09-02T09:19:33.000Z</time>
      </trkpt>
      <trkpt lat="47.37233" lon="-2.36096">
        <ele>-25.39999961853</ele>
        <time>2021-09-02T09:19:37.000Z</time>
      </trkpt>
      <trkpt lat="47.37229" lon="-2.3609">
        <ele>-25.39999961853</ele>
        <time>2021-09-02T09:19:41.000Z</time>
      </trkpt>
      <trkpt lat="47.37222" lon="-2.36095">
        <ele>-23.39999961853</ele>
        <time>2021-09-02T09:32:45.000Z</time>
      </trkpt>
      <trkpt lat="47.37211" lon="-2.36087">
        <ele>-23.39999961853</ele>
        <time>2021-09-02T09:32:50.000Z</time>
      </trkpt>
      <trkpt lat="47.37209" lon="-2.36084">
        <ele>-23.39999961853</ele>
        <time>2021-09-02T09:32:51.000Z</time>
      </trkpt>
      <trkpt lat="47.37209" lon="-2.36081">
        <ele>-23.39999961853</ele>
        <time>2021-09-02T09:32:52.000Z</time>
      </trkpt>
      <trkpt lat="47.37209" lon="-2.36073">
        <ele>-23.39999961853</ele>
        <time>2021-09-02T09:32:54.000Z</time>
      </trkpt>
      <trkpt lat="47.37218" lon="-2.36055">
        <ele>-23.39999961853</ele>
        <time>2021-09-02T09:32:58.000Z</time>
      </trkpt>
      <trkpt lat="47.37222" lon="-2.36049">
        <ele>-23.39999961853</ele>
        <time>2021-09-02T09:32:59.000Z</time>
      </trkpt>
      <trkpt lat="47.37243" lon="-2.36006">
        <ele>-23.39999961853</ele>
        <time>2021-09-02T09:33:06.000Z</time>
      </trkpt>
      <trkpt lat="47.37246" lon="-2.36">
        <ele>-23</ele>
        <time>2021-09-02T09:33:07.000Z</time>
      </trkpt>
      <trkpt lat="47.37249" lon="-2.35994">
        <ele>-22.60000038147</ele>
        <time>2021-09-02T09:33:08.000Z</time>
      </trkpt>
      <trkpt lat="47.37252" lon="-2.35988">
        <ele>-22.200000762939</ele>
        <time>2021-09-02T09:33:09.000Z</time>
      </trkpt>
      <trkpt lat="47.37255" lon="-2.35983">
        <ele>-21.60000038147</ele>
        <time>2021-09-02T09:33:10.000Z</time>
      </trkpt>
      <trkpt lat="47.37258" lon="-2.35977">
        <ele>-21.200000762939</ele>
        <time>2021-09-02T09:33:11.000Z</time>
      </trkpt>
      <trkpt lat="47.37261" lon="-2.35971">
        <ele>-21.200000762939</ele>
        <time>2021-09-02T09:33:12.000Z</time>
      </trkpt>
      <trkpt lat="47.37268" lon="-2.35957">
        <ele>-21.200000762939</ele>
        <time>2021-09-02T09:33:14.000Z</time>
      </trkpt>
      <trkpt lat="47.37285" lon="-2.35917">
        <ele>-21.200000762939</ele>
        <time>2021-09-02T09:33:20.000Z</time>
      </trkpt>
      <trkpt lat="47.37302" lon="-2.35884">
        <ele>-21.200000762939</ele>
        <time>2021-09-02T09:33:25.000Z</time>
      </trkpt>
      <trkpt lat="47.37311" lon="-2.35874">
        <ele>-21.200000762939</ele>
        <time>2021-09-02T09:33:27.000Z</time>
      </trkpt>
      <trkpt lat="47.37333" lon="-2.35859">
        <ele>-21.200000762939</ele>
        <time>2021-09-02T09:33:31.000Z</time>
      </trkpt>
      <trkpt lat="47.37349" lon="-2.35848">
        <ele>-21.200000762939</ele>
        <time>2021-09-02T09:33:34.000Z</time>
      </trkpt>
      <trkpt lat="47.37365" lon="-2.35837">
        <ele>-21.200000762939</ele>
        <time>2021-09-02T09:33:37.000Z</time>
      </trkpt>
      <trkpt lat="47.37396" lon="-2.35816">
        <ele>-21.200000762939</ele>
        <time>2021-09-02T09:33:43.000Z</time>
      </trkpt>
      <trkpt lat="47.37401" lon="-2.35812">
        <ele>-21.200000762939</ele>
        <time>2021-09-02T09:33:44.000Z</time>
      </trkpt>
      <trkpt lat="47.37414" lon="-2.35799">
        <ele>-21.200000762939</ele>
        <time>2021-09-02T09:33:47.000Z</time>
      </trkpt>
      <trkpt lat="47.37418" lon="-2.35793">
        <ele>-21.200000762939</ele>
        <time>2021-09-02T09:33:48.000Z</time>
      </trkpt>
      <trkpt lat="47.37422" lon="-2.35772">
        <ele>-21.200000762939</ele>
        <time>2021-09-02T09:33:51.000Z</time>
      </trkpt>
      <trkpt lat="47.37422" lon="-2.35756">
        <ele>-21.200000762939</ele>
        <time>2021-09-02T09:33:53.000Z</time>
      </trkpt>
      <trkpt lat="47.37421" lon="-2.35748">
        <ele>-21.200000762939</ele>
        <time>2021-09-02T09:33:54.000Z</time>
      </trkpt>
      <trkpt lat="47.37418" lon="-2.35729">
        <ele>-21.200000762939</ele>
        <time>2021-09-02T09:33:56.000Z</time>
      </trkpt>
      <trkpt lat="47.37417" lon="-2.35664">
        <ele>-21.200000762939</ele>
        <time>2021-09-02T09:34:03.000Z</time>
      </trkpt>
      <trkpt lat="47.37407" lon="-2.35648">
        <ele>-21.200000762939</ele>
        <time>2021-09-02T09:34:06.000Z</time>
      </trkpt>
      <trkpt lat="47.37398" lon="-2.35644">
        <ele>-21.200000762939</ele>
        <time>2021-09-02T09:34:08.000Z</time>
      </trkpt>
      <trkpt lat="47.37384" lon="-2.35637">
        <ele>-21.200000762939</ele>
        <time>2021-09-02T09:34:11.000Z</time>
      </trkpt>
      <trkpt lat="47.37379" lon="-2.35636">
        <ele>-21.200000762939</ele>
        <time>2021-09-02T09:34:12.000Z</time>
      </trkpt>
      <trkpt lat="47.37351" lon="-2.35628">
        <ele>-21.200000762939</ele>
        <time>2021-09-02T09:34:17.000Z</time>
      </trkpt>
      <trkpt lat="47.37312" lon="-2.35614">
        <ele>-21.200000762939</ele>
        <time>2021-09-02T09:34:24.000Z</time>
      </trkpt>
      <trkpt lat="47.37288" lon="-2.35604">
        <ele>-21.200000762939</ele>
        <time>2021-09-02T09:34:29.000Z</time>
      </trkpt>
      <trkpt lat="47.37275" lon="-2.35591">
        <ele>-21.200000762939</ele>
        <time>2021-09-02T09:34:32.000Z</time>
      </trkpt>
      <trkpt lat="47.37269" lon="-2.35579">
        <ele>-21.200000762939</ele>
        <time>2021-09-02T09:34:34.000Z</time>
      </trkpt>
      <trkpt lat="47.37239" lon="-2.35527">
        <ele>-21.200000762939</ele>
        <time>2021-09-02T09:34:43.000Z</time>
      </trkpt>
      <trkpt lat="47.37235" lon="-2.35521">
        <ele>-20.799999237061</ele>
        <time>2021-09-02T09:34:44.000Z</time>
      </trkpt>
      <trkpt lat="47.37232" lon="-2.35516">
        <ele>-20.39999961853</ele>
        <time>2021-09-02T09:34:45.000Z</time>
      </trkpt>
      <trkpt lat="47.37228" lon="-2.35511">
        <ele>-20</ele>
        <time>2021-09-02T09:34:46.000Z</time>
      </trkpt>
      <trkpt lat="47.37225" lon="-2.35506">
        <ele>-19.60000038147</ele>
        <time>2021-09-02T09:34:47.000Z</time>
      </trkpt>
      <trkpt lat="47.37222" lon="-2.355">
        <ele>-19.200000762939</ele>
        <time>2021-09-02T09:34:48.000Z</time>
      </trkpt>
      <trkpt lat="47.37216" lon="-2.35489">
        <ele>-19.200000762939</ele>
        <time>2021-09-02T09:34:50.000Z</time>
      </trkpt>
      <trkpt lat="47.3719" lon="-2.35444">
        <ele>-19.200000762939</ele>
        <time>2021-09-02T09:34:58.000Z</time>
      </trkpt>
      <trkpt lat="47.37186" lon="-2.35423">
        <ele>-19.200000762939</ele>
        <time>2021-09-02T09:35:02.000Z</time>
      </trkpt>
      <trkpt lat="47.37197" lon="-2.354">
        <ele>-19.200000762939</ele>
        <time>2021-09-02T09:35:06.000Z</time>
      </trkpt>
      <trkpt lat="47.37222" lon="-2.3536">
        <ele>-19.200000762939</ele>
        <time>2021-09-02T09:35:12.000Z</time>
      </trkpt>
      <trkpt lat="47.37256" lon="-2.35313">
        <ele>-19.200000762939</ele>
        <time>2021-09-02T09:35:19.000Z</time>
      </trkpt>
      <trkpt lat="47.37286" lon="-2.35287">
        <ele>-19.200000762939</ele>
        <time>2021-09-02T09:35:24.000Z</time>
      </trkpt>
      <trkpt lat="47.37333" lon="-2.35253">
        <ele>-19.200000762939</ele>
        <time>2021-09-02T09:35:32.000Z</time>
      </trkpt>
      <trkpt lat="47.37362" lon="-2.35231">
        <ele>-19.200000762939</ele>
        <time>2021-09-02T09:35:37.000Z</time>
      </trkpt>
      <trkpt lat="47.37401" lon="-2.35197">
        <ele>-19.200000762939</ele>
        <time>2021-09-02T09:35:44.000Z</time>
      </trkpt>
      <trkpt lat="47.37428" lon="-2.35163">
        <ele>-19.200000762939</ele>
        <time>2021-09-02T09:35:50.000Z</time>
      </trkpt>
      <trkpt lat="47.37462" lon="-2.35113">
        <ele>-19.200000762939</ele>
        <time>2021-09-02T09:35:59.000Z</time>
      </trkpt>
      <trkpt lat="47.37488" lon="-2.35075">
        <ele>-19.200000762939</ele>
        <time>2021-09-02T09:36:06.000Z</time>
      </trkpt>
      <trkpt lat="47.375" lon="-2.3506">
        <ele>-18.799999237061</ele>
        <time>2021-09-02T09:36:09.000Z</time>
      </trkpt>
      <trkpt lat="47.37504" lon="-2.35055">
        <ele>-18.200000762939</ele>
        <time>2021-09-02T09:36:10.000Z</time>
      </trkpt>
      <trkpt lat="47.37508" lon="-2.3505">
        <ele>-17.799999237061</ele>
        <time>2021-09-02T09:36:11.000Z</time>
      </trkpt>
      <trkpt lat="47.37512" lon="-2.35044">
        <ele>-17.39999961853</ele>
        <time>2021-09-02T09:36:12.000Z</time>
      </trkpt>
      <trkpt lat="47.37516" lon="-2.35039">
        <ele>-17</ele>
        <time>2021-09-02T09:36:13.000Z</time>
      </trkpt>
      <trkpt lat="47.37532" lon="-2.35024">
        <ele>-17</ele>
        <time>2021-09-02T09:36:16.000Z</time>
      </trkpt>
      <trkpt lat="47.37543" lon="-2.35017">
        <ele>-17</ele>
        <time>2021-09-02T09:36:18.000Z</time>
      </trkpt>
      <trkpt lat="47.37575" lon="-2.34998">
        <ele>-17</ele>
        <time>2021-09-02T09:36:24.000Z</time>
      </trkpt>
      <trkpt lat="47.37599" lon="-2.3498">
        <ele>-17</ele>
        <time>2021-09-02T09:36:30.000Z</time>
      </trkpt>
      <trkpt lat="47.37603" lon="-2.34978">
        <ele>-17</ele>
        <time>2021-09-02T09:36:31.000Z</time>
      </trkpt>
      <trkpt lat="47.37619" lon="-2.34968">
        <ele>-17</ele>
        <time>2021-09-02T09:36:35.000Z</time>
      </trkpt>
      <trkpt lat="47.3765" lon="-2.34949">
        <ele>-17</ele>
        <time>2021-09-02T09:36:42.000Z</time>
      </trkpt>
      <trkpt lat="47.37679" lon="-2.34931">
        <ele>-16.60000038147</ele>
        <time>2021-09-02T09:36:49.000Z</time>
      </trkpt>
      <trkpt lat="47.37683" lon="-2.34928">
        <ele>-16.200000762939</ele>
        <time>2021-09-02T09:36:50.000Z</time>
      </trkpt>
      <trkpt lat="47.37687" lon="-2.34926">
        <ele>-15.800000190735</ele>
        <time>2021-09-02T09:36:51.000Z</time>
      </trkpt>
      <trkpt lat="47.37691" lon="-2.34923">
        <ele>-15.39999961853</ele>
        <time>2021-09-02T09:36:52.000Z</time>
      </trkpt>
      <trkpt lat="47.37695" lon="-2.34921">
        <ele>-14.800000190735</ele>
        <time>2021-09-02T09:36:53.000Z</time>
      </trkpt>
      <trkpt lat="47.37708" lon="-2.34911">
        <ele>-14.800000190735</ele>
        <time>2021-09-02T09:36:56.000Z</time>
      </trkpt>
      <trkpt lat="47.37738" lon="-2.34885">
        <ele>-14.800000190735</ele>
        <time>2021-09-02T09:37:04.000Z</time>
      </trkpt>
      <trkpt lat="47.37756" lon="-2.34865">
        <ele>-14.800000190735</ele>
        <time>2021-09-02T09:37:09.000Z</time>
      </trkpt>
      <trkpt lat="47.37765" lon="-2.34858">
        <ele>-14.800000190735</ele>
        <time>2021-09-02T09:37:11.000Z</time>
      </trkpt>
      <trkpt lat="47.37786" lon="-2.34847">
        <ele>-15.39999961853</ele>
        <time>2021-09-02T09:37:15.000Z</time>
      </trkpt>
      <trkpt lat="47.37792" lon="-2.34845">
        <ele>-15.800000190735</ele>
        <time>2021-09-02T09:37:16.000Z</time>
      </trkpt>
      <trkpt lat="47.37798" lon="-2.34842">
        <ele>-16.200000762939</ele>
        <time>2021-09-02T09:37:17.000Z</time>
      </trkpt>
      <trkpt lat="47.37805" lon="-2.3484">
        <ele>-16.60000038147</ele>
        <time>2021-09-02T09:37:18.000Z</time>
      </trkpt>
      <trkpt lat="47.37811" lon="-2.34838">
        <ele>-17.200000762939</ele>
        <time>2021-09-02T09:37:19.000Z</time>
      </trkpt>
      <trkpt lat="47.37828" lon="-2.34832">
        <ele>-17.200000762939</ele>
        <time>2021-09-02T09:37:22.000Z</time>
      </trkpt>
      <trkpt lat="47.37872" lon="-2.34819">
        <ele>-17.200000762939</ele>
        <time>2021-09-02T09:37:30.000Z</time>
      </trkpt>
      <trkpt lat="47.37913" lon="-2.34812">
        <ele>-17.200000762939</ele>
        <time>2021-09-02T09:37:38.000Z</time>
      </trkpt>
      <trkpt lat="47.37942" lon="-2.34808">
        <ele>-16.799999237061</ele>
        <time>2021-09-02T09:37:44.000Z</time>
      </trkpt>
      <trkpt lat="47.37946" lon="-2.34808">
        <ele>-16.39999961853</ele>
        <time>2021-09-02T09:37:45.000Z</time>
      </trkpt>
      <trkpt lat="47.37951" lon="-2.34808">
        <ele>-16</ele>
        <time>2021-09-02T09:37:46.000Z</time>
      </trkpt>
      <trkpt lat="47.37955" lon="-2.34808">
        <ele>-15.60000038147</ele>
        <time>2021-09-02T09:37:47.000Z</time>
      </trkpt>
      <trkpt lat="47.37959" lon="-2.34807">
        <ele>-15.199999809265</ele>
        <time>2021-09-02T09:37:48.000Z</time>
      </trkpt>
      <trkpt lat="47.37971" lon="-2.34804">
        <ele>-15.199999809265</ele>
        <time>2021-09-02T09:37:51.000Z</time>
      </trkpt>
      <trkpt lat="47.37991" lon="-2.34809">
        <ele>-15.199999809265</ele>
        <time>2021-09-02T09:37:56.000Z</time>
      </trkpt>
      <trkpt lat="47.37994" lon="-2.34813">
        <ele>-15.199999809265</ele>
        <time>2021-09-02T09:37:57.000Z</time>
      </trkpt>
      <trkpt lat="47.38011" lon="-2.34838">
        <ele>-15.199999809265</ele>
        <time>2021-09-02T09:38:02.000Z</time>
      </trkpt>
      <trkpt lat="47.3804" lon="-2.34881">
        <ele>-15.199999809265</ele>
        <time>2021-09-02T09:38:09.000Z</time>
      </trkpt>
      <trkpt lat="47.3805" lon="-2.349">
        <ele>-15.199999809265</ele>
        <time>2021-09-02T09:38:12.000Z</time>
      </trkpt>
      <trkpt lat="47.3805" lon="-2.34914">
        <ele>-15.199999809265</ele>
        <time>2021-09-02T09:38:14.000Z</time>
      </trkpt>
      <trkpt lat="47.38048" lon="-2.3492">
        <ele>-15.60000038147</ele>
        <time>2021-09-02T09:38:15.000Z</time>
      </trkpt>
      <trkpt lat="47.38045" lon="-2.34927">
        <ele>-16</ele>
        <time>2021-09-02T09:38:16.000Z</time>
      </trkpt>
      <trkpt lat="47.38041" lon="-2.34934">
        <ele>-16.39999961853</ele>
        <time>2021-09-02T09:38:17.000Z</time>
      </trkpt>
      <trkpt lat="47.38038" lon="-2.34941">
        <ele>-16.799999237061</ele>
        <time>2021-09-02T09:38:18.000Z</time>
      </trkpt>
      <trkpt lat="47.38034" lon="-2.34948">
        <ele>-17.200000762939</ele>
        <time>2021-09-02T09:38:19.000Z</time>
      </trkpt>
      <trkpt lat="47.38028" lon="-2.34963">
        <ele>-17.200000762939</ele>
        <time>2021-09-02T09:38:21.000Z</time>
      </trkpt>
      <trkpt lat="47.38026" lon="-2.34972">
        <ele>-17.200000762939</ele>
        <time>2021-09-02T09:38:22.000Z</time>
      </trkpt>
      <trkpt lat="47.38023" lon="-2.35">
        <ele>-17.200000762939</ele>
        <time>2021-09-02T09:38:25.000Z</time>
      </trkpt>
      <trkpt lat="47.38023" lon="-2.35009">
        <ele>-17.200000762939</ele>
        <time>2021-09-02T09:38:26.000Z</time>
      </trkpt>
      <trkpt lat="47.38025" lon="-2.35033">
        <ele>-17.200000762939</ele>
        <time>2021-09-02T09:38:29.000Z</time>
      </trkpt>
      <trkpt lat="47.38028" lon="-2.35049">
        <ele>-17.200000762939</ele>
        <time>2021-09-02T09:38:31.000Z</time>
      </trkpt>
      <trkpt lat="47.3804" lon="-2.35108">
        <ele>-17.200000762939</ele>
        <time>2021-09-02T09:38:39.000Z</time>
      </trkpt>
      <trkpt lat="47.38055" lon="-2.35159">
        <ele>-17.200000762939</ele>
        <time>2021-09-02T09:38:46.000Z</time>
      </trkpt>
      <trkpt lat="47.38058" lon="-2.35165">
        <ele>-17.200000762939</ele>
        <time>2021-09-02T09:38:47.000Z</time>
      </trkpt>
      <trkpt lat="47.38071" lon="-2.35182">
        <ele>-17.200000762939</ele>
        <time>2021-09-02T09:38:50.000Z</time>
      </trkpt>
      <trkpt lat="47.38086" lon="-2.35198">
        <ele>-17.200000762939</ele>
        <time>2021-09-02T09:38:53.000Z</time>
      </trkpt>
      <trkpt lat="47.381" lon="-2.35216">
        <ele>-17.60000038147</ele>
        <time>2021-09-02T09:38:56.000Z</time>
      </trkpt>
      <trkpt lat="47.38105" lon="-2.35221">
        <ele>-18</ele>
        <time>2021-09-02T09:38:57.000Z</time>
      </trkpt>
      <trkpt lat="47.3811" lon="-2.35227">
        <ele>-18.799999237061</ele>
        <time>2021-09-02T09:38:58.000Z</time>
      </trkpt>
      <trkpt lat="47.38115" lon="-2.35232">
        <ele>-19.39999961853</ele>
        <time>2021-09-02T09:38:59.000Z</time>
      </trkpt>
      <trkpt lat="47.38125" lon="-2.35243">
        <ele>-19.799999237061</ele>
        <time>2021-09-02T09:39:01.000Z</time>
      </trkpt>
      <trkpt lat="47.38129" lon="-2.35249">
        <ele>-20.200000762939</ele>
        <time>2021-09-02T09:39:02.000Z</time>
      </trkpt>
      <trkpt lat="47.38134" lon="-2.35255">
        <ele>-20.60000038147</ele>
        <time>2021-09-02T09:39:03.000Z</time>
      </trkpt>
      <trkpt lat="47.38139" lon="-2.35261">
        <ele>-21</ele>
        <time>2021-09-02T09:39:04.000Z</time>
      </trkpt>
      <trkpt lat="47.38143" lon="-2.35267">
        <ele>-21.39999961853</ele>
        <time>2021-09-02T09:39:05.000Z</time>
      </trkpt>
      <trkpt lat="47.38162" lon="-2.35289">
        <ele>-21.39999961853</ele>
        <time>2021-09-02T09:39:09.000Z</time>
      </trkpt>
      <trkpt lat="47.38166" lon="-2.35295">
        <ele>-21.799999237061</ele>
        <time>2021-09-02T09:39:10.000Z</time>
      </trkpt>
      <trkpt lat="47.3817" lon="-2.353">
        <ele>-22.200000762939</ele>
        <time>2021-09-02T09:39:11.000Z</time>
      </trkpt>
      <trkpt lat="47.38174" lon="-2.35305">
        <ele>-22.60000038147</ele>
        <time>2021-09-02T09:39:12.000Z</time>
      </trkpt>
      <trkpt lat="47.38178" lon="-2.3531">
        <ele>-23</ele>
        <time>2021-09-02T09:39:13.000Z</time>
      </trkpt>
      <trkpt lat="47.38182" lon="-2.35315">
        <ele>-23.60000038147</ele>
        <time>2021-09-02T09:39:14.000Z</time>
      </trkpt>
      <trkpt lat="47.3819" lon="-2.35325">
        <ele>-23.60000038147</ele>
        <time>2021-09-02T09:39:16.000Z</time>
      </trkpt>
      <trkpt lat="47.38227" lon="-2.35369">
        <ele>-23.60000038147</ele>
        <time>2021-09-02T09:39:25.000Z</time>
      </trkpt>
      <trkpt lat="47.3825" lon="-2.35394">
        <ele>-23.60000038147</ele>
        <time>2021-09-02T09:39:30.000Z</time>
      </trkpt>
      <trkpt lat="47.38261" lon="-2.35398">
        <ele>-23.60000038147</ele>
        <time>2021-09-02T09:39:32.000Z</time>
      </trkpt>
      <trkpt lat="47.38283" lon="-2.35397">
        <ele>-23.60000038147</ele>
        <time>2021-09-02T09:39:36.000Z</time>
      </trkpt>
      <trkpt lat="47.38287" lon="-2.35397">
        <ele>-23</ele>
        <time>2021-09-02T09:39:37.000Z</time>
      </trkpt>
      <trkpt lat="47.38292" lon="-2.35396">
        <ele>-22.60000038147</ele>
        <time>2021-09-02T09:39:38.000Z</time>
      </trkpt>
      <trkpt lat="47.38296" lon="-2.35396">
        <ele>-22.200000762939</ele>
        <time>2021-09-02T09:39:39.000Z</time>
      </trkpt>
      <trkpt lat="47.383" lon="-2.35395">
        <ele>-21.799999237061</ele>
        <time>2021-09-02T09:39:40.000Z</time>
      </trkpt>
      <trkpt lat="47.38304" lon="-2.35393">
        <ele>-21.200000762939</ele>
        <time>2021-09-02T09:39:41.000Z</time>
      </trkpt>
      <trkpt lat="47.38315" lon="-2.35389">
        <ele>-20.799999237061</ele>
        <time>2021-09-02T09:39:44.000Z</time>
      </trkpt>
      <trkpt lat="47.38318" lon="-2.35387">
        <ele>-20.39999961853</ele>
        <time>2021-09-02T09:39:45.000Z</time>
      </trkpt>
      <trkpt lat="47.38322" lon="-2.35387">
        <ele>-20</ele>
        <time>2021-09-02T09:39:46.000Z</time>
      </trkpt>
      <trkpt lat="47.38327" lon="-2.35387">
        <ele>-19.200000762939</ele>
        <time>2021-09-02T09:39:47.000Z</time>
      </trkpt>
      <trkpt lat="47.38338" lon="-2.35384">
        <ele>-18.60000038147</ele>
        <time>2021-09-02T09:39:50.000Z</time>
      </trkpt>
      <trkpt lat="47.38342" lon="-2.35383">
        <ele>-18.200000762939</ele>
        <time>2021-09-02T09:39:51.000Z</time>
      </trkpt>
      <trkpt lat="47.38346" lon="-2.35382">
        <ele>-17.60000038147</ele>
        <time>2021-09-02T09:39:52.000Z</time>
      </trkpt>
      <trkpt lat="47.3835" lon="-2.35382">
        <ele>-17.200000762939</ele>
        <time>2021-09-02T09:39:53.000Z</time>
      </trkpt>
      <trkpt lat="47.38354" lon="-2.35381">
        <ele>-16.60000038147</ele>
        <time>2021-09-02T09:39:54.000Z</time>
      </trkpt>
      <trkpt lat="47.38363" lon="-2.35378">
        <ele>-16.200000762939</ele>
        <time>2021-09-02T09:39:56.000Z</time>
      </trkpt>
      <trkpt lat="47.38367" lon="-2.35377">
        <ele>-15.800000190735</ele>
        <time>2021-09-02T09:39:57.000Z</time>
      </trkpt>
      <trkpt lat="47.38371" lon="-2.35377">
        <ele>-15.39999961853</ele>
        <time>2021-09-02T09:39:58.000Z</time>
      </trkpt>
      <trkpt lat="47.38376" lon="-2.35376">
        <ele>-14.800000190735</ele>
        <time>2021-09-02T09:39:59.000Z</time>
      </trkpt>
      <trkpt lat="47.3838" lon="-2.35376">
        <ele>-14.39999961853</ele>
        <time>2021-09-02T09:40:00.000Z</time>
      </trkpt>
      <trkpt lat="47.38402" lon="-2.35371">
        <ele>-14</ele>
        <time>2021-09-02T09:40:05.000Z</time>
      </trkpt>
      <trkpt lat="47.38406" lon="-2.3537">
        <ele>-13.60000038147</ele>
        <time>2021-09-02T09:40:06.000Z</time>
      </trkpt>
      <trkpt lat="47.3841" lon="-2.35369">
        <ele>-13</ele>
        <time>2021-09-02T09:40:07.000Z</time>
      </trkpt>
      <trkpt lat="47.38414" lon="-2.35368">
        <ele>-12.60000038147</ele>
        <time>2021-09-02T09:40:08.000Z</time>
      </trkpt>
      <trkpt lat="47.38418" lon="-2.35367">
        <ele>-12.199999809265</ele>
        <time>2021-09-02T09:40:09.000Z</time>
      </trkpt>
      <trkpt lat="47.38436" lon="-2.35362">
        <ele>-12.199999809265</ele>
        <time>2021-09-02T09:40:13.000Z</time>
      </trkpt>
      <trkpt lat="47.38466" lon="-2.35356">
        <ele>-11.800000190735</ele>
        <time>2021-09-02T09:40:20.000Z</time>
      </trkpt>
      <trkpt lat="47.38471" lon="-2.35354">
        <ele>-11.39999961853</ele>
        <time>2021-09-02T09:40:21.000Z</time>
      </trkpt>
      <trkpt lat="47.38475" lon="-2.35354">
        <ele>-11</ele>
        <time>2021-09-02T09:40:22.000Z</time>
      </trkpt>
      <trkpt lat="47.38479" lon="-2.35353">
        <ele>-10.60000038147</ele>
        <time>2021-09-02T09:40:23.000Z</time>
      </trkpt>
      <trkpt lat="47.38483" lon="-2.35352">
        <ele>-10.199999809265</ele>
        <time>2021-09-02T09:40:24.000Z</time>
      </trkpt>
      <trkpt lat="47.3851" lon="-2.35346">
        <ele>-10.199999809265</ele>
        <time>2021-09-02T09:40:30.000Z</time>
      </trkpt>
      <trkpt lat="47.3853" lon="-2.35345">
        <ele>-10.199999809265</ele>
        <time>2021-09-02T09:40:35.000Z</time>
      </trkpt>
      <trkpt lat="47.38532" lon="-2.35348">
        <ele>-10.199999809265</ele>
        <time>2021-09-02T09:40:36.000Z</time>
      </trkpt>
      <trkpt lat="47.38535" lon="-2.35364">
        <ele>-10.199999809265</ele>
        <time>2021-09-02T09:40:39.000Z</time>
      </trkpt>
      <trkpt lat="47.38534" lon="-2.35371">
        <ele>-10.199999809265</ele>
        <time>2021-09-02T09:40:40.000Z</time>
      </trkpt>
      <trkpt lat="47.38535" lon="-2.35377">
        <ele>-10.199999809265</ele>
        <time>2021-09-02T09:40:41.000Z</time>
      </trkpt>
      <trkpt lat="47.38534" lon="-2.35404">
        <ele>-10.199999809265</ele>
        <time>2021-09-02T09:40:45.000Z</time>
      </trkpt>
      <trkpt lat="47.38536" lon="-2.35461">
        <ele>-10.199999809265</ele>
        <time>2021-09-02T09:40:53.000Z</time>
      </trkpt>
      <trkpt lat="47.38539" lon="-2.35521">
        <ele>-10.199999809265</ele>
        <time>2021-09-02T09:41:01.000Z</time>
      </trkpt>
      <trkpt lat="47.38544" lon="-2.35581">
        <ele>-10.199999809265</ele>
        <time>2021-09-02T09:41:09.000Z</time>
      </trkpt>
      <trkpt lat="47.38549" lon="-2.35628">
        <ele>-10.199999809265</ele>
        <time>2021-09-02T09:41:15.000Z</time>
      </trkpt>
      <trkpt lat="47.38551" lon="-2.35645">
        <ele>-10.199999809265</ele>
        <time>2021-09-02T09:41:17.000Z</time>
      </trkpt>
      <trkpt lat="47.38558" lon="-2.35721">
        <ele>-10.60000038147</ele>
        <time>2021-09-02T09:41:26.000Z</time>
      </trkpt>
      <trkpt lat="47.38559" lon="-2.3573">
        <ele>-11</ele>
        <time>2021-09-02T09:41:27.000Z</time>
      </trkpt>
      <trkpt lat="47.3856" lon="-2.35739">
        <ele>-11.39999961853</ele>
        <time>2021-09-02T09:41:28.000Z</time>
      </trkpt>
      <trkpt lat="47.38561" lon="-2.35749">
        <ele>-12</ele>
        <time>2021-09-02T09:41:29.000Z</time>
      </trkpt>
      <trkpt lat="47.38562" lon="-2.35759">
        <ele>-12.39999961853</ele>
        <time>2021-09-02T09:41:30.000Z</time>
      </trkpt>
      <trkpt lat="47.38565" lon="-2.35789">
        <ele>-12.39999961853</ele>
        <time>2021-09-02T09:41:33.000Z</time>
      </trkpt>
      <trkpt lat="47.38572" lon="-2.35863">
        <ele>-12.800000190735</ele>
        <time>2021-09-02T09:41:40.000Z</time>
      </trkpt>
      <trkpt lat="47.38573" lon="-2.35873">
        <ele>-13.199999809265</ele>
        <time>2021-09-02T09:41:41.000Z</time>
      </trkpt>
      <trkpt lat="47.38574" lon="-2.35884">
        <ele>-13.60000038147</ele>
        <time>2021-09-02T09:41:42.000Z</time>
      </trkpt>
      <trkpt lat="47.38575" lon="-2.35896">
        <ele>-14</ele>
        <time>2021-09-02T09:41:43.000Z</time>
      </trkpt>
      <trkpt lat="47.38576" lon="-2.35907">
        <ele>-14.39999961853</ele>
        <time>2021-09-02T09:41:44.000Z</time>
      </trkpt>
      <trkpt lat="47.38579" lon="-2.35942">
        <ele>-14.800000190735</ele>
        <time>2021-09-02T09:41:47.000Z</time>
      </trkpt>
      <trkpt lat="47.38579" lon="-2.35954">
        <ele>-15.199999809265</ele>
        <time>2021-09-02T09:41:48.000Z</time>
      </trkpt>
      <trkpt lat="47.3858" lon="-2.35966">
        <ele>-16</ele>
        <time>2021-09-02T09:41:49.000Z</time>
      </trkpt>
      <trkpt lat="47.38581" lon="-2.35977">
        <ele>-16.39999961853</ele>
        <time>2021-09-02T09:41:50.000Z</time>
      </trkpt>
      <trkpt lat="47.38586" lon="-2.36033">
        <ele>-17</ele>
        <time>2021-09-02T09:41:55.000Z</time>
      </trkpt>
      <trkpt lat="47.38587" lon="-2.36044">
        <ele>-17.60000038147</ele>
        <time>2021-09-02T09:41:56.000Z</time>
      </trkpt>
      <trkpt lat="47.38588" lon="-2.36054">
        <ele>-18</ele>
        <time>2021-09-02T09:41:57.000Z</time>
      </trkpt>
      <trkpt lat="47.38589" lon="-2.36065">
        <ele>-18.60000038147</ele>
        <time>2021-09-02T09:41:58.000Z</time>
      </trkpt>
      <trkpt lat="47.3859" lon="-2.36076">
        <ele>-19.200000762939</ele>
        <time>2021-09-02T09:41:59.000Z</time>
      </trkpt>
      <trkpt lat="47.3859" lon="-2.36106">
        <ele>-19.200000762939</ele>
        <time>2021-09-02T09:42:02.000Z</time>
      </trkpt>
      <trkpt lat="47.38586" lon="-2.36112">
        <ele>-19.60000038147</ele>
        <time>2021-09-02T09:42:03.000Z</time>
      </trkpt>
      <trkpt lat="47.3858" lon="-2.36116">
        <ele>-20</ele>
        <time>2021-09-02T09:42:04.000Z</time>
      </trkpt>
      <trkpt lat="47.38575" lon="-2.3612">
        <ele>-20.39999961853</ele>
        <time>2021-09-02T09:42:05.000Z</time>
      </trkpt>
      <trkpt lat="47.38569" lon="-2.36122">
        <ele>-20.799999237061</ele>
        <time>2021-09-02T09:42:06.000Z</time>
      </trkpt>
      <trkpt lat="47.38562" lon="-2.36123">
        <ele>-21.200000762939</ele>
        <time>2021-09-02T09:42:07.000Z</time>
      </trkpt>
      <trkpt lat="47.38556" lon="-2.36122">
        <ele>-21.200000762939</ele>
        <time>2021-09-02T09:42:08.000Z</time>
      </trkpt>
      <trkpt lat="47.38548" lon="-2.36122">
        <ele>-21.200000762939</ele>
        <time>2021-09-02T09:42:09.000Z</time>
      </trkpt>
      <trkpt lat="47.38514" lon="-2.36112">
        <ele>-21.200000762939</ele>
        <time>2021-09-02T09:42:14.000Z</time>
      </trkpt>
      <trkpt lat="47.3848" lon="-2.36086">
        <ele>-21.200000762939</ele>
        <time>2021-09-02T09:42:20.000Z</time>
      </trkpt>
      <trkpt lat="47.38445" lon="-2.36045">
        <ele>-21.200000762939</ele>
        <time>2021-09-02T09:42:27.000Z</time>
      </trkpt>
      <trkpt lat="47.38425" lon="-2.35999">
        <ele>-21.200000762939</ele>
        <time>2021-09-02T09:42:33.000Z</time>
      </trkpt>
      <trkpt lat="47.3841" lon="-2.35945">
        <ele>-21.200000762939</ele>
        <time>2021-09-02T09:42:39.000Z</time>
      </trkpt>
      <trkpt lat="47.38399" lon="-2.35894">
        <ele>-21.200000762939</ele>
        <time>2021-09-02T09:42:45.000Z</time>
      </trkpt>
      <trkpt lat="47.38393" lon="-2.35862">
        <ele>-21.200000762939</ele>
        <time>2021-09-02T09:42:51.000Z</time>
      </trkpt>
      <trkpt lat="47.38387" lon="-2.3584">
        <ele>-21.200000762939</ele>
        <time>2021-09-02T09:42:57.000Z</time>
      </trkpt>
      <trkpt lat="47.38377" lon="-2.35808">
        <ele>-21.200000762939</ele>
        <time>2021-09-02T09:43:05.000Z</time>
      </trkpt>
      <trkpt lat="47.38368" lon="-2.35772">
        <ele>-21.200000762939</ele>
        <time>2021-09-02T09:43:11.000Z</time>
      </trkpt>
      <trkpt lat="47.38361" lon="-2.35738">
        <ele>-21.200000762939</ele>
        <time>2021-09-02T09:43:16.000Z</time>
      </trkpt>
      <trkpt lat="47.38345" lon="-2.35685">
        <ele>-21.200000762939</ele>
        <time>2021-09-02T09:43:23.000Z</time>
      </trkpt>
      <trkpt lat="47.38332" lon="-2.35634">
        <ele>-21.200000762939</ele>
        <time>2021-09-02T09:43:29.000Z</time>
      </trkpt>
      <trkpt lat="47.3832" lon="-2.35596">
        <ele>-21.200000762939</ele>
        <time>2021-09-02T09:43:33.000Z</time>
      </trkpt>
      <trkpt lat="47.38314" lon="-2.3558">
        <ele>-21.200000762939</ele>
        <time>2021-09-02T09:43:35.000Z</time>
      </trkpt>
      <trkpt lat="47.38307" lon="-2.35557">
        <ele>-21.799999237061</ele>
        <time>2021-09-02T09:43:38.000Z</time>
      </trkpt>
      <trkpt lat="47.38304" lon="-2.3555">
        <ele>-22.200000762939</ele>
        <time>2021-09-02T09:43:39.000Z</time>
      </trkpt>
      <trkpt lat="47.38302" lon="-2.35543">
        <ele>-22.60000038147</ele>
        <time>2021-09-02T09:43:40.000Z</time>
      </trkpt>
      <trkpt lat="47.38299" lon="-2.35536">
        <ele>-23</ele>
        <time>2021-09-02T09:43:41.000Z</time>
      </trkpt>
      <trkpt lat="47.38297" lon="-2.35529">
        <ele>-23.39999961853</ele>
        <time>2021-09-02T09:43:42.000Z</time>
      </trkpt>
      <trkpt lat="47.38281" lon="-2.35478">
        <ele>-23.39999961853</ele>
        <time>2021-09-02T09:43:49.000Z</time>
      </trkpt>
      <trkpt lat="47.38261" lon="-2.35415">
        <ele>-23.39999961853</ele>
        <time>2021-09-02T09:43:57.000Z</time>
      </trkpt>
      <trkpt lat="47.38258" lon="-2.35407">
        <ele>-23.39999961853</ele>
        <time>2021-09-02T09:43:58.000Z</time>
      </trkpt>
      <trkpt lat="47.38246" lon="-2.3539">
        <ele>-23.39999961853</ele>
        <time>2021-09-02T09:44:01.000Z</time>
      </trkpt>
      <trkpt lat="47.38236" lon="-2.3538">
        <ele>-23.39999961853</ele>
        <time>2021-09-02T09:44:03.000Z</time>
      </trkpt>
      <trkpt lat="47.38222" lon="-2.35363">
        <ele>-23.39999961853</ele>
        <time>2021-09-02T09:44:06.000Z</time>
      </trkpt>
      <trkpt lat="47.38188" lon="-2.35326">
        <ele>-23.39999961853</ele>
        <time>2021-09-02T09:44:13.000Z</time>
      </trkpt>
      <trkpt lat="47.38162" lon="-2.35292">
        <ele>-23.39999961853</ele>
        <time>2021-09-02T09:44:19.000Z</time>
      </trkpt>
      <trkpt lat="47.38133" lon="-2.35258">
        <ele>-23.39999961853</ele>
        <time>2021-09-02T09:44:25.000Z</time>
      </trkpt>
      <trkpt lat="47.38099" lon="-2.35214">
        <ele>-23</ele>
        <time>2021-09-02T09:44:33.000Z</time>
      </trkpt>
      <trkpt lat="47.38095" lon="-2.35208">
        <ele>-22.60000038147</ele>
        <time>2021-09-02T09:44:34.000Z</time>
      </trkpt>
      <trkpt lat="47.3809" lon="-2.35203">
        <ele>-22.200000762939</ele>
        <time>2021-09-02T09:44:35.000Z</time>
      </trkpt>
      <trkpt lat="47.38086" lon="-2.35199">
        <ele>-21.60000038147</ele>
        <time>2021-09-02T09:44:36.000Z</time>
      </trkpt>
      <trkpt lat="47.38082" lon="-2.35194">
        <ele>-21.200000762939</ele>
        <time>2021-09-02T09:44:37.000Z</time>
      </trkpt>
      <trkpt lat="47.3807" lon="-2.35179">
        <ele>-21.200000762939</ele>
        <time>2021-09-02T09:44:40.000Z</time>
      </trkpt>
      <trkpt lat="47.38066" lon="-2.35173">
        <ele>-21.200000762939</ele>
        <time>2021-09-02T09:44:41.000Z</time>
      </trkpt>
      <trkpt lat="47.38059" lon="-2.35162">
        <ele>-20.799999237061</ele>
        <time>2021-09-02T09:44:43.000Z</time>
      </trkpt>
      <trkpt lat="47.38055" lon="-2.35156">
        <ele>-20.39999961853</ele>
        <time>2021-09-02T09:44:44.000Z</time>
      </trkpt>
      <trkpt lat="47.38052" lon="-2.35149">
        <ele>-20</ele>
        <time>2021-09-02T09:44:45.000Z</time>
      </trkpt>
      <trkpt lat="47.3805" lon="-2.35142">
        <ele>-19.39999961853</ele>
        <time>2021-09-02T09:44:46.000Z</time>
      </trkpt>
      <trkpt lat="47.38048" lon="-2.35135">
        <ele>-19</ele>
        <time>2021-09-02T09:44:47.000Z</time>
      </trkpt>
      <trkpt lat="47.38046" lon="-2.35128">
        <ele>-19</ele>
        <time>2021-09-02T09:44:48.000Z</time>
      </trkpt>
      <trkpt lat="47.38043" lon="-2.35114">
        <ele>-19</ele>
        <time>2021-09-02T09:44:50.000Z</time>
      </trkpt>
      <trkpt lat="47.38031" lon="-2.35055">
        <ele>-19</ele>
        <time>2021-09-02T09:44:58.000Z</time>
      </trkpt>
      <trkpt lat="47.38023" lon="-2.34996">
        <ele>-19</ele>
        <time>2021-09-02T09:45:05.000Z</time>
      </trkpt>
      <trkpt lat="47.38025" lon="-2.34972">
        <ele>-19</ele>
        <time>2021-09-02T09:45:08.000Z</time>
      </trkpt>
      <trkpt lat="47.38028" lon="-2.34957">
        <ele>-19</ele>
        <time>2021-09-02T09:45:10.000Z</time>
      </trkpt>
      <trkpt lat="47.3804" lon="-2.3493">
        <ele>-19</ele>
        <time>2021-09-02T09:45:14.000Z</time>
      </trkpt>
      <trkpt lat="47.38048" lon="-2.3491">
        <ele>-19</ele>
        <time>2021-09-02T09:45:17.000Z</time>
      </trkpt>
      <trkpt lat="47.38048" lon="-2.34898">
        <ele>-19</ele>
        <time>2021-09-02T09:45:19.000Z</time>
      </trkpt>
      <trkpt lat="47.3804" lon="-2.3488">
        <ele>-19</ele>
        <time>2021-09-02T09:45:22.000Z</time>
      </trkpt>
      <trkpt lat="47.3802" lon="-2.34849">
        <ele>-19</ele>
        <time>2021-09-02T09:45:28.000Z</time>
      </trkpt>
      <trkpt lat="47.38013" lon="-2.3484">
        <ele>-18.60000038147</ele>
        <time>2021-09-02T09:45:30.000Z</time>
      </trkpt>
      <trkpt lat="47.3801" lon="-2.34836">
        <ele>-18.200000762939</ele>
        <time>2021-09-02T09:45:31.000Z</time>
      </trkpt>
      <trkpt lat="47.38007" lon="-2.34832">
        <ele>-17.200000762939</ele>
        <time>2021-09-02T09:45:32.000Z</time>
      </trkpt>
      <trkpt lat="47.38004" lon="-2.34828">
        <ele>-16.799999237061</ele>
        <time>2021-09-02T09:45:33.000Z</time>
      </trkpt>
      <trkpt lat="47.38" lon="-2.34823">
        <ele>-16.39999961853</ele>
        <time>2021-09-02T09:45:34.000Z</time>
      </trkpt>
      <trkpt lat="47.37997" lon="-2.34819">
        <ele>-16</ele>
        <time>2021-09-02T09:45:35.000Z</time>
      </trkpt>
      <trkpt lat="47.37994" lon="-2.34815">
        <ele>-15.60000038147</ele>
        <time>2021-09-02T09:45:36.000Z</time>
      </trkpt>
      <trkpt lat="47.37991" lon="-2.34811">
        <ele>-15.199999809265</ele>
        <time>2021-09-02T09:45:37.000Z</time>
      </trkpt>
      <trkpt lat="47.37987" lon="-2.34807">
        <ele>-14.800000190735</ele>
        <time>2021-09-02T09:45:38.000Z</time>
      </trkpt>
      <trkpt lat="47.37983" lon="-2.34804">
        <ele>-14.800000190735</ele>
        <time>2021-09-02T09:45:39.000Z</time>
      </trkpt>
      <trkpt lat="47.37973" lon="-2.34805">
        <ele>-14.800000190735</ele>
        <time>2021-09-02T09:45:41.000Z</time>
      </trkpt>
      <trkpt lat="47.37935" lon="-2.3481">
        <ele>-14.800000190735</ele>
        <time>2021-09-02T09:45:48.000Z</time>
      </trkpt>
      <trkpt lat="47.379" lon="-2.34816">
        <ele>-14.800000190735</ele>
        <time>2021-09-02T09:45:54.000Z</time>
      </trkpt>
      <trkpt lat="47.37893" lon="-2.34817">
        <ele>-15.199999809265</ele>
        <time>2021-09-02T09:45:55.000Z</time>
      </trkpt>
      <trkpt lat="47.37886" lon="-2.34819">
        <ele>-15.60000038147</ele>
        <time>2021-09-02T09:45:56.000Z</time>
      </trkpt>
      <trkpt lat="47.37879" lon="-2.3482">
        <ele>-16.39999961853</ele>
        <time>2021-09-02T09:45:57.000Z</time>
      </trkpt>
      <trkpt lat="47.37872" lon="-2.34821">
        <ele>-17</ele>
        <time>2021-09-02T09:45:58.000Z</time>
      </trkpt>
      <trkpt lat="47.37851" lon="-2.34826">
        <ele>-17</ele>
        <time>2021-09-02T09:46:01.000Z</time>
      </trkpt>
      <trkpt lat="47.3783" lon="-2.34833">
        <ele>-17.39999961853</ele>
        <time>2021-09-02T09:46:04.000Z</time>
      </trkpt>
      <trkpt lat="47.37823" lon="-2.34836">
        <ele>-17.799999237061</ele>
        <time>2021-09-02T09:46:05.000Z</time>
      </trkpt>
      <trkpt lat="47.37816" lon="-2.34839">
        <ele>-18.200000762939</ele>
        <time>2021-09-02T09:46:06.000Z</time>
      </trkpt>
      <trkpt lat="47.37809" lon="-2.34841">
        <ele>-18.60000038147</ele>
        <time>2021-09-02T09:46:07.000Z</time>
      </trkpt>
      <trkpt lat="47.37802" lon="-2.34843">
        <ele>-19</ele>
        <time>2021-09-02T09:46:08.000Z</time>
      </trkpt>
      <trkpt lat="47.37796" lon="-2.34846">
        <ele>-19</ele>
        <time>2021-09-02T09:46:09.000Z</time>
      </trkpt>
      <trkpt lat="47.37761" lon="-2.34861">
        <ele>-19</ele>
        <time>2021-09-02T09:46:15.000Z</time>
      </trkpt>
      <trkpt lat="47.37743" lon="-2.34878">
        <ele>-19</ele>
        <time>2021-09-02T09:46:19.000Z</time>
      </trkpt>
      <trkpt lat="47.37739" lon="-2.34882">
        <ele>-19</ele>
        <time>2021-09-02T09:46:20.000Z</time>
      </trkpt>
      <trkpt lat="47.37725" lon="-2.34895">
        <ele>-19</ele>
        <time>2021-09-02T09:46:25.000Z</time>
      </trkpt>
      <trkpt lat="47.3772" lon="-2.34896">
        <ele>-19</ele>
        <time>2021-09-02T09:46:29.000Z</time>
      </trkpt>
      <trkpt lat="47.37719" lon="-2.34899">
        <ele>-19</ele>
        <time>2021-09-02T09:47:17.000Z</time>
      </trkpt>
      <trkpt lat="47.37716" lon="-2.34904">
        <ele>-19</ele>
        <time>2021-09-02T09:47:19.000Z</time>
      </trkpt>
      <trkpt lat="47.3771" lon="-2.34911">
        <ele>-19</ele>
        <time>2021-09-02T09:47:21.000Z</time>
      </trkpt>
      <trkpt lat="47.37704" lon="-2.34916">
        <ele>-19</ele>
        <time>2021-09-02T09:47:23.000Z</time>
      </trkpt>
      <trkpt lat="47.37697" lon="-2.34921">
        <ele>-19</ele>
        <time>2021-09-02T09:47:25.000Z</time>
      </trkpt>
      <trkpt lat="47.37688" lon="-2.34927">
        <ele>-18.60000038147</ele>
        <time>2021-09-02T09:47:27.000Z</time>
      </trkpt>
      <trkpt lat="47.37684" lon="-2.3493">
        <ele>-18.200000762939</ele>
        <time>2021-09-02T09:47:28.000Z</time>
      </trkpt>
      <trkpt lat="47.37679" lon="-2.34932">
        <ele>-17.799999237061</ele>
        <time>2021-09-02T09:47:29.000Z</time>
      </trkpt>
      <trkpt lat="47.37675" lon="-2.34935">
        <ele>-17.39999961853</ele>
        <time>2021-09-02T09:47:30.000Z</time>
      </trkpt>
      <trkpt lat="47.3767" lon="-2.34938">
        <ele>-17</ele>
        <time>2021-09-02T09:47:31.000Z</time>
      </trkpt>
      <trkpt lat="47.37666" lon="-2.34941">
        <ele>-17</ele>
        <time>2021-09-02T09:47:32.000Z</time>
      </trkpt>
      <trkpt lat="47.37656" lon="-2.34947">
        <ele>-17</ele>
        <time>2021-09-02T09:47:34.000Z</time>
      </trkpt>
      <trkpt lat="47.37641" lon="-2.34956">
        <ele>-17</ele>
        <time>2021-09-02T09:47:37.000Z</time>
      </trkpt>
      <trkpt lat="47.37622" lon="-2.34969">
        <ele>-17</ele>
        <time>2021-09-02T09:47:42.000Z</time>
      </trkpt>
      <trkpt lat="47.3762" lon="-2.3497">
        <ele>-17.39999961853</ele>
        <time>2021-09-02T09:47:44.000Z</time>
      </trkpt>
      <trkpt lat="47.37619" lon="-2.34971">
        <ele>-17.799999237061</ele>
        <time>2021-09-02T09:47:45.000Z</time>
      </trkpt>
      <trkpt lat="47.37617" lon="-2.34973">
        <ele>-18.200000762939</ele>
        <time>2021-09-02T09:47:46.000Z</time>
      </trkpt>
      <trkpt lat="47.37614" lon="-2.34972">
        <ele>-18.60000038147</ele>
        <time>2021-09-02T09:47:47.000Z</time>
      </trkpt>
      <trkpt lat="47.37612" lon="-2.34971">
        <ele>-19</ele>
        <time>2021-09-02T09:47:48.000Z</time>
      </trkpt>
      <trkpt lat="47.37609" lon="-2.34962">
        <ele>-19</ele>
        <time>2021-09-02T09:47:50.000Z</time>
      </trkpt>
      <trkpt lat="47.37605" lon="-2.34948">
        <ele>-19</ele>
        <time>2021-09-02T09:47:53.000Z</time>
      </trkpt>
      <trkpt lat="47.37603" lon="-2.34945">
        <ele>-19</ele>
        <time>2021-09-02T09:47:54.000Z</time>
      </trkpt>
      <trkpt lat="47.37602" lon="-2.3494">
        <ele>-19</ele>
        <time>2021-09-02T09:47:55.000Z</time>
      </trkpt>
      <trkpt lat="47.37593" lon="-2.34916">
        <ele>-19</ele>
        <time>2021-09-02T09:47:59.000Z</time>
      </trkpt>
      <trkpt lat="47.37581" lon="-2.34881">
        <ele>-19</ele>
        <time>2021-09-02T09:48:04.000Z</time>
      </trkpt>
      <trkpt lat="47.37579" lon="-2.34873">
        <ele>-19</ele>
        <time>2021-09-02T09:48:05.000Z</time>
      </trkpt>
      <trkpt lat="47.37567" lon="-2.34818">
        <ele>-18.60000038147</ele>
        <time>2021-09-02T09:48:12.000Z</time>
      </trkpt>
      <trkpt lat="47.37566" lon="-2.34811">
        <ele>-18</ele>
        <time>2021-09-02T09:48:13.000Z</time>
      </trkpt>
      <trkpt lat="47.37563" lon="-2.34804">
        <ele>-17.60000038147</ele>
        <time>2021-09-02T09:48:14.000Z</time>
      </trkpt>
      <trkpt lat="47.37561" lon="-2.34796">
        <ele>-17.200000762939</ele>
        <time>2021-09-02T09:48:15.000Z</time>
      </trkpt>
      <trkpt lat="47.37559" lon="-2.34789">
        <ele>-16.799999237061</ele>
        <time>2021-09-02T09:48:16.000Z</time>
      </trkpt>
      <trkpt lat="47.37551" lon="-2.34757">
        <ele>-16.799999237061</ele>
        <time>2021-09-02T09:48:21.000Z</time>
      </trkpt>
      <trkpt lat="47.37543" lon="-2.34724">
        <ele>-16.799999237061</ele>
        <time>2021-09-02T09:48:27.000Z</time>
      </trkpt>
      <trkpt lat="47.3754" lon="-2.3471">
        <ele>-16.799999237061</ele>
        <time>2021-09-02T09:48:29.000Z</time>
      </trkpt>
      <trkpt lat="47.37537" lon="-2.34693">
        <ele>-16.799999237061</ele>
        <time>2021-09-02T09:48:31.000Z</time>
      </trkpt>
      <trkpt lat="47.37522" lon="-2.34642">
        <ele>-16.799999237061</ele>
        <time>2021-09-02T09:48:38.000Z</time>
      </trkpt>
      <trkpt lat="47.37513" lon="-2.34605">
        <ele>-16.799999237061</ele>
        <time>2021-09-02T09:48:43.000Z</time>
      </trkpt>
      <trkpt lat="47.37514" lon="-2.34597">
        <ele>-16.799999237061</ele>
        <time>2021-09-02T09:48:44.000Z</time>
      </trkpt>
      <trkpt lat="47.37524" lon="-2.34577">
        <ele>-16.799999237061</ele>
        <time>2021-09-02T09:48:47.000Z</time>
      </trkpt>
      <trkpt lat="47.37531" lon="-2.34567">
        <ele>-16.799999237061</ele>
        <time>2021-09-02T09:48:49.000Z</time>
      </trkpt>
      <trkpt lat="47.37546" lon="-2.34549">
        <ele>-16.200000762939</ele>
        <time>2021-09-02T09:48:53.000Z</time>
      </trkpt>
      <trkpt lat="47.3755" lon="-2.34544">
        <ele>-15.800000190735</ele>
        <time>2021-09-02T09:48:54.000Z</time>
      </trkpt>
      <trkpt lat="47.37554" lon="-2.3454">
        <ele>-15.39999961853</ele>
        <time>2021-09-02T09:48:55.000Z</time>
      </trkpt>
      <trkpt lat="47.37558" lon="-2.34536">
        <ele>-15</ele>
        <time>2021-09-02T09:48:56.000Z</time>
      </trkpt>
      <trkpt lat="47.37561" lon="-2.34532">
        <ele>-14.60000038147</ele>
        <time>2021-09-02T09:48:57.000Z</time>
      </trkpt>
      <trkpt lat="47.37587" lon="-2.34504">
        <ele>-14.60000038147</ele>
        <time>2021-09-02T09:49:03.000Z</time>
      </trkpt>
      <trkpt lat="47.37594" lon="-2.34492">
        <ele>-14.60000038147</ele>
        <time>2021-09-02T09:49:05.000Z</time>
      </trkpt>
      <trkpt lat="47.37612" lon="-2.34463">
        <ele>-14.60000038147</ele>
        <time>2021-09-02T09:49:10.000Z</time>
      </trkpt>
      <trkpt lat="47.37637" lon="-2.34422">
        <ele>-14.60000038147</ele>
        <time>2021-09-02T09:49:17.000Z</time>
      </trkpt>
      <trkpt lat="47.37661" lon="-2.34374">
        <ele>-14.60000038147</ele>
        <time>2021-09-02T09:49:25.000Z</time>
      </trkpt>
      <trkpt lat="47.37665" lon="-2.34358">
        <ele>-14.60000038147</ele>
        <time>2021-09-02T09:49:27.000Z</time>
      </trkpt>
      <trkpt lat="47.37665" lon="-2.34331">
        <ele>-14.60000038147</ele>
        <time>2021-09-02T09:49:30.000Z</time>
      </trkpt>
      <trkpt lat="47.37658" lon="-2.34307">
        <ele>-14.60000038147</ele>
        <time>2021-09-02T09:49:33.000Z</time>
      </trkpt>
      <trkpt lat="47.37656" lon="-2.34299">
        <ele>-14.60000038147</ele>
        <time>2021-09-02T09:49:34.000Z</time>
      </trkpt>
      <trkpt lat="47.37651" lon="-2.34282">
        <ele>-14.60000038147</ele>
        <time>2021-09-02T09:49:36.000Z</time>
      </trkpt>
      <trkpt lat="47.37653" lon="-2.34256">
        <ele>-14.60000038147</ele>
        <time>2021-09-02T09:49:39.000Z</time>
      </trkpt>
      <trkpt lat="47.37668" lon="-2.3423">
        <ele>-14.60000038147</ele>
        <time>2021-09-02T09:49:43.000Z</time>
      </trkpt>
      <trkpt lat="47.37688" lon="-2.3419">
        <ele>-14.60000038147</ele>
        <time>2021-09-02T09:49:49.000Z</time>
      </trkpt>
      <trkpt lat="47.377" lon="-2.34139">
        <ele>-14.60000038147</ele>
        <time>2021-09-02T09:49:56.000Z</time>
      </trkpt>
      <trkpt lat="47.37712" lon="-2.34086">
        <ele>-14.60000038147</ele>
        <time>2021-09-02T09:50:03.000Z</time>
      </trkpt>
      <trkpt lat="47.37717" lon="-2.3406">
        <ele>-14.60000038147</ele>
        <time>2021-09-02T09:50:07.000Z</time>
      </trkpt>
      <trkpt lat="47.37721" lon="-2.34046">
        <ele>-14.60000038147</ele>
        <time>2021-09-02T09:50:09.000Z</time>
      </trkpt>
      <trkpt lat="47.37738" lon="-2.34004">
        <ele>-14.60000038147</ele>
        <time>2021-09-02T09:50:16.000Z</time>
      </trkpt>
      <trkpt lat="47.37763" lon="-2.33957">
        <ele>-14.60000038147</ele>
        <time>2021-09-02T09:50:25.000Z</time>
      </trkpt>
      <trkpt lat="47.37786" lon="-2.33913">
        <ele>-14.60000038147</ele>
        <time>2021-09-02T09:50:33.000Z</time>
      </trkpt>
      <trkpt lat="47.37796" lon="-2.33881">
        <ele>-14.60000038147</ele>
        <time>2021-09-02T09:50:38.000Z</time>
      </trkpt>
      <trkpt lat="47.37801" lon="-2.33862">
        <ele>-14.60000038147</ele>
        <time>2021-09-02T09:50:41.000Z</time>
      </trkpt>
      <trkpt lat="47.37807" lon="-2.33827">
        <ele>-14.60000038147</ele>
        <time>2021-09-02T09:50:47.000Z</time>
      </trkpt>
      <trkpt lat="47.37797" lon="-2.33817">
        <ele>-14.60000038147</ele>
        <time>2021-09-02T09:50:50.000Z</time>
      </trkpt>
      <trkpt lat="47.37793" lon="-2.33814">
        <ele>-14.60000038147</ele>
        <time>2021-09-02T09:50:51.000Z</time>
      </trkpt>
      <trkpt lat="47.3776" lon="-2.338">
        <ele>-14.60000038147</ele>
        <time>2021-09-02T09:50:57.000Z</time>
      </trkpt>
      <trkpt lat="47.37708" lon="-2.33776">
        <ele>-14.60000038147</ele>
        <time>2021-09-02T09:51:05.000Z</time>
      </trkpt>
      <trkpt lat="47.37659" lon="-2.33753">
        <ele>-14.60000038147</ele>
        <time>2021-09-02T09:51:12.000Z</time>
      </trkpt>
      <trkpt lat="47.37618" lon="-2.3373">
        <ele>-14.60000038147</ele>
        <time>2021-09-02T09:51:18.000Z</time>
      </trkpt>
      <trkpt lat="47.37581" lon="-2.33706">
        <ele>-14.60000038147</ele>
        <time>2021-09-02T09:51:25.000Z</time>
      </trkpt>
      <trkpt lat="47.37544" lon="-2.33681">
        <ele>-14.60000038147</ele>
        <time>2021-09-02T09:51:34.000Z</time>
      </trkpt>
      <trkpt lat="47.37532" lon="-2.33678">
        <ele>-14.60000038147</ele>
        <time>2021-09-02T09:51:37.000Z</time>
      </trkpt>
      <trkpt lat="47.37522" lon="-2.3368">
        <ele>-14.60000038147</ele>
        <time>2021-09-02T09:51:39.000Z</time>
      </trkpt>
      <trkpt lat="47.37512" lon="-2.33685">
        <ele>-14.60000038147</ele>
        <time>2021-09-02T09:51:41.000Z</time>
      </trkpt>
      <trkpt lat="47.37508" lon="-2.33689">
        <ele>-14.60000038147</ele>
        <time>2021-09-02T09:51:42.000Z</time>
      </trkpt>
      <trkpt lat="47.37498" lon="-2.33698">
        <ele>-14.60000038147</ele>
        <time>2021-09-02T09:51:44.000Z</time>
      </trkpt>
      <trkpt lat="47.37462" lon="-2.33731">
        <ele>-14.60000038147</ele>
        <time>2021-09-02T09:51:52.000Z</time>
      </trkpt>
      <trkpt lat="47.37435" lon="-2.33752">
        <ele>-14.60000038147</ele>
        <time>2021-09-02T09:51:58.000Z</time>
      </trkpt>
      <trkpt lat="47.37423" lon="-2.33759">
        <ele>-14.60000038147</ele>
        <time>2021-09-02T09:52:01.000Z</time>
      </trkpt>
      <trkpt lat="47.37409" lon="-2.33765">
        <ele>-14.60000038147</ele>
        <time>2021-09-02T09:52:04.000Z</time>
      </trkpt>
      <trkpt lat="47.37372" lon="-2.33782">
        <ele>-14.60000038147</ele>
        <time>2021-09-02T09:52:11.000Z</time>
      </trkpt>
      <trkpt lat="47.37323" lon="-2.33802">
        <ele>-14.60000038147</ele>
        <time>2021-09-02T09:52:20.000Z</time>
      </trkpt>
      <trkpt lat="47.37281" lon="-2.33815">
        <ele>-14.60000038147</ele>
        <time>2021-09-02T09:52:28.000Z</time>
      </trkpt>
      <trkpt lat="47.37246" lon="-2.33821">
        <ele>-14.60000038147</ele>
        <time>2021-09-02T09:52:35.000Z</time>
      </trkpt>
      <trkpt lat="47.37228" lon="-2.3382">
        <ele>-14.60000038147</ele>
        <time>2021-09-02T09:52:39.000Z</time>
      </trkpt>
      <trkpt lat="47.3722" lon="-2.33819">
        <ele>-14.60000038147</ele>
        <time>2021-09-02T09:52:41.000Z</time>
      </trkpt>
      <trkpt lat="47.37201" lon="-2.33818">
        <ele>-14.60000038147</ele>
        <time>2021-09-02T09:52:46.000Z</time>
      </trkpt>
      <trkpt lat="47.37197" lon="-2.33819">
        <ele>-14.60000038147</ele>
        <time>2021-09-02T09:52:47.000Z</time>
      </trkpt>
      <trkpt lat="47.3717" lon="-2.33825">
        <ele>-14.60000038147</ele>
        <time>2021-09-02T09:52:52.000Z</time>
      </trkpt>
      <trkpt lat="47.37133" lon="-2.3383">
        <ele>-14.60000038147</ele>
        <time>2021-09-02T09:52:58.000Z</time>
      </trkpt>
      <trkpt lat="47.37122" lon="-2.33831">
        <ele>-14.60000038147</ele>
        <time>2021-09-02T09:53:00.000Z</time>
      </trkpt>
      <trkpt lat="47.37106" lon="-2.33834">
        <ele>-14.60000038147</ele>
        <time>2021-09-02T09:53:03.000Z</time>
      </trkpt>
      <trkpt lat="47.37069" lon="-2.3384">
        <ele>-14.60000038147</ele>
        <time>2021-09-02T09:53:10.000Z</time>
      </trkpt>
      <trkpt lat="47.37031" lon="-2.33848">
        <ele>-14.60000038147</ele>
        <time>2021-09-02T09:53:17.000Z</time>
      </trkpt>
      <trkpt lat="47.36985" lon="-2.33863">
        <ele>-14.60000038147</ele>
        <time>2021-09-02T09:53:26.000Z</time>
      </trkpt>
      <trkpt lat="47.36948" lon="-2.33865">
        <ele>-14.60000038147</ele>
        <time>2021-09-02T09:53:33.000Z</time>
      </trkpt>
      <trkpt lat="47.36907" lon="-2.33858">
        <ele>-14.60000038147</ele>
        <time>2021-09-02T09:53:41.000Z</time>
      </trkpt>
      <trkpt lat="47.36866" lon="-2.33849">
        <ele>-14.60000038147</ele>
        <time>2021-09-02T09:53:48.000Z</time>
      </trkpt>
      <trkpt lat="47.36824" lon="-2.3384">
        <ele>-14.60000038147</ele>
        <time>2021-09-02T09:53:55.000Z</time>
      </trkpt>
      <trkpt lat="47.36783" lon="-2.33832">
        <ele>-14.60000038147</ele>
        <time>2021-09-02T09:54:02.000Z</time>
      </trkpt>
      <trkpt lat="47.36742" lon="-2.33826">
        <ele>-14.60000038147</ele>
        <time>2021-09-02T09:54:09.000Z</time>
      </trkpt>
      <trkpt lat="47.36695" lon="-2.33819">
        <ele>-14.60000038147</ele>
        <time>2021-09-02T09:54:18.000Z</time>
      </trkpt>
      <trkpt lat="47.36664" lon="-2.33817">
        <ele>-14.60000038147</ele>
        <time>2021-09-02T09:54:24.000Z</time>
      </trkpt>
      <trkpt lat="47.36635" lon="-2.33821">
        <ele>-14.60000038147</ele>
        <time>2021-09-02T09:54:30.000Z</time>
      </trkpt>
      <trkpt lat="47.36621" lon="-2.3383">
        <ele>-14.60000038147</ele>
        <time>2021-09-02T09:54:34.000Z</time>
      </trkpt>
      <trkpt lat="47.36618" lon="-2.33845">
        <ele>-14.60000038147</ele>
        <time>2021-09-02T09:54:37.000Z</time>
      </trkpt>
      <trkpt lat="47.36621" lon="-2.33887">
        <ele>-14.60000038147</ele>
        <time>2021-09-02T09:54:43.000Z</time>
      </trkpt>
      <trkpt lat="47.36624" lon="-2.33931">
        <ele>-14.60000038147</ele>
        <time>2021-09-02T09:54:50.000Z</time>
      </trkpt>
      <trkpt lat="47.36626" lon="-2.33976">
        <ele>-14.60000038147</ele>
        <time>2021-09-02T09:54:57.000Z</time>
      </trkpt>
      <trkpt lat="47.36627" lon="-2.33987">
        <ele>-14.199999809265</ele>
        <time>2021-09-02T09:54:59.000Z</time>
      </trkpt>
      <trkpt lat="47.36627" lon="-2.33993">
        <ele>-13.199999809265</ele>
        <time>2021-09-02T09:55:00.000Z</time>
      </trkpt>
      <trkpt lat="47.36627" lon="-2.33998">
        <ele>-12.800000190735</ele>
        <time>2021-09-02T09:55:01.000Z</time>
      </trkpt>
      <trkpt lat="47.36627" lon="-2.34003">
        <ele>-12.39999961853</ele>
        <time>2021-09-02T09:55:02.000Z</time>
      </trkpt>
      <trkpt lat="47.36628" lon="-2.34012">
        <ele>-12.39999961853</ele>
        <time>2021-09-02T09:55:04.000Z</time>
      </trkpt>
      <trkpt lat="47.36631" lon="-2.34033">
        <ele>-12.39999961853</ele>
        <time>2021-09-02T09:55:10.000Z</time>
      </trkpt>
      <trkpt lat="47.36641" lon="-2.34056">
        <ele>-12.39999961853</ele>
        <time>2021-09-02T09:55:16.000Z</time>
      </trkpt>
      <trkpt lat="47.3666" lon="-2.34085">
        <ele>-12.39999961853</ele>
        <time>2021-09-02T09:55:23.000Z</time>
      </trkpt>
      <trkpt lat="47.36663" lon="-2.34089">
        <ele>-12.39999961853</ele>
        <time>2021-09-02T09:55:24.000Z</time>
      </trkpt>
      <trkpt lat="47.36682" lon="-2.34102">
        <ele>-12.39999961853</ele>
        <time>2021-09-02T09:55:28.000Z</time>
      </trkpt>
      <trkpt lat="47.36697" lon="-2.34114">
        <ele>-12.39999961853</ele>
        <time>2021-09-02T09:55:31.000Z</time>
      </trkpt>
      <trkpt lat="47.36701" lon="-2.3412">
        <ele>-12.800000190735</ele>
        <time>2021-09-02T09:55:32.000Z</time>
      </trkpt>
      <trkpt lat="47.36704" lon="-2.34127">
        <ele>-13.39999961853</ele>
        <time>2021-09-02T09:55:33.000Z</time>
      </trkpt>
      <trkpt lat="47.36706" lon="-2.34134">
        <ele>-13.800000190735</ele>
        <time>2021-09-02T09:55:34.000Z</time>
      </trkpt>
      <trkpt lat="47.36707" lon="-2.34141">
        <ele>-14.199999809265</ele>
        <time>2021-09-02T09:55:35.000Z</time>
      </trkpt>
      <trkpt lat="47.36709" lon="-2.34148">
        <ele>-14.60000038147</ele>
        <time>2021-09-02T09:55:36.000Z</time>
      </trkpt>
      <trkpt lat="47.3671" lon="-2.34155">
        <ele>-14.60000038147</ele>
        <time>2021-09-02T09:55:37.000Z</time>
      </trkpt>
      <trkpt lat="47.36718" lon="-2.34201">
        <ele>-14.60000038147</ele>
        <time>2021-09-02T09:55:45.000Z</time>
      </trkpt>
      <trkpt lat="47.36721" lon="-2.34211">
        <ele>-14.60000038147</ele>
        <time>2021-09-02T09:55:49.000Z</time>
      </trkpt>
      <trkpt lat="47.36723" lon="-2.34215">
        <ele>-14.60000038147</ele>
        <time>2021-09-02T09:55:53.000Z</time>
      </trkpt>
      <trkpt lat="47.36725" lon="-2.34216">
        <ele>-14.60000038147</ele>
        <time>2021-09-02T09:56:55.000Z</time>
      </trkpt>
      <trkpt lat="47.36738" lon="-2.34224">
        <ele>-14.60000038147</ele>
        <time>2021-09-02T09:57:01.000Z</time>
      </trkpt>
      <trkpt lat="47.36744" lon="-2.34234">
        <ele>-14.60000038147</ele>
        <time>2021-09-02T09:57:05.000Z</time>
      </trkpt>
      <trkpt lat="47.36751" lon="-2.3426">
        <ele>-14.60000038147</ele>
        <time>2021-09-02T09:57:10.000Z</time>
      </trkpt>
      <trkpt lat="47.36762" lon="-2.34305">
        <ele>-14.199999809265</ele>
        <time>2021-09-02T09:57:17.000Z</time>
      </trkpt>
      <trkpt lat="47.36764" lon="-2.34312">
        <ele>-13.800000190735</ele>
        <time>2021-09-02T09:57:18.000Z</time>
      </trkpt>
      <trkpt lat="47.36765" lon="-2.34319">
        <ele>-13.39999961853</ele>
        <time>2021-09-02T09:57:19.000Z</time>
      </trkpt>
      <trkpt lat="47.36767" lon="-2.34326">
        <ele>-13</ele>
        <time>2021-09-02T09:57:20.000Z</time>
      </trkpt>
      <trkpt lat="47.36768" lon="-2.34332">
        <ele>-12.60000038147</ele>
        <time>2021-09-02T09:57:21.000Z</time>
      </trkpt>
      <trkpt lat="47.36777" lon="-2.34365">
        <ele>-12.60000038147</ele>
        <time>2021-09-02T09:57:26.000Z</time>
      </trkpt>
      <trkpt lat="47.36793" lon="-2.34406">
        <ele>-12.60000038147</ele>
        <time>2021-09-02T09:57:32.000Z</time>
      </trkpt>
      <trkpt lat="47.36826" lon="-2.34479">
        <ele>-12.60000038147</ele>
        <time>2021-09-02T09:57:42.000Z</time>
      </trkpt>
      <trkpt lat="47.36844" lon="-2.34523">
        <ele>-13</ele>
        <time>2021-09-02T09:57:48.000Z</time>
      </trkpt>
      <trkpt lat="47.36847" lon="-2.34529">
        <ele>-13.39999961853</ele>
        <time>2021-09-02T09:57:49.000Z</time>
      </trkpt>
      <trkpt lat="47.3685" lon="-2.34535">
        <ele>-13.800000190735</ele>
        <time>2021-09-02T09:57:50.000Z</time>
      </trkpt>
      <trkpt lat="47.36852" lon="-2.3454">
        <ele>-14.199999809265</ele>
        <time>2021-09-02T09:57:51.000Z</time>
      </trkpt>
      <trkpt lat="47.36855" lon="-2.34546">
        <ele>-14.800000190735</ele>
        <time>2021-09-02T09:57:52.000Z</time>
      </trkpt>
      <trkpt lat="47.36867" lon="-2.34575">
        <ele>-14.800000190735</ele>
        <time>2021-09-02T09:57:57.000Z</time>
      </trkpt>
      <trkpt lat="47.36889" lon="-2.34624">
        <ele>-14.800000190735</ele>
        <time>2021-09-02T09:58:05.000Z</time>
      </trkpt>
      <trkpt lat="47.36903" lon="-2.34658">
        <ele>-15.199999809265</ele>
        <time>2021-09-02T09:58:10.000Z</time>
      </trkpt>
      <trkpt lat="47.36907" lon="-2.34665">
        <ele>-15.60000038147</ele>
        <time>2021-09-02T09:58:11.000Z</time>
      </trkpt>
      <trkpt lat="47.3691" lon="-2.34673">
        <ele>-16</ele>
        <time>2021-09-02T09:58:12.000Z</time>
      </trkpt>
      <trkpt lat="47.36913" lon="-2.34681">
        <ele>-16.39999961853</ele>
        <time>2021-09-02T09:58:13.000Z</time>
      </trkpt>
      <trkpt lat="47.36916" lon="-2.34689">
        <ele>-17</ele>
        <time>2021-09-02T09:58:14.000Z</time>
      </trkpt>
      <trkpt lat="47.36926" lon="-2.34725">
        <ele>-17.39999961853</ele>
        <time>2021-09-02T09:58:18.000Z</time>
      </trkpt>
      <trkpt lat="47.36927" lon="-2.34733">
        <ele>-17.799999237061</ele>
        <time>2021-09-02T09:58:19.000Z</time>
      </trkpt>
      <trkpt lat="47.36927" lon="-2.34739">
        <ele>-18.200000762939</ele>
        <time>2021-09-02T09:58:20.000Z</time>
      </trkpt>
      <trkpt lat="47.36925" lon="-2.34744">
        <ele>-18.60000038147</ele>
        <time>2021-09-02T09:58:21.000Z</time>
      </trkpt>
      <trkpt lat="47.36922" lon="-2.34747">
        <ele>-19</ele>
        <time>2021-09-02T09:58:22.000Z</time>
      </trkpt>
      <trkpt lat="47.36914" lon="-2.3475">
        <ele>-19</ele>
        <time>2021-09-02T09:58:24.000Z</time>
      </trkpt>
      <trkpt lat="47.36906" lon="-2.34752">
        <ele>-19</ele>
        <time>2021-09-02T09:58:26.000Z</time>
      </trkpt>
      <trkpt lat="47.36889" lon="-2.34757">
        <ele>-19</ele>
        <time>2021-09-02T09:58:30.000Z</time>
      </trkpt>
      <trkpt lat="47.3686" lon="-2.34765">
        <ele>-19</ele>
        <time>2021-09-02T09:58:37.000Z</time>
      </trkpt>
      <trkpt lat="47.3683" lon="-2.3477">
        <ele>-19</ele>
        <time>2021-09-02T09:58:43.000Z</time>
      </trkpt>
      <trkpt lat="47.36812" lon="-2.34772">
        <ele>-19</ele>
        <time>2021-09-02T09:58:47.000Z</time>
      </trkpt>
      <trkpt lat="47.36804" lon="-2.34771">
        <ele>-19</ele>
        <time>2021-09-02T09:58:49.000Z</time>
      </trkpt>
      <trkpt lat="47.36789" lon="-2.34769">
        <ele>-19</ele>
        <time>2021-09-02T09:58:52.000Z</time>
      </trkpt>
      <trkpt lat="47.36756" lon="-2.34762">
        <ele>-19</ele>
        <time>2021-09-02T09:58:59.000Z</time>
      </trkpt>
      <trkpt lat="47.36722" lon="-2.34746">
        <ele>-19</ele>
        <time>2021-09-02T09:59:06.000Z</time>
      </trkpt>
      <trkpt lat="47.36685" lon="-2.34725">
        <ele>-19</ele>
        <time>2021-09-02T09:59:13.000Z</time>
      </trkpt>
      <trkpt lat="47.36648" lon="-2.34696">
        <ele>-19</ele>
        <time>2021-09-02T09:59:20.000Z</time>
      </trkpt>
      <trkpt lat="47.3663" lon="-2.34677">
        <ele>-18.60000038147</ele>
        <time>2021-09-02T09:59:24.000Z</time>
      </trkpt>
      <trkpt lat="47.36626" lon="-2.34671">
        <ele>-18.200000762939</ele>
        <time>2021-09-02T09:59:25.000Z</time>
      </trkpt>
      <trkpt lat="47.36621" lon="-2.34666">
        <ele>-17.799999237061</ele>
        <time>2021-09-02T09:59:26.000Z</time>
      </trkpt>
      <trkpt lat="47.36617" lon="-2.34661">
        <ele>-17.39999961853</ele>
        <time>2021-09-02T09:59:27.000Z</time>
      </trkpt>
      <trkpt lat="47.36612" lon="-2.34655">
        <ele>-17</ele>
        <time>2021-09-02T09:59:28.000Z</time>
      </trkpt>
      <trkpt lat="47.36593" lon="-2.34635">
        <ele>-17</ele>
        <time>2021-09-02T09:59:32.000Z</time>
      </trkpt>
      <trkpt lat="47.3656" lon="-2.346">
        <ele>-17</ele>
        <time>2021-09-02T09:59:39.000Z</time>
      </trkpt>
      <trkpt lat="47.36546" lon="-2.34588">
        <ele>-17</ele>
        <time>2021-09-02T09:59:42.000Z</time>
      </trkpt>
      <trkpt lat="47.3653" lon="-2.34583">
        <ele>-17</ele>
        <time>2021-09-02T09:59:45.000Z</time>
      </trkpt>
      <trkpt lat="47.36508" lon="-2.34591">
        <ele>-17</ele>
        <time>2021-09-02T09:59:49.000Z</time>
      </trkpt>
      <trkpt lat="47.36494" lon="-2.34604">
        <ele>-17</ele>
        <time>2021-09-02T09:59:52.000Z</time>
      </trkpt>
      <trkpt lat="47.36489" lon="-2.34609">
        <ele>-17</ele>
        <time>2021-09-02T09:59:53.000Z</time>
      </trkpt>
      <trkpt lat="47.36463" lon="-2.34635">
        <ele>-16.60000038147</ele>
        <time>2021-09-02T09:59:59.000Z</time>
      </trkpt>
      <trkpt lat="47.36459" lon="-2.34639">
        <ele>-16.200000762939</ele>
        <time>2021-09-02T10:00:00.000Z</time>
      </trkpt>
      <trkpt lat="47.36455" lon="-2.34643">
        <ele>-15.800000190735</ele>
        <time>2021-09-02T10:00:01.000Z</time>
      </trkpt>
      <trkpt lat="47.36451" lon="-2.34646">
        <ele>-15.199999809265</ele>
        <time>2021-09-02T10:00:02.000Z</time>
      </trkpt>
      <trkpt lat="47.36446" lon="-2.3465">
        <ele>-14.800000190735</ele>
        <time>2021-09-02T10:00:03.000Z</time>
      </trkpt>
      <trkpt lat="47.36431" lon="-2.34666">
        <ele>-14.800000190735</ele>
        <time>2021-09-02T10:00:07.000Z</time>
      </trkpt>
      <trkpt lat="47.36422" lon="-2.34677">
        <ele>-14.800000190735</ele>
        <time>2021-09-02T10:00:10.000Z</time>
      </trkpt>
      <trkpt lat="47.36422" lon="-2.34682">
        <ele>-14.800000190735</ele>
        <time>2021-09-02T10:00:11.000Z</time>
      </trkpt>
      <trkpt lat="47.36424" lon="-2.34707">
        <ele>-14.800000190735</ele>
        <time>2021-09-02T10:00:16.000Z</time>
      </trkpt>
      <trkpt lat="47.36431" lon="-2.34748">
        <ele>-14.800000190735</ele>
        <time>2021-09-02T10:00:23.000Z</time>
      </trkpt>
      <trkpt lat="47.36433" lon="-2.3476">
        <ele>-14.800000190735</ele>
        <time>2021-09-02T10:00:25.000Z</time>
      </trkpt>
      <trkpt lat="47.36435" lon="-2.34779">
        <ele>-14.800000190735</ele>
        <time>2021-09-02T10:00:28.000Z</time>
      </trkpt>
      <trkpt lat="47.36439" lon="-2.34815">
        <ele>-14.800000190735</ele>
        <time>2021-09-02T10:00:34.000Z</time>
      </trkpt>
      <trkpt lat="47.36443" lon="-2.3484">
        <ele>-14.800000190735</ele>
        <time>2021-09-02T10:00:39.000Z</time>
      </trkpt>
      <trkpt lat="47.36448" lon="-2.34869">
        <ele>-14.800000190735</ele>
        <time>2021-09-02T10:00:47.000Z</time>
      </trkpt>
      <trkpt lat="47.36449" lon="-2.34882">
        <ele>-15.39999961853</ele>
        <time>2021-09-02T10:00:50.000Z</time>
      </trkpt>
      <trkpt lat="47.36449" lon="-2.34885">
        <ele>-15.800000190735</ele>
        <time>2021-09-02T10:00:51.000Z</time>
      </trkpt>
      <trkpt lat="47.36448" lon="-2.34888">
        <ele>-16.200000762939</ele>
        <time>2021-09-02T10:00:52.000Z</time>
      </trkpt>
      <trkpt lat="47.36446" lon="-2.34891">
        <ele>-16.60000038147</ele>
        <time>2021-09-02T10:00:53.000Z</time>
      </trkpt>
      <trkpt lat="47.36444" lon="-2.34893">
        <ele>-17</ele>
        <time>2021-09-02T10:00:54.000Z</time>
      </trkpt>
      <trkpt lat="47.3644" lon="-2.34896">
        <ele>-17</ele>
        <time>2021-09-02T10:00:56.000Z</time>
      </trkpt>
      <trkpt lat="47.36438" lon="-2.34899">
        <ele>-17</ele>
        <time>2021-09-02T10:00:58.000Z</time>
      </trkpt>
      <trkpt lat="47.36431" lon="-2.34904">
        <ele>-17</ele>
        <time>2021-09-02T10:01:03.000Z</time>
      </trkpt>
      <trkpt lat="47.3642" lon="-2.34912">
        <ele>-17</ele>
        <time>2021-09-02T10:01:10.000Z</time>
      </trkpt>
      <trkpt lat="47.36413" lon="-2.34917">
        <ele>-17</ele>
        <time>2021-09-02T10:01:17.000Z</time>
      </trkpt>
      <trkpt lat="47.36407" lon="-2.34919">
        <ele>-17</ele>
        <time>2021-09-02T10:01:24.000Z</time>
      </trkpt>
      <trkpt lat="47.36398" lon="-2.34925">
        <ele>-17</ele>
        <time>2021-09-02T10:01:30.000Z</time>
      </trkpt>
      <trkpt lat="47.36387" lon="-2.34929">
        <ele>-17</ele>
        <time>2021-09-02T10:01:36.000Z</time>
      </trkpt>
      <trkpt lat="47.36384" lon="-2.34934">
        <ele>-17</ele>
        <time>2021-09-02T10:01:38.000Z</time>
      </trkpt>
      <trkpt lat="47.36379" lon="-2.34942">
        <ele>-17</ele>
        <time>2021-09-02T10:01:42.000Z</time>
      </trkpt>
      <trkpt lat="47.36366" lon="-2.34954">
        <ele>-17</ele>
        <time>2021-09-02T10:01:51.000Z</time>
      </trkpt>
      <trkpt lat="47.36363" lon="-2.34958">
        <ele>-17.39999961853</ele>
        <time>2021-09-02T10:01:53.000Z</time>
      </trkpt>
      <trkpt lat="47.36361" lon="-2.3496">
        <ele>-17.799999237061</ele>
        <time>2021-09-02T10:01:54.000Z</time>
      </trkpt>
      <trkpt lat="47.36359" lon="-2.34961">
        <ele>-18.200000762939</ele>
        <time>2021-09-02T10:01:55.000Z</time>
      </trkpt>
      <trkpt lat="47.36358" lon="-2.34963">
        <ele>-18.60000038147</ele>
        <time>2021-09-02T10:01:56.000Z</time>
      </trkpt>
      <trkpt lat="47.36356" lon="-2.34965">
        <ele>-19</ele>
        <time>2021-09-02T10:01:57.000Z</time>
      </trkpt>
      <trkpt lat="47.36352" lon="-2.34976">
        <ele>-19</ele>
        <time>2021-09-02T10:02:02.000Z</time>
      </trkpt>
      <trkpt lat="47.36352" lon="-2.34979">
        <ele>-19</ele>
        <time>2021-09-02T10:02:03.000Z</time>
      </trkpt>
      <trkpt lat="47.36358" lon="-2.34988">
        <ele>-19</ele>
        <time>2021-09-02T10:02:08.000Z</time>
      </trkpt>
      <trkpt lat="47.3636" lon="-2.34993">
        <ele>-19</ele>
        <time>2021-09-02T10:02:10.000Z</time>
      </trkpt>
      <trkpt lat="47.36367" lon="-2.35006">
        <ele>-19</ele>
        <time>2021-09-02T10:02:14.000Z</time>
      </trkpt>
      <trkpt lat="47.36374" lon="-2.35025">
        <ele>-19</ele>
        <time>2021-09-02T10:02:19.000Z</time>
      </trkpt>
      <trkpt lat="47.36369" lon="-2.35047">
        <ele>-19</ele>
        <time>2021-09-02T10:02:25.000Z</time>
      </trkpt>
      <trkpt lat="47.36363" lon="-2.35057">
        <ele>-19</ele>
        <time>2021-09-02T10:02:30.000Z</time>
      </trkpt>
      <trkpt lat="47.36362" lon="-2.35058">
        <ele>-19</ele>
        <time>2021-09-02T10:02:32.000Z</time>
      </trkpt>
    </trkseg>
  </trk>
</gpx>